<?xml version="1.0" encoding="UTF-8" standalone="no" ?>
<gpx xmlns="http://www.topografix.com/GPX/1/1" xmlns:xsi="http://www.w3.org/2001/XMLSchema-instance" xsi:schemaLocation="http://www.topografix.com/GPX/1/1 http://www.topografix.com/GPX/1/1/gpx.xsd" version="1.1" creator="VisuGPX - https://www.visugpx.com">
  <metadata>
    <name>Briis St Chéron</name>
  </metadata>
  <trk>
    <name><![CDATA[Briis St Chéron_1]]></name>
    <trkseg>
      <trkpt lat="48.61487" lon="2.10802">
        <ele>103</ele>
        <time>2022-12-25T13:08:51Z</time>
      </trkpt>
      <trkpt lat="48.61488" lon="2.10799">
        <ele>103</ele>
        <time>2022-12-25T13:08:53Z</time>
      </trkpt>
      <trkpt lat="48.61489" lon="2.10796">
        <ele>103</ele>
        <time>2022-12-25T13:08:54Z</time>
      </trkpt>
      <trkpt lat="48.6149" lon="2.10792">
        <ele>103</ele>
        <time>2022-12-25T13:08:56Z</time>
      </trkpt>
      <trkpt lat="48.61491" lon="2.10788">
        <ele>103</ele>
        <time>2022-12-25T13:08:58Z</time>
      </trkpt>
      <trkpt lat="48.61493" lon="2.10785">
        <ele>103</ele>
        <time>2022-12-25T13:09:00Z</time>
      </trkpt>
      <trkpt lat="48.61495" lon="2.10781">
        <ele>103</ele>
        <time>2022-12-25T13:09:02Z</time>
      </trkpt>
      <trkpt lat="48.61495" lon="2.10777">
        <ele>103</ele>
        <time>2022-12-25T13:09:04Z</time>
      </trkpt>
      <trkpt lat="48.61496" lon="2.10774">
        <ele>102</ele>
        <time>2022-12-25T13:09:06Z</time>
      </trkpt>
      <trkpt lat="48.61497" lon="2.1077">
        <ele>102</ele>
        <time>2022-12-25T13:09:08Z</time>
      </trkpt>
      <trkpt lat="48.61498" lon="2.10766">
        <ele>102</ele>
        <time>2022-12-25T13:09:10Z</time>
      </trkpt>
      <trkpt lat="48.61499" lon="2.10762">
        <ele>102</ele>
        <time>2022-12-25T13:09:12Z</time>
      </trkpt>
      <trkpt lat="48.615" lon="2.10758">
        <ele>102</ele>
        <time>2022-12-25T13:09:14Z</time>
      </trkpt>
      <trkpt lat="48.61501" lon="2.10754">
        <ele>102</ele>
        <time>2022-12-25T13:09:16Z</time>
      </trkpt>
      <trkpt lat="48.61503" lon="2.1075">
        <ele>102</ele>
        <time>2022-12-25T13:09:18Z</time>
      </trkpt>
      <trkpt lat="48.61504" lon="2.10747">
        <ele>102</ele>
        <time>2022-12-25T13:09:20Z</time>
      </trkpt>
      <trkpt lat="48.61505" lon="2.10743">
        <ele>102</ele>
        <time>2022-12-25T13:09:22Z</time>
      </trkpt>
      <trkpt lat="48.61506" lon="2.1074">
        <ele>102</ele>
        <time>2022-12-25T13:09:24Z</time>
      </trkpt>
      <trkpt lat="48.61507" lon="2.10736">
        <ele>102</ele>
        <time>2022-12-25T13:09:26Z</time>
      </trkpt>
      <trkpt lat="48.61508" lon="2.10732">
        <ele>102</ele>
        <time>2022-12-25T13:09:29Z</time>
      </trkpt>
      <trkpt lat="48.61508" lon="2.10728">
        <ele>102</ele>
        <time>2022-12-25T13:09:30Z</time>
      </trkpt>
      <trkpt lat="48.61509" lon="2.10724">
        <ele>102</ele>
        <time>2022-12-25T13:09:32Z</time>
      </trkpt>
      <trkpt lat="48.6151" lon="2.1072">
        <ele>102</ele>
        <time>2022-12-25T13:09:34Z</time>
      </trkpt>
      <trkpt lat="48.6151" lon="2.10717">
        <ele>102</ele>
        <time>2022-12-25T13:09:36Z</time>
      </trkpt>
      <trkpt lat="48.6151" lon="2.10715">
        <ele>102</ele>
        <time>2022-12-25T13:09:38Z</time>
      </trkpt>
      <trkpt lat="48.6151" lon="2.10711">
        <ele>102</ele>
        <time>2022-12-25T13:09:40Z</time>
      </trkpt>
      <trkpt lat="48.61508" lon="2.10708">
        <ele>102</ele>
        <time>2022-12-25T13:09:42Z</time>
      </trkpt>
      <trkpt lat="48.61506" lon="2.10706">
        <ele>102</ele>
        <time>2022-12-25T13:09:44Z</time>
      </trkpt>
      <trkpt lat="48.61503" lon="2.10705">
        <ele>102</ele>
        <time>2022-12-25T13:09:46Z</time>
      </trkpt>
      <trkpt lat="48.61501" lon="2.10703">
        <ele>102</ele>
        <time>2022-12-25T13:09:48Z</time>
      </trkpt>
      <trkpt lat="48.61498" lon="2.10703">
        <ele>102</ele>
        <time>2022-12-25T13:09:50Z</time>
      </trkpt>
      <trkpt lat="48.61495" lon="2.10701">
        <ele>103</ele>
        <time>2022-12-25T13:09:52Z</time>
      </trkpt>
      <trkpt lat="48.61492" lon="2.107">
        <ele>103</ele>
        <time>2022-12-25T13:09:54Z</time>
      </trkpt>
      <trkpt lat="48.6149" lon="2.10699">
        <ele>103</ele>
        <time>2022-12-25T13:09:56Z</time>
      </trkpt>
      <trkpt lat="48.61487" lon="2.10697">
        <ele>103</ele>
        <time>2022-12-25T13:09:58Z</time>
      </trkpt>
      <trkpt lat="48.61484" lon="2.10696">
        <ele>103</ele>
        <time>2022-12-25T13:10:00Z</time>
      </trkpt>
      <trkpt lat="48.61482" lon="2.10693">
        <ele>103</ele>
        <time>2022-12-25T13:10:02Z</time>
      </trkpt>
      <trkpt lat="48.6148" lon="2.10691">
        <ele>103</ele>
        <time>2022-12-25T13:10:04Z</time>
      </trkpt>
      <trkpt lat="48.61478" lon="2.10688">
        <ele>103</ele>
        <time>2022-12-25T13:10:07Z</time>
      </trkpt>
      <trkpt lat="48.61476" lon="2.10686">
        <ele>103</ele>
        <time>2022-12-25T13:10:08Z</time>
      </trkpt>
      <trkpt lat="48.61473" lon="2.10683">
        <ele>103</ele>
        <time>2022-12-25T13:10:10Z</time>
      </trkpt>
      <trkpt lat="48.61471" lon="2.10681">
        <ele>103</ele>
        <time>2022-12-25T13:10:12Z</time>
      </trkpt>
      <trkpt lat="48.61469" lon="2.10678">
        <ele>103</ele>
        <time>2022-12-25T13:10:14Z</time>
      </trkpt>
      <trkpt lat="48.61467" lon="2.10675">
        <ele>102</ele>
        <time>2022-12-25T13:10:16Z</time>
      </trkpt>
      <trkpt lat="48.61466" lon="2.10672">
        <ele>102</ele>
        <time>2022-12-25T13:10:18Z</time>
      </trkpt>
      <trkpt lat="48.61464" lon="2.10669">
        <ele>102</ele>
        <time>2022-12-25T13:10:20Z</time>
      </trkpt>
      <trkpt lat="48.61461" lon="2.10667">
        <ele>102</ele>
        <time>2022-12-25T13:10:22Z</time>
      </trkpt>
      <trkpt lat="48.61459" lon="2.10664">
        <ele>102</ele>
        <time>2022-12-25T13:10:24Z</time>
      </trkpt>
      <trkpt lat="48.61457" lon="2.10661">
        <ele>102</ele>
        <time>2022-12-25T13:10:26Z</time>
      </trkpt>
      <trkpt lat="48.61456" lon="2.10659">
        <ele>102</ele>
        <time>2022-12-25T13:10:28Z</time>
      </trkpt>
      <trkpt lat="48.61454" lon="2.10656">
        <ele>102</ele>
        <time>2022-12-25T13:10:30Z</time>
      </trkpt>
      <trkpt lat="48.61452" lon="2.10654">
        <ele>102</ele>
        <time>2022-12-25T13:10:32Z</time>
      </trkpt>
      <trkpt lat="48.61451" lon="2.10651">
        <ele>102</ele>
        <time>2022-12-25T13:10:34Z</time>
      </trkpt>
      <trkpt lat="48.61449" lon="2.10648">
        <ele>102</ele>
        <time>2022-12-25T13:10:36Z</time>
      </trkpt>
      <trkpt lat="48.61447" lon="2.10645">
        <ele>102</ele>
        <time>2022-12-25T13:10:38Z</time>
      </trkpt>
      <trkpt lat="48.61445" lon="2.10642">
        <ele>102</ele>
        <time>2022-12-25T13:10:40Z</time>
      </trkpt>
      <trkpt lat="48.61443" lon="2.10639">
        <ele>102</ele>
        <time>2022-12-25T13:10:42Z</time>
      </trkpt>
      <trkpt lat="48.61441" lon="2.10636">
        <ele>102</ele>
        <time>2022-12-25T13:10:44Z</time>
      </trkpt>
      <trkpt lat="48.61439" lon="2.10634">
        <ele>102</ele>
        <time>2022-12-25T13:10:46Z</time>
      </trkpt>
      <trkpt lat="48.61438" lon="2.10631">
        <ele>102</ele>
        <time>2022-12-25T13:10:48Z</time>
      </trkpt>
      <trkpt lat="48.61437" lon="2.10629">
        <ele>102</ele>
        <time>2022-12-25T13:10:50Z</time>
      </trkpt>
      <trkpt lat="48.61435" lon="2.10626">
        <ele>102</ele>
        <time>2022-12-25T13:10:52Z</time>
      </trkpt>
      <trkpt lat="48.61433" lon="2.10624">
        <ele>102</ele>
        <time>2022-12-25T13:10:54Z</time>
      </trkpt>
      <trkpt lat="48.61431" lon="2.10621">
        <ele>102</ele>
        <time>2022-12-25T13:10:56Z</time>
      </trkpt>
      <trkpt lat="48.61429" lon="2.10618">
        <ele>102</ele>
        <time>2022-12-25T13:10:58Z</time>
      </trkpt>
      <trkpt lat="48.61427" lon="2.10615">
        <ele>102</ele>
        <time>2022-12-25T13:11:00Z</time>
      </trkpt>
      <trkpt lat="48.61426" lon="2.10612">
        <ele>102</ele>
        <time>2022-12-25T13:11:02Z</time>
      </trkpt>
      <trkpt lat="48.61424" lon="2.10609">
        <ele>102</ele>
        <time>2022-12-25T13:11:04Z</time>
      </trkpt>
      <trkpt lat="48.61422" lon="2.10607">
        <ele>102</ele>
        <time>2022-12-25T13:11:06Z</time>
      </trkpt>
      <trkpt lat="48.6142" lon="2.10604">
        <ele>102</ele>
        <time>2022-12-25T13:11:08Z</time>
      </trkpt>
      <trkpt lat="48.61418" lon="2.10601">
        <ele>102</ele>
        <time>2022-12-25T13:11:10Z</time>
      </trkpt>
      <trkpt lat="48.61417" lon="2.10598">
        <ele>102</ele>
        <time>2022-12-25T13:11:12Z</time>
      </trkpt>
      <trkpt lat="48.61415" lon="2.10595">
        <ele>102</ele>
        <time>2022-12-25T13:11:14Z</time>
      </trkpt>
      <trkpt lat="48.61413" lon="2.10592">
        <ele>102</ele>
        <time>2022-12-25T13:11:16Z</time>
      </trkpt>
      <trkpt lat="48.61411" lon="2.10589">
        <ele>102</ele>
        <time>2022-12-25T13:11:18Z</time>
      </trkpt>
      <trkpt lat="48.61409" lon="2.10586">
        <ele>102</ele>
        <time>2022-12-25T13:11:20Z</time>
      </trkpt>
      <trkpt lat="48.61408" lon="2.10584">
        <ele>102</ele>
        <time>2022-12-25T13:11:23Z</time>
      </trkpt>
      <trkpt lat="48.61406" lon="2.10581">
        <ele>102</ele>
        <time>2022-12-25T13:11:24Z</time>
      </trkpt>
      <trkpt lat="48.61404" lon="2.10578">
        <ele>102</ele>
        <time>2022-12-25T13:11:26Z</time>
      </trkpt>
      <trkpt lat="48.61402" lon="2.10575">
        <ele>102</ele>
        <time>2022-12-25T13:11:28Z</time>
      </trkpt>
      <trkpt lat="48.614" lon="2.10573">
        <ele>102</ele>
        <time>2022-12-25T13:11:30Z</time>
      </trkpt>
      <trkpt lat="48.61398" lon="2.1057">
        <ele>102</ele>
        <time>2022-12-25T13:11:32Z</time>
      </trkpt>
      <trkpt lat="48.61396" lon="2.10567">
        <ele>102</ele>
        <time>2022-12-25T13:11:34Z</time>
      </trkpt>
      <trkpt lat="48.61394" lon="2.10565">
        <ele>102</ele>
        <time>2022-12-25T13:11:36Z</time>
      </trkpt>
      <trkpt lat="48.61392" lon="2.10563">
        <ele>102</ele>
        <time>2022-12-25T13:11:38Z</time>
      </trkpt>
      <trkpt lat="48.6139" lon="2.10561">
        <ele>102</ele>
        <time>2022-12-25T13:11:40Z</time>
      </trkpt>
      <trkpt lat="48.61388" lon="2.10559">
        <ele>102</ele>
        <time>2022-12-25T13:11:42Z</time>
      </trkpt>
      <trkpt lat="48.61385" lon="2.10557">
        <ele>102</ele>
        <time>2022-12-25T13:11:44Z</time>
      </trkpt>
      <trkpt lat="48.61383" lon="2.10555">
        <ele>102</ele>
        <time>2022-12-25T13:11:46Z</time>
      </trkpt>
      <trkpt lat="48.61381" lon="2.10554">
        <ele>102</ele>
        <time>2022-12-25T13:11:48Z</time>
      </trkpt>
      <trkpt lat="48.61378" lon="2.10552">
        <ele>102</ele>
        <time>2022-12-25T13:11:50Z</time>
      </trkpt>
      <trkpt lat="48.61376" lon="2.1055">
        <ele>102</ele>
        <time>2022-12-25T13:11:52Z</time>
      </trkpt>
      <trkpt lat="48.61373" lon="2.10548">
        <ele>102</ele>
        <time>2022-12-25T13:11:54Z</time>
      </trkpt>
      <trkpt lat="48.61371" lon="2.10547">
        <ele>102</ele>
        <time>2022-12-25T13:11:56Z</time>
      </trkpt>
      <trkpt lat="48.61368" lon="2.10546">
        <ele>102</ele>
        <time>2022-12-25T13:11:58Z</time>
      </trkpt>
      <trkpt lat="48.61365" lon="2.10544">
        <ele>102</ele>
        <time>2022-12-25T13:12:00Z</time>
      </trkpt>
      <trkpt lat="48.61363" lon="2.10543">
        <ele>102</ele>
        <time>2022-12-25T13:12:02Z</time>
      </trkpt>
      <trkpt lat="48.6136" lon="2.10542">
        <ele>103</ele>
        <time>2022-12-25T13:12:04Z</time>
      </trkpt>
      <trkpt lat="48.61357" lon="2.10542">
        <ele>102</ele>
        <time>2022-12-25T13:12:06Z</time>
      </trkpt>
      <trkpt lat="48.61354" lon="2.10541">
        <ele>102</ele>
        <time>2022-12-25T13:12:08Z</time>
      </trkpt>
      <trkpt lat="48.61352" lon="2.1054">
        <ele>103</ele>
        <time>2022-12-25T13:12:10Z</time>
      </trkpt>
      <trkpt lat="48.61349" lon="2.1054">
        <ele>103</ele>
        <time>2022-12-25T13:12:12Z</time>
      </trkpt>
      <trkpt lat="48.61346" lon="2.10539">
        <ele>102</ele>
        <time>2022-12-25T13:12:14Z</time>
      </trkpt>
      <trkpt lat="48.61343" lon="2.10538">
        <ele>102</ele>
        <time>2022-12-25T13:12:16Z</time>
      </trkpt>
      <trkpt lat="48.6134" lon="2.10538">
        <ele>102</ele>
        <time>2022-12-25T13:12:18Z</time>
      </trkpt>
      <trkpt lat="48.61337" lon="2.10538">
        <ele>102</ele>
        <time>2022-12-25T13:12:20Z</time>
      </trkpt>
      <trkpt lat="48.61334" lon="2.10538">
        <ele>102</ele>
        <time>2022-12-25T13:12:22Z</time>
      </trkpt>
      <trkpt lat="48.61332" lon="2.10537">
        <ele>103</ele>
        <time>2022-12-25T13:12:24Z</time>
      </trkpt>
      <trkpt lat="48.61329" lon="2.10536">
        <ele>103</ele>
        <time>2022-12-25T13:12:26Z</time>
      </trkpt>
      <trkpt lat="48.61326" lon="2.10536">
        <ele>103</ele>
        <time>2022-12-25T13:12:28Z</time>
      </trkpt>
      <trkpt lat="48.61323" lon="2.10536">
        <ele>103</ele>
        <time>2022-12-25T13:12:30Z</time>
      </trkpt>
      <trkpt lat="48.61321" lon="2.10535">
        <ele>103</ele>
        <time>2022-12-25T13:12:32Z</time>
      </trkpt>
      <trkpt lat="48.61318" lon="2.10535">
        <ele>103</ele>
        <time>2022-12-25T13:12:34Z</time>
      </trkpt>
      <trkpt lat="48.61316" lon="2.10535">
        <ele>103</ele>
        <time>2022-12-25T13:12:36Z</time>
      </trkpt>
      <trkpt lat="48.61313" lon="2.10536">
        <ele>103</ele>
        <time>2022-12-25T13:12:38Z</time>
      </trkpt>
      <trkpt lat="48.6131" lon="2.10535">
        <ele>103</ele>
        <time>2022-12-25T13:12:40Z</time>
      </trkpt>
      <trkpt lat="48.61308" lon="2.10535">
        <ele>103</ele>
        <time>2022-12-25T13:12:42Z</time>
      </trkpt>
      <trkpt lat="48.61305" lon="2.10534">
        <ele>103</ele>
        <time>2022-12-25T13:12:44Z</time>
      </trkpt>
      <trkpt lat="48.61303" lon="2.10535">
        <ele>103</ele>
        <time>2022-12-25T13:12:46Z</time>
      </trkpt>
      <trkpt lat="48.613" lon="2.10535">
        <ele>103</ele>
        <time>2022-12-25T13:12:48Z</time>
      </trkpt>
      <trkpt lat="48.61297" lon="2.10535">
        <ele>103</ele>
        <time>2022-12-25T13:12:50Z</time>
      </trkpt>
      <trkpt lat="48.61295" lon="2.10535">
        <ele>104</ele>
        <time>2022-12-25T13:12:52Z</time>
      </trkpt>
      <trkpt lat="48.61292" lon="2.10535">
        <ele>104</ele>
        <time>2022-12-25T13:12:54Z</time>
      </trkpt>
      <trkpt lat="48.61289" lon="2.10535">
        <ele>104</ele>
        <time>2022-12-25T13:12:56Z</time>
      </trkpt>
      <trkpt lat="48.61286" lon="2.10534">
        <ele>104</ele>
        <time>2022-12-25T13:12:58Z</time>
      </trkpt>
      <trkpt lat="48.61284" lon="2.10534">
        <ele>104</ele>
        <time>2022-12-25T13:13:00Z</time>
      </trkpt>
      <trkpt lat="48.61281" lon="2.10534">
        <ele>104</ele>
        <time>2022-12-25T13:13:02Z</time>
      </trkpt>
      <trkpt lat="48.61278" lon="2.10534">
        <ele>104</ele>
        <time>2022-12-25T13:13:04Z</time>
      </trkpt>
      <trkpt lat="48.61275" lon="2.10533">
        <ele>104</ele>
        <time>2022-12-25T13:13:06Z</time>
      </trkpt>
      <trkpt lat="48.61272" lon="2.10534">
        <ele>104</ele>
        <time>2022-12-25T13:13:08Z</time>
      </trkpt>
      <trkpt lat="48.61269" lon="2.10533">
        <ele>104</ele>
        <time>2022-12-25T13:13:10Z</time>
      </trkpt>
      <trkpt lat="48.61267" lon="2.10533">
        <ele>104</ele>
        <time>2022-12-25T13:13:12Z</time>
      </trkpt>
      <trkpt lat="48.61265" lon="2.10533">
        <ele>104</ele>
        <time>2022-12-25T13:13:14Z</time>
      </trkpt>
      <trkpt lat="48.61262" lon="2.10532">
        <ele>104</ele>
        <time>2022-12-25T13:13:16Z</time>
      </trkpt>
      <trkpt lat="48.61259" lon="2.10531">
        <ele>104</ele>
        <time>2022-12-25T13:13:18Z</time>
      </trkpt>
      <trkpt lat="48.61256" lon="2.10531">
        <ele>104</ele>
        <time>2022-12-25T13:13:20Z</time>
      </trkpt>
      <trkpt lat="48.61253" lon="2.10531">
        <ele>104</ele>
        <time>2022-12-25T13:13:22Z</time>
      </trkpt>
      <trkpt lat="48.6125" lon="2.1053">
        <ele>104</ele>
        <time>2022-12-25T13:13:24Z</time>
      </trkpt>
      <trkpt lat="48.61248" lon="2.1053">
        <ele>104</ele>
        <time>2022-12-25T13:13:26Z</time>
      </trkpt>
      <trkpt lat="48.61245" lon="2.10529">
        <ele>104</ele>
        <time>2022-12-25T13:13:28Z</time>
      </trkpt>
      <trkpt lat="48.61242" lon="2.10529">
        <ele>104</ele>
        <time>2022-12-25T13:13:30Z</time>
      </trkpt>
      <trkpt lat="48.6124" lon="2.10528">
        <ele>104</ele>
        <time>2022-12-25T13:13:32Z</time>
      </trkpt>
      <trkpt lat="48.61237" lon="2.10528">
        <ele>104</ele>
        <time>2022-12-25T13:13:34Z</time>
      </trkpt>
      <trkpt lat="48.61235" lon="2.10528">
        <ele>104</ele>
        <time>2022-12-25T13:13:36Z</time>
      </trkpt>
      <trkpt lat="48.61232" lon="2.10528">
        <ele>104</ele>
        <time>2022-12-25T13:13:38Z</time>
      </trkpt>
      <trkpt lat="48.61229" lon="2.10527">
        <ele>104</ele>
        <time>2022-12-25T13:13:40Z</time>
      </trkpt>
      <trkpt lat="48.61227" lon="2.10527">
        <ele>104</ele>
        <time>2022-12-25T13:13:42Z</time>
      </trkpt>
      <trkpt lat="48.61224" lon="2.10527">
        <ele>104</ele>
        <time>2022-12-25T13:13:44Z</time>
      </trkpt>
      <trkpt lat="48.61221" lon="2.10526">
        <ele>104</ele>
        <time>2022-12-25T13:13:46Z</time>
      </trkpt>
      <trkpt lat="48.61218" lon="2.10526">
        <ele>104</ele>
        <time>2022-12-25T13:13:48Z</time>
      </trkpt>
      <trkpt lat="48.61216" lon="2.10526">
        <ele>105</ele>
        <time>2022-12-25T13:13:50Z</time>
      </trkpt>
      <trkpt lat="48.61213" lon="2.10526">
        <ele>105</ele>
        <time>2022-12-25T13:13:52Z</time>
      </trkpt>
      <trkpt lat="48.6121" lon="2.10526">
        <ele>105</ele>
        <time>2022-12-25T13:13:55Z</time>
      </trkpt>
      <trkpt lat="48.61208" lon="2.10525">
        <ele>105</ele>
        <time>2022-12-25T13:13:56Z</time>
      </trkpt>
      <trkpt lat="48.61205" lon="2.10525">
        <ele>105</ele>
        <time>2022-12-25T13:13:58Z</time>
      </trkpt>
      <trkpt lat="48.61202" lon="2.10525">
        <ele>105</ele>
        <time>2022-12-25T13:14:00Z</time>
      </trkpt>
      <trkpt lat="48.61199" lon="2.10525">
        <ele>106</ele>
        <time>2022-12-25T13:14:02Z</time>
      </trkpt>
      <trkpt lat="48.61197" lon="2.10525">
        <ele>106</ele>
        <time>2022-12-25T13:14:04Z</time>
      </trkpt>
      <trkpt lat="48.61195" lon="2.10525">
        <ele>106</ele>
        <time>2022-12-25T13:14:06Z</time>
      </trkpt>
      <trkpt lat="48.61192" lon="2.10524">
        <ele>106</ele>
        <time>2022-12-25T13:14:08Z</time>
      </trkpt>
      <trkpt lat="48.61189" lon="2.10524">
        <ele>106</ele>
        <time>2022-12-25T13:14:10Z</time>
      </trkpt>
      <trkpt lat="48.61186" lon="2.10524">
        <ele>106</ele>
        <time>2022-12-25T13:14:12Z</time>
      </trkpt>
      <trkpt lat="48.61183" lon="2.10524">
        <ele>106</ele>
        <time>2022-12-25T13:14:14Z</time>
      </trkpt>
      <trkpt lat="48.61181" lon="2.10523">
        <ele>106</ele>
        <time>2022-12-25T13:14:16Z</time>
      </trkpt>
      <trkpt lat="48.61178" lon="2.10523">
        <ele>107</ele>
        <time>2022-12-25T13:14:18Z</time>
      </trkpt>
      <trkpt lat="48.61176" lon="2.10523">
        <ele>107</ele>
        <time>2022-12-25T13:14:20Z</time>
      </trkpt>
      <trkpt lat="48.61173" lon="2.10523">
        <ele>107</ele>
        <time>2022-12-25T13:14:22Z</time>
      </trkpt>
      <trkpt lat="48.6117" lon="2.10523">
        <ele>107</ele>
        <time>2022-12-25T13:14:24Z</time>
      </trkpt>
      <trkpt lat="48.61167" lon="2.10522">
        <ele>107</ele>
        <time>2022-12-25T13:14:26Z</time>
      </trkpt>
      <trkpt lat="48.61165" lon="2.10522">
        <ele>107</ele>
        <time>2022-12-25T13:14:28Z</time>
      </trkpt>
      <trkpt lat="48.61162" lon="2.10523">
        <ele>107</ele>
        <time>2022-12-25T13:14:30Z</time>
      </trkpt>
      <trkpt lat="48.61159" lon="2.10522">
        <ele>107</ele>
        <time>2022-12-25T13:14:32Z</time>
      </trkpt>
      <trkpt lat="48.61157" lon="2.10522">
        <ele>107</ele>
        <time>2022-12-25T13:14:34Z</time>
      </trkpt>
      <trkpt lat="48.61154" lon="2.10522">
        <ele>107</ele>
        <time>2022-12-25T13:14:36Z</time>
      </trkpt>
      <trkpt lat="48.61152" lon="2.10521">
        <ele>107</ele>
        <time>2022-12-25T13:14:38Z</time>
      </trkpt>
      <trkpt lat="48.61149" lon="2.10521">
        <ele>108</ele>
        <time>2022-12-25T13:14:40Z</time>
      </trkpt>
      <trkpt lat="48.61146" lon="2.1052">
        <ele>108</ele>
        <time>2022-12-25T13:14:42Z</time>
      </trkpt>
      <trkpt lat="48.61144" lon="2.1052">
        <ele>108</ele>
        <time>2022-12-25T13:14:44Z</time>
      </trkpt>
      <trkpt lat="48.61142" lon="2.10519">
        <ele>108</ele>
        <time>2022-12-25T13:14:46Z</time>
      </trkpt>
      <trkpt lat="48.6114" lon="2.10519">
        <ele>108</ele>
        <time>2022-12-25T13:14:48Z</time>
      </trkpt>
      <trkpt lat="48.61137" lon="2.10518">
        <ele>109</ele>
        <time>2022-12-25T13:14:50Z</time>
      </trkpt>
      <trkpt lat="48.61135" lon="2.10518">
        <ele>109</ele>
        <time>2022-12-25T13:14:52Z</time>
      </trkpt>
      <trkpt lat="48.61132" lon="2.10518">
        <ele>109</ele>
        <time>2022-12-25T13:14:54Z</time>
      </trkpt>
      <trkpt lat="48.61129" lon="2.10518">
        <ele>109</ele>
        <time>2022-12-25T13:14:56Z</time>
      </trkpt>
      <trkpt lat="48.61126" lon="2.10518">
        <ele>109</ele>
        <time>2022-12-25T13:14:58Z</time>
      </trkpt>
      <trkpt lat="48.61123" lon="2.10518">
        <ele>109</ele>
        <time>2022-12-25T13:15:00Z</time>
      </trkpt>
      <trkpt lat="48.6112" lon="2.10518">
        <ele>109</ele>
        <time>2022-12-25T13:15:02Z</time>
      </trkpt>
      <trkpt lat="48.61117" lon="2.10518">
        <ele>109</ele>
        <time>2022-12-25T13:15:04Z</time>
      </trkpt>
      <trkpt lat="48.61115" lon="2.10518">
        <ele>110</ele>
        <time>2022-12-25T13:15:06Z</time>
      </trkpt>
      <trkpt lat="48.61112" lon="2.10517">
        <ele>110</ele>
        <time>2022-12-25T13:15:08Z</time>
      </trkpt>
      <trkpt lat="48.6111" lon="2.10517">
        <ele>110</ele>
        <time>2022-12-25T13:15:11Z</time>
      </trkpt>
      <trkpt lat="48.61107" lon="2.10517">
        <ele>110</ele>
        <time>2022-12-25T13:15:12Z</time>
      </trkpt>
      <trkpt lat="48.61105" lon="2.10516">
        <ele>110</ele>
        <time>2022-12-25T13:15:14Z</time>
      </trkpt>
      <trkpt lat="48.61102" lon="2.10516">
        <ele>110</ele>
        <time>2022-12-25T13:15:16Z</time>
      </trkpt>
      <trkpt lat="48.61099" lon="2.10517">
        <ele>110</ele>
        <time>2022-12-25T13:15:18Z</time>
      </trkpt>
      <trkpt lat="48.61097" lon="2.10516">
        <ele>110</ele>
        <time>2022-12-25T13:15:20Z</time>
      </trkpt>
      <trkpt lat="48.61094" lon="2.10516">
        <ele>110</ele>
        <time>2022-12-25T13:15:22Z</time>
      </trkpt>
      <trkpt lat="48.61091" lon="2.10516">
        <ele>110</ele>
        <time>2022-12-25T13:15:24Z</time>
      </trkpt>
      <trkpt lat="48.61088" lon="2.10516">
        <ele>111</ele>
        <time>2022-12-25T13:15:26Z</time>
      </trkpt>
      <trkpt lat="48.61086" lon="2.10516">
        <ele>111</ele>
        <time>2022-12-25T13:15:28Z</time>
      </trkpt>
      <trkpt lat="48.61083" lon="2.10515">
        <ele>111</ele>
        <time>2022-12-25T13:15:30Z</time>
      </trkpt>
      <trkpt lat="48.61081" lon="2.10515">
        <ele>111</ele>
        <time>2022-12-25T13:15:32Z</time>
      </trkpt>
      <trkpt lat="48.61078" lon="2.10515">
        <ele>111</ele>
        <time>2022-12-25T13:15:34Z</time>
      </trkpt>
      <trkpt lat="48.61076" lon="2.10515">
        <ele>111</ele>
        <time>2022-12-25T13:15:36Z</time>
      </trkpt>
      <trkpt lat="48.61073" lon="2.10515">
        <ele>111</ele>
        <time>2022-12-25T13:15:38Z</time>
      </trkpt>
      <trkpt lat="48.6107" lon="2.10514">
        <ele>111</ele>
        <time>2022-12-25T13:15:40Z</time>
      </trkpt>
      <trkpt lat="48.61067" lon="2.10514">
        <ele>111</ele>
        <time>2022-12-25T13:15:42Z</time>
      </trkpt>
      <trkpt lat="48.61065" lon="2.10514">
        <ele>111</ele>
        <time>2022-12-25T13:15:44Z</time>
      </trkpt>
      <trkpt lat="48.61062" lon="2.10513">
        <ele>111</ele>
        <time>2022-12-25T13:15:46Z</time>
      </trkpt>
      <trkpt lat="48.6106" lon="2.10513">
        <ele>112</ele>
        <time>2022-12-25T13:15:49Z</time>
      </trkpt>
      <trkpt lat="48.61057" lon="2.10513">
        <ele>112</ele>
        <time>2022-12-25T13:15:50Z</time>
      </trkpt>
      <trkpt lat="48.61054" lon="2.10513">
        <ele>112</ele>
        <time>2022-12-25T13:15:52Z</time>
      </trkpt>
      <trkpt lat="48.61051" lon="2.10513">
        <ele>112</ele>
        <time>2022-12-25T13:15:54Z</time>
      </trkpt>
      <trkpt lat="48.61048" lon="2.10513">
        <ele>112</ele>
        <time>2022-12-25T13:15:56Z</time>
      </trkpt>
      <trkpt lat="48.61045" lon="2.10512">
        <ele>112</ele>
        <time>2022-12-25T13:15:58Z</time>
      </trkpt>
      <trkpt lat="48.61042" lon="2.10512">
        <ele>112</ele>
        <time>2022-12-25T13:16:00Z</time>
      </trkpt>
      <trkpt lat="48.61039" lon="2.10512">
        <ele>112</ele>
        <time>2022-12-25T13:16:02Z</time>
      </trkpt>
      <trkpt lat="48.61037" lon="2.10512">
        <ele>112</ele>
        <time>2022-12-25T13:16:04Z</time>
      </trkpt>
      <trkpt lat="48.61033" lon="2.10511">
        <ele>112</ele>
        <time>2022-12-25T13:16:08Z</time>
      </trkpt>
      <trkpt lat="48.6103" lon="2.10511">
        <ele>112</ele>
        <time>2022-12-25T13:16:09Z</time>
      </trkpt>
      <trkpt lat="48.61027" lon="2.1051">
        <ele>112</ele>
        <time>2022-12-25T13:16:11Z</time>
      </trkpt>
      <trkpt lat="48.61024" lon="2.1051">
        <ele>112</ele>
        <time>2022-12-25T13:16:13Z</time>
      </trkpt>
      <trkpt lat="48.61022" lon="2.10509">
        <ele>112</ele>
        <time>2022-12-25T13:16:15Z</time>
      </trkpt>
      <trkpt lat="48.61019" lon="2.10509">
        <ele>112</ele>
        <time>2022-12-25T13:16:17Z</time>
      </trkpt>
      <trkpt lat="48.61016" lon="2.10509">
        <ele>112</ele>
        <time>2022-12-25T13:16:19Z</time>
      </trkpt>
      <trkpt lat="48.61013" lon="2.10509">
        <ele>112</ele>
        <time>2022-12-25T13:16:21Z</time>
      </trkpt>
      <trkpt lat="48.61011" lon="2.10509">
        <ele>112</ele>
        <time>2022-12-25T13:16:23Z</time>
      </trkpt>
      <trkpt lat="48.61008" lon="2.10508">
        <ele>112</ele>
        <time>2022-12-25T13:16:25Z</time>
      </trkpt>
      <trkpt lat="48.61005" lon="2.10508">
        <ele>112</ele>
        <time>2022-12-25T13:16:27Z</time>
      </trkpt>
      <trkpt lat="48.61002" lon="2.10508">
        <ele>112</ele>
        <time>2022-12-25T13:16:29Z</time>
      </trkpt>
      <trkpt lat="48.60999" lon="2.10508">
        <ele>112</ele>
        <time>2022-12-25T13:16:31Z</time>
      </trkpt>
      <trkpt lat="48.60996" lon="2.10508">
        <ele>112</ele>
        <time>2022-12-25T13:16:33Z</time>
      </trkpt>
      <trkpt lat="48.60994" lon="2.10507">
        <ele>112</ele>
        <time>2022-12-25T13:16:35Z</time>
      </trkpt>
      <trkpt lat="48.60991" lon="2.10507">
        <ele>112</ele>
        <time>2022-12-25T13:16:37Z</time>
      </trkpt>
      <trkpt lat="48.60988" lon="2.10507">
        <ele>112</ele>
        <time>2022-12-25T13:16:39Z</time>
      </trkpt>
      <trkpt lat="48.60985" lon="2.10507">
        <ele>112</ele>
        <time>2022-12-25T13:16:41Z</time>
      </trkpt>
      <trkpt lat="48.60982" lon="2.10507">
        <ele>112</ele>
        <time>2022-12-25T13:16:43Z</time>
      </trkpt>
      <trkpt lat="48.60979" lon="2.10506">
        <ele>112</ele>
        <time>2022-12-25T13:16:46Z</time>
      </trkpt>
      <trkpt lat="48.60976" lon="2.10506">
        <ele>112</ele>
        <time>2022-12-25T13:16:47Z</time>
      </trkpt>
      <trkpt lat="48.60973" lon="2.10505">
        <ele>112</ele>
        <time>2022-12-25T13:16:49Z</time>
      </trkpt>
      <trkpt lat="48.6097" lon="2.10505">
        <ele>112</ele>
        <time>2022-12-25T13:16:51Z</time>
      </trkpt>
      <trkpt lat="48.60967" lon="2.10504">
        <ele>112</ele>
        <time>2022-12-25T13:16:53Z</time>
      </trkpt>
      <trkpt lat="48.60964" lon="2.10504">
        <ele>112</ele>
        <time>2022-12-25T13:16:55Z</time>
      </trkpt>
      <trkpt lat="48.60961" lon="2.10504">
        <ele>112</ele>
        <time>2022-12-25T13:16:57Z</time>
      </trkpt>
      <trkpt lat="48.60958" lon="2.10504">
        <ele>112</ele>
        <time>2022-12-25T13:16:59Z</time>
      </trkpt>
      <trkpt lat="48.60955" lon="2.10503">
        <ele>112</ele>
        <time>2022-12-25T13:17:01Z</time>
      </trkpt>
      <trkpt lat="48.60952" lon="2.10503">
        <ele>112</ele>
        <time>2022-12-25T13:17:03Z</time>
      </trkpt>
      <trkpt lat="48.6095" lon="2.10503">
        <ele>112</ele>
        <time>2022-12-25T13:17:05Z</time>
      </trkpt>
      <trkpt lat="48.60946" lon="2.10502">
        <ele>112</ele>
        <time>2022-12-25T13:17:07Z</time>
      </trkpt>
      <trkpt lat="48.60944" lon="2.10502">
        <ele>111</ele>
        <time>2022-12-25T13:17:09Z</time>
      </trkpt>
      <trkpt lat="48.60941" lon="2.10501">
        <ele>111</ele>
        <time>2022-12-25T13:17:11Z</time>
      </trkpt>
      <trkpt lat="48.60938" lon="2.105">
        <ele>111</ele>
        <time>2022-12-25T13:17:13Z</time>
      </trkpt>
      <trkpt lat="48.60935" lon="2.10499">
        <ele>111</ele>
        <time>2022-12-25T13:17:15Z</time>
      </trkpt>
      <trkpt lat="48.60932" lon="2.10498">
        <ele>111</ele>
        <time>2022-12-25T13:17:17Z</time>
      </trkpt>
      <trkpt lat="48.60929" lon="2.10497">
        <ele>111</ele>
        <time>2022-12-25T13:17:19Z</time>
      </trkpt>
      <trkpt lat="48.60927" lon="2.10497">
        <ele>111</ele>
        <time>2022-12-25T13:17:21Z</time>
      </trkpt>
      <trkpt lat="48.60924" lon="2.10496">
        <ele>111</ele>
        <time>2022-12-25T13:17:24Z</time>
      </trkpt>
      <trkpt lat="48.60921" lon="2.10496">
        <ele>111</ele>
        <time>2022-12-25T13:17:25Z</time>
      </trkpt>
      <trkpt lat="48.60917" lon="2.10495">
        <ele>111</ele>
        <time>2022-12-25T13:17:27Z</time>
      </trkpt>
      <trkpt lat="48.60914" lon="2.10495">
        <ele>111</ele>
        <time>2022-12-25T13:17:29Z</time>
      </trkpt>
      <trkpt lat="48.60911" lon="2.10494">
        <ele>111</ele>
        <time>2022-12-25T13:17:31Z</time>
      </trkpt>
      <trkpt lat="48.60907" lon="2.10494">
        <ele>111</ele>
        <time>2022-12-25T13:17:33Z</time>
      </trkpt>
      <trkpt lat="48.60904" lon="2.10495">
        <ele>111</ele>
        <time>2022-12-25T13:17:35Z</time>
      </trkpt>
      <trkpt lat="48.60901" lon="2.10498">
        <ele>111</ele>
        <time>2022-12-25T13:17:37Z</time>
      </trkpt>
      <trkpt lat="48.60899" lon="2.105">
        <ele>111</ele>
        <time>2022-12-25T13:17:39Z</time>
      </trkpt>
      <trkpt lat="48.60898" lon="2.10504">
        <ele>111</ele>
        <time>2022-12-25T13:17:41Z</time>
      </trkpt>
      <trkpt lat="48.60897" lon="2.10508">
        <ele>110</ele>
        <time>2022-12-25T13:17:43Z</time>
      </trkpt>
      <trkpt lat="48.60897" lon="2.10513">
        <ele>110</ele>
        <time>2022-12-25T13:17:45Z</time>
      </trkpt>
      <trkpt lat="48.60897" lon="2.10517">
        <ele>110</ele>
        <time>2022-12-25T13:17:47Z</time>
      </trkpt>
      <trkpt lat="48.60897" lon="2.10521">
        <ele>110</ele>
        <time>2022-12-25T13:17:49Z</time>
      </trkpt>
      <trkpt lat="48.60897" lon="2.10526">
        <ele>110</ele>
        <time>2022-12-25T13:17:51Z</time>
      </trkpt>
      <trkpt lat="48.60897" lon="2.10531">
        <ele>110</ele>
        <time>2022-12-25T13:17:53Z</time>
      </trkpt>
      <trkpt lat="48.60897" lon="2.10535">
        <ele>110</ele>
        <time>2022-12-25T13:17:55Z</time>
      </trkpt>
      <trkpt lat="48.60896" lon="2.1054">
        <ele>109</ele>
        <time>2022-12-25T13:17:57Z</time>
      </trkpt>
      <trkpt lat="48.60895" lon="2.10544">
        <ele>109</ele>
        <time>2022-12-25T13:17:59Z</time>
      </trkpt>
      <trkpt lat="48.60893" lon="2.10548">
        <ele>109</ele>
        <time>2022-12-25T13:18:02Z</time>
      </trkpt>
      <trkpt lat="48.60892" lon="2.1055">
        <ele>109</ele>
        <time>2022-12-25T13:18:03Z</time>
      </trkpt>
      <trkpt lat="48.60889" lon="2.10553">
        <ele>109</ele>
        <time>2022-12-25T13:18:05Z</time>
      </trkpt>
      <trkpt lat="48.60887" lon="2.10555">
        <ele>109</ele>
        <time>2022-12-25T13:18:07Z</time>
      </trkpt>
      <trkpt lat="48.60885" lon="2.10556">
        <ele>109</ele>
        <time>2022-12-25T13:18:09Z</time>
      </trkpt>
      <trkpt lat="48.60882" lon="2.10557">
        <ele>109</ele>
        <time>2022-12-25T13:18:11Z</time>
      </trkpt>
      <trkpt lat="48.6088" lon="2.10558">
        <ele>109</ele>
        <time>2022-12-25T13:18:13Z</time>
      </trkpt>
      <trkpt lat="48.60877" lon="2.10559">
        <ele>109</ele>
        <time>2022-12-25T13:18:15Z</time>
      </trkpt>
      <trkpt lat="48.60875" lon="2.10559">
        <ele>109</ele>
        <time>2022-12-25T13:18:17Z</time>
      </trkpt>
      <trkpt lat="48.60872" lon="2.1056">
        <ele>109</ele>
        <time>2022-12-25T13:18:19Z</time>
      </trkpt>
      <trkpt lat="48.60869" lon="2.10561">
        <ele>109</ele>
        <time>2022-12-25T13:18:21Z</time>
      </trkpt>
      <trkpt lat="48.60867" lon="2.10562">
        <ele>109</ele>
        <time>2022-12-25T13:18:23Z</time>
      </trkpt>
      <trkpt lat="48.60864" lon="2.10563">
        <ele>109</ele>
        <time>2022-12-25T13:18:25Z</time>
      </trkpt>
      <trkpt lat="48.60862" lon="2.10564">
        <ele>109</ele>
        <time>2022-12-25T13:18:27Z</time>
      </trkpt>
      <trkpt lat="48.60859" lon="2.10564">
        <ele>109</ele>
        <time>2022-12-25T13:18:29Z</time>
      </trkpt>
      <trkpt lat="48.60856" lon="2.10565">
        <ele>109</ele>
        <time>2022-12-25T13:18:31Z</time>
      </trkpt>
      <trkpt lat="48.60853" lon="2.10566">
        <ele>109</ele>
        <time>2022-12-25T13:18:33Z</time>
      </trkpt>
      <trkpt lat="48.6085" lon="2.10567">
        <ele>109</ele>
        <time>2022-12-25T13:18:35Z</time>
      </trkpt>
      <trkpt lat="48.60848" lon="2.10568">
        <ele>109</ele>
        <time>2022-12-25T13:18:37Z</time>
      </trkpt>
      <trkpt lat="48.60845" lon="2.10569">
        <ele>109</ele>
        <time>2022-12-25T13:18:40Z</time>
      </trkpt>
      <trkpt lat="48.60842" lon="2.1057">
        <ele>109</ele>
        <time>2022-12-25T13:18:41Z</time>
      </trkpt>
      <trkpt lat="48.60839" lon="2.10571">
        <ele>109</ele>
        <time>2022-12-25T13:18:43Z</time>
      </trkpt>
      <trkpt lat="48.60836" lon="2.10572">
        <ele>109</ele>
        <time>2022-12-25T13:18:45Z</time>
      </trkpt>
      <trkpt lat="48.60833" lon="2.10573">
        <ele>109</ele>
        <time>2022-12-25T13:18:47Z</time>
      </trkpt>
      <trkpt lat="48.6083" lon="2.10574">
        <ele>109</ele>
        <time>2022-12-25T13:18:49Z</time>
      </trkpt>
      <trkpt lat="48.60827" lon="2.10575">
        <ele>109</ele>
        <time>2022-12-25T13:18:51Z</time>
      </trkpt>
      <trkpt lat="48.60823" lon="2.10576">
        <ele>109</ele>
        <time>2022-12-25T13:18:53Z</time>
      </trkpt>
      <trkpt lat="48.6082" lon="2.10578">
        <ele>109</ele>
        <time>2022-12-25T13:18:55Z</time>
      </trkpt>
      <trkpt lat="48.60817" lon="2.10579">
        <ele>109</ele>
        <time>2022-12-25T13:18:57Z</time>
      </trkpt>
      <trkpt lat="48.60814" lon="2.1058">
        <ele>108</ele>
        <time>2022-12-25T13:18:59Z</time>
      </trkpt>
      <trkpt lat="48.60811" lon="2.10581">
        <ele>108</ele>
        <time>2022-12-25T13:19:01Z</time>
      </trkpt>
      <trkpt lat="48.60808" lon="2.10582">
        <ele>108</ele>
        <time>2022-12-25T13:19:03Z</time>
      </trkpt>
      <trkpt lat="48.60804" lon="2.10584">
        <ele>108</ele>
        <time>2022-12-25T13:19:05Z</time>
      </trkpt>
      <trkpt lat="48.60801" lon="2.10585">
        <ele>108</ele>
        <time>2022-12-25T13:19:07Z</time>
      </trkpt>
      <trkpt lat="48.60799" lon="2.10587">
        <ele>108</ele>
        <time>2022-12-25T13:19:09Z</time>
      </trkpt>
      <trkpt lat="48.60796" lon="2.10588">
        <ele>108</ele>
        <time>2022-12-25T13:19:11Z</time>
      </trkpt>
      <trkpt lat="48.60793" lon="2.10589">
        <ele>108</ele>
        <time>2022-12-25T13:19:13Z</time>
      </trkpt>
      <trkpt lat="48.6079" lon="2.1059">
        <ele>109</ele>
        <time>2022-12-25T13:19:15Z</time>
      </trkpt>
      <trkpt lat="48.60788" lon="2.10592">
        <ele>109</ele>
        <time>2022-12-25T13:19:17Z</time>
      </trkpt>
      <trkpt lat="48.60785" lon="2.10594">
        <ele>109</ele>
        <time>2022-12-25T13:19:19Z</time>
      </trkpt>
      <trkpt lat="48.60783" lon="2.10594">
        <ele>109</ele>
        <time>2022-12-25T13:19:21Z</time>
      </trkpt>
      <trkpt lat="48.6078" lon="2.10596">
        <ele>108</ele>
        <time>2022-12-25T13:19:23Z</time>
      </trkpt>
      <trkpt lat="48.60777" lon="2.10596">
        <ele>108</ele>
        <time>2022-12-25T13:19:25Z</time>
      </trkpt>
      <trkpt lat="48.60774" lon="2.10598">
        <ele>108</ele>
        <time>2022-12-25T13:19:27Z</time>
      </trkpt>
      <trkpt lat="48.60772" lon="2.10599">
        <ele>108</ele>
        <time>2022-12-25T13:19:29Z</time>
      </trkpt>
      <trkpt lat="48.60769" lon="2.106">
        <ele>109</ele>
        <time>2022-12-25T13:19:31Z</time>
      </trkpt>
      <trkpt lat="48.60766" lon="2.10602">
        <ele>109</ele>
        <time>2022-12-25T13:19:33Z</time>
      </trkpt>
      <trkpt lat="48.60764" lon="2.10604">
        <ele>109</ele>
        <time>2022-12-25T13:19:35Z</time>
      </trkpt>
      <trkpt lat="48.60761" lon="2.10605">
        <ele>109</ele>
        <time>2022-12-25T13:19:37Z</time>
      </trkpt>
      <trkpt lat="48.60758" lon="2.10606">
        <ele>109</ele>
        <time>2022-12-25T13:19:39Z</time>
      </trkpt>
      <trkpt lat="48.60755" lon="2.10608">
        <ele>108</ele>
        <time>2022-12-25T13:19:41Z</time>
      </trkpt>
      <trkpt lat="48.60753" lon="2.10609">
        <ele>108</ele>
        <time>2022-12-25T13:19:43Z</time>
      </trkpt>
      <trkpt lat="48.6075" lon="2.10611">
        <ele>108</ele>
        <time>2022-12-25T13:19:45Z</time>
      </trkpt>
      <trkpt lat="48.60747" lon="2.10613">
        <ele>108</ele>
        <time>2022-12-25T13:19:47Z</time>
      </trkpt>
      <trkpt lat="48.60744" lon="2.10614">
        <ele>108</ele>
        <time>2022-12-25T13:19:49Z</time>
      </trkpt>
      <trkpt lat="48.60742" lon="2.10615">
        <ele>108</ele>
        <time>2022-12-25T13:19:51Z</time>
      </trkpt>
      <trkpt lat="48.60739" lon="2.10617">
        <ele>108</ele>
        <time>2022-12-25T13:19:53Z</time>
      </trkpt>
      <trkpt lat="48.60735" lon="2.10618">
        <ele>108</ele>
        <time>2022-12-25T13:19:56Z</time>
      </trkpt>
      <trkpt lat="48.60733" lon="2.1062">
        <ele>108</ele>
        <time>2022-12-25T13:19:57Z</time>
      </trkpt>
      <trkpt lat="48.6073" lon="2.10621">
        <ele>108</ele>
        <time>2022-12-25T13:20:01Z</time>
      </trkpt>
      <trkpt lat="48.60727" lon="2.10623">
        <ele>108</ele>
        <time>2022-12-25T13:20:03Z</time>
      </trkpt>
      <trkpt lat="48.60724" lon="2.10624">
        <ele>108</ele>
        <time>2022-12-25T13:20:05Z</time>
      </trkpt>
      <trkpt lat="48.60722" lon="2.10625">
        <ele>108</ele>
        <time>2022-12-25T13:20:06Z</time>
      </trkpt>
      <trkpt lat="48.60719" lon="2.10627">
        <ele>108</ele>
        <time>2022-12-25T13:20:08Z</time>
      </trkpt>
      <trkpt lat="48.60715" lon="2.10629">
        <ele>108</ele>
        <time>2022-12-25T13:20:10Z</time>
      </trkpt>
      <trkpt lat="48.60712" lon="2.1063">
        <ele>108</ele>
        <time>2022-12-25T13:20:12Z</time>
      </trkpt>
      <trkpt lat="48.60709" lon="2.10632">
        <ele>108</ele>
        <time>2022-12-25T13:20:14Z</time>
      </trkpt>
      <trkpt lat="48.60706" lon="2.10633">
        <ele>107</ele>
        <time>2022-12-25T13:20:16Z</time>
      </trkpt>
      <trkpt lat="48.60703" lon="2.10635">
        <ele>107</ele>
        <time>2022-12-25T13:20:18Z</time>
      </trkpt>
      <trkpt lat="48.607" lon="2.10636">
        <ele>107</ele>
        <time>2022-12-25T13:20:20Z</time>
      </trkpt>
      <trkpt lat="48.60696" lon="2.10638">
        <ele>107</ele>
        <time>2022-12-25T13:20:22Z</time>
      </trkpt>
      <trkpt lat="48.60694" lon="2.10639">
        <ele>107</ele>
        <time>2022-12-25T13:20:24Z</time>
      </trkpt>
      <trkpt lat="48.60691" lon="2.1064">
        <ele>107</ele>
        <time>2022-12-25T13:20:26Z</time>
      </trkpt>
      <trkpt lat="48.60688" lon="2.10642">
        <ele>107</ele>
        <time>2022-12-25T13:20:28Z</time>
      </trkpt>
      <trkpt lat="48.60685" lon="2.10643">
        <ele>107</ele>
        <time>2022-12-25T13:20:30Z</time>
      </trkpt>
      <trkpt lat="48.60682" lon="2.10644">
        <ele>107</ele>
        <time>2022-12-25T13:20:32Z</time>
      </trkpt>
      <trkpt lat="48.60679" lon="2.10645">
        <ele>107</ele>
        <time>2022-12-25T13:20:34Z</time>
      </trkpt>
      <trkpt lat="48.60676" lon="2.10646">
        <ele>107</ele>
        <time>2022-12-25T13:20:36Z</time>
      </trkpt>
      <trkpt lat="48.60673" lon="2.10647">
        <ele>107</ele>
        <time>2022-12-25T13:20:38Z</time>
      </trkpt>
      <trkpt lat="48.6067" lon="2.10648">
        <ele>107</ele>
        <time>2022-12-25T13:20:40Z</time>
      </trkpt>
      <trkpt lat="48.60667" lon="2.10649">
        <ele>107</ele>
        <time>2022-12-25T13:20:42Z</time>
      </trkpt>
      <trkpt lat="48.60664" lon="2.1065">
        <ele>107</ele>
        <time>2022-12-25T13:20:44Z</time>
      </trkpt>
      <trkpt lat="48.60661" lon="2.10651">
        <ele>107</ele>
        <time>2022-12-25T13:20:46Z</time>
      </trkpt>
      <trkpt lat="48.60658" lon="2.10652">
        <ele>107</ele>
        <time>2022-12-25T13:20:48Z</time>
      </trkpt>
      <trkpt lat="48.60655" lon="2.10653">
        <ele>107</ele>
        <time>2022-12-25T13:20:50Z</time>
      </trkpt>
      <trkpt lat="48.60651" lon="2.10654">
        <ele>107</ele>
        <time>2022-12-25T13:20:53Z</time>
      </trkpt>
      <trkpt lat="48.60648" lon="2.10655">
        <ele>106</ele>
        <time>2022-12-25T13:20:54Z</time>
      </trkpt>
      <trkpt lat="48.60645" lon="2.10656">
        <ele>106</ele>
        <time>2022-12-25T13:20:56Z</time>
      </trkpt>
      <trkpt lat="48.60642" lon="2.10656">
        <ele>106</ele>
        <time>2022-12-25T13:20:58Z</time>
      </trkpt>
      <trkpt lat="48.60639" lon="2.10657">
        <ele>106</ele>
        <time>2022-12-25T13:21:00Z</time>
      </trkpt>
      <trkpt lat="48.60636" lon="2.10658">
        <ele>106</ele>
        <time>2022-12-25T13:21:02Z</time>
      </trkpt>
      <trkpt lat="48.60633" lon="2.10658">
        <ele>106</ele>
        <time>2022-12-25T13:21:04Z</time>
      </trkpt>
      <trkpt lat="48.6063" lon="2.10659">
        <ele>107</ele>
        <time>2022-12-25T13:21:06Z</time>
      </trkpt>
      <trkpt lat="48.60627" lon="2.10659">
        <ele>106</ele>
        <time>2022-12-25T13:21:08Z</time>
      </trkpt>
      <trkpt lat="48.60624" lon="2.1066">
        <ele>106</ele>
        <time>2022-12-25T13:21:10Z</time>
      </trkpt>
      <trkpt lat="48.6062" lon="2.1066">
        <ele>106</ele>
        <time>2022-12-25T13:21:12Z</time>
      </trkpt>
      <trkpt lat="48.60617" lon="2.10661">
        <ele>106</ele>
        <time>2022-12-25T13:21:14Z</time>
      </trkpt>
      <trkpt lat="48.60614" lon="2.10661">
        <ele>106</ele>
        <time>2022-12-25T13:21:16Z</time>
      </trkpt>
      <trkpt lat="48.60611" lon="2.10661">
        <ele>106</ele>
        <time>2022-12-25T13:21:18Z</time>
      </trkpt>
      <trkpt lat="48.60609" lon="2.10662">
        <ele>106</ele>
        <time>2022-12-25T13:21:20Z</time>
      </trkpt>
      <trkpt lat="48.60606" lon="2.10662">
        <ele>106</ele>
        <time>2022-12-25T13:21:22Z</time>
      </trkpt>
      <trkpt lat="48.60603" lon="2.10662">
        <ele>106</ele>
        <time>2022-12-25T13:21:24Z</time>
      </trkpt>
      <trkpt lat="48.60599" lon="2.10662">
        <ele>106</ele>
        <time>2022-12-25T13:21:26Z</time>
      </trkpt>
      <trkpt lat="48.60596" lon="2.10662">
        <ele>105</ele>
        <time>2022-12-25T13:21:28Z</time>
      </trkpt>
      <trkpt lat="48.60592" lon="2.10662">
        <ele>105</ele>
        <time>2022-12-25T13:21:31Z</time>
      </trkpt>
      <trkpt lat="48.60589" lon="2.10661">
        <ele>105</ele>
        <time>2022-12-25T13:21:32Z</time>
      </trkpt>
      <trkpt lat="48.60586" lon="2.10661">
        <ele>105</ele>
        <time>2022-12-25T13:21:34Z</time>
      </trkpt>
      <trkpt lat="48.60583" lon="2.10661">
        <ele>105</ele>
        <time>2022-12-25T13:21:36Z</time>
      </trkpt>
      <trkpt lat="48.60579" lon="2.10661">
        <ele>105</ele>
        <time>2022-12-25T13:21:38Z</time>
      </trkpt>
      <trkpt lat="48.60576" lon="2.1066">
        <ele>105</ele>
        <time>2022-12-25T13:21:40Z</time>
      </trkpt>
      <trkpt lat="48.60573" lon="2.1066">
        <ele>105</ele>
        <time>2022-12-25T13:21:42Z</time>
      </trkpt>
      <trkpt lat="48.6057" lon="2.1066">
        <ele>104</ele>
        <time>2022-12-25T13:21:44Z</time>
      </trkpt>
      <trkpt lat="48.60566" lon="2.10659">
        <ele>104</ele>
        <time>2022-12-25T13:21:46Z</time>
      </trkpt>
      <trkpt lat="48.60563" lon="2.10659">
        <ele>104</ele>
        <time>2022-12-25T13:21:48Z</time>
      </trkpt>
      <trkpt lat="48.6056" lon="2.10658">
        <ele>104</ele>
        <time>2022-12-25T13:21:50Z</time>
      </trkpt>
      <trkpt lat="48.60557" lon="2.10658">
        <ele>104</ele>
        <time>2022-12-25T13:21:52Z</time>
      </trkpt>
      <trkpt lat="48.60554" lon="2.10658">
        <ele>104</ele>
        <time>2022-12-25T13:21:54Z</time>
      </trkpt>
      <trkpt lat="48.6055" lon="2.10658">
        <ele>104</ele>
        <time>2022-12-25T13:21:56Z</time>
      </trkpt>
      <trkpt lat="48.60547" lon="2.10658">
        <ele>104</ele>
        <time>2022-12-25T13:21:58Z</time>
      </trkpt>
      <trkpt lat="48.60544" lon="2.10658">
        <ele>104</ele>
        <time>2022-12-25T13:22:00Z</time>
      </trkpt>
      <trkpt lat="48.60541" lon="2.10658">
        <ele>104</ele>
        <time>2022-12-25T13:22:02Z</time>
      </trkpt>
      <trkpt lat="48.60538" lon="2.10658">
        <ele>104</ele>
        <time>2022-12-25T13:22:04Z</time>
      </trkpt>
      <trkpt lat="48.60534" lon="2.10658">
        <ele>104</ele>
        <time>2022-12-25T13:22:06Z</time>
      </trkpt>
      <trkpt lat="48.60531" lon="2.10658">
        <ele>104</ele>
        <time>2022-12-25T13:22:08Z</time>
      </trkpt>
      <trkpt lat="48.60528" lon="2.10658">
        <ele>104</ele>
        <time>2022-12-25T13:22:10Z</time>
      </trkpt>
      <trkpt lat="48.60525" lon="2.10658">
        <ele>104</ele>
        <time>2022-12-25T13:22:12Z</time>
      </trkpt>
      <trkpt lat="48.60522" lon="2.10658">
        <ele>104</ele>
        <time>2022-12-25T13:22:14Z</time>
      </trkpt>
      <trkpt lat="48.60519" lon="2.10657">
        <ele>104</ele>
        <time>2022-12-25T13:22:16Z</time>
      </trkpt>
      <trkpt lat="48.60515" lon="2.10657">
        <ele>104</ele>
        <time>2022-12-25T13:22:18Z</time>
      </trkpt>
      <trkpt lat="48.60512" lon="2.10656">
        <ele>104</ele>
        <time>2022-12-25T13:22:20Z</time>
      </trkpt>
      <trkpt lat="48.60509" lon="2.10656">
        <ele>104</ele>
        <time>2022-12-25T13:22:22Z</time>
      </trkpt>
      <trkpt lat="48.60506" lon="2.10656">
        <ele>104</ele>
        <time>2022-12-25T13:22:24Z</time>
      </trkpt>
      <trkpt lat="48.60502" lon="2.10656">
        <ele>104</ele>
        <time>2022-12-25T13:22:26Z</time>
      </trkpt>
      <trkpt lat="48.60499" lon="2.10656">
        <ele>104</ele>
        <time>2022-12-25T13:22:28Z</time>
      </trkpt>
      <trkpt lat="48.60496" lon="2.10655">
        <ele>104</ele>
        <time>2022-12-25T13:22:30Z</time>
      </trkpt>
      <trkpt lat="48.60493" lon="2.10656">
        <ele>104</ele>
        <time>2022-12-25T13:22:32Z</time>
      </trkpt>
      <trkpt lat="48.6049" lon="2.10656">
        <ele>104</ele>
        <time>2022-12-25T13:22:34Z</time>
      </trkpt>
      <trkpt lat="48.60487" lon="2.10655">
        <ele>104</ele>
        <time>2022-12-25T13:22:36Z</time>
      </trkpt>
      <trkpt lat="48.60483" lon="2.10655">
        <ele>104</ele>
        <time>2022-12-25T13:22:38Z</time>
      </trkpt>
      <trkpt lat="48.60481" lon="2.10655">
        <ele>104</ele>
        <time>2022-12-25T13:22:40Z</time>
      </trkpt>
      <trkpt lat="48.60477" lon="2.10655">
        <ele>104</ele>
        <time>2022-12-25T13:22:42Z</time>
      </trkpt>
      <trkpt lat="48.60474" lon="2.10655">
        <ele>104</ele>
        <time>2022-12-25T13:22:44Z</time>
      </trkpt>
      <trkpt lat="48.60471" lon="2.10655">
        <ele>104</ele>
        <time>2022-12-25T13:22:46Z</time>
      </trkpt>
      <trkpt lat="48.60468" lon="2.10655">
        <ele>103</ele>
        <time>2022-12-25T13:22:48Z</time>
      </trkpt>
      <trkpt lat="48.60465" lon="2.10655">
        <ele>103</ele>
        <time>2022-12-25T13:22:50Z</time>
      </trkpt>
      <trkpt lat="48.60461" lon="2.10655">
        <ele>103</ele>
        <time>2022-12-25T13:22:52Z</time>
      </trkpt>
      <trkpt lat="48.60458" lon="2.10655">
        <ele>103</ele>
        <time>2022-12-25T13:22:54Z</time>
      </trkpt>
      <trkpt lat="48.60455" lon="2.10655">
        <ele>103</ele>
        <time>2022-12-25T13:22:56Z</time>
      </trkpt>
      <trkpt lat="48.60452" lon="2.10655">
        <ele>103</ele>
        <time>2022-12-25T13:22:58Z</time>
      </trkpt>
      <trkpt lat="48.60449" lon="2.10655">
        <ele>103</ele>
        <time>2022-12-25T13:23:00Z</time>
      </trkpt>
      <trkpt lat="48.60446" lon="2.10655">
        <ele>103</ele>
        <time>2022-12-25T13:23:02Z</time>
      </trkpt>
      <trkpt lat="48.60443" lon="2.10655">
        <ele>103</ele>
        <time>2022-12-25T13:23:04Z</time>
      </trkpt>
      <trkpt lat="48.60439" lon="2.10655">
        <ele>103</ele>
        <time>2022-12-25T13:23:06Z</time>
      </trkpt>
      <trkpt lat="48.60436" lon="2.10655">
        <ele>103</ele>
        <time>2022-12-25T13:23:08Z</time>
      </trkpt>
      <trkpt lat="48.60433" lon="2.10655">
        <ele>103</ele>
        <time>2022-12-25T13:23:10Z</time>
      </trkpt>
      <trkpt lat="48.6043" lon="2.10655">
        <ele>103</ele>
        <time>2022-12-25T13:23:12Z</time>
      </trkpt>
      <trkpt lat="48.60427" lon="2.10655">
        <ele>103</ele>
        <time>2022-12-25T13:23:14Z</time>
      </trkpt>
      <trkpt lat="48.60424" lon="2.10655">
        <ele>103</ele>
        <time>2022-12-25T13:23:16Z</time>
      </trkpt>
      <trkpt lat="48.60421" lon="2.10656">
        <ele>103</ele>
        <time>2022-12-25T13:23:18Z</time>
      </trkpt>
      <trkpt lat="48.60418" lon="2.10656">
        <ele>103</ele>
        <time>2022-12-25T13:23:20Z</time>
      </trkpt>
      <trkpt lat="48.60415" lon="2.10657">
        <ele>103</ele>
        <time>2022-12-25T13:23:22Z</time>
      </trkpt>
      <trkpt lat="48.60412" lon="2.10658">
        <ele>104</ele>
        <time>2022-12-25T13:23:25Z</time>
      </trkpt>
      <trkpt lat="48.60409" lon="2.10659">
        <ele>104</ele>
        <time>2022-12-25T13:23:26Z</time>
      </trkpt>
      <trkpt lat="48.60406" lon="2.10661">
        <ele>104</ele>
        <time>2022-12-25T13:23:28Z</time>
      </trkpt>
      <trkpt lat="48.60403" lon="2.10661">
        <ele>104</ele>
        <time>2022-12-25T13:23:30Z</time>
      </trkpt>
      <trkpt lat="48.60401" lon="2.10661">
        <ele>104</ele>
        <time>2022-12-25T13:23:32Z</time>
      </trkpt>
      <trkpt lat="48.60398" lon="2.10661">
        <ele>104</ele>
        <time>2022-12-25T13:23:34Z</time>
      </trkpt>
      <trkpt lat="48.60395" lon="2.10661">
        <ele>104</ele>
        <time>2022-12-25T13:23:36Z</time>
      </trkpt>
      <trkpt lat="48.60393" lon="2.10661">
        <ele>104</ele>
        <time>2022-12-25T13:23:38Z</time>
      </trkpt>
      <trkpt lat="48.6039" lon="2.10662">
        <ele>104</ele>
        <time>2022-12-25T13:23:40Z</time>
      </trkpt>
      <trkpt lat="48.60387" lon="2.10662">
        <ele>104</ele>
        <time>2022-12-25T13:23:42Z</time>
      </trkpt>
      <trkpt lat="48.60384" lon="2.10663">
        <ele>104</ele>
        <time>2022-12-25T13:23:44Z</time>
      </trkpt>
      <trkpt lat="48.60381" lon="2.10664">
        <ele>104</ele>
        <time>2022-12-25T13:23:46Z</time>
      </trkpt>
      <trkpt lat="48.60378" lon="2.10664">
        <ele>104</ele>
        <time>2022-12-25T13:23:48Z</time>
      </trkpt>
      <trkpt lat="48.60375" lon="2.10664">
        <ele>104</ele>
        <time>2022-12-25T13:23:50Z</time>
      </trkpt>
      <trkpt lat="48.60373" lon="2.10664">
        <ele>104</ele>
        <time>2022-12-25T13:23:52Z</time>
      </trkpt>
      <trkpt lat="48.6037" lon="2.10664">
        <ele>104</ele>
        <time>2022-12-25T13:23:54Z</time>
      </trkpt>
      <trkpt lat="48.60366" lon="2.10665">
        <ele>104</ele>
        <time>2022-12-25T13:23:56Z</time>
      </trkpt>
      <trkpt lat="48.60364" lon="2.10665">
        <ele>104</ele>
        <time>2022-12-25T13:23:58Z</time>
      </trkpt>
      <trkpt lat="48.60361" lon="2.10666">
        <ele>105</ele>
        <time>2022-12-25T13:24:00Z</time>
      </trkpt>
      <trkpt lat="48.60359" lon="2.10666">
        <ele>105</ele>
        <time>2022-12-25T13:24:03Z</time>
      </trkpt>
      <trkpt lat="48.60357" lon="2.10666">
        <ele>105</ele>
        <time>2022-12-25T13:24:04Z</time>
      </trkpt>
      <trkpt lat="48.60355" lon="2.10668">
        <ele>106</ele>
        <time>2022-12-25T13:24:06Z</time>
      </trkpt>
      <trkpt lat="48.60352" lon="2.10669">
        <ele>106</ele>
        <time>2022-12-25T13:24:08Z</time>
      </trkpt>
      <trkpt lat="48.6035" lon="2.10671">
        <ele>106</ele>
        <time>2022-12-25T13:24:10Z</time>
      </trkpt>
      <trkpt lat="48.60347" lon="2.10672">
        <ele>106</ele>
        <time>2022-12-25T13:24:12Z</time>
      </trkpt>
      <trkpt lat="48.60344" lon="2.10674">
        <ele>106</ele>
        <time>2022-12-25T13:24:14Z</time>
      </trkpt>
      <trkpt lat="48.60341" lon="2.10676">
        <ele>107</ele>
        <time>2022-12-25T13:24:16Z</time>
      </trkpt>
      <trkpt lat="48.60338" lon="2.10677">
        <ele>107</ele>
        <time>2022-12-25T13:24:18Z</time>
      </trkpt>
      <trkpt lat="48.60335" lon="2.10678">
        <ele>107</ele>
        <time>2022-12-25T13:24:20Z</time>
      </trkpt>
      <trkpt lat="48.60332" lon="2.10679">
        <ele>107</ele>
        <time>2022-12-25T13:24:22Z</time>
      </trkpt>
      <trkpt lat="48.60329" lon="2.1068">
        <ele>107</ele>
        <time>2022-12-25T13:24:24Z</time>
      </trkpt>
      <trkpt lat="48.60326" lon="2.1068">
        <ele>107</ele>
        <time>2022-12-25T13:24:26Z</time>
      </trkpt>
      <trkpt lat="48.60324" lon="2.10681">
        <ele>108</ele>
        <time>2022-12-25T13:24:27Z</time>
      </trkpt>
      <trkpt lat="48.60321" lon="2.10681">
        <ele>108</ele>
        <time>2022-12-25T13:24:29Z</time>
      </trkpt>
      <trkpt lat="48.60317" lon="2.10681">
        <ele>108</ele>
        <time>2022-12-25T13:24:31Z</time>
      </trkpt>
      <trkpt lat="48.60315" lon="2.10681">
        <ele>108</ele>
        <time>2022-12-25T13:24:32Z</time>
      </trkpt>
      <trkpt lat="48.60313" lon="2.10682">
        <ele>108</ele>
        <time>2022-12-25T13:24:33Z</time>
      </trkpt>
      <trkpt lat="48.6031" lon="2.10682">
        <ele>109</ele>
        <time>2022-12-25T13:24:35Z</time>
      </trkpt>
      <trkpt lat="48.60306" lon="2.10683">
        <ele>109</ele>
        <time>2022-12-25T13:24:37Z</time>
      </trkpt>
      <trkpt lat="48.60303" lon="2.10684">
        <ele>110</ele>
        <time>2022-12-25T13:24:39Z</time>
      </trkpt>
      <trkpt lat="48.603" lon="2.10685">
        <ele>110</ele>
        <time>2022-12-25T13:24:41Z</time>
      </trkpt>
      <trkpt lat="48.60297" lon="2.10685">
        <ele>111</ele>
        <time>2022-12-25T13:24:43Z</time>
      </trkpt>
      <trkpt lat="48.60294" lon="2.10686">
        <ele>111</ele>
        <time>2022-12-25T13:24:45Z</time>
      </trkpt>
      <trkpt lat="48.60291" lon="2.10686">
        <ele>112</ele>
        <time>2022-12-25T13:24:47Z</time>
      </trkpt>
      <trkpt lat="48.60288" lon="2.10687">
        <ele>112</ele>
        <time>2022-12-25T13:24:49Z</time>
      </trkpt>
      <trkpt lat="48.60285" lon="2.10687">
        <ele>112</ele>
        <time>2022-12-25T13:24:51Z</time>
      </trkpt>
      <trkpt lat="48.60282" lon="2.10688">
        <ele>112</ele>
        <time>2022-12-25T13:24:53Z</time>
      </trkpt>
      <trkpt lat="48.60279" lon="2.10688">
        <ele>113</ele>
        <time>2022-12-25T13:24:55Z</time>
      </trkpt>
      <trkpt lat="48.60276" lon="2.10689">
        <ele>113</ele>
        <time>2022-12-25T13:24:57Z</time>
      </trkpt>
      <trkpt lat="48.60273" lon="2.1069">
        <ele>113</ele>
        <time>2022-12-25T13:25:00Z</time>
      </trkpt>
      <trkpt lat="48.6027" lon="2.10689">
        <ele>113</ele>
        <time>2022-12-25T13:25:01Z</time>
      </trkpt>
      <trkpt lat="48.60267" lon="2.10689">
        <ele>114</ele>
        <time>2022-12-25T13:25:03Z</time>
      </trkpt>
      <trkpt lat="48.60265" lon="2.1069">
        <ele>114</ele>
        <time>2022-12-25T13:25:05Z</time>
      </trkpt>
      <trkpt lat="48.60263" lon="2.10691">
        <ele>115</ele>
        <time>2022-12-25T13:25:08Z</time>
      </trkpt>
      <trkpt lat="48.60261" lon="2.10692">
        <ele>115</ele>
        <time>2022-12-25T13:25:11Z</time>
      </trkpt>
      <trkpt lat="48.60258" lon="2.10694">
        <ele>115</ele>
        <time>2022-12-25T13:25:13Z</time>
      </trkpt>
      <trkpt lat="48.60256" lon="2.10695">
        <ele>115</ele>
        <time>2022-12-25T13:25:14Z</time>
      </trkpt>
      <trkpt lat="48.60252" lon="2.10696">
        <ele>116</ele>
        <time>2022-12-25T13:25:16Z</time>
      </trkpt>
      <trkpt lat="48.6025" lon="2.10697">
        <ele>116</ele>
        <time>2022-12-25T13:25:17Z</time>
      </trkpt>
      <trkpt lat="48.60246" lon="2.10698">
        <ele>116</ele>
        <time>2022-12-25T13:25:19Z</time>
      </trkpt>
      <trkpt lat="48.60245" lon="2.10699">
        <ele>116</ele>
        <time>2022-12-25T13:25:20Z</time>
      </trkpt>
      <trkpt lat="48.60243" lon="2.107">
        <ele>116</ele>
        <time>2022-12-25T13:25:21Z</time>
      </trkpt>
      <trkpt lat="48.6024" lon="2.10702">
        <ele>116</ele>
        <time>2022-12-25T13:25:23Z</time>
      </trkpt>
      <trkpt lat="48.60237" lon="2.10704">
        <ele>117</ele>
        <time>2022-12-25T13:25:25Z</time>
      </trkpt>
      <trkpt lat="48.60234" lon="2.10706">
        <ele>117</ele>
        <time>2022-12-25T13:25:27Z</time>
      </trkpt>
      <trkpt lat="48.60232" lon="2.10709">
        <ele>117</ele>
        <time>2022-12-25T13:25:30Z</time>
      </trkpt>
      <trkpt lat="48.60228" lon="2.10711">
        <ele>118</ele>
        <time>2022-12-25T13:25:32Z</time>
      </trkpt>
      <trkpt lat="48.60225" lon="2.10711">
        <ele>118</ele>
        <time>2022-12-25T13:25:34Z</time>
      </trkpt>
      <trkpt lat="48.60223" lon="2.10712">
        <ele>118</ele>
        <time>2022-12-25T13:25:35Z</time>
      </trkpt>
      <trkpt lat="48.60221" lon="2.10712">
        <ele>118</ele>
        <time>2022-12-25T13:25:36Z</time>
      </trkpt>
      <trkpt lat="48.60219" lon="2.10713">
        <ele>118</ele>
        <time>2022-12-25T13:25:38Z</time>
      </trkpt>
      <trkpt lat="48.60216" lon="2.10715">
        <ele>118</ele>
        <time>2022-12-25T13:25:39Z</time>
      </trkpt>
      <trkpt lat="48.60213" lon="2.10717">
        <ele>119</ele>
        <time>2022-12-25T13:25:41Z</time>
      </trkpt>
      <trkpt lat="48.60209" lon="2.10719">
        <ele>119</ele>
        <time>2022-12-25T13:25:43Z</time>
      </trkpt>
      <trkpt lat="48.60207" lon="2.1072">
        <ele>119</ele>
        <time>2022-12-25T13:25:44Z</time>
      </trkpt>
      <trkpt lat="48.60203" lon="2.10721">
        <ele>119</ele>
        <time>2022-12-25T13:25:46Z</time>
      </trkpt>
      <trkpt lat="48.60202" lon="2.10722">
        <ele>120</ele>
        <time>2022-12-25T13:25:47Z</time>
      </trkpt>
      <trkpt lat="48.602" lon="2.10723">
        <ele>120</ele>
        <time>2022-12-25T13:25:48Z</time>
      </trkpt>
      <trkpt lat="48.60198" lon="2.10724">
        <ele>120</ele>
        <time>2022-12-25T13:25:49Z</time>
      </trkpt>
      <trkpt lat="48.60196" lon="2.10724">
        <ele>120</ele>
        <time>2022-12-25T13:25:50Z</time>
      </trkpt>
      <trkpt lat="48.60193" lon="2.10725">
        <ele>120</ele>
        <time>2022-12-25T13:25:52Z</time>
      </trkpt>
      <trkpt lat="48.6019" lon="2.10726">
        <ele>120</ele>
        <time>2022-12-25T13:25:54Z</time>
      </trkpt>
      <trkpt lat="48.60187" lon="2.10727">
        <ele>120</ele>
        <time>2022-12-25T13:25:57Z</time>
      </trkpt>
      <trkpt lat="48.60184" lon="2.10727">
        <ele>120</ele>
        <time>2022-12-25T13:25:59Z</time>
      </trkpt>
      <trkpt lat="48.60181" lon="2.10727">
        <ele>120</ele>
        <time>2022-12-25T13:26:00Z</time>
      </trkpt>
      <trkpt lat="48.60179" lon="2.10724">
        <ele>120</ele>
        <time>2022-12-25T13:26:02Z</time>
      </trkpt>
      <trkpt lat="48.60177" lon="2.10723">
        <ele>120</ele>
        <time>2022-12-25T13:26:04Z</time>
      </trkpt>
      <trkpt lat="48.60174" lon="2.10722">
        <ele>120</ele>
        <time>2022-12-25T13:26:06Z</time>
      </trkpt>
      <trkpt lat="48.60171" lon="2.10721">
        <ele>120</ele>
        <time>2022-12-25T13:26:08Z</time>
      </trkpt>
      <trkpt lat="48.60169" lon="2.1072">
        <ele>120</ele>
        <time>2022-12-25T13:26:10Z</time>
      </trkpt>
      <trkpt lat="48.60166" lon="2.10719">
        <ele>120</ele>
        <time>2022-12-25T13:26:12Z</time>
      </trkpt>
      <trkpt lat="48.60163" lon="2.1072">
        <ele>119</ele>
        <time>2022-12-25T13:26:16Z</time>
      </trkpt>
      <trkpt lat="48.60161" lon="2.10721">
        <ele>119</ele>
        <time>2022-12-25T13:26:17Z</time>
      </trkpt>
      <trkpt lat="48.60158" lon="2.10722">
        <ele>119</ele>
        <time>2022-12-25T13:26:19Z</time>
      </trkpt>
      <trkpt lat="48.60156" lon="2.10721">
        <ele>118</ele>
        <time>2022-12-25T13:26:21Z</time>
      </trkpt>
      <trkpt lat="48.60153" lon="2.1072">
        <ele>118</ele>
        <time>2022-12-25T13:26:23Z</time>
      </trkpt>
      <trkpt lat="48.6015" lon="2.10719">
        <ele>117</ele>
        <time>2022-12-25T13:26:25Z</time>
      </trkpt>
      <trkpt lat="48.60148" lon="2.10718">
        <ele>117</ele>
        <time>2022-12-25T13:26:27Z</time>
      </trkpt>
      <trkpt lat="48.60146" lon="2.10716">
        <ele>116</ele>
        <time>2022-12-25T13:26:29Z</time>
      </trkpt>
      <trkpt lat="48.60143" lon="2.10715">
        <ele>116</ele>
        <time>2022-12-25T13:26:31Z</time>
      </trkpt>
      <trkpt lat="48.6014" lon="2.10714">
        <ele>115</ele>
        <time>2022-12-25T13:26:33Z</time>
      </trkpt>
      <trkpt lat="48.60137" lon="2.10713">
        <ele>115</ele>
        <time>2022-12-25T13:26:35Z</time>
      </trkpt>
      <trkpt lat="48.60134" lon="2.10712">
        <ele>114</ele>
        <time>2022-12-25T13:26:37Z</time>
      </trkpt>
      <trkpt lat="48.60132" lon="2.10711">
        <ele>114</ele>
        <time>2022-12-25T13:26:39Z</time>
      </trkpt>
      <trkpt lat="48.60129" lon="2.1071">
        <ele>114</ele>
        <time>2022-12-25T13:26:41Z</time>
      </trkpt>
      <trkpt lat="48.60126" lon="2.10709">
        <ele>113</ele>
        <time>2022-12-25T13:26:43Z</time>
      </trkpt>
      <trkpt lat="48.60122" lon="2.10708">
        <ele>113</ele>
        <time>2022-12-25T13:26:45Z</time>
      </trkpt>
      <trkpt lat="48.60119" lon="2.10707">
        <ele>112</ele>
        <time>2022-12-25T13:26:47Z</time>
      </trkpt>
      <trkpt lat="48.60117" lon="2.10704">
        <ele>112</ele>
        <time>2022-12-25T13:26:49Z</time>
      </trkpt>
      <trkpt lat="48.60115" lon="2.10703">
        <ele>111</ele>
        <time>2022-12-25T13:26:51Z</time>
      </trkpt>
      <trkpt lat="48.60112" lon="2.10702">
        <ele>111</ele>
        <time>2022-12-25T13:26:54Z</time>
      </trkpt>
      <trkpt lat="48.60109" lon="2.107">
        <ele>111</ele>
        <time>2022-12-25T13:26:55Z</time>
      </trkpt>
      <trkpt lat="48.60107" lon="2.10699">
        <ele>111</ele>
        <time>2022-12-25T13:26:57Z</time>
      </trkpt>
      <trkpt lat="48.60104" lon="2.10698">
        <ele>111</ele>
        <time>2022-12-25T13:26:59Z</time>
      </trkpt>
      <trkpt lat="48.60101" lon="2.10696">
        <ele>111</ele>
        <time>2022-12-25T13:27:01Z</time>
      </trkpt>
      <trkpt lat="48.60099" lon="2.10695">
        <ele>111</ele>
        <time>2022-12-25T13:27:03Z</time>
      </trkpt>
      <trkpt lat="48.60096" lon="2.10694">
        <ele>111</ele>
        <time>2022-12-25T13:27:05Z</time>
      </trkpt>
      <trkpt lat="48.60093" lon="2.10693">
        <ele>111</ele>
        <time>2022-12-25T13:27:07Z</time>
      </trkpt>
      <trkpt lat="48.60091" lon="2.1069">
        <ele>111</ele>
        <time>2022-12-25T13:27:09Z</time>
      </trkpt>
      <trkpt lat="48.6009" lon="2.10688">
        <ele>111</ele>
        <time>2022-12-25T13:27:10Z</time>
      </trkpt>
      <trkpt lat="48.60087" lon="2.10685">
        <ele>111</ele>
        <time>2022-12-25T13:27:12Z</time>
      </trkpt>
      <trkpt lat="48.60085" lon="2.10684">
        <ele>110</ele>
        <time>2022-12-25T13:27:14Z</time>
      </trkpt>
      <trkpt lat="48.60083" lon="2.10683">
        <ele>110</ele>
        <time>2022-12-25T13:27:16Z</time>
      </trkpt>
      <trkpt lat="48.6008" lon="2.10682">
        <ele>109</ele>
        <time>2022-12-25T13:27:18Z</time>
      </trkpt>
      <trkpt lat="48.60076" lon="2.10681">
        <ele>109</ele>
        <time>2022-12-25T13:27:20Z</time>
      </trkpt>
      <trkpt lat="48.60073" lon="2.10679">
        <ele>109</ele>
        <time>2022-12-25T13:27:22Z</time>
      </trkpt>
      <trkpt lat="48.6007" lon="2.10676">
        <ele>109</ele>
        <time>2022-12-25T13:27:24Z</time>
      </trkpt>
      <trkpt lat="48.60067" lon="2.10676">
        <ele>109</ele>
        <time>2022-12-25T13:27:26Z</time>
      </trkpt>
      <trkpt lat="48.60063" lon="2.10676">
        <ele>109</ele>
        <time>2022-12-25T13:27:28Z</time>
      </trkpt>
      <trkpt lat="48.6006" lon="2.10676">
        <ele>110</ele>
        <time>2022-12-25T13:27:30Z</time>
      </trkpt>
      <trkpt lat="48.60058" lon="2.10674">
        <ele>110</ele>
        <time>2022-12-25T13:27:32Z</time>
      </trkpt>
      <trkpt lat="48.60055" lon="2.10672">
        <ele>109</ele>
        <time>2022-12-25T13:27:33Z</time>
      </trkpt>
      <trkpt lat="48.60052" lon="2.10671">
        <ele>109</ele>
        <time>2022-12-25T13:27:35Z</time>
      </trkpt>
      <trkpt lat="48.60049" lon="2.1067">
        <ele>109</ele>
        <time>2022-12-25T13:27:37Z</time>
      </trkpt>
      <trkpt lat="48.60047" lon="2.10669">
        <ele>109</ele>
        <time>2022-12-25T13:27:38Z</time>
      </trkpt>
      <trkpt lat="48.60046" lon="2.10668">
        <ele>108</ele>
        <time>2022-12-25T13:27:39Z</time>
      </trkpt>
      <trkpt lat="48.60044" lon="2.10667">
        <ele>108</ele>
        <time>2022-12-25T13:27:40Z</time>
      </trkpt>
      <trkpt lat="48.60042" lon="2.10666">
        <ele>108</ele>
        <time>2022-12-25T13:27:41Z</time>
      </trkpt>
      <trkpt lat="48.60039" lon="2.10665">
        <ele>108</ele>
        <time>2022-12-25T13:27:43Z</time>
      </trkpt>
      <trkpt lat="48.60035" lon="2.10664">
        <ele>108</ele>
        <time>2022-12-25T13:27:45Z</time>
      </trkpt>
      <trkpt lat="48.60033" lon="2.10663">
        <ele>108</ele>
        <time>2022-12-25T13:27:47Z</time>
      </trkpt>
      <trkpt lat="48.6003" lon="2.10661">
        <ele>108</ele>
        <time>2022-12-25T13:27:49Z</time>
      </trkpt>
      <trkpt lat="48.60027" lon="2.10661">
        <ele>108</ele>
        <time>2022-12-25T13:27:51Z</time>
      </trkpt>
      <trkpt lat="48.60024" lon="2.1066">
        <ele>108</ele>
        <time>2022-12-25T13:27:53Z</time>
      </trkpt>
      <trkpt lat="48.60021" lon="2.10659">
        <ele>108</ele>
        <time>2022-12-25T13:27:55Z</time>
      </trkpt>
      <trkpt lat="48.60019" lon="2.10658">
        <ele>109</ele>
        <time>2022-12-25T13:27:57Z</time>
      </trkpt>
      <trkpt lat="48.60016" lon="2.10657">
        <ele>108</ele>
        <time>2022-12-25T13:27:58Z</time>
      </trkpt>
      <trkpt lat="48.60013" lon="2.10655">
        <ele>109</ele>
        <time>2022-12-25T13:28:00Z</time>
      </trkpt>
      <trkpt lat="48.60011" lon="2.10655">
        <ele>109</ele>
        <time>2022-12-25T13:28:01Z</time>
      </trkpt>
      <trkpt lat="48.60008" lon="2.10654">
        <ele>108</ele>
        <time>2022-12-25T13:28:03Z</time>
      </trkpt>
      <trkpt lat="48.60006" lon="2.10652">
        <ele>108</ele>
        <time>2022-12-25T13:28:05Z</time>
      </trkpt>
      <trkpt lat="48.60003" lon="2.10651">
        <ele>108</ele>
        <time>2022-12-25T13:28:07Z</time>
      </trkpt>
      <trkpt lat="48.60001" lon="2.10652">
        <ele>108</ele>
        <time>2022-12-25T13:28:10Z</time>
      </trkpt>
      <trkpt lat="48.59998" lon="2.10651">
        <ele>108</ele>
        <time>2022-12-25T13:28:12Z</time>
      </trkpt>
      <trkpt lat="48.59995" lon="2.1065">
        <ele>108</ele>
        <time>2022-12-25T13:28:14Z</time>
      </trkpt>
      <trkpt lat="48.59993" lon="2.10649">
        <ele>108</ele>
        <time>2022-12-25T13:28:15Z</time>
      </trkpt>
      <trkpt lat="48.59991" lon="2.10648">
        <ele>108</ele>
        <time>2022-12-25T13:28:16Z</time>
      </trkpt>
      <trkpt lat="48.59989" lon="2.10647">
        <ele>108</ele>
        <time>2022-12-25T13:28:17Z</time>
      </trkpt>
      <trkpt lat="48.59988" lon="2.10645">
        <ele>108</ele>
        <time>2022-12-25T13:28:18Z</time>
      </trkpt>
      <trkpt lat="48.59986" lon="2.10645">
        <ele>108</ele>
        <time>2022-12-25T13:28:19Z</time>
      </trkpt>
      <trkpt lat="48.59983" lon="2.10642">
        <ele>108</ele>
        <time>2022-12-25T13:28:21Z</time>
      </trkpt>
      <trkpt lat="48.5998" lon="2.1064">
        <ele>108</ele>
        <time>2022-12-25T13:28:23Z</time>
      </trkpt>
      <trkpt lat="48.59977" lon="2.10639">
        <ele>108</ele>
        <time>2022-12-25T13:28:25Z</time>
      </trkpt>
      <trkpt lat="48.59974" lon="2.10636">
        <ele>108</ele>
        <time>2022-12-25T13:28:27Z</time>
      </trkpt>
      <trkpt lat="48.59971" lon="2.10635">
        <ele>108</ele>
        <time>2022-12-25T13:28:29Z</time>
      </trkpt>
      <trkpt lat="48.59968" lon="2.10634">
        <ele>108</ele>
        <time>2022-12-25T13:28:31Z</time>
      </trkpt>
      <trkpt lat="48.59966" lon="2.10634">
        <ele>108</ele>
        <time>2022-12-25T13:28:32Z</time>
      </trkpt>
      <trkpt lat="48.59963" lon="2.10633">
        <ele>108</ele>
        <time>2022-12-25T13:28:34Z</time>
      </trkpt>
      <trkpt lat="48.5996" lon="2.10633">
        <ele>108</ele>
        <time>2022-12-25T13:28:36Z</time>
      </trkpt>
      <trkpt lat="48.59957" lon="2.10632">
        <ele>107</ele>
        <time>2022-12-25T13:28:38Z</time>
      </trkpt>
      <trkpt lat="48.59954" lon="2.10631">
        <ele>107</ele>
        <time>2022-12-25T13:28:40Z</time>
      </trkpt>
      <trkpt lat="48.59952" lon="2.10629">
        <ele>107</ele>
        <time>2022-12-25T13:28:42Z</time>
      </trkpt>
      <trkpt lat="48.5995" lon="2.10627">
        <ele>107</ele>
        <time>2022-12-25T13:28:44Z</time>
      </trkpt>
      <trkpt lat="48.59947" lon="2.10626">
        <ele>107</ele>
        <time>2022-12-25T13:28:46Z</time>
      </trkpt>
      <trkpt lat="48.59945" lon="2.10626">
        <ele>107</ele>
        <time>2022-12-25T13:28:48Z</time>
      </trkpt>
      <trkpt lat="48.59941" lon="2.10624">
        <ele>107</ele>
        <time>2022-12-25T13:28:50Z</time>
      </trkpt>
      <trkpt lat="48.59939" lon="2.10624">
        <ele>107</ele>
        <time>2022-12-25T13:28:51Z</time>
      </trkpt>
      <trkpt lat="48.59936" lon="2.10623">
        <ele>106</ele>
        <time>2022-12-25T13:28:53Z</time>
      </trkpt>
      <trkpt lat="48.59933" lon="2.10622">
        <ele>107</ele>
        <time>2022-12-25T13:28:55Z</time>
      </trkpt>
      <trkpt lat="48.5993" lon="2.1062">
        <ele>107</ele>
        <time>2022-12-25T13:28:57Z</time>
      </trkpt>
      <trkpt lat="48.59928" lon="2.10619">
        <ele>107</ele>
        <time>2022-12-25T13:28:59Z</time>
      </trkpt>
      <trkpt lat="48.59925" lon="2.10618">
        <ele>107</ele>
        <time>2022-12-25T13:29:01Z</time>
      </trkpt>
      <trkpt lat="48.59922" lon="2.10617">
        <ele>107</ele>
        <time>2022-12-25T13:29:03Z</time>
      </trkpt>
      <trkpt lat="48.59919" lon="2.10616">
        <ele>106</ele>
        <time>2022-12-25T13:29:05Z</time>
      </trkpt>
      <trkpt lat="48.59916" lon="2.10615">
        <ele>106</ele>
        <time>2022-12-25T13:29:07Z</time>
      </trkpt>
      <trkpt lat="48.59913" lon="2.10614">
        <ele>106</ele>
        <time>2022-12-25T13:29:09Z</time>
      </trkpt>
      <trkpt lat="48.59911" lon="2.10613">
        <ele>106</ele>
        <time>2022-12-25T13:29:11Z</time>
      </trkpt>
      <trkpt lat="48.59908" lon="2.10613">
        <ele>106</ele>
        <time>2022-12-25T13:29:13Z</time>
      </trkpt>
      <trkpt lat="48.59905" lon="2.10614">
        <ele>106</ele>
        <time>2022-12-25T13:29:15Z</time>
      </trkpt>
      <trkpt lat="48.59903" lon="2.10614">
        <ele>106</ele>
        <time>2022-12-25T13:29:17Z</time>
      </trkpt>
      <trkpt lat="48.59901" lon="2.10613">
        <ele>106</ele>
        <time>2022-12-25T13:29:19Z</time>
      </trkpt>
      <trkpt lat="48.59898" lon="2.10614">
        <ele>106</ele>
        <time>2022-12-25T13:29:21Z</time>
      </trkpt>
      <trkpt lat="48.59896" lon="2.10614">
        <ele>106</ele>
        <time>2022-12-25T13:29:22Z</time>
      </trkpt>
      <trkpt lat="48.59893" lon="2.10615">
        <ele>106</ele>
        <time>2022-12-25T13:29:24Z</time>
      </trkpt>
      <trkpt lat="48.59889" lon="2.10616">
        <ele>106</ele>
        <time>2022-12-25T13:29:26Z</time>
      </trkpt>
      <trkpt lat="48.59886" lon="2.10618">
        <ele>106</ele>
        <time>2022-12-25T13:29:28Z</time>
      </trkpt>
      <trkpt lat="48.59884" lon="2.10618">
        <ele>105</ele>
        <time>2022-12-25T13:29:29Z</time>
      </trkpt>
      <trkpt lat="48.59881" lon="2.10618">
        <ele>105</ele>
        <time>2022-12-25T13:29:31Z</time>
      </trkpt>
      <trkpt lat="48.59878" lon="2.10616">
        <ele>105</ele>
        <time>2022-12-25T13:29:33Z</time>
      </trkpt>
      <trkpt lat="48.59875" lon="2.10616">
        <ele>104</ele>
        <time>2022-12-25T13:29:35Z</time>
      </trkpt>
      <trkpt lat="48.59872" lon="2.10616">
        <ele>104</ele>
        <time>2022-12-25T13:29:37Z</time>
      </trkpt>
      <trkpt lat="48.59868" lon="2.10616">
        <ele>104</ele>
        <time>2022-12-25T13:29:39Z</time>
      </trkpt>
      <trkpt lat="48.59865" lon="2.10616">
        <ele>104</ele>
        <time>2022-12-25T13:29:41Z</time>
      </trkpt>
      <trkpt lat="48.59862" lon="2.10616">
        <ele>103</ele>
        <time>2022-12-25T13:29:43Z</time>
      </trkpt>
      <trkpt lat="48.59859" lon="2.10615">
        <ele>103</ele>
        <time>2022-12-25T13:29:45Z</time>
      </trkpt>
      <trkpt lat="48.59856" lon="2.10615">
        <ele>103</ele>
        <time>2022-12-25T13:29:47Z</time>
      </trkpt>
      <trkpt lat="48.59853" lon="2.10615">
        <ele>102</ele>
        <time>2022-12-25T13:29:49Z</time>
      </trkpt>
      <trkpt lat="48.5985" lon="2.10614">
        <ele>102</ele>
        <time>2022-12-25T13:29:51Z</time>
      </trkpt>
      <trkpt lat="48.59847" lon="2.10614">
        <ele>102</ele>
        <time>2022-12-25T13:29:53Z</time>
      </trkpt>
      <trkpt lat="48.59844" lon="2.10614">
        <ele>101</ele>
        <time>2022-12-25T13:29:55Z</time>
      </trkpt>
      <trkpt lat="48.59841" lon="2.10614">
        <ele>101</ele>
        <time>2022-12-25T13:29:57Z</time>
      </trkpt>
      <trkpt lat="48.59838" lon="2.10615">
        <ele>101</ele>
        <time>2022-12-25T13:29:59Z</time>
      </trkpt>
      <trkpt lat="48.59835" lon="2.10615">
        <ele>101</ele>
        <time>2022-12-25T13:30:01Z</time>
      </trkpt>
      <trkpt lat="48.59832" lon="2.10615">
        <ele>101</ele>
        <time>2022-12-25T13:30:04Z</time>
      </trkpt>
      <trkpt lat="48.59829" lon="2.10615">
        <ele>101</ele>
        <time>2022-12-25T13:30:05Z</time>
      </trkpt>
      <trkpt lat="48.59826" lon="2.10616">
        <ele>101</ele>
        <time>2022-12-25T13:30:07Z</time>
      </trkpt>
      <trkpt lat="48.59823" lon="2.10617">
        <ele>100</ele>
        <time>2022-12-25T13:30:09Z</time>
      </trkpt>
      <trkpt lat="48.5982" lon="2.10618">
        <ele>100</ele>
        <time>2022-12-25T13:30:11Z</time>
      </trkpt>
      <trkpt lat="48.59818" lon="2.10619">
        <ele>100</ele>
        <time>2022-12-25T13:30:13Z</time>
      </trkpt>
      <trkpt lat="48.59815" lon="2.1062">
        <ele>99</ele>
        <time>2022-12-25T13:30:15Z</time>
      </trkpt>
      <trkpt lat="48.59812" lon="2.10621">
        <ele>99</ele>
        <time>2022-12-25T13:30:17Z</time>
      </trkpt>
      <trkpt lat="48.5981" lon="2.10623">
        <ele>98</ele>
        <time>2022-12-25T13:30:19Z</time>
      </trkpt>
      <trkpt lat="48.59808" lon="2.10624">
        <ele>98</ele>
        <time>2022-12-25T13:30:21Z</time>
      </trkpt>
      <trkpt lat="48.59804" lon="2.10626">
        <ele>98</ele>
        <time>2022-12-25T13:30:23Z</time>
      </trkpt>
      <trkpt lat="48.59801" lon="2.10626">
        <ele>98</ele>
        <time>2022-12-25T13:30:25Z</time>
      </trkpt>
      <trkpt lat="48.59798" lon="2.10627">
        <ele>98</ele>
        <time>2022-12-25T13:30:27Z</time>
      </trkpt>
      <trkpt lat="48.59795" lon="2.10628">
        <ele>98</ele>
        <time>2022-12-25T13:30:29Z</time>
      </trkpt>
      <trkpt lat="48.59792" lon="2.10629">
        <ele>97</ele>
        <time>2022-12-25T13:30:31Z</time>
      </trkpt>
      <trkpt lat="48.59789" lon="2.10631">
        <ele>97</ele>
        <time>2022-12-25T13:30:33Z</time>
      </trkpt>
      <trkpt lat="48.59786" lon="2.10632">
        <ele>97</ele>
        <time>2022-12-25T13:30:35Z</time>
      </trkpt>
      <trkpt lat="48.59783" lon="2.10633">
        <ele>96</ele>
        <time>2022-12-25T13:30:37Z</time>
      </trkpt>
      <trkpt lat="48.59781" lon="2.10636">
        <ele>96</ele>
        <time>2022-12-25T13:30:39Z</time>
      </trkpt>
      <trkpt lat="48.59778" lon="2.10638">
        <ele>96</ele>
        <time>2022-12-25T13:30:42Z</time>
      </trkpt>
      <trkpt lat="48.59775" lon="2.10639">
        <ele>96</ele>
        <time>2022-12-25T13:30:45Z</time>
      </trkpt>
      <trkpt lat="48.59772" lon="2.1064">
        <ele>96</ele>
        <time>2022-12-25T13:30:47Z</time>
      </trkpt>
      <trkpt lat="48.59769" lon="2.10642">
        <ele>96</ele>
        <time>2022-12-25T13:30:49Z</time>
      </trkpt>
      <trkpt lat="48.59767" lon="2.10642">
        <ele>96</ele>
        <time>2022-12-25T13:30:50Z</time>
      </trkpt>
      <trkpt lat="48.59764" lon="2.10644">
        <ele>95</ele>
        <time>2022-12-25T13:30:52Z</time>
      </trkpt>
      <trkpt lat="48.59761" lon="2.10645">
        <ele>95</ele>
        <time>2022-12-25T13:30:54Z</time>
      </trkpt>
      <trkpt lat="48.59758" lon="2.10647">
        <ele>95</ele>
        <time>2022-12-25T13:30:56Z</time>
      </trkpt>
      <trkpt lat="48.59755" lon="2.1065">
        <ele>95</ele>
        <time>2022-12-25T13:30:58Z</time>
      </trkpt>
      <trkpt lat="48.59752" lon="2.10652">
        <ele>95</ele>
        <time>2022-12-25T13:31:01Z</time>
      </trkpt>
      <trkpt lat="48.59749" lon="2.10653">
        <ele>95</ele>
        <time>2022-12-25T13:31:02Z</time>
      </trkpt>
      <trkpt lat="48.59747" lon="2.10655">
        <ele>95</ele>
        <time>2022-12-25T13:31:04Z</time>
      </trkpt>
      <trkpt lat="48.59743" lon="2.10656">
        <ele>95</ele>
        <time>2022-12-25T13:31:06Z</time>
      </trkpt>
      <trkpt lat="48.5974" lon="2.10658">
        <ele>95</ele>
        <time>2022-12-25T13:31:08Z</time>
      </trkpt>
      <trkpt lat="48.59737" lon="2.1066">
        <ele>95</ele>
        <time>2022-12-25T13:31:10Z</time>
      </trkpt>
      <trkpt lat="48.59734" lon="2.10662">
        <ele>95</ele>
        <time>2022-12-25T13:31:12Z</time>
      </trkpt>
      <trkpt lat="48.59731" lon="2.10663">
        <ele>95</ele>
        <time>2022-12-25T13:31:14Z</time>
      </trkpt>
      <trkpt lat="48.59728" lon="2.10664">
        <ele>95</ele>
        <time>2022-12-25T13:31:16Z</time>
      </trkpt>
      <trkpt lat="48.59726" lon="2.10665">
        <ele>95</ele>
        <time>2022-12-25T13:31:18Z</time>
      </trkpt>
      <trkpt lat="48.59723" lon="2.10667">
        <ele>95</ele>
        <time>2022-12-25T13:31:20Z</time>
      </trkpt>
      <trkpt lat="48.59719" lon="2.10668">
        <ele>95</ele>
        <time>2022-12-25T13:31:22Z</time>
      </trkpt>
      <trkpt lat="48.59717" lon="2.1067">
        <ele>94</ele>
        <time>2022-12-25T13:31:24Z</time>
      </trkpt>
      <trkpt lat="48.59714" lon="2.10672">
        <ele>94</ele>
        <time>2022-12-25T13:31:26Z</time>
      </trkpt>
      <trkpt lat="48.59711" lon="2.10674">
        <ele>94</ele>
        <time>2022-12-25T13:31:28Z</time>
      </trkpt>
      <trkpt lat="48.59708" lon="2.10675">
        <ele>94</ele>
        <time>2022-12-25T13:31:30Z</time>
      </trkpt>
      <trkpt lat="48.59705" lon="2.10677">
        <ele>94</ele>
        <time>2022-12-25T13:31:32Z</time>
      </trkpt>
      <trkpt lat="48.59703" lon="2.10679">
        <ele>94</ele>
        <time>2022-12-25T13:31:34Z</time>
      </trkpt>
      <trkpt lat="48.597" lon="2.1068">
        <ele>94</ele>
        <time>2022-12-25T13:31:36Z</time>
      </trkpt>
      <trkpt lat="48.59698" lon="2.10679">
        <ele>94</ele>
        <time>2022-12-25T13:31:38Z</time>
      </trkpt>
      <trkpt lat="48.59696" lon="2.10677">
        <ele>94</ele>
        <time>2022-12-25T13:31:40Z</time>
      </trkpt>
      <trkpt lat="48.59695" lon="2.10674">
        <ele>94</ele>
        <time>2022-12-25T13:31:42Z</time>
      </trkpt>
      <trkpt lat="48.59694" lon="2.1067">
        <ele>94</ele>
        <time>2022-12-25T13:31:44Z</time>
      </trkpt>
      <trkpt lat="48.59694" lon="2.10666">
        <ele>94</ele>
        <time>2022-12-25T13:31:46Z</time>
      </trkpt>
      <trkpt lat="48.59694" lon="2.10661">
        <ele>94</ele>
        <time>2022-12-25T13:31:48Z</time>
      </trkpt>
      <trkpt lat="48.59694" lon="2.10657">
        <ele>94</ele>
        <time>2022-12-25T13:31:50Z</time>
      </trkpt>
      <trkpt lat="48.59694" lon="2.10652">
        <ele>94</ele>
        <time>2022-12-25T13:31:52Z</time>
      </trkpt>
      <trkpt lat="48.59693" lon="2.10648">
        <ele>94</ele>
        <time>2022-12-25T13:31:54Z</time>
      </trkpt>
      <trkpt lat="48.59693" lon="2.10643">
        <ele>94</ele>
        <time>2022-12-25T13:31:56Z</time>
      </trkpt>
      <trkpt lat="48.59693" lon="2.10639">
        <ele>94</ele>
        <time>2022-12-25T13:31:58Z</time>
      </trkpt>
      <trkpt lat="48.59692" lon="2.10634">
        <ele>94</ele>
        <time>2022-12-25T13:32:00Z</time>
      </trkpt>
      <trkpt lat="48.59692" lon="2.1063">
        <ele>94</ele>
        <time>2022-12-25T13:32:02Z</time>
      </trkpt>
      <trkpt lat="48.59692" lon="2.10626">
        <ele>94</ele>
        <time>2022-12-25T13:32:04Z</time>
      </trkpt>
      <trkpt lat="48.59692" lon="2.10621">
        <ele>95</ele>
        <time>2022-12-25T13:32:06Z</time>
      </trkpt>
      <trkpt lat="48.59691" lon="2.10617">
        <ele>95</ele>
        <time>2022-12-25T13:32:08Z</time>
      </trkpt>
      <trkpt lat="48.59692" lon="2.10613">
        <ele>95</ele>
        <time>2022-12-25T13:32:10Z</time>
      </trkpt>
      <trkpt lat="48.59691" lon="2.10609">
        <ele>95</ele>
        <time>2022-12-25T13:32:12Z</time>
      </trkpt>
      <trkpt lat="48.5969" lon="2.10605">
        <ele>96</ele>
        <time>2022-12-25T13:32:14Z</time>
      </trkpt>
      <trkpt lat="48.59689" lon="2.10601">
        <ele>96</ele>
        <time>2022-12-25T13:32:17Z</time>
      </trkpt>
      <trkpt lat="48.59687" lon="2.10598">
        <ele>96</ele>
        <time>2022-12-25T13:32:18Z</time>
      </trkpt>
      <trkpt lat="48.59684" lon="2.10597">
        <ele>96</ele>
        <time>2022-12-25T13:32:20Z</time>
      </trkpt>
      <trkpt lat="48.59682" lon="2.10596">
        <ele>96</ele>
        <time>2022-12-25T13:32:22Z</time>
      </trkpt>
      <trkpt lat="48.59679" lon="2.10597">
        <ele>97</ele>
        <time>2022-12-25T13:32:24Z</time>
      </trkpt>
      <trkpt lat="48.59676" lon="2.10598">
        <ele>97</ele>
        <time>2022-12-25T13:32:26Z</time>
      </trkpt>
      <trkpt lat="48.59673" lon="2.106">
        <ele>97</ele>
        <time>2022-12-25T13:32:28Z</time>
      </trkpt>
      <trkpt lat="48.59671" lon="2.10602">
        <ele>97</ele>
        <time>2022-12-25T13:32:30Z</time>
      </trkpt>
      <trkpt lat="48.59668" lon="2.10604">
        <ele>98</ele>
        <time>2022-12-25T13:32:32Z</time>
      </trkpt>
      <trkpt lat="48.59666" lon="2.10606">
        <ele>98</ele>
        <time>2022-12-25T13:32:34Z</time>
      </trkpt>
      <trkpt lat="48.59663" lon="2.10607">
        <ele>98</ele>
        <time>2022-12-25T13:32:36Z</time>
      </trkpt>
      <trkpt lat="48.59661" lon="2.10608">
        <ele>98</ele>
        <time>2022-12-25T13:32:38Z</time>
      </trkpt>
      <trkpt lat="48.59659" lon="2.10609">
        <ele>98</ele>
        <time>2022-12-25T13:32:40Z</time>
      </trkpt>
      <trkpt lat="48.59656" lon="2.10611">
        <ele>98</ele>
        <time>2022-12-25T13:32:42Z</time>
      </trkpt>
      <trkpt lat="48.59654" lon="2.10613">
        <ele>98</ele>
        <time>2022-12-25T13:32:44Z</time>
      </trkpt>
      <trkpt lat="48.59651" lon="2.10614">
        <ele>98</ele>
        <time>2022-12-25T13:32:46Z</time>
      </trkpt>
      <trkpt lat="48.59648" lon="2.10615">
        <ele>98</ele>
        <time>2022-12-25T13:32:48Z</time>
      </trkpt>
      <trkpt lat="48.59645" lon="2.10616">
        <ele>98</ele>
        <time>2022-12-25T13:32:50Z</time>
      </trkpt>
      <trkpt lat="48.59642" lon="2.10617">
        <ele>98</ele>
        <time>2022-12-25T13:32:52Z</time>
      </trkpt>
      <trkpt lat="48.5964" lon="2.10618">
        <ele>98</ele>
        <time>2022-12-25T13:32:55Z</time>
      </trkpt>
      <trkpt lat="48.59637" lon="2.10619">
        <ele>98</ele>
        <time>2022-12-25T13:32:56Z</time>
      </trkpt>
      <trkpt lat="48.59634" lon="2.10618">
        <ele>98</ele>
        <time>2022-12-25T13:32:58Z</time>
      </trkpt>
      <trkpt lat="48.59633" lon="2.10614">
        <ele>98</ele>
        <time>2022-12-25T13:33:00Z</time>
      </trkpt>
      <trkpt lat="48.59633" lon="2.1061">
        <ele>98</ele>
        <time>2022-12-25T13:33:02Z</time>
      </trkpt>
      <trkpt lat="48.59633" lon="2.10606">
        <ele>98</ele>
        <time>2022-12-25T13:33:04Z</time>
      </trkpt>
      <trkpt lat="48.59634" lon="2.10601">
        <ele>98</ele>
        <time>2022-12-25T13:33:06Z</time>
      </trkpt>
      <trkpt lat="48.59635" lon="2.10597">
        <ele>98</ele>
        <time>2022-12-25T13:33:08Z</time>
      </trkpt>
      <trkpt lat="48.59635" lon="2.10593">
        <ele>98</ele>
        <time>2022-12-25T13:33:10Z</time>
      </trkpt>
      <trkpt lat="48.59635" lon="2.10589">
        <ele>99</ele>
        <time>2022-12-25T13:33:12Z</time>
      </trkpt>
      <trkpt lat="48.59634" lon="2.10584">
        <ele>98</ele>
        <time>2022-12-25T13:33:14Z</time>
      </trkpt>
      <trkpt lat="48.59633" lon="2.10579">
        <ele>99</ele>
        <time>2022-12-25T13:33:16Z</time>
      </trkpt>
      <trkpt lat="48.59633" lon="2.10573">
        <ele>99</ele>
        <time>2022-12-25T13:33:18Z</time>
      </trkpt>
      <trkpt lat="48.59632" lon="2.10569">
        <ele>99</ele>
        <time>2022-12-25T13:33:20Z</time>
      </trkpt>
      <trkpt lat="48.59631" lon="2.10565">
        <ele>99</ele>
        <time>2022-12-25T13:33:22Z</time>
      </trkpt>
      <trkpt lat="48.5963" lon="2.10561">
        <ele>99</ele>
        <time>2022-12-25T13:33:24Z</time>
      </trkpt>
      <trkpt lat="48.59629" lon="2.10558">
        <ele>99</ele>
        <time>2022-12-25T13:33:26Z</time>
      </trkpt>
      <trkpt lat="48.59629" lon="2.10555">
        <ele>99</ele>
        <time>2022-12-25T13:33:29Z</time>
      </trkpt>
      <trkpt lat="48.59628" lon="2.10552">
        <ele>99</ele>
        <time>2022-12-25T13:33:30Z</time>
      </trkpt>
      <trkpt lat="48.59628" lon="2.10548">
        <ele>100</ele>
        <time>2022-12-25T13:33:33Z</time>
      </trkpt>
      <trkpt lat="48.59627" lon="2.10544">
        <ele>100</ele>
        <time>2022-12-25T13:33:34Z</time>
      </trkpt>
      <trkpt lat="48.59626" lon="2.10539">
        <ele>100</ele>
        <time>2022-12-25T13:33:36Z</time>
      </trkpt>
      <trkpt lat="48.59626" lon="2.10534">
        <ele>100</ele>
        <time>2022-12-25T13:33:38Z</time>
      </trkpt>
      <trkpt lat="48.59625" lon="2.10529">
        <ele>100</ele>
        <time>2022-12-25T13:33:40Z</time>
      </trkpt>
      <trkpt lat="48.59625" lon="2.10525">
        <ele>100</ele>
        <time>2022-12-25T13:33:42Z</time>
      </trkpt>
      <trkpt lat="48.59625" lon="2.1052">
        <ele>100</ele>
        <time>2022-12-25T13:33:44Z</time>
      </trkpt>
      <trkpt lat="48.59625" lon="2.10516">
        <ele>100</ele>
        <time>2022-12-25T13:33:46Z</time>
      </trkpt>
      <trkpt lat="48.59624" lon="2.10511">
        <ele>100</ele>
        <time>2022-12-25T13:33:48Z</time>
      </trkpt>
      <trkpt lat="48.59624" lon="2.10507">
        <ele>100</ele>
        <time>2022-12-25T13:33:50Z</time>
      </trkpt>
      <trkpt lat="48.59623" lon="2.10503">
        <ele>100</ele>
        <time>2022-12-25T13:33:52Z</time>
      </trkpt>
      <trkpt lat="48.59621" lon="2.105">
        <ele>100</ele>
        <time>2022-12-25T13:33:54Z</time>
      </trkpt>
      <trkpt lat="48.59619" lon="2.10498">
        <ele>100</ele>
        <time>2022-12-25T13:33:56Z</time>
      </trkpt>
      <trkpt lat="48.59616" lon="2.10497">
        <ele>100</ele>
        <time>2022-12-25T13:33:58Z</time>
      </trkpt>
      <trkpt lat="48.59613" lon="2.10495">
        <ele>100</ele>
        <time>2022-12-25T13:34:00Z</time>
      </trkpt>
      <trkpt lat="48.5961" lon="2.10494">
        <ele>100</ele>
        <time>2022-12-25T13:34:02Z</time>
      </trkpt>
      <trkpt lat="48.59608" lon="2.10493">
        <ele>100</ele>
        <time>2022-12-25T13:34:04Z</time>
      </trkpt>
      <trkpt lat="48.59605" lon="2.10492">
        <ele>100</ele>
        <time>2022-12-25T13:34:06Z</time>
      </trkpt>
      <trkpt lat="48.59602" lon="2.1049">
        <ele>100</ele>
        <time>2022-12-25T13:34:08Z</time>
      </trkpt>
      <trkpt lat="48.59599" lon="2.10488">
        <ele>100</ele>
        <time>2022-12-25T13:34:11Z</time>
      </trkpt>
      <trkpt lat="48.59597" lon="2.10486">
        <ele>100</ele>
        <time>2022-12-25T13:34:12Z</time>
      </trkpt>
      <trkpt lat="48.59594" lon="2.10483">
        <ele>100</ele>
        <time>2022-12-25T13:34:14Z</time>
      </trkpt>
      <trkpt lat="48.59592" lon="2.10481">
        <ele>100</ele>
        <time>2022-12-25T13:34:16Z</time>
      </trkpt>
      <trkpt lat="48.5959" lon="2.10478">
        <ele>100</ele>
        <time>2022-12-25T13:34:18Z</time>
      </trkpt>
      <trkpt lat="48.59587" lon="2.10475">
        <ele>100</ele>
        <time>2022-12-25T13:34:20Z</time>
      </trkpt>
      <trkpt lat="48.59585" lon="2.10472">
        <ele>100</ele>
        <time>2022-12-25T13:34:22Z</time>
      </trkpt>
      <trkpt lat="48.59582" lon="2.1047">
        <ele>99</ele>
        <time>2022-12-25T13:34:24Z</time>
      </trkpt>
      <trkpt lat="48.59579" lon="2.10467">
        <ele>99</ele>
        <time>2022-12-25T13:34:26Z</time>
      </trkpt>
      <trkpt lat="48.59577" lon="2.10465">
        <ele>99</ele>
        <time>2022-12-25T13:34:28Z</time>
      </trkpt>
      <trkpt lat="48.59574" lon="2.10462">
        <ele>99</ele>
        <time>2022-12-25T13:34:30Z</time>
      </trkpt>
      <trkpt lat="48.59572" lon="2.1046">
        <ele>99</ele>
        <time>2022-12-25T13:34:32Z</time>
      </trkpt>
      <trkpt lat="48.59569" lon="2.10458">
        <ele>100</ele>
        <time>2022-12-25T13:34:34Z</time>
      </trkpt>
      <trkpt lat="48.59567" lon="2.10456">
        <ele>100</ele>
        <time>2022-12-25T13:34:36Z</time>
      </trkpt>
      <trkpt lat="48.59565" lon="2.10453">
        <ele>100</ele>
        <time>2022-12-25T13:34:38Z</time>
      </trkpt>
      <trkpt lat="48.59562" lon="2.10451">
        <ele>100</ele>
        <time>2022-12-25T13:34:40Z</time>
      </trkpt>
      <trkpt lat="48.59559" lon="2.10448">
        <ele>100</ele>
        <time>2022-12-25T13:34:42Z</time>
      </trkpt>
      <trkpt lat="48.59557" lon="2.10445">
        <ele>99</ele>
        <time>2022-12-25T13:34:44Z</time>
      </trkpt>
      <trkpt lat="48.59554" lon="2.10443">
        <ele>99</ele>
        <time>2022-12-25T13:34:46Z</time>
      </trkpt>
      <trkpt lat="48.59552" lon="2.1044">
        <ele>99</ele>
        <time>2022-12-25T13:34:49Z</time>
      </trkpt>
      <trkpt lat="48.59549" lon="2.10437">
        <ele>99</ele>
        <time>2022-12-25T13:34:50Z</time>
      </trkpt>
      <trkpt lat="48.59547" lon="2.10434">
        <ele>99</ele>
        <time>2022-12-25T13:34:52Z</time>
      </trkpt>
      <trkpt lat="48.59545" lon="2.10431">
        <ele>98</ele>
        <time>2022-12-25T13:34:54Z</time>
      </trkpt>
      <trkpt lat="48.59542" lon="2.10429">
        <ele>98</ele>
        <time>2022-12-25T13:34:56Z</time>
      </trkpt>
      <trkpt lat="48.5954" lon="2.10425">
        <ele>98</ele>
        <time>2022-12-25T13:34:58Z</time>
      </trkpt>
      <trkpt lat="48.59537" lon="2.10423">
        <ele>98</ele>
        <time>2022-12-25T13:35:00Z</time>
      </trkpt>
      <trkpt lat="48.59534" lon="2.10421">
        <ele>98</ele>
        <time>2022-12-25T13:35:02Z</time>
      </trkpt>
      <trkpt lat="48.59532" lon="2.10419">
        <ele>97</ele>
        <time>2022-12-25T13:35:04Z</time>
      </trkpt>
      <trkpt lat="48.59529" lon="2.10417">
        <ele>97</ele>
        <time>2022-12-25T13:35:06Z</time>
      </trkpt>
      <trkpt lat="48.59527" lon="2.10415">
        <ele>98</ele>
        <time>2022-12-25T13:35:08Z</time>
      </trkpt>
      <trkpt lat="48.59524" lon="2.10412">
        <ele>97</ele>
        <time>2022-12-25T13:35:10Z</time>
      </trkpt>
      <trkpt lat="48.59522" lon="2.1041">
        <ele>97</ele>
        <time>2022-12-25T13:35:12Z</time>
      </trkpt>
      <trkpt lat="48.59519" lon="2.10408">
        <ele>97</ele>
        <time>2022-12-25T13:35:14Z</time>
      </trkpt>
      <trkpt lat="48.59517" lon="2.10406">
        <ele>97</ele>
        <time>2022-12-25T13:35:16Z</time>
      </trkpt>
      <trkpt lat="48.59514" lon="2.10404">
        <ele>97</ele>
        <time>2022-12-25T13:35:18Z</time>
      </trkpt>
      <trkpt lat="48.59512" lon="2.10402">
        <ele>97</ele>
        <time>2022-12-25T13:35:20Z</time>
      </trkpt>
      <trkpt lat="48.59509" lon="2.104">
        <ele>96</ele>
        <time>2022-12-25T13:35:22Z</time>
      </trkpt>
      <trkpt lat="48.59506" lon="2.10398">
        <ele>96</ele>
        <time>2022-12-25T13:35:24Z</time>
      </trkpt>
      <trkpt lat="48.59504" lon="2.10395">
        <ele>95</ele>
        <time>2022-12-25T13:35:27Z</time>
      </trkpt>
      <trkpt lat="48.59501" lon="2.10392">
        <ele>95</ele>
        <time>2022-12-25T13:35:28Z</time>
      </trkpt>
      <trkpt lat="48.59498" lon="2.1039">
        <ele>95</ele>
        <time>2022-12-25T13:35:30Z</time>
      </trkpt>
      <trkpt lat="48.59495" lon="2.10387">
        <ele>95</ele>
        <time>2022-12-25T13:35:32Z</time>
      </trkpt>
      <trkpt lat="48.59493" lon="2.10384">
        <ele>95</ele>
        <time>2022-12-25T13:35:34Z</time>
      </trkpt>
      <trkpt lat="48.5949" lon="2.10381">
        <ele>95</ele>
        <time>2022-12-25T13:35:36Z</time>
      </trkpt>
      <trkpt lat="48.59488" lon="2.10379">
        <ele>95</ele>
        <time>2022-12-25T13:35:38Z</time>
      </trkpt>
      <trkpt lat="48.59485" lon="2.10376">
        <ele>94</ele>
        <time>2022-12-25T13:35:40Z</time>
      </trkpt>
      <trkpt lat="48.59482" lon="2.10374">
        <ele>94</ele>
        <time>2022-12-25T13:35:42Z</time>
      </trkpt>
      <trkpt lat="48.59479" lon="2.10373">
        <ele>94</ele>
        <time>2022-12-25T13:35:44Z</time>
      </trkpt>
      <trkpt lat="48.59477" lon="2.10372">
        <ele>94</ele>
        <time>2022-12-25T13:35:46Z</time>
      </trkpt>
      <trkpt lat="48.59474" lon="2.10372">
        <ele>94</ele>
        <time>2022-12-25T13:35:48Z</time>
      </trkpt>
      <trkpt lat="48.59471" lon="2.10372">
        <ele>94</ele>
        <time>2022-12-25T13:35:50Z</time>
      </trkpt>
      <trkpt lat="48.59469" lon="2.10371">
        <ele>93</ele>
        <time>2022-12-25T13:35:52Z</time>
      </trkpt>
      <trkpt lat="48.59467" lon="2.1037">
        <ele>93</ele>
        <time>2022-12-25T13:35:54Z</time>
      </trkpt>
      <trkpt lat="48.59465" lon="2.10369">
        <ele>93</ele>
        <time>2022-12-25T13:35:56Z</time>
      </trkpt>
      <trkpt lat="48.59463" lon="2.1037">
        <ele>94</ele>
        <time>2022-12-25T13:35:57Z</time>
      </trkpt>
      <trkpt lat="48.5946" lon="2.10372">
        <ele>94</ele>
        <time>2022-12-25T13:35:59Z</time>
      </trkpt>
      <trkpt lat="48.59458" lon="2.10374">
        <ele>93</ele>
        <time>2022-12-25T13:36:01Z</time>
      </trkpt>
      <trkpt lat="48.59456" lon="2.10376">
        <ele>93</ele>
        <time>2022-12-25T13:36:03Z</time>
      </trkpt>
      <trkpt lat="48.59455" lon="2.10378">
        <ele>93</ele>
        <time>2022-12-25T13:36:05Z</time>
      </trkpt>
      <trkpt lat="48.59452" lon="2.10381">
        <ele>93</ele>
        <time>2022-12-25T13:36:07Z</time>
      </trkpt>
      <trkpt lat="48.59449" lon="2.10383">
        <ele>93</ele>
        <time>2022-12-25T13:36:09Z</time>
      </trkpt>
      <trkpt lat="48.59446" lon="2.10385">
        <ele>93</ele>
        <time>2022-12-25T13:36:11Z</time>
      </trkpt>
      <trkpt lat="48.59443" lon="2.10387">
        <ele>93</ele>
        <time>2022-12-25T13:36:13Z</time>
      </trkpt>
      <trkpt lat="48.5944" lon="2.10389">
        <ele>93</ele>
        <time>2022-12-25T13:36:15Z</time>
      </trkpt>
      <trkpt lat="48.59437" lon="2.1039">
        <ele>93</ele>
        <time>2022-12-25T13:36:17Z</time>
      </trkpt>
      <trkpt lat="48.59434" lon="2.10392">
        <ele>93</ele>
        <time>2022-12-25T13:36:19Z</time>
      </trkpt>
      <trkpt lat="48.59431" lon="2.10394">
        <ele>93</ele>
        <time>2022-12-25T13:36:21Z</time>
      </trkpt>
      <trkpt lat="48.59429" lon="2.10395">
        <ele>93</ele>
        <time>2022-12-25T13:36:23Z</time>
      </trkpt>
      <trkpt lat="48.59427" lon="2.10395">
        <ele>93</ele>
        <time>2022-12-25T13:36:24Z</time>
      </trkpt>
      <trkpt lat="48.59425" lon="2.10397">
        <ele>93</ele>
        <time>2022-12-25T13:36:25Z</time>
      </trkpt>
      <trkpt lat="48.59422" lon="2.10399">
        <ele>93</ele>
        <time>2022-12-25T13:36:27Z</time>
      </trkpt>
      <trkpt lat="48.59419" lon="2.104">
        <ele>93</ele>
        <time>2022-12-25T13:36:29Z</time>
      </trkpt>
      <trkpt lat="48.59416" lon="2.10402">
        <ele>93</ele>
        <time>2022-12-25T13:36:31Z</time>
      </trkpt>
      <trkpt lat="48.59413" lon="2.10404">
        <ele>93</ele>
        <time>2022-12-25T13:36:33Z</time>
      </trkpt>
      <trkpt lat="48.5941" lon="2.10405">
        <ele>93</ele>
        <time>2022-12-25T13:36:35Z</time>
      </trkpt>
      <trkpt lat="48.59408" lon="2.10406">
        <ele>92</ele>
        <time>2022-12-25T13:36:37Z</time>
      </trkpt>
      <trkpt lat="48.59405" lon="2.10408">
        <ele>92</ele>
        <time>2022-12-25T13:36:39Z</time>
      </trkpt>
      <trkpt lat="48.59402" lon="2.1041">
        <ele>92</ele>
        <time>2022-12-25T13:36:41Z</time>
      </trkpt>
      <trkpt lat="48.59399" lon="2.1041">
        <ele>92</ele>
        <time>2022-12-25T13:36:43Z</time>
      </trkpt>
      <trkpt lat="48.59397" lon="2.10412">
        <ele>91</ele>
        <time>2022-12-25T13:36:45Z</time>
      </trkpt>
      <trkpt lat="48.59394" lon="2.10413">
        <ele>91</ele>
        <time>2022-12-25T13:36:47Z</time>
      </trkpt>
      <trkpt lat="48.59391" lon="2.10414">
        <ele>91</ele>
        <time>2022-12-25T13:36:49Z</time>
      </trkpt>
      <trkpt lat="48.59388" lon="2.10416">
        <ele>90</ele>
        <time>2022-12-25T13:36:51Z</time>
      </trkpt>
      <trkpt lat="48.59386" lon="2.10418">
        <ele>90</ele>
        <time>2022-12-25T13:36:53Z</time>
      </trkpt>
      <trkpt lat="48.59383" lon="2.1042">
        <ele>90</ele>
        <time>2022-12-25T13:36:55Z</time>
      </trkpt>
      <trkpt lat="48.5938" lon="2.10421">
        <ele>90</ele>
        <time>2022-12-25T13:36:57Z</time>
      </trkpt>
      <trkpt lat="48.59378" lon="2.10423">
        <ele>90</ele>
        <time>2022-12-25T13:36:59Z</time>
      </trkpt>
      <trkpt lat="48.59375" lon="2.10425">
        <ele>89</ele>
        <time>2022-12-25T13:37:02Z</time>
      </trkpt>
      <trkpt lat="48.59372" lon="2.10426">
        <ele>89</ele>
        <time>2022-12-25T13:37:03Z</time>
      </trkpt>
      <trkpt lat="48.59369" lon="2.10428">
        <ele>89</ele>
        <time>2022-12-25T13:37:05Z</time>
      </trkpt>
      <trkpt lat="48.59367" lon="2.1043">
        <ele>89</ele>
        <time>2022-12-25T13:37:07Z</time>
      </trkpt>
      <trkpt lat="48.59364" lon="2.10431">
        <ele>89</ele>
        <time>2022-12-25T13:37:09Z</time>
      </trkpt>
      <trkpt lat="48.59361" lon="2.10433">
        <ele>89</ele>
        <time>2022-12-25T13:37:11Z</time>
      </trkpt>
      <trkpt lat="48.59359" lon="2.10434">
        <ele>89</ele>
        <time>2022-12-25T13:37:13Z</time>
      </trkpt>
      <trkpt lat="48.59356" lon="2.10436">
        <ele>88</ele>
        <time>2022-12-25T13:37:15Z</time>
      </trkpt>
      <trkpt lat="48.59353" lon="2.10437">
        <ele>88</ele>
        <time>2022-12-25T13:37:17Z</time>
      </trkpt>
      <trkpt lat="48.59351" lon="2.10439">
        <ele>88</ele>
        <time>2022-12-25T13:37:19Z</time>
      </trkpt>
      <trkpt lat="48.59348" lon="2.10441">
        <ele>88</ele>
        <time>2022-12-25T13:37:21Z</time>
      </trkpt>
      <trkpt lat="48.59345" lon="2.10443">
        <ele>88</ele>
        <time>2022-12-25T13:37:23Z</time>
      </trkpt>
      <trkpt lat="48.59342" lon="2.10445">
        <ele>88</ele>
        <time>2022-12-25T13:37:25Z</time>
      </trkpt>
      <trkpt lat="48.59339" lon="2.10447">
        <ele>87</ele>
        <time>2022-12-25T13:37:27Z</time>
      </trkpt>
      <trkpt lat="48.59337" lon="2.10449">
        <ele>87</ele>
        <time>2022-12-25T13:37:29Z</time>
      </trkpt>
      <trkpt lat="48.59334" lon="2.10451">
        <ele>87</ele>
        <time>2022-12-25T13:37:31Z</time>
      </trkpt>
      <trkpt lat="48.59332" lon="2.10452">
        <ele>87</ele>
        <time>2022-12-25T13:37:33Z</time>
      </trkpt>
      <trkpt lat="48.59329" lon="2.10454">
        <ele>87</ele>
        <time>2022-12-25T13:37:35Z</time>
      </trkpt>
      <trkpt lat="48.59327" lon="2.10456">
        <ele>87</ele>
        <time>2022-12-25T13:37:37Z</time>
      </trkpt>
      <trkpt lat="48.59324" lon="2.10459">
        <ele>87</ele>
        <time>2022-12-25T13:37:40Z</time>
      </trkpt>
      <trkpt lat="48.59322" lon="2.10461">
        <ele>87</ele>
        <time>2022-12-25T13:37:41Z</time>
      </trkpt>
      <trkpt lat="48.5932" lon="2.10462">
        <ele>87</ele>
        <time>2022-12-25T13:37:43Z</time>
      </trkpt>
      <trkpt lat="48.59318" lon="2.10464">
        <ele>87</ele>
        <time>2022-12-25T13:37:45Z</time>
      </trkpt>
      <trkpt lat="48.59315" lon="2.10467">
        <ele>86</ele>
        <time>2022-12-25T13:37:47Z</time>
      </trkpt>
      <trkpt lat="48.59313" lon="2.10469">
        <ele>86</ele>
        <time>2022-12-25T13:37:49Z</time>
      </trkpt>
      <trkpt lat="48.5931" lon="2.10472">
        <ele>86</ele>
        <time>2022-12-25T13:37:51Z</time>
      </trkpt>
      <trkpt lat="48.59308" lon="2.10475">
        <ele>87</ele>
        <time>2022-12-25T13:37:53Z</time>
      </trkpt>
      <trkpt lat="48.59306" lon="2.10478">
        <ele>87</ele>
        <time>2022-12-25T13:37:55Z</time>
      </trkpt>
      <trkpt lat="48.59304" lon="2.10482">
        <ele>87</ele>
        <time>2022-12-25T13:37:57Z</time>
      </trkpt>
      <trkpt lat="48.59302" lon="2.10485">
        <ele>87</ele>
        <time>2022-12-25T13:37:59Z</time>
      </trkpt>
      <trkpt lat="48.59299" lon="2.10488">
        <ele>87</ele>
        <time>2022-12-25T13:38:01Z</time>
      </trkpt>
      <trkpt lat="48.59297" lon="2.10491">
        <ele>87</ele>
        <time>2022-12-25T13:38:03Z</time>
      </trkpt>
      <trkpt lat="48.59295" lon="2.10494">
        <ele>87</ele>
        <time>2022-12-25T13:38:05Z</time>
      </trkpt>
      <trkpt lat="48.59293" lon="2.10497">
        <ele>87</ele>
        <time>2022-12-25T13:38:07Z</time>
      </trkpt>
      <trkpt lat="48.59291" lon="2.10501">
        <ele>87</ele>
        <time>2022-12-25T13:38:09Z</time>
      </trkpt>
      <trkpt lat="48.59289" lon="2.10504">
        <ele>87</ele>
        <time>2022-12-25T13:38:11Z</time>
      </trkpt>
      <trkpt lat="48.59287" lon="2.10506">
        <ele>87</ele>
        <time>2022-12-25T13:38:13Z</time>
      </trkpt>
      <trkpt lat="48.59285" lon="2.10509">
        <ele>87</ele>
        <time>2022-12-25T13:38:15Z</time>
      </trkpt>
      <trkpt lat="48.59283" lon="2.10512">
        <ele>87</ele>
        <time>2022-12-25T13:38:18Z</time>
      </trkpt>
      <trkpt lat="48.59281" lon="2.10516">
        <ele>87</ele>
        <time>2022-12-25T13:38:19Z</time>
      </trkpt>
      <trkpt lat="48.5928" lon="2.10519">
        <ele>87</ele>
        <time>2022-12-25T13:38:21Z</time>
      </trkpt>
      <trkpt lat="48.59278" lon="2.10522">
        <ele>87</ele>
        <time>2022-12-25T13:38:23Z</time>
      </trkpt>
      <trkpt lat="48.59276" lon="2.10525">
        <ele>87</ele>
        <time>2022-12-25T13:38:25Z</time>
      </trkpt>
      <trkpt lat="48.59274" lon="2.10529">
        <ele>87</ele>
        <time>2022-12-25T13:38:27Z</time>
      </trkpt>
      <trkpt lat="48.59272" lon="2.10532">
        <ele>87</ele>
        <time>2022-12-25T13:38:29Z</time>
      </trkpt>
      <trkpt lat="48.59271" lon="2.10535">
        <ele>88</ele>
        <time>2022-12-25T13:38:31Z</time>
      </trkpt>
      <trkpt lat="48.59269" lon="2.10539">
        <ele>88</ele>
        <time>2022-12-25T13:38:33Z</time>
      </trkpt>
      <trkpt lat="48.59268" lon="2.10541">
        <ele>88</ele>
        <time>2022-12-25T13:38:35Z</time>
      </trkpt>
      <trkpt lat="48.59266" lon="2.10545">
        <ele>88</ele>
        <time>2022-12-25T13:38:37Z</time>
      </trkpt>
      <trkpt lat="48.59265" lon="2.10547">
        <ele>88</ele>
        <time>2022-12-25T13:38:39Z</time>
      </trkpt>
      <trkpt lat="48.59264" lon="2.1055">
        <ele>88</ele>
        <time>2022-12-25T13:38:41Z</time>
      </trkpt>
      <trkpt lat="48.59262" lon="2.10554">
        <ele>88</ele>
        <time>2022-12-25T13:38:43Z</time>
      </trkpt>
      <trkpt lat="48.5926" lon="2.10557">
        <ele>88</ele>
        <time>2022-12-25T13:38:45Z</time>
      </trkpt>
      <trkpt lat="48.59259" lon="2.10561">
        <ele>88</ele>
        <time>2022-12-25T13:38:48Z</time>
      </trkpt>
      <trkpt lat="48.59258" lon="2.10564">
        <ele>89</ele>
        <time>2022-12-25T13:38:50Z</time>
      </trkpt>
      <trkpt lat="48.59258" lon="2.10567">
        <ele>89</ele>
        <time>2022-12-25T13:38:52Z</time>
      </trkpt>
      <trkpt lat="48.59257" lon="2.1057">
        <ele>89</ele>
        <time>2022-12-25T13:38:54Z</time>
      </trkpt>
      <trkpt lat="48.59256" lon="2.10574">
        <ele>89</ele>
        <time>2022-12-25T13:38:56Z</time>
      </trkpt>
      <trkpt lat="48.59254" lon="2.10577">
        <ele>89</ele>
        <time>2022-12-25T13:38:58Z</time>
      </trkpt>
      <trkpt lat="48.59253" lon="2.1058">
        <ele>89</ele>
        <time>2022-12-25T13:39:00Z</time>
      </trkpt>
      <trkpt lat="48.59251" lon="2.10584">
        <ele>89</ele>
        <time>2022-12-25T13:39:02Z</time>
      </trkpt>
      <trkpt lat="48.59249" lon="2.10588">
        <ele>89</ele>
        <time>2022-12-25T13:39:04Z</time>
      </trkpt>
      <trkpt lat="48.59248" lon="2.10591">
        <ele>89</ele>
        <time>2022-12-25T13:39:06Z</time>
      </trkpt>
      <trkpt lat="48.59247" lon="2.10594">
        <ele>89</ele>
        <time>2022-12-25T13:39:08Z</time>
      </trkpt>
      <trkpt lat="48.59245" lon="2.10597">
        <ele>89</ele>
        <time>2022-12-25T13:39:10Z</time>
      </trkpt>
      <trkpt lat="48.59244" lon="2.10601">
        <ele>89</ele>
        <time>2022-12-25T13:39:12Z</time>
      </trkpt>
      <trkpt lat="48.59243" lon="2.10605">
        <ele>89</ele>
        <time>2022-12-25T13:39:14Z</time>
      </trkpt>
      <trkpt lat="48.59241" lon="2.10609">
        <ele>89</ele>
        <time>2022-12-25T13:39:16Z</time>
      </trkpt>
      <trkpt lat="48.59239" lon="2.10612">
        <ele>90</ele>
        <time>2022-12-25T13:39:18Z</time>
      </trkpt>
      <trkpt lat="48.59238" lon="2.10616">
        <ele>90</ele>
        <time>2022-12-25T13:39:20Z</time>
      </trkpt>
      <trkpt lat="48.59236" lon="2.10619">
        <ele>90</ele>
        <time>2022-12-25T13:39:22Z</time>
      </trkpt>
      <trkpt lat="48.59235" lon="2.10622">
        <ele>90</ele>
        <time>2022-12-25T13:39:24Z</time>
      </trkpt>
      <trkpt lat="48.59233" lon="2.10623">
        <ele>90</ele>
        <time>2022-12-25T13:39:31Z</time>
      </trkpt>
      <trkpt lat="48.59233" lon="2.10627">
        <ele>90</ele>
        <time>2022-12-25T13:39:34Z</time>
      </trkpt>
      <trkpt lat="48.59231" lon="2.1063">
        <ele>90</ele>
        <time>2022-12-25T13:39:36Z</time>
      </trkpt>
      <trkpt lat="48.59228" lon="2.10635">
        <ele>90</ele>
        <time>2022-12-25T13:39:38Z</time>
      </trkpt>
      <trkpt lat="48.59226" lon="2.10637">
        <ele>90</ele>
        <time>2022-12-25T13:39:39Z</time>
      </trkpt>
      <trkpt lat="48.59225" lon="2.10639">
        <ele>90</ele>
        <time>2022-12-25T13:39:40Z</time>
      </trkpt>
      <trkpt lat="48.59223" lon="2.10643">
        <ele>90</ele>
        <time>2022-12-25T13:39:42Z</time>
      </trkpt>
      <trkpt lat="48.59222" lon="2.10645">
        <ele>90</ele>
        <time>2022-12-25T13:39:43Z</time>
      </trkpt>
      <trkpt lat="48.5922" lon="2.10649">
        <ele>90</ele>
        <time>2022-12-25T13:39:45Z</time>
      </trkpt>
      <trkpt lat="48.59218" lon="2.10651">
        <ele>90</ele>
        <time>2022-12-25T13:39:46Z</time>
      </trkpt>
      <trkpt lat="48.59216" lon="2.10654">
        <ele>91</ele>
        <time>2022-12-25T13:39:48Z</time>
      </trkpt>
      <trkpt lat="48.59213" lon="2.10657">
        <ele>91</ele>
        <time>2022-12-25T13:39:50Z</time>
      </trkpt>
      <trkpt lat="48.59212" lon="2.1066">
        <ele>91</ele>
        <time>2022-12-25T13:39:53Z</time>
      </trkpt>
      <trkpt lat="48.5921" lon="2.10663">
        <ele>91</ele>
        <time>2022-12-25T13:39:54Z</time>
      </trkpt>
      <trkpt lat="48.59208" lon="2.10666">
        <ele>92</ele>
        <time>2022-12-25T13:39:56Z</time>
      </trkpt>
      <trkpt lat="48.59206" lon="2.10669">
        <ele>92</ele>
        <time>2022-12-25T13:39:58Z</time>
      </trkpt>
      <trkpt lat="48.59205" lon="2.10672">
        <ele>92</ele>
        <time>2022-12-25T13:40:00Z</time>
      </trkpt>
      <trkpt lat="48.59203" lon="2.10675">
        <ele>93</ele>
        <time>2022-12-25T13:40:02Z</time>
      </trkpt>
      <trkpt lat="48.59201" lon="2.10678">
        <ele>93</ele>
        <time>2022-12-25T13:40:04Z</time>
      </trkpt>
      <trkpt lat="48.592" lon="2.10681">
        <ele>93</ele>
        <time>2022-12-25T13:40:06Z</time>
      </trkpt>
      <trkpt lat="48.59198" lon="2.10684">
        <ele>93</ele>
        <time>2022-12-25T13:40:08Z</time>
      </trkpt>
      <trkpt lat="48.59196" lon="2.10687">
        <ele>93</ele>
        <time>2022-12-25T13:40:10Z</time>
      </trkpt>
      <trkpt lat="48.59195" lon="2.1069">
        <ele>93</ele>
        <time>2022-12-25T13:40:12Z</time>
      </trkpt>
      <trkpt lat="48.59194" lon="2.10693">
        <ele>93</ele>
        <time>2022-12-25T13:40:14Z</time>
      </trkpt>
      <trkpt lat="48.59192" lon="2.10696">
        <ele>92</ele>
        <time>2022-12-25T13:40:16Z</time>
      </trkpt>
      <trkpt lat="48.59191" lon="2.10698">
        <ele>92</ele>
        <time>2022-12-25T13:40:18Z</time>
      </trkpt>
      <trkpt lat="48.59189" lon="2.10702">
        <ele>92</ele>
        <time>2022-12-25T13:40:20Z</time>
      </trkpt>
      <trkpt lat="48.59187" lon="2.10705">
        <ele>92</ele>
        <time>2022-12-25T13:40:22Z</time>
      </trkpt>
      <trkpt lat="48.59186" lon="2.10709">
        <ele>91</ele>
        <time>2022-12-25T13:40:25Z</time>
      </trkpt>
      <trkpt lat="48.59185" lon="2.10712">
        <ele>91</ele>
        <time>2022-12-25T13:40:27Z</time>
      </trkpt>
      <trkpt lat="48.59183" lon="2.10715">
        <ele>91</ele>
        <time>2022-12-25T13:40:29Z</time>
      </trkpt>
      <trkpt lat="48.59182" lon="2.10717">
        <ele>90</ele>
        <time>2022-12-25T13:40:31Z</time>
      </trkpt>
      <trkpt lat="48.59179" lon="2.10721">
        <ele>90</ele>
        <time>2022-12-25T13:40:32Z</time>
      </trkpt>
      <trkpt lat="48.59177" lon="2.10724">
        <ele>90</ele>
        <time>2022-12-25T13:40:34Z</time>
      </trkpt>
      <trkpt lat="48.59175" lon="2.10728">
        <ele>89</ele>
        <time>2022-12-25T13:40:36Z</time>
      </trkpt>
      <trkpt lat="48.59173" lon="2.10731">
        <ele>89</ele>
        <time>2022-12-25T13:40:38Z</time>
      </trkpt>
      <trkpt lat="48.59171" lon="2.10734">
        <ele>89</ele>
        <time>2022-12-25T13:40:40Z</time>
      </trkpt>
      <trkpt lat="48.5917" lon="2.10738">
        <ele>89</ele>
        <time>2022-12-25T13:40:42Z</time>
      </trkpt>
      <trkpt lat="48.59168" lon="2.10741">
        <ele>89</ele>
        <time>2022-12-25T13:40:44Z</time>
      </trkpt>
      <trkpt lat="48.59167" lon="2.10745">
        <ele>89</ele>
        <time>2022-12-25T13:40:46Z</time>
      </trkpt>
      <trkpt lat="48.59166" lon="2.10748">
        <ele>89</ele>
        <time>2022-12-25T13:40:48Z</time>
      </trkpt>
      <trkpt lat="48.59164" lon="2.10752">
        <ele>88</ele>
        <time>2022-12-25T13:40:50Z</time>
      </trkpt>
      <trkpt lat="48.59163" lon="2.10756">
        <ele>88</ele>
        <time>2022-12-25T13:40:52Z</time>
      </trkpt>
      <trkpt lat="48.59161" lon="2.10759">
        <ele>87</ele>
        <time>2022-12-25T13:40:54Z</time>
      </trkpt>
      <trkpt lat="48.59159" lon="2.10762">
        <ele>87</ele>
        <time>2022-12-25T13:40:56Z</time>
      </trkpt>
      <trkpt lat="48.59156" lon="2.10763">
        <ele>87</ele>
        <time>2022-12-25T13:40:59Z</time>
      </trkpt>
      <trkpt lat="48.59153" lon="2.10763">
        <ele>87</ele>
        <time>2022-12-25T13:41:00Z</time>
      </trkpt>
      <trkpt lat="48.5915" lon="2.10761">
        <ele>86</ele>
        <time>2022-12-25T13:41:02Z</time>
      </trkpt>
      <trkpt lat="48.59148" lon="2.10757">
        <ele>86</ele>
        <time>2022-12-25T13:41:04Z</time>
      </trkpt>
      <trkpt lat="48.59148" lon="2.10752">
        <ele>85</ele>
        <time>2022-12-25T13:41:06Z</time>
      </trkpt>
      <trkpt lat="48.59147" lon="2.10748">
        <ele>84</ele>
        <time>2022-12-25T13:41:09Z</time>
      </trkpt>
      <trkpt lat="48.59147" lon="2.10743">
        <ele>84</ele>
        <time>2022-12-25T13:41:10Z</time>
      </trkpt>
      <trkpt lat="48.59146" lon="2.10739">
        <ele>83</ele>
        <time>2022-12-25T13:41:12Z</time>
      </trkpt>
      <trkpt lat="48.59145" lon="2.10735">
        <ele>83</ele>
        <time>2022-12-25T13:41:14Z</time>
      </trkpt>
      <trkpt lat="48.59144" lon="2.10731">
        <ele>83</ele>
        <time>2022-12-25T13:41:16Z</time>
      </trkpt>
      <trkpt lat="48.59143" lon="2.10727">
        <ele>82</ele>
        <time>2022-12-25T13:41:18Z</time>
      </trkpt>
      <trkpt lat="48.59143" lon="2.10723">
        <ele>82</ele>
        <time>2022-12-25T13:41:20Z</time>
      </trkpt>
      <trkpt lat="48.59142" lon="2.10719">
        <ele>82</ele>
        <time>2022-12-25T13:41:22Z</time>
      </trkpt>
      <trkpt lat="48.59141" lon="2.10714">
        <ele>82</ele>
        <time>2022-12-25T13:41:24Z</time>
      </trkpt>
      <trkpt lat="48.59141" lon="2.10709">
        <ele>82</ele>
        <time>2022-12-25T13:41:26Z</time>
      </trkpt>
      <trkpt lat="48.5914" lon="2.10705">
        <ele>82</ele>
        <time>2022-12-25T13:41:28Z</time>
      </trkpt>
      <trkpt lat="48.59138" lon="2.10702">
        <ele>82</ele>
        <time>2022-12-25T13:41:30Z</time>
      </trkpt>
      <trkpt lat="48.59136" lon="2.10698">
        <ele>82</ele>
        <time>2022-12-25T13:41:32Z</time>
      </trkpt>
      <trkpt lat="48.59136" lon="2.10695">
        <ele>82</ele>
        <time>2022-12-25T13:41:33Z</time>
      </trkpt>
      <trkpt lat="48.59136" lon="2.1069">
        <ele>82</ele>
        <time>2022-12-25T13:41:35Z</time>
      </trkpt>
      <trkpt lat="48.59135" lon="2.10686">
        <ele>82</ele>
        <time>2022-12-25T13:41:37Z</time>
      </trkpt>
      <trkpt lat="48.59135" lon="2.10682">
        <ele>82</ele>
        <time>2022-12-25T13:41:39Z</time>
      </trkpt>
      <trkpt lat="48.59135" lon="2.10678">
        <ele>82</ele>
        <time>2022-12-25T13:41:41Z</time>
      </trkpt>
      <trkpt lat="48.59135" lon="2.10673">
        <ele>82</ele>
        <time>2022-12-25T13:41:43Z</time>
      </trkpt>
      <trkpt lat="48.59134" lon="2.10669">
        <ele>82</ele>
        <time>2022-12-25T13:41:45Z</time>
      </trkpt>
      <trkpt lat="48.59134" lon="2.10664">
        <ele>82</ele>
        <time>2022-12-25T13:41:47Z</time>
      </trkpt>
      <trkpt lat="48.59134" lon="2.1066">
        <ele>82</ele>
        <time>2022-12-25T13:41:49Z</time>
      </trkpt>
      <trkpt lat="48.59134" lon="2.10655">
        <ele>83</ele>
        <time>2022-12-25T13:41:51Z</time>
      </trkpt>
      <trkpt lat="48.59134" lon="2.1065">
        <ele>83</ele>
        <time>2022-12-25T13:41:53Z</time>
      </trkpt>
      <trkpt lat="48.59134" lon="2.10645">
        <ele>83</ele>
        <time>2022-12-25T13:41:55Z</time>
      </trkpt>
      <trkpt lat="48.59134" lon="2.1064">
        <ele>82</ele>
        <time>2022-12-25T13:41:57Z</time>
      </trkpt>
      <trkpt lat="48.59134" lon="2.10635">
        <ele>82</ele>
        <time>2022-12-25T13:41:59Z</time>
      </trkpt>
      <trkpt lat="48.59133" lon="2.1063">
        <ele>82</ele>
        <time>2022-12-25T13:42:01Z</time>
      </trkpt>
      <trkpt lat="48.59134" lon="2.10625">
        <ele>82</ele>
        <time>2022-12-25T13:42:03Z</time>
      </trkpt>
      <trkpt lat="48.59134" lon="2.10621">
        <ele>82</ele>
        <time>2022-12-25T13:42:06Z</time>
      </trkpt>
      <trkpt lat="48.59134" lon="2.10617">
        <ele>83</ele>
        <time>2022-12-25T13:42:07Z</time>
      </trkpt>
      <trkpt lat="48.59133" lon="2.10612">
        <ele>82</ele>
        <time>2022-12-25T13:42:09Z</time>
      </trkpt>
      <trkpt lat="48.59133" lon="2.10607">
        <ele>82</ele>
        <time>2022-12-25T13:42:11Z</time>
      </trkpt>
      <trkpt lat="48.59132" lon="2.10603">
        <ele>82</ele>
        <time>2022-12-25T13:42:13Z</time>
      </trkpt>
      <trkpt lat="48.59131" lon="2.10599">
        <ele>82</ele>
        <time>2022-12-25T13:42:15Z</time>
      </trkpt>
      <trkpt lat="48.59131" lon="2.10595">
        <ele>82</ele>
        <time>2022-12-25T13:42:17Z</time>
      </trkpt>
      <trkpt lat="48.59131" lon="2.10591">
        <ele>82</ele>
        <time>2022-12-25T13:42:19Z</time>
      </trkpt>
      <trkpt lat="48.5913" lon="2.10587">
        <ele>82</ele>
        <time>2022-12-25T13:42:21Z</time>
      </trkpt>
      <trkpt lat="48.5913" lon="2.10583">
        <ele>82</ele>
        <time>2022-12-25T13:42:23Z</time>
      </trkpt>
      <trkpt lat="48.59129" lon="2.10579">
        <ele>82</ele>
        <time>2022-12-25T13:42:25Z</time>
      </trkpt>
      <trkpt lat="48.59129" lon="2.10575">
        <ele>82</ele>
        <time>2022-12-25T13:42:27Z</time>
      </trkpt>
      <trkpt lat="48.59128" lon="2.10571">
        <ele>81</ele>
        <time>2022-12-25T13:42:29Z</time>
      </trkpt>
      <trkpt lat="48.59128" lon="2.10567">
        <ele>82</ele>
        <time>2022-12-25T13:42:31Z</time>
      </trkpt>
      <trkpt lat="48.59127" lon="2.10563">
        <ele>82</ele>
        <time>2022-12-25T13:42:33Z</time>
      </trkpt>
      <trkpt lat="48.59127" lon="2.10558">
        <ele>82</ele>
        <time>2022-12-25T13:42:35Z</time>
      </trkpt>
      <trkpt lat="48.59127" lon="2.10555">
        <ele>82</ele>
        <time>2022-12-25T13:42:37Z</time>
      </trkpt>
      <trkpt lat="48.59126" lon="2.10551">
        <ele>82</ele>
        <time>2022-12-25T13:42:39Z</time>
      </trkpt>
      <trkpt lat="48.59126" lon="2.10547">
        <ele>82</ele>
        <time>2022-12-25T13:42:41Z</time>
      </trkpt>
      <trkpt lat="48.59126" lon="2.10543">
        <ele>83</ele>
        <time>2022-12-25T13:42:44Z</time>
      </trkpt>
      <trkpt lat="48.59125" lon="2.10538">
        <ele>83</ele>
        <time>2022-12-25T13:42:45Z</time>
      </trkpt>
      <trkpt lat="48.59124" lon="2.10534">
        <ele>83</ele>
        <time>2022-12-25T13:42:47Z</time>
      </trkpt>
      <trkpt lat="48.59123" lon="2.10531">
        <ele>83</ele>
        <time>2022-12-25T13:42:49Z</time>
      </trkpt>
      <trkpt lat="48.59122" lon="2.10527">
        <ele>83</ele>
        <time>2022-12-25T13:42:51Z</time>
      </trkpt>
      <trkpt lat="48.59121" lon="2.10523">
        <ele>83</ele>
        <time>2022-12-25T13:42:53Z</time>
      </trkpt>
      <trkpt lat="48.5912" lon="2.10519">
        <ele>83</ele>
        <time>2022-12-25T13:42:55Z</time>
      </trkpt>
      <trkpt lat="48.59118" lon="2.10515">
        <ele>83</ele>
        <time>2022-12-25T13:42:57Z</time>
      </trkpt>
      <trkpt lat="48.59117" lon="2.10511">
        <ele>83</ele>
        <time>2022-12-25T13:42:59Z</time>
      </trkpt>
      <trkpt lat="48.59116" lon="2.10507">
        <ele>83</ele>
        <time>2022-12-25T13:43:01Z</time>
      </trkpt>
      <trkpt lat="48.59114" lon="2.10503">
        <ele>83</ele>
        <time>2022-12-25T13:43:03Z</time>
      </trkpt>
      <trkpt lat="48.59113" lon="2.10501">
        <ele>83</ele>
        <time>2022-12-25T13:43:05Z</time>
      </trkpt>
      <trkpt lat="48.59111" lon="2.10498">
        <ele>83</ele>
        <time>2022-12-25T13:43:07Z</time>
      </trkpt>
      <trkpt lat="48.5911" lon="2.10495">
        <ele>82</ele>
        <time>2022-12-25T13:43:09Z</time>
      </trkpt>
      <trkpt lat="48.59108" lon="2.10492">
        <ele>82</ele>
        <time>2022-12-25T13:43:11Z</time>
      </trkpt>
      <trkpt lat="48.59106" lon="2.10489">
        <ele>82</ele>
        <time>2022-12-25T13:43:13Z</time>
      </trkpt>
      <trkpt lat="48.59104" lon="2.10485">
        <ele>82</ele>
        <time>2022-12-25T13:43:15Z</time>
      </trkpt>
      <trkpt lat="48.59103" lon="2.10482">
        <ele>82</ele>
        <time>2022-12-25T13:43:17Z</time>
      </trkpt>
      <trkpt lat="48.59101" lon="2.1048">
        <ele>82</ele>
        <time>2022-12-25T13:43:19Z</time>
      </trkpt>
      <trkpt lat="48.59099" lon="2.10477">
        <ele>82</ele>
        <time>2022-12-25T13:43:22Z</time>
      </trkpt>
      <trkpt lat="48.59097" lon="2.10474">
        <ele>82</ele>
        <time>2022-12-25T13:43:23Z</time>
      </trkpt>
      <trkpt lat="48.59096" lon="2.1047">
        <ele>82</ele>
        <time>2022-12-25T13:43:25Z</time>
      </trkpt>
      <trkpt lat="48.59094" lon="2.10467">
        <ele>82</ele>
        <time>2022-12-25T13:43:27Z</time>
      </trkpt>
      <trkpt lat="48.59092" lon="2.10464">
        <ele>82</ele>
        <time>2022-12-25T13:43:29Z</time>
      </trkpt>
      <trkpt lat="48.5909" lon="2.10461">
        <ele>82</ele>
        <time>2022-12-25T13:43:31Z</time>
      </trkpt>
      <trkpt lat="48.59088" lon="2.10459">
        <ele>82</ele>
        <time>2022-12-25T13:43:33Z</time>
      </trkpt>
      <trkpt lat="48.59085" lon="2.10456">
        <ele>82</ele>
        <time>2022-12-25T13:43:35Z</time>
      </trkpt>
      <trkpt lat="48.59083" lon="2.10454">
        <ele>82</ele>
        <time>2022-12-25T13:43:37Z</time>
      </trkpt>
      <trkpt lat="48.59081" lon="2.10451">
        <ele>82</ele>
        <time>2022-12-25T13:43:39Z</time>
      </trkpt>
      <trkpt lat="48.59079" lon="2.10449">
        <ele>82</ele>
        <time>2022-12-25T13:43:41Z</time>
      </trkpt>
      <trkpt lat="48.59077" lon="2.10446">
        <ele>82</ele>
        <time>2022-12-25T13:43:43Z</time>
      </trkpt>
      <trkpt lat="48.59074" lon="2.10443">
        <ele>82</ele>
        <time>2022-12-25T13:43:45Z</time>
      </trkpt>
      <trkpt lat="48.59072" lon="2.1044">
        <ele>82</ele>
        <time>2022-12-25T13:43:47Z</time>
      </trkpt>
      <trkpt lat="48.5907" lon="2.10438">
        <ele>82</ele>
        <time>2022-12-25T13:43:49Z</time>
      </trkpt>
      <trkpt lat="48.59067" lon="2.10436">
        <ele>82</ele>
        <time>2022-12-25T13:43:51Z</time>
      </trkpt>
      <trkpt lat="48.59065" lon="2.10433">
        <ele>82</ele>
        <time>2022-12-25T13:43:53Z</time>
      </trkpt>
      <trkpt lat="48.59063" lon="2.10429">
        <ele>82</ele>
        <time>2022-12-25T13:43:55Z</time>
      </trkpt>
      <trkpt lat="48.59061" lon="2.10426">
        <ele>82</ele>
        <time>2022-12-25T13:43:57Z</time>
      </trkpt>
      <trkpt lat="48.59058" lon="2.10423">
        <ele>83</ele>
        <time>2022-12-25T13:44:00Z</time>
      </trkpt>
      <trkpt lat="48.59056" lon="2.1042">
        <ele>83</ele>
        <time>2022-12-25T13:44:01Z</time>
      </trkpt>
      <trkpt lat="48.59054" lon="2.10417">
        <ele>83</ele>
        <time>2022-12-25T13:44:03Z</time>
      </trkpt>
      <trkpt lat="48.59052" lon="2.10413">
        <ele>83</ele>
        <time>2022-12-25T13:44:05Z</time>
      </trkpt>
      <trkpt lat="48.5905" lon="2.10409">
        <ele>83</ele>
        <time>2022-12-25T13:44:07Z</time>
      </trkpt>
      <trkpt lat="48.59048" lon="2.10406">
        <ele>83</ele>
        <time>2022-12-25T13:44:09Z</time>
      </trkpt>
      <trkpt lat="48.59047" lon="2.10403">
        <ele>83</ele>
        <time>2022-12-25T13:44:11Z</time>
      </trkpt>
      <trkpt lat="48.59045" lon="2.10399">
        <ele>84</ele>
        <time>2022-12-25T13:44:13Z</time>
      </trkpt>
      <trkpt lat="48.59043" lon="2.10396">
        <ele>84</ele>
        <time>2022-12-25T13:44:15Z</time>
      </trkpt>
      <trkpt lat="48.59041" lon="2.10392">
        <ele>84</ele>
        <time>2022-12-25T13:44:17Z</time>
      </trkpt>
      <trkpt lat="48.59039" lon="2.10388">
        <ele>84</ele>
        <time>2022-12-25T13:44:19Z</time>
      </trkpt>
      <trkpt lat="48.59038" lon="2.10384">
        <ele>84</ele>
        <time>2022-12-25T13:44:21Z</time>
      </trkpt>
      <trkpt lat="48.59037" lon="2.1038">
        <ele>84</ele>
        <time>2022-12-25T13:44:23Z</time>
      </trkpt>
      <trkpt lat="48.59036" lon="2.10376">
        <ele>84</ele>
        <time>2022-12-25T13:44:25Z</time>
      </trkpt>
      <trkpt lat="48.59034" lon="2.10372">
        <ele>85</ele>
        <time>2022-12-25T13:44:27Z</time>
      </trkpt>
      <trkpt lat="48.59033" lon="2.10369">
        <ele>85</ele>
        <time>2022-12-25T13:44:29Z</time>
      </trkpt>
      <trkpt lat="48.59031" lon="2.10366">
        <ele>85</ele>
        <time>2022-12-25T13:44:31Z</time>
      </trkpt>
      <trkpt lat="48.59029" lon="2.10363">
        <ele>86</ele>
        <time>2022-12-25T13:44:33Z</time>
      </trkpt>
      <trkpt lat="48.59027" lon="2.1036">
        <ele>86</ele>
        <time>2022-12-25T13:44:35Z</time>
      </trkpt>
      <trkpt lat="48.59026" lon="2.10356">
        <ele>86</ele>
        <time>2022-12-25T13:44:38Z</time>
      </trkpt>
      <trkpt lat="48.59024" lon="2.10352">
        <ele>86</ele>
        <time>2022-12-25T13:44:39Z</time>
      </trkpt>
      <trkpt lat="48.59022" lon="2.10349">
        <ele>86</ele>
        <time>2022-12-25T13:44:41Z</time>
      </trkpt>
      <trkpt lat="48.59021" lon="2.10345">
        <ele>86</ele>
        <time>2022-12-25T13:44:43Z</time>
      </trkpt>
      <trkpt lat="48.5902" lon="2.10342">
        <ele>86</ele>
        <time>2022-12-25T13:44:45Z</time>
      </trkpt>
      <trkpt lat="48.59018" lon="2.10338">
        <ele>86</ele>
        <time>2022-12-25T13:44:47Z</time>
      </trkpt>
      <trkpt lat="48.59017" lon="2.10335">
        <ele>86</ele>
        <time>2022-12-25T13:44:49Z</time>
      </trkpt>
      <trkpt lat="48.59015" lon="2.10332">
        <ele>86</ele>
        <time>2022-12-25T13:44:51Z</time>
      </trkpt>
      <trkpt lat="48.59013" lon="2.10329">
        <ele>86</ele>
        <time>2022-12-25T13:44:53Z</time>
      </trkpt>
      <trkpt lat="48.59011" lon="2.10325">
        <ele>87</ele>
        <time>2022-12-25T13:44:55Z</time>
      </trkpt>
      <trkpt lat="48.59009" lon="2.10323">
        <ele>87</ele>
        <time>2022-12-25T13:44:57Z</time>
      </trkpt>
      <trkpt lat="48.59007" lon="2.1032">
        <ele>87</ele>
        <time>2022-12-25T13:44:59Z</time>
      </trkpt>
      <trkpt lat="48.59005" lon="2.10317">
        <ele>87</ele>
        <time>2022-12-25T13:45:01Z</time>
      </trkpt>
      <trkpt lat="48.59003" lon="2.10314">
        <ele>87</ele>
        <time>2022-12-25T13:45:03Z</time>
      </trkpt>
      <trkpt lat="48.59001" lon="2.10312">
        <ele>87</ele>
        <time>2022-12-25T13:45:05Z</time>
      </trkpt>
      <trkpt lat="48.58998" lon="2.10309">
        <ele>87</ele>
        <time>2022-12-25T13:45:07Z</time>
      </trkpt>
      <trkpt lat="48.58996" lon="2.10307">
        <ele>87</ele>
        <time>2022-12-25T13:45:09Z</time>
      </trkpt>
      <trkpt lat="48.58994" lon="2.10304">
        <ele>88</ele>
        <time>2022-12-25T13:45:11Z</time>
      </trkpt>
      <trkpt lat="48.58992" lon="2.10302">
        <ele>88</ele>
        <time>2022-12-25T13:45:13Z</time>
      </trkpt>
      <trkpt lat="48.58989" lon="2.103">
        <ele>88</ele>
        <time>2022-12-25T13:45:16Z</time>
      </trkpt>
      <trkpt lat="48.58987" lon="2.10298">
        <ele>88</ele>
        <time>2022-12-25T13:45:17Z</time>
      </trkpt>
      <trkpt lat="48.58985" lon="2.10296">
        <ele>88</ele>
        <time>2022-12-25T13:45:19Z</time>
      </trkpt>
      <trkpt lat="48.58983" lon="2.10294">
        <ele>88</ele>
        <time>2022-12-25T13:45:21Z</time>
      </trkpt>
      <trkpt lat="48.58981" lon="2.10292">
        <ele>88</ele>
        <time>2022-12-25T13:45:23Z</time>
      </trkpt>
      <trkpt lat="48.58978" lon="2.1029">
        <ele>88</ele>
        <time>2022-12-25T13:45:25Z</time>
      </trkpt>
      <trkpt lat="48.58976" lon="2.10287">
        <ele>88</ele>
        <time>2022-12-25T13:45:27Z</time>
      </trkpt>
      <trkpt lat="48.58974" lon="2.10285">
        <ele>88</ele>
        <time>2022-12-25T13:45:29Z</time>
      </trkpt>
      <trkpt lat="48.58972" lon="2.10283">
        <ele>88</ele>
        <time>2022-12-25T13:45:31Z</time>
      </trkpt>
      <trkpt lat="48.5897" lon="2.10281">
        <ele>88</ele>
        <time>2022-12-25T13:45:33Z</time>
      </trkpt>
      <trkpt lat="48.58967" lon="2.10279">
        <ele>88</ele>
        <time>2022-12-25T13:45:35Z</time>
      </trkpt>
      <trkpt lat="48.58965" lon="2.10277">
        <ele>88</ele>
        <time>2022-12-25T13:45:37Z</time>
      </trkpt>
      <trkpt lat="48.58963" lon="2.10275">
        <ele>88</ele>
        <time>2022-12-25T13:45:39Z</time>
      </trkpt>
      <trkpt lat="48.58961" lon="2.10273">
        <ele>88</ele>
        <time>2022-12-25T13:45:41Z</time>
      </trkpt>
      <trkpt lat="48.58959" lon="2.10271">
        <ele>88</ele>
        <time>2022-12-25T13:45:43Z</time>
      </trkpt>
      <trkpt lat="48.58956" lon="2.10269">
        <ele>88</ele>
        <time>2022-12-25T13:45:45Z</time>
      </trkpt>
      <trkpt lat="48.58954" lon="2.10267">
        <ele>88</ele>
        <time>2022-12-25T13:45:47Z</time>
      </trkpt>
      <trkpt lat="48.58952" lon="2.10266">
        <ele>88</ele>
        <time>2022-12-25T13:45:49Z</time>
      </trkpt>
      <trkpt lat="48.58949" lon="2.10265">
        <ele>88</ele>
        <time>2022-12-25T13:45:51Z</time>
      </trkpt>
      <trkpt lat="48.58947" lon="2.10263">
        <ele>88</ele>
        <time>2022-12-25T13:45:53Z</time>
      </trkpt>
      <trkpt lat="48.58945" lon="2.1026">
        <ele>88</ele>
        <time>2022-12-25T13:45:55Z</time>
      </trkpt>
      <trkpt lat="48.58944" lon="2.10257">
        <ele>88</ele>
        <time>2022-12-25T13:45:57Z</time>
      </trkpt>
      <trkpt lat="48.58942" lon="2.10254">
        <ele>88</ele>
        <time>2022-12-25T13:45:59Z</time>
      </trkpt>
      <trkpt lat="48.5894" lon="2.1025">
        <ele>88</ele>
        <time>2022-12-25T13:46:01Z</time>
      </trkpt>
      <trkpt lat="48.58939" lon="2.10247">
        <ele>88</ele>
        <time>2022-12-25T13:46:03Z</time>
      </trkpt>
      <trkpt lat="48.58937" lon="2.10245">
        <ele>88</ele>
        <time>2022-12-25T13:46:05Z</time>
      </trkpt>
      <trkpt lat="48.58934" lon="2.10243">
        <ele>89</ele>
        <time>2022-12-25T13:46:07Z</time>
      </trkpt>
      <trkpt lat="48.58932" lon="2.10241">
        <ele>89</ele>
        <time>2022-12-25T13:46:09Z</time>
      </trkpt>
      <trkpt lat="48.58931" lon="2.10238">
        <ele>89</ele>
        <time>2022-12-25T13:46:11Z</time>
      </trkpt>
      <trkpt lat="48.58928" lon="2.10236">
        <ele>89</ele>
        <time>2022-12-25T13:46:13Z</time>
      </trkpt>
      <trkpt lat="48.58926" lon="2.10233">
        <ele>89</ele>
        <time>2022-12-25T13:46:15Z</time>
      </trkpt>
      <trkpt lat="48.58925" lon="2.1023">
        <ele>89</ele>
        <time>2022-12-25T13:46:17Z</time>
      </trkpt>
      <trkpt lat="48.58923" lon="2.10227">
        <ele>89</ele>
        <time>2022-12-25T13:46:19Z</time>
      </trkpt>
      <trkpt lat="48.58921" lon="2.10224">
        <ele>89</ele>
        <time>2022-12-25T13:46:21Z</time>
      </trkpt>
      <trkpt lat="48.58919" lon="2.10221">
        <ele>89</ele>
        <time>2022-12-25T13:46:23Z</time>
      </trkpt>
      <trkpt lat="48.58918" lon="2.10218">
        <ele>89</ele>
        <time>2022-12-25T13:46:25Z</time>
      </trkpt>
      <trkpt lat="48.58916" lon="2.10215">
        <ele>89</ele>
        <time>2022-12-25T13:46:27Z</time>
      </trkpt>
      <trkpt lat="48.58914" lon="2.10212">
        <ele>89</ele>
        <time>2022-12-25T13:46:29Z</time>
      </trkpt>
      <trkpt lat="48.58912" lon="2.10209">
        <ele>89</ele>
        <time>2022-12-25T13:46:31Z</time>
      </trkpt>
      <trkpt lat="48.58911" lon="2.10206">
        <ele>89</ele>
        <time>2022-12-25T13:46:33Z</time>
      </trkpt>
      <trkpt lat="48.58909" lon="2.10202">
        <ele>89</ele>
        <time>2022-12-25T13:46:35Z</time>
      </trkpt>
      <trkpt lat="48.58908" lon="2.10199">
        <ele>89</ele>
        <time>2022-12-25T13:46:37Z</time>
      </trkpt>
      <trkpt lat="48.58907" lon="2.10195">
        <ele>89</ele>
        <time>2022-12-25T13:46:39Z</time>
      </trkpt>
      <trkpt lat="48.58905" lon="2.10191">
        <ele>89</ele>
        <time>2022-12-25T13:46:41Z</time>
      </trkpt>
      <trkpt lat="48.58904" lon="2.10188">
        <ele>90</ele>
        <time>2022-12-25T13:46:43Z</time>
      </trkpt>
      <trkpt lat="48.58903" lon="2.10184">
        <ele>90</ele>
        <time>2022-12-25T13:46:45Z</time>
      </trkpt>
      <trkpt lat="48.58901" lon="2.10181">
        <ele>90</ele>
        <time>2022-12-25T13:46:47Z</time>
      </trkpt>
      <trkpt lat="48.589" lon="2.10177">
        <ele>90</ele>
        <time>2022-12-25T13:46:49Z</time>
      </trkpt>
      <trkpt lat="48.58899" lon="2.10173">
        <ele>90</ele>
        <time>2022-12-25T13:46:51Z</time>
      </trkpt>
      <trkpt lat="48.58898" lon="2.1017">
        <ele>90</ele>
        <time>2022-12-25T13:46:53Z</time>
      </trkpt>
      <trkpt lat="48.58897" lon="2.10165">
        <ele>90</ele>
        <time>2022-12-25T13:46:55Z</time>
      </trkpt>
      <trkpt lat="48.58896" lon="2.10161">
        <ele>90</ele>
        <time>2022-12-25T13:46:57Z</time>
      </trkpt>
      <trkpt lat="48.58895" lon="2.10157">
        <ele>90</ele>
        <time>2022-12-25T13:46:59Z</time>
      </trkpt>
      <trkpt lat="48.58894" lon="2.10153">
        <ele>90</ele>
        <time>2022-12-25T13:47:01Z</time>
      </trkpt>
      <trkpt lat="48.58893" lon="2.10149">
        <ele>90</ele>
        <time>2022-12-25T13:47:03Z</time>
      </trkpt>
      <trkpt lat="48.58892" lon="2.10145">
        <ele>90</ele>
        <time>2022-12-25T13:47:05Z</time>
      </trkpt>
      <trkpt lat="48.58891" lon="2.10141">
        <ele>90</ele>
        <time>2022-12-25T13:47:07Z</time>
      </trkpt>
      <trkpt lat="48.5889" lon="2.10138">
        <ele>90</ele>
        <time>2022-12-25T13:47:10Z</time>
      </trkpt>
      <trkpt lat="48.58888" lon="2.10134">
        <ele>90</ele>
        <time>2022-12-25T13:47:11Z</time>
      </trkpt>
      <trkpt lat="48.58887" lon="2.1013">
        <ele>90</ele>
        <time>2022-12-25T13:47:13Z</time>
      </trkpt>
      <trkpt lat="48.58886" lon="2.10126">
        <ele>90</ele>
        <time>2022-12-25T13:47:15Z</time>
      </trkpt>
      <trkpt lat="48.58885" lon="2.10122">
        <ele>90</ele>
        <time>2022-12-25T13:47:17Z</time>
      </trkpt>
      <trkpt lat="48.58883" lon="2.10118">
        <ele>90</ele>
        <time>2022-12-25T13:47:19Z</time>
      </trkpt>
      <trkpt lat="48.58882" lon="2.10115">
        <ele>90</ele>
        <time>2022-12-25T13:47:21Z</time>
      </trkpt>
      <trkpt lat="48.58881" lon="2.10111">
        <ele>90</ele>
        <time>2022-12-25T13:47:23Z</time>
      </trkpt>
      <trkpt lat="48.58879" lon="2.10107">
        <ele>90</ele>
        <time>2022-12-25T13:47:25Z</time>
      </trkpt>
      <trkpt lat="48.58878" lon="2.10104">
        <ele>90</ele>
        <time>2022-12-25T13:47:27Z</time>
      </trkpt>
      <trkpt lat="48.58877" lon="2.101">
        <ele>90</ele>
        <time>2022-12-25T13:47:29Z</time>
      </trkpt>
      <trkpt lat="48.58875" lon="2.10097">
        <ele>90</ele>
        <time>2022-12-25T13:47:31Z</time>
      </trkpt>
      <trkpt lat="48.58874" lon="2.10094">
        <ele>90</ele>
        <time>2022-12-25T13:47:33Z</time>
      </trkpt>
      <trkpt lat="48.58872" lon="2.10091">
        <ele>91</ele>
        <time>2022-12-25T13:47:35Z</time>
      </trkpt>
      <trkpt lat="48.5887" lon="2.10088">
        <ele>91</ele>
        <time>2022-12-25T13:47:37Z</time>
      </trkpt>
      <trkpt lat="48.58869" lon="2.10085">
        <ele>91</ele>
        <time>2022-12-25T13:47:39Z</time>
      </trkpt>
      <trkpt lat="48.58867" lon="2.10082">
        <ele>91</ele>
        <time>2022-12-25T13:47:41Z</time>
      </trkpt>
      <trkpt lat="48.58865" lon="2.1008">
        <ele>91</ele>
        <time>2022-12-25T13:47:43Z</time>
      </trkpt>
      <trkpt lat="48.58864" lon="2.10078">
        <ele>91</ele>
        <time>2022-12-25T13:47:45Z</time>
      </trkpt>
      <trkpt lat="48.58862" lon="2.10076">
        <ele>92</ele>
        <time>2022-12-25T13:47:48Z</time>
      </trkpt>
      <trkpt lat="48.58859" lon="2.10074">
        <ele>92</ele>
        <time>2022-12-25T13:47:49Z</time>
      </trkpt>
      <trkpt lat="48.58857" lon="2.10072">
        <ele>92</ele>
        <time>2022-12-25T13:47:51Z</time>
      </trkpt>
      <trkpt lat="48.58855" lon="2.1007">
        <ele>92</ele>
        <time>2022-12-25T13:47:53Z</time>
      </trkpt>
      <trkpt lat="48.58853" lon="2.10067">
        <ele>92</ele>
        <time>2022-12-25T13:47:55Z</time>
      </trkpt>
      <trkpt lat="48.58851" lon="2.10066">
        <ele>93</ele>
        <time>2022-12-25T13:47:57Z</time>
      </trkpt>
      <trkpt lat="48.58849" lon="2.10064">
        <ele>93</ele>
        <time>2022-12-25T13:47:59Z</time>
      </trkpt>
      <trkpt lat="48.58848" lon="2.10061">
        <ele>93</ele>
        <time>2022-12-25T13:48:01Z</time>
      </trkpt>
      <trkpt lat="48.58846" lon="2.10059">
        <ele>93</ele>
        <time>2022-12-25T13:48:03Z</time>
      </trkpt>
      <trkpt lat="48.58844" lon="2.10056">
        <ele>93</ele>
        <time>2022-12-25T13:48:05Z</time>
      </trkpt>
      <trkpt lat="48.58842" lon="2.10054">
        <ele>93</ele>
        <time>2022-12-25T13:48:07Z</time>
      </trkpt>
      <trkpt lat="48.5884" lon="2.10052">
        <ele>93</ele>
        <time>2022-12-25T13:48:09Z</time>
      </trkpt>
      <trkpt lat="48.58838" lon="2.10049">
        <ele>93</ele>
        <time>2022-12-25T13:48:11Z</time>
      </trkpt>
      <trkpt lat="48.58836" lon="2.10047">
        <ele>93</ele>
        <time>2022-12-25T13:48:13Z</time>
      </trkpt>
      <trkpt lat="48.58834" lon="2.10044">
        <ele>93</ele>
        <time>2022-12-25T13:48:15Z</time>
      </trkpt>
      <trkpt lat="48.58832" lon="2.10041">
        <ele>93</ele>
        <time>2022-12-25T13:48:17Z</time>
      </trkpt>
      <trkpt lat="48.5883" lon="2.10039">
        <ele>92</ele>
        <time>2022-12-25T13:48:19Z</time>
      </trkpt>
      <trkpt lat="48.58828" lon="2.10036">
        <ele>93</ele>
        <time>2022-12-25T13:48:21Z</time>
      </trkpt>
      <trkpt lat="48.58826" lon="2.10034">
        <ele>93</ele>
        <time>2022-12-25T13:48:23Z</time>
      </trkpt>
      <trkpt lat="48.58824" lon="2.10031">
        <ele>93</ele>
        <time>2022-12-25T13:48:26Z</time>
      </trkpt>
      <trkpt lat="48.58822" lon="2.10029">
        <ele>93</ele>
        <time>2022-12-25T13:48:27Z</time>
      </trkpt>
      <trkpt lat="48.58819" lon="2.10026">
        <ele>92</ele>
        <time>2022-12-25T13:48:29Z</time>
      </trkpt>
      <trkpt lat="48.58817" lon="2.10022">
        <ele>92</ele>
        <time>2022-12-25T13:48:31Z</time>
      </trkpt>
      <trkpt lat="48.58816" lon="2.1002">
        <ele>92</ele>
        <time>2022-12-25T13:48:33Z</time>
      </trkpt>
      <trkpt lat="48.58814" lon="2.10017">
        <ele>92</ele>
        <time>2022-12-25T13:48:35Z</time>
      </trkpt>
      <trkpt lat="48.58811" lon="2.10014">
        <ele>92</ele>
        <time>2022-12-25T13:48:37Z</time>
      </trkpt>
      <trkpt lat="48.58809" lon="2.10011">
        <ele>92</ele>
        <time>2022-12-25T13:48:39Z</time>
      </trkpt>
      <trkpt lat="48.58807" lon="2.10008">
        <ele>92</ele>
        <time>2022-12-25T13:48:41Z</time>
      </trkpt>
      <trkpt lat="48.58806" lon="2.10005">
        <ele>92</ele>
        <time>2022-12-25T13:48:43Z</time>
      </trkpt>
      <trkpt lat="48.58804" lon="2.10002">
        <ele>92</ele>
        <time>2022-12-25T13:48:45Z</time>
      </trkpt>
      <trkpt lat="48.58802" lon="2.09999">
        <ele>92</ele>
        <time>2022-12-25T13:48:47Z</time>
      </trkpt>
      <trkpt lat="48.58801" lon="2.09995">
        <ele>92</ele>
        <time>2022-12-25T13:48:49Z</time>
      </trkpt>
      <trkpt lat="48.58799" lon="2.09992">
        <ele>92</ele>
        <time>2022-12-25T13:48:51Z</time>
      </trkpt>
      <trkpt lat="48.58797" lon="2.09989">
        <ele>92</ele>
        <time>2022-12-25T13:48:53Z</time>
      </trkpt>
      <trkpt lat="48.58795" lon="2.09986">
        <ele>93</ele>
        <time>2022-12-25T13:48:55Z</time>
      </trkpt>
      <trkpt lat="48.58794" lon="2.09983">
        <ele>93</ele>
        <time>2022-12-25T13:48:57Z</time>
      </trkpt>
      <trkpt lat="48.58792" lon="2.0998">
        <ele>93</ele>
        <time>2022-12-25T13:48:59Z</time>
      </trkpt>
      <trkpt lat="48.58791" lon="2.09976">
        <ele>93</ele>
        <time>2022-12-25T13:49:01Z</time>
      </trkpt>
      <trkpt lat="48.58789" lon="2.09973">
        <ele>93</ele>
        <time>2022-12-25T13:49:04Z</time>
      </trkpt>
      <trkpt lat="48.58787" lon="2.0997">
        <ele>93</ele>
        <time>2022-12-25T13:49:05Z</time>
      </trkpt>
      <trkpt lat="48.58786" lon="2.09967">
        <ele>93</ele>
        <time>2022-12-25T13:49:07Z</time>
      </trkpt>
      <trkpt lat="48.58784" lon="2.09964">
        <ele>93</ele>
        <time>2022-12-25T13:49:09Z</time>
      </trkpt>
      <trkpt lat="48.58783" lon="2.0996">
        <ele>93</ele>
        <time>2022-12-25T13:49:11Z</time>
      </trkpt>
      <trkpt lat="48.58782" lon="2.09957">
        <ele>93</ele>
        <time>2022-12-25T13:49:13Z</time>
      </trkpt>
      <trkpt lat="48.5878" lon="2.09954">
        <ele>93</ele>
        <time>2022-12-25T13:49:15Z</time>
      </trkpt>
      <trkpt lat="48.58779" lon="2.0995">
        <ele>93</ele>
        <time>2022-12-25T13:49:17Z</time>
      </trkpt>
      <trkpt lat="48.58778" lon="2.09947">
        <ele>93</ele>
        <time>2022-12-25T13:49:19Z</time>
      </trkpt>
      <trkpt lat="48.58776" lon="2.09944">
        <ele>93</ele>
        <time>2022-12-25T13:49:21Z</time>
      </trkpt>
      <trkpt lat="48.58775" lon="2.0994">
        <ele>93</ele>
        <time>2022-12-25T13:49:23Z</time>
      </trkpt>
      <trkpt lat="48.58774" lon="2.09937">
        <ele>93</ele>
        <time>2022-12-25T13:49:25Z</time>
      </trkpt>
      <trkpt lat="48.58773" lon="2.09933">
        <ele>92</ele>
        <time>2022-12-25T13:49:27Z</time>
      </trkpt>
      <trkpt lat="48.58772" lon="2.0993">
        <ele>92</ele>
        <time>2022-12-25T13:49:29Z</time>
      </trkpt>
      <trkpt lat="48.5877" lon="2.09927">
        <ele>92</ele>
        <time>2022-12-25T13:49:31Z</time>
      </trkpt>
      <trkpt lat="48.58769" lon="2.09924">
        <ele>92</ele>
        <time>2022-12-25T13:49:33Z</time>
      </trkpt>
      <trkpt lat="48.58767" lon="2.09921">
        <ele>93</ele>
        <time>2022-12-25T13:49:35Z</time>
      </trkpt>
      <trkpt lat="48.58766" lon="2.09918">
        <ele>93</ele>
        <time>2022-12-25T13:49:37Z</time>
      </trkpt>
      <trkpt lat="48.58765" lon="2.09915">
        <ele>92</ele>
        <time>2022-12-25T13:49:39Z</time>
      </trkpt>
      <trkpt lat="48.58764" lon="2.09911">
        <ele>93</ele>
        <time>2022-12-25T13:49:42Z</time>
      </trkpt>
      <trkpt lat="48.58763" lon="2.09908">
        <ele>93</ele>
        <time>2022-12-25T13:49:43Z</time>
      </trkpt>
      <trkpt lat="48.58761" lon="2.09905">
        <ele>93</ele>
        <time>2022-12-25T13:49:45Z</time>
      </trkpt>
      <trkpt lat="48.5876" lon="2.09902">
        <ele>93</ele>
        <time>2022-12-25T13:49:47Z</time>
      </trkpt>
      <trkpt lat="48.58759" lon="2.09898">
        <ele>93</ele>
        <time>2022-12-25T13:49:49Z</time>
      </trkpt>
      <trkpt lat="48.58758" lon="2.09895">
        <ele>93</ele>
        <time>2022-12-25T13:49:51Z</time>
      </trkpt>
      <trkpt lat="48.58757" lon="2.09891">
        <ele>93</ele>
        <time>2022-12-25T13:49:53Z</time>
      </trkpt>
      <trkpt lat="48.58756" lon="2.09888">
        <ele>93</ele>
        <time>2022-12-25T13:49:55Z</time>
      </trkpt>
      <trkpt lat="48.58754" lon="2.09884">
        <ele>92</ele>
        <time>2022-12-25T13:49:57Z</time>
      </trkpt>
      <trkpt lat="48.58753" lon="2.09881">
        <ele>93</ele>
        <time>2022-12-25T13:49:59Z</time>
      </trkpt>
      <trkpt lat="48.58752" lon="2.09878">
        <ele>93</ele>
        <time>2022-12-25T13:50:01Z</time>
      </trkpt>
      <trkpt lat="48.58751" lon="2.09875">
        <ele>93</ele>
        <time>2022-12-25T13:50:03Z</time>
      </trkpt>
      <trkpt lat="48.5875" lon="2.09872">
        <ele>93</ele>
        <time>2022-12-25T13:50:05Z</time>
      </trkpt>
      <trkpt lat="48.58748" lon="2.09868">
        <ele>93</ele>
        <time>2022-12-25T13:50:07Z</time>
      </trkpt>
      <trkpt lat="48.58747" lon="2.09864">
        <ele>93</ele>
        <time>2022-12-25T13:50:09Z</time>
      </trkpt>
      <trkpt lat="48.58746" lon="2.0986">
        <ele>93</ele>
        <time>2022-12-25T13:50:11Z</time>
      </trkpt>
      <trkpt lat="48.58745" lon="2.09856">
        <ele>93</ele>
        <time>2022-12-25T13:50:13Z</time>
      </trkpt>
      <trkpt lat="48.58744" lon="2.09853">
        <ele>93</ele>
        <time>2022-12-25T13:50:15Z</time>
      </trkpt>
      <trkpt lat="48.58743" lon="2.09849">
        <ele>92</ele>
        <time>2022-12-25T13:50:17Z</time>
      </trkpt>
      <trkpt lat="48.58743" lon="2.09845">
        <ele>92</ele>
        <time>2022-12-25T13:50:20Z</time>
      </trkpt>
      <trkpt lat="48.58742" lon="2.09841">
        <ele>92</ele>
        <time>2022-12-25T13:50:21Z</time>
      </trkpt>
      <trkpt lat="48.58741" lon="2.09837">
        <ele>92</ele>
        <time>2022-12-25T13:50:23Z</time>
      </trkpt>
      <trkpt lat="48.58741" lon="2.09833">
        <ele>93</ele>
        <time>2022-12-25T13:50:25Z</time>
      </trkpt>
      <trkpt lat="48.5874" lon="2.09829">
        <ele>93</ele>
        <time>2022-12-25T13:50:27Z</time>
      </trkpt>
      <trkpt lat="48.58738" lon="2.09824">
        <ele>93</ele>
        <time>2022-12-25T13:50:29Z</time>
      </trkpt>
      <trkpt lat="48.58738" lon="2.0982">
        <ele>93</ele>
        <time>2022-12-25T13:50:31Z</time>
      </trkpt>
      <trkpt lat="48.58737" lon="2.09816">
        <ele>93</ele>
        <time>2022-12-25T13:50:33Z</time>
      </trkpt>
      <trkpt lat="48.58736" lon="2.09812">
        <ele>93</ele>
        <time>2022-12-25T13:50:35Z</time>
      </trkpt>
      <trkpt lat="48.58735" lon="2.09808">
        <ele>93</ele>
        <time>2022-12-25T13:50:37Z</time>
      </trkpt>
      <trkpt lat="48.58735" lon="2.09804">
        <ele>93</ele>
        <time>2022-12-25T13:50:39Z</time>
      </trkpt>
      <trkpt lat="48.58734" lon="2.098">
        <ele>93</ele>
        <time>2022-12-25T13:50:41Z</time>
      </trkpt>
      <trkpt lat="48.58734" lon="2.09797">
        <ele>93</ele>
        <time>2022-12-25T13:50:43Z</time>
      </trkpt>
      <trkpt lat="48.58733" lon="2.09793">
        <ele>93</ele>
        <time>2022-12-25T13:50:45Z</time>
      </trkpt>
      <trkpt lat="48.58732" lon="2.09789">
        <ele>93</ele>
        <time>2022-12-25T13:50:47Z</time>
      </trkpt>
      <trkpt lat="48.58732" lon="2.09786">
        <ele>93</ele>
        <time>2022-12-25T13:50:49Z</time>
      </trkpt>
      <trkpt lat="48.58731" lon="2.09782">
        <ele>93</ele>
        <time>2022-12-25T13:50:51Z</time>
      </trkpt>
      <trkpt lat="48.58731" lon="2.09778">
        <ele>93</ele>
        <time>2022-12-25T13:50:53Z</time>
      </trkpt>
      <trkpt lat="48.5873" lon="2.09774">
        <ele>94</ele>
        <time>2022-12-25T13:50:55Z</time>
      </trkpt>
      <trkpt lat="48.58729" lon="2.09771">
        <ele>94</ele>
        <time>2022-12-25T13:50:58Z</time>
      </trkpt>
      <trkpt lat="48.58729" lon="2.09767">
        <ele>94</ele>
        <time>2022-12-25T13:50:59Z</time>
      </trkpt>
      <trkpt lat="48.58728" lon="2.09763">
        <ele>94</ele>
        <time>2022-12-25T13:51:01Z</time>
      </trkpt>
      <trkpt lat="48.58728" lon="2.09759">
        <ele>94</ele>
        <time>2022-12-25T13:51:03Z</time>
      </trkpt>
      <trkpt lat="48.58728" lon="2.09755">
        <ele>94</ele>
        <time>2022-12-25T13:51:05Z</time>
      </trkpt>
      <trkpt lat="48.58727" lon="2.09751">
        <ele>94</ele>
        <time>2022-12-25T13:51:07Z</time>
      </trkpt>
      <trkpt lat="48.58726" lon="2.09747">
        <ele>94</ele>
        <time>2022-12-25T13:51:09Z</time>
      </trkpt>
      <trkpt lat="48.58726" lon="2.09743">
        <ele>94</ele>
        <time>2022-12-25T13:51:11Z</time>
      </trkpt>
      <trkpt lat="48.58725" lon="2.09739">
        <ele>94</ele>
        <time>2022-12-25T13:51:13Z</time>
      </trkpt>
      <trkpt lat="48.58725" lon="2.09735">
        <ele>94</ele>
        <time>2022-12-25T13:51:15Z</time>
      </trkpt>
      <trkpt lat="48.58725" lon="2.09731">
        <ele>94</ele>
        <time>2022-12-25T13:51:17Z</time>
      </trkpt>
      <trkpt lat="48.58724" lon="2.09727">
        <ele>94</ele>
        <time>2022-12-25T13:51:19Z</time>
      </trkpt>
      <trkpt lat="48.58724" lon="2.09723">
        <ele>94</ele>
        <time>2022-12-25T13:51:21Z</time>
      </trkpt>
      <trkpt lat="48.58724" lon="2.09719">
        <ele>94</ele>
        <time>2022-12-25T13:51:23Z</time>
      </trkpt>
      <trkpt lat="48.58723" lon="2.09715">
        <ele>94</ele>
        <time>2022-12-25T13:51:25Z</time>
      </trkpt>
      <trkpt lat="48.58723" lon="2.09711">
        <ele>94</ele>
        <time>2022-12-25T13:51:27Z</time>
      </trkpt>
      <trkpt lat="48.58722" lon="2.09708">
        <ele>94</ele>
        <time>2022-12-25T13:51:29Z</time>
      </trkpt>
      <trkpt lat="48.58722" lon="2.09704">
        <ele>94</ele>
        <time>2022-12-25T13:51:31Z</time>
      </trkpt>
      <trkpt lat="48.58722" lon="2.097">
        <ele>94</ele>
        <time>2022-12-25T13:51:33Z</time>
      </trkpt>
      <trkpt lat="48.58721" lon="2.09697">
        <ele>94</ele>
        <time>2022-12-25T13:51:35Z</time>
      </trkpt>
      <trkpt lat="48.58721" lon="2.09693">
        <ele>94</ele>
        <time>2022-12-25T13:51:37Z</time>
      </trkpt>
      <trkpt lat="48.5872" lon="2.09689">
        <ele>94</ele>
        <time>2022-12-25T13:51:39Z</time>
      </trkpt>
      <trkpt lat="48.5872" lon="2.09685">
        <ele>94</ele>
        <time>2022-12-25T13:51:41Z</time>
      </trkpt>
      <trkpt lat="48.5872" lon="2.09681">
        <ele>94</ele>
        <time>2022-12-25T13:51:43Z</time>
      </trkpt>
      <trkpt lat="48.58719" lon="2.09678">
        <ele>94</ele>
        <time>2022-12-25T13:51:45Z</time>
      </trkpt>
      <trkpt lat="48.58719" lon="2.09674">
        <ele>94</ele>
        <time>2022-12-25T13:51:47Z</time>
      </trkpt>
      <trkpt lat="48.58718" lon="2.0967">
        <ele>94</ele>
        <time>2022-12-25T13:51:49Z</time>
      </trkpt>
      <trkpt lat="48.58717" lon="2.09666">
        <ele>94</ele>
        <time>2022-12-25T13:51:51Z</time>
      </trkpt>
      <trkpt lat="48.58717" lon="2.09662">
        <ele>94</ele>
        <time>2022-12-25T13:51:53Z</time>
      </trkpt>
      <trkpt lat="48.58716" lon="2.09658">
        <ele>94</ele>
        <time>2022-12-25T13:51:55Z</time>
      </trkpt>
      <trkpt lat="48.58716" lon="2.09654">
        <ele>94</ele>
        <time>2022-12-25T13:51:57Z</time>
      </trkpt>
      <trkpt lat="48.58716" lon="2.0965">
        <ele>95</ele>
        <time>2022-12-25T13:51:59Z</time>
      </trkpt>
      <trkpt lat="48.58716" lon="2.09646">
        <ele>95</ele>
        <time>2022-12-25T13:52:01Z</time>
      </trkpt>
      <trkpt lat="48.58716" lon="2.09642">
        <ele>95</ele>
        <time>2022-12-25T13:52:03Z</time>
      </trkpt>
      <trkpt lat="48.58715" lon="2.09638">
        <ele>95</ele>
        <time>2022-12-25T13:52:05Z</time>
      </trkpt>
      <trkpt lat="48.58715" lon="2.09634">
        <ele>95</ele>
        <time>2022-12-25T13:52:07Z</time>
      </trkpt>
      <trkpt lat="48.58714" lon="2.0963">
        <ele>95</ele>
        <time>2022-12-25T13:52:09Z</time>
      </trkpt>
      <trkpt lat="48.58714" lon="2.09626">
        <ele>95</ele>
        <time>2022-12-25T13:52:11Z</time>
      </trkpt>
      <trkpt lat="48.58714" lon="2.09622">
        <ele>95</ele>
        <time>2022-12-25T13:52:14Z</time>
      </trkpt>
      <trkpt lat="48.58713" lon="2.09618">
        <ele>95</ele>
        <time>2022-12-25T13:52:15Z</time>
      </trkpt>
      <trkpt lat="48.58712" lon="2.09614">
        <ele>95</ele>
        <time>2022-12-25T13:52:17Z</time>
      </trkpt>
      <trkpt lat="48.58712" lon="2.0961">
        <ele>95</ele>
        <time>2022-12-25T13:52:19Z</time>
      </trkpt>
      <trkpt lat="48.58712" lon="2.09606">
        <ele>95</ele>
        <time>2022-12-25T13:52:21Z</time>
      </trkpt>
      <trkpt lat="48.58711" lon="2.09603">
        <ele>95</ele>
        <time>2022-12-25T13:52:23Z</time>
      </trkpt>
      <trkpt lat="48.58711" lon="2.09599">
        <ele>95</ele>
        <time>2022-12-25T13:52:25Z</time>
      </trkpt>
      <trkpt lat="48.58711" lon="2.09594">
        <ele>95</ele>
        <time>2022-12-25T13:52:27Z</time>
      </trkpt>
      <trkpt lat="48.5871" lon="2.0959">
        <ele>95</ele>
        <time>2022-12-25T13:52:29Z</time>
      </trkpt>
      <trkpt lat="48.5871" lon="2.09587">
        <ele>95</ele>
        <time>2022-12-25T13:52:31Z</time>
      </trkpt>
      <trkpt lat="48.5871" lon="2.09583">
        <ele>95</ele>
        <time>2022-12-25T13:52:33Z</time>
      </trkpt>
      <trkpt lat="48.5871" lon="2.09579">
        <ele>95</ele>
        <time>2022-12-25T13:52:35Z</time>
      </trkpt>
      <trkpt lat="48.58709" lon="2.09575">
        <ele>95</ele>
        <time>2022-12-25T13:52:37Z</time>
      </trkpt>
      <trkpt lat="48.58709" lon="2.09571">
        <ele>95</ele>
        <time>2022-12-25T13:52:39Z</time>
      </trkpt>
      <trkpt lat="48.58708" lon="2.09567">
        <ele>95</ele>
        <time>2022-12-25T13:52:41Z</time>
      </trkpt>
      <trkpt lat="48.58708" lon="2.09564">
        <ele>95</ele>
        <time>2022-12-25T13:52:43Z</time>
      </trkpt>
      <trkpt lat="48.58707" lon="2.0956">
        <ele>95</ele>
        <time>2022-12-25T13:52:45Z</time>
      </trkpt>
      <trkpt lat="48.58707" lon="2.09557">
        <ele>95</ele>
        <time>2022-12-25T13:52:47Z</time>
      </trkpt>
      <trkpt lat="48.58707" lon="2.09554">
        <ele>95</ele>
        <time>2022-12-25T13:52:49Z</time>
      </trkpt>
      <trkpt lat="48.58707" lon="2.09551">
        <ele>95</ele>
        <time>2022-12-25T13:52:52Z</time>
      </trkpt>
      <trkpt lat="48.58707" lon="2.09547">
        <ele>95</ele>
        <time>2022-12-25T13:52:53Z</time>
      </trkpt>
      <trkpt lat="48.58707" lon="2.09543">
        <ele>96</ele>
        <time>2022-12-25T13:52:55Z</time>
      </trkpt>
      <trkpt lat="48.58707" lon="2.09539">
        <ele>96</ele>
        <time>2022-12-25T13:52:57Z</time>
      </trkpt>
      <trkpt lat="48.58707" lon="2.09535">
        <ele>96</ele>
        <time>2022-12-25T13:52:59Z</time>
      </trkpt>
      <trkpt lat="48.58707" lon="2.09531">
        <ele>96</ele>
        <time>2022-12-25T13:53:01Z</time>
      </trkpt>
      <trkpt lat="48.58707" lon="2.09527">
        <ele>96</ele>
        <time>2022-12-25T13:53:03Z</time>
      </trkpt>
      <trkpt lat="48.58707" lon="2.09523">
        <ele>96</ele>
        <time>2022-12-25T13:53:05Z</time>
      </trkpt>
      <trkpt lat="48.58706" lon="2.09519">
        <ele>96</ele>
        <time>2022-12-25T13:53:07Z</time>
      </trkpt>
      <trkpt lat="48.58707" lon="2.09516">
        <ele>96</ele>
        <time>2022-12-25T13:53:09Z</time>
      </trkpt>
      <trkpt lat="48.58706" lon="2.09512">
        <ele>96</ele>
        <time>2022-12-25T13:53:11Z</time>
      </trkpt>
      <trkpt lat="48.58706" lon="2.09508">
        <ele>96</ele>
        <time>2022-12-25T13:53:13Z</time>
      </trkpt>
      <trkpt lat="48.58707" lon="2.09504">
        <ele>96</ele>
        <time>2022-12-25T13:53:15Z</time>
      </trkpt>
      <trkpt lat="48.58707" lon="2.095">
        <ele>96</ele>
        <time>2022-12-25T13:53:17Z</time>
      </trkpt>
      <trkpt lat="48.58707" lon="2.09496">
        <ele>96</ele>
        <time>2022-12-25T13:53:19Z</time>
      </trkpt>
      <trkpt lat="48.58707" lon="2.09493">
        <ele>96</ele>
        <time>2022-12-25T13:53:21Z</time>
      </trkpt>
      <trkpt lat="48.58707" lon="2.09489">
        <ele>96</ele>
        <time>2022-12-25T13:53:23Z</time>
      </trkpt>
      <trkpt lat="48.58707" lon="2.09485">
        <ele>96</ele>
        <time>2022-12-25T13:53:25Z</time>
      </trkpt>
      <trkpt lat="48.58707" lon="2.09481">
        <ele>97</ele>
        <time>2022-12-25T13:53:27Z</time>
      </trkpt>
      <trkpt lat="48.58707" lon="2.09477">
        <ele>97</ele>
        <time>2022-12-25T13:53:30Z</time>
      </trkpt>
      <trkpt lat="48.58707" lon="2.09473">
        <ele>97</ele>
        <time>2022-12-25T13:53:31Z</time>
      </trkpt>
      <trkpt lat="48.58707" lon="2.09469">
        <ele>97</ele>
        <time>2022-12-25T13:53:33Z</time>
      </trkpt>
      <trkpt lat="48.58707" lon="2.09465">
        <ele>97</ele>
        <time>2022-12-25T13:53:35Z</time>
      </trkpt>
      <trkpt lat="48.58707" lon="2.09461">
        <ele>97</ele>
        <time>2022-12-25T13:53:37Z</time>
      </trkpt>
      <trkpt lat="48.58707" lon="2.09457">
        <ele>97</ele>
        <time>2022-12-25T13:53:39Z</time>
      </trkpt>
      <trkpt lat="48.58706" lon="2.09454">
        <ele>97</ele>
        <time>2022-12-25T13:53:41Z</time>
      </trkpt>
      <trkpt lat="48.58706" lon="2.0945">
        <ele>97</ele>
        <time>2022-12-25T13:53:43Z</time>
      </trkpt>
      <trkpt lat="48.58705" lon="2.09447">
        <ele>97</ele>
        <time>2022-12-25T13:53:45Z</time>
      </trkpt>
      <trkpt lat="48.58704" lon="2.09445">
        <ele>97</ele>
        <time>2022-12-25T13:53:47Z</time>
      </trkpt>
      <trkpt lat="48.58702" lon="2.09443">
        <ele>97</ele>
        <time>2022-12-25T13:53:49Z</time>
      </trkpt>
      <trkpt lat="48.587" lon="2.09442">
        <ele>97</ele>
        <time>2022-12-25T13:53:51Z</time>
      </trkpt>
      <trkpt lat="48.58698" lon="2.0944">
        <ele>97</ele>
        <time>2022-12-25T13:53:53Z</time>
      </trkpt>
      <trkpt lat="48.58695" lon="2.09439">
        <ele>97</ele>
        <time>2022-12-25T13:53:55Z</time>
      </trkpt>
      <trkpt lat="48.58693" lon="2.0944">
        <ele>97</ele>
        <time>2022-12-25T13:53:57Z</time>
      </trkpt>
      <trkpt lat="48.58691" lon="2.0944">
        <ele>97</ele>
        <time>2022-12-25T13:53:59Z</time>
      </trkpt>
      <trkpt lat="48.58689" lon="2.0944">
        <ele>97</ele>
        <time>2022-12-25T13:54:01Z</time>
      </trkpt>
      <trkpt lat="48.58687" lon="2.0944">
        <ele>97</ele>
        <time>2022-12-25T13:54:03Z</time>
      </trkpt>
      <trkpt lat="48.58684" lon="2.0944">
        <ele>97</ele>
        <time>2022-12-25T13:54:05Z</time>
      </trkpt>
      <trkpt lat="48.58682" lon="2.09439">
        <ele>97</ele>
        <time>2022-12-25T13:54:08Z</time>
      </trkpt>
      <trkpt lat="48.5868" lon="2.09439">
        <ele>97</ele>
        <time>2022-12-25T13:54:09Z</time>
      </trkpt>
      <trkpt lat="48.58678" lon="2.0944">
        <ele>97</ele>
        <time>2022-12-25T13:54:11Z</time>
      </trkpt>
      <trkpt lat="48.58675" lon="2.09439">
        <ele>97</ele>
        <time>2022-12-25T13:54:13Z</time>
      </trkpt>
      <trkpt lat="48.58673" lon="2.09439">
        <ele>97</ele>
        <time>2022-12-25T13:54:15Z</time>
      </trkpt>
      <trkpt lat="48.5867" lon="2.09439">
        <ele>97</ele>
        <time>2022-12-25T13:54:17Z</time>
      </trkpt>
      <trkpt lat="48.58667" lon="2.09439">
        <ele>97</ele>
        <time>2022-12-25T13:54:19Z</time>
      </trkpt>
      <trkpt lat="48.58665" lon="2.09439">
        <ele>97</ele>
        <time>2022-12-25T13:54:21Z</time>
      </trkpt>
      <trkpt lat="48.58662" lon="2.09438">
        <ele>97</ele>
        <time>2022-12-25T13:54:23Z</time>
      </trkpt>
      <trkpt lat="48.5866" lon="2.09437">
        <ele>97</ele>
        <time>2022-12-25T13:54:25Z</time>
      </trkpt>
      <trkpt lat="48.58657" lon="2.09437">
        <ele>97</ele>
        <time>2022-12-25T13:54:27Z</time>
      </trkpt>
      <trkpt lat="48.58654" lon="2.09436">
        <ele>97</ele>
        <time>2022-12-25T13:54:29Z</time>
      </trkpt>
      <trkpt lat="48.58652" lon="2.09436">
        <ele>97</ele>
        <time>2022-12-25T13:54:31Z</time>
      </trkpt>
      <trkpt lat="48.58649" lon="2.09436">
        <ele>97</ele>
        <time>2022-12-25T13:54:33Z</time>
      </trkpt>
      <trkpt lat="48.58646" lon="2.09435">
        <ele>97</ele>
        <time>2022-12-25T13:54:35Z</time>
      </trkpt>
      <trkpt lat="48.58644" lon="2.09435">
        <ele>97</ele>
        <time>2022-12-25T13:54:37Z</time>
      </trkpt>
      <trkpt lat="48.58641" lon="2.09434">
        <ele>97</ele>
        <time>2022-12-25T13:54:39Z</time>
      </trkpt>
      <trkpt lat="48.58639" lon="2.09434">
        <ele>97</ele>
        <time>2022-12-25T13:54:41Z</time>
      </trkpt>
      <trkpt lat="48.58636" lon="2.09433">
        <ele>97</ele>
        <time>2022-12-25T13:54:43Z</time>
      </trkpt>
      <trkpt lat="48.58634" lon="2.09433">
        <ele>97</ele>
        <time>2022-12-25T13:54:46Z</time>
      </trkpt>
      <trkpt lat="48.58631" lon="2.09432">
        <ele>97</ele>
        <time>2022-12-25T13:54:47Z</time>
      </trkpt>
      <trkpt lat="48.58629" lon="2.09431">
        <ele>96</ele>
        <time>2022-12-25T13:54:49Z</time>
      </trkpt>
      <trkpt lat="48.58626" lon="2.0943">
        <ele>96</ele>
        <time>2022-12-25T13:54:51Z</time>
      </trkpt>
      <trkpt lat="48.58624" lon="2.09429">
        <ele>96</ele>
        <time>2022-12-25T13:54:53Z</time>
      </trkpt>
      <trkpt lat="48.58621" lon="2.09428">
        <ele>96</ele>
        <time>2022-12-25T13:54:55Z</time>
      </trkpt>
      <trkpt lat="48.58618" lon="2.09427">
        <ele>97</ele>
        <time>2022-12-25T13:54:57Z</time>
      </trkpt>
      <trkpt lat="48.58616" lon="2.09427">
        <ele>97</ele>
        <time>2022-12-25T13:54:59Z</time>
      </trkpt>
      <trkpt lat="48.58613" lon="2.09426">
        <ele>97</ele>
        <time>2022-12-25T13:55:01Z</time>
      </trkpt>
      <trkpt lat="48.58611" lon="2.09425">
        <ele>96</ele>
        <time>2022-12-25T13:55:03Z</time>
      </trkpt>
      <trkpt lat="48.58608" lon="2.09425">
        <ele>96</ele>
        <time>2022-12-25T13:55:05Z</time>
      </trkpt>
      <trkpt lat="48.58606" lon="2.09426">
        <ele>96</ele>
        <time>2022-12-25T13:55:07Z</time>
      </trkpt>
      <trkpt lat="48.58603" lon="2.09425">
        <ele>96</ele>
        <time>2022-12-25T13:55:09Z</time>
      </trkpt>
      <trkpt lat="48.586" lon="2.09425">
        <ele>96</ele>
        <time>2022-12-25T13:55:11Z</time>
      </trkpt>
      <trkpt lat="48.58598" lon="2.09424">
        <ele>96</ele>
        <time>2022-12-25T13:55:13Z</time>
      </trkpt>
      <trkpt lat="48.58595" lon="2.09423">
        <ele>96</ele>
        <time>2022-12-25T13:55:15Z</time>
      </trkpt>
      <trkpt lat="48.58593" lon="2.09423">
        <ele>96</ele>
        <time>2022-12-25T13:55:17Z</time>
      </trkpt>
      <trkpt lat="48.5859" lon="2.09422">
        <ele>96</ele>
        <time>2022-12-25T13:55:19Z</time>
      </trkpt>
      <trkpt lat="48.58588" lon="2.09421">
        <ele>96</ele>
        <time>2022-12-25T13:55:21Z</time>
      </trkpt>
      <trkpt lat="48.58585" lon="2.0942">
        <ele>96</ele>
        <time>2022-12-25T13:55:24Z</time>
      </trkpt>
      <trkpt lat="48.58583" lon="2.0942">
        <ele>96</ele>
        <time>2022-12-25T13:55:25Z</time>
      </trkpt>
      <trkpt lat="48.58581" lon="2.09419">
        <ele>96</ele>
        <time>2022-12-25T13:55:27Z</time>
      </trkpt>
      <trkpt lat="48.58578" lon="2.09419">
        <ele>95</ele>
        <time>2022-12-25T13:55:29Z</time>
      </trkpt>
      <trkpt lat="48.58576" lon="2.09419">
        <ele>95</ele>
        <time>2022-12-25T13:55:31Z</time>
      </trkpt>
      <trkpt lat="48.58574" lon="2.09419">
        <ele>95</ele>
        <time>2022-12-25T13:55:33Z</time>
      </trkpt>
      <trkpt lat="48.58572" lon="2.09419">
        <ele>95</ele>
        <time>2022-12-25T13:55:35Z</time>
      </trkpt>
      <trkpt lat="48.58569" lon="2.09418">
        <ele>95</ele>
        <time>2022-12-25T13:55:37Z</time>
      </trkpt>
      <trkpt lat="48.58567" lon="2.09418">
        <ele>95</ele>
        <time>2022-12-25T13:55:39Z</time>
      </trkpt>
      <trkpt lat="48.58564" lon="2.09417">
        <ele>94</ele>
        <time>2022-12-25T13:55:41Z</time>
      </trkpt>
      <trkpt lat="48.58562" lon="2.09417">
        <ele>94</ele>
        <time>2022-12-25T13:55:43Z</time>
      </trkpt>
      <trkpt lat="48.58559" lon="2.09416">
        <ele>94</ele>
        <time>2022-12-25T13:55:45Z</time>
      </trkpt>
      <trkpt lat="48.58557" lon="2.09415">
        <ele>94</ele>
        <time>2022-12-25T13:55:47Z</time>
      </trkpt>
      <trkpt lat="48.58555" lon="2.09414">
        <ele>94</ele>
        <time>2022-12-25T13:55:49Z</time>
      </trkpt>
      <trkpt lat="48.58552" lon="2.09413">
        <ele>94</ele>
        <time>2022-12-25T13:55:51Z</time>
      </trkpt>
      <trkpt lat="48.5855" lon="2.09412">
        <ele>93</ele>
        <time>2022-12-25T13:55:53Z</time>
      </trkpt>
      <trkpt lat="48.58548" lon="2.09412">
        <ele>93</ele>
        <time>2022-12-25T13:55:55Z</time>
      </trkpt>
      <trkpt lat="48.58545" lon="2.09412">
        <ele>93</ele>
        <time>2022-12-25T13:55:57Z</time>
      </trkpt>
      <trkpt lat="48.58543" lon="2.09412">
        <ele>93</ele>
        <time>2022-12-25T13:55:59Z</time>
      </trkpt>
      <trkpt lat="48.5854" lon="2.09412">
        <ele>93</ele>
        <time>2022-12-25T13:56:02Z</time>
      </trkpt>
      <trkpt lat="48.58537" lon="2.09411">
        <ele>93</ele>
        <time>2022-12-25T13:56:03Z</time>
      </trkpt>
      <trkpt lat="48.58534" lon="2.09411">
        <ele>92</ele>
        <time>2022-12-25T13:56:05Z</time>
      </trkpt>
      <trkpt lat="48.58532" lon="2.0941">
        <ele>92</ele>
        <time>2022-12-25T13:56:07Z</time>
      </trkpt>
      <trkpt lat="48.58529" lon="2.0941">
        <ele>92</ele>
        <time>2022-12-25T13:56:09Z</time>
      </trkpt>
      <trkpt lat="48.58526" lon="2.09409">
        <ele>92</ele>
        <time>2022-12-25T13:56:11Z</time>
      </trkpt>
      <trkpt lat="48.58524" lon="2.09409">
        <ele>91</ele>
        <time>2022-12-25T13:56:13Z</time>
      </trkpt>
      <trkpt lat="48.58521" lon="2.09408">
        <ele>91</ele>
        <time>2022-12-25T13:56:15Z</time>
      </trkpt>
      <trkpt lat="48.58518" lon="2.09407">
        <ele>91</ele>
        <time>2022-12-25T13:56:17Z</time>
      </trkpt>
      <trkpt lat="48.58515" lon="2.09407">
        <ele>91</ele>
        <time>2022-12-25T13:56:19Z</time>
      </trkpt>
      <trkpt lat="48.58512" lon="2.09406">
        <ele>91</ele>
        <time>2022-12-25T13:56:21Z</time>
      </trkpt>
      <trkpt lat="48.5851" lon="2.09406">
        <ele>91</ele>
        <time>2022-12-25T13:56:23Z</time>
      </trkpt>
      <trkpt lat="48.58507" lon="2.09405">
        <ele>91</ele>
        <time>2022-12-25T13:56:25Z</time>
      </trkpt>
      <trkpt lat="48.58504" lon="2.09405">
        <ele>91</ele>
        <time>2022-12-25T13:56:27Z</time>
      </trkpt>
      <trkpt lat="48.58502" lon="2.09405">
        <ele>91</ele>
        <time>2022-12-25T13:56:29Z</time>
      </trkpt>
      <trkpt lat="48.58499" lon="2.09405">
        <ele>91</ele>
        <time>2022-12-25T13:56:31Z</time>
      </trkpt>
      <trkpt lat="48.58497" lon="2.09404">
        <ele>91</ele>
        <time>2022-12-25T13:56:33Z</time>
      </trkpt>
      <trkpt lat="48.58495" lon="2.09404">
        <ele>91</ele>
        <time>2022-12-25T13:56:35Z</time>
      </trkpt>
      <trkpt lat="48.58492" lon="2.09404">
        <ele>91</ele>
        <time>2022-12-25T13:56:37Z</time>
      </trkpt>
      <trkpt lat="48.58489" lon="2.09403">
        <ele>90</ele>
        <time>2022-12-25T13:56:40Z</time>
      </trkpt>
      <trkpt lat="48.58487" lon="2.09403">
        <ele>90</ele>
        <time>2022-12-25T13:56:41Z</time>
      </trkpt>
      <trkpt lat="48.58485" lon="2.09403">
        <ele>90</ele>
        <time>2022-12-25T13:56:43Z</time>
      </trkpt>
      <trkpt lat="48.58482" lon="2.09403">
        <ele>91</ele>
        <time>2022-12-25T13:56:45Z</time>
      </trkpt>
      <trkpt lat="48.58479" lon="2.09403">
        <ele>90</ele>
        <time>2022-12-25T13:56:47Z</time>
      </trkpt>
      <trkpt lat="48.58476" lon="2.09403">
        <ele>90</ele>
        <time>2022-12-25T13:56:49Z</time>
      </trkpt>
      <trkpt lat="48.58473" lon="2.09403">
        <ele>90</ele>
        <time>2022-12-25T13:56:51Z</time>
      </trkpt>
      <trkpt lat="48.58471" lon="2.09402">
        <ele>90</ele>
        <time>2022-12-25T13:56:53Z</time>
      </trkpt>
      <trkpt lat="48.58468" lon="2.09402">
        <ele>90</ele>
        <time>2022-12-25T13:56:55Z</time>
      </trkpt>
      <trkpt lat="48.58465" lon="2.09402">
        <ele>90</ele>
        <time>2022-12-25T13:56:57Z</time>
      </trkpt>
      <trkpt lat="48.58463" lon="2.09401">
        <ele>90</ele>
        <time>2022-12-25T13:56:59Z</time>
      </trkpt>
      <trkpt lat="48.58461" lon="2.09401">
        <ele>89</ele>
        <time>2022-12-25T13:57:01Z</time>
      </trkpt>
      <trkpt lat="48.58458" lon="2.094">
        <ele>89</ele>
        <time>2022-12-25T13:57:03Z</time>
      </trkpt>
      <trkpt lat="48.58456" lon="2.09399">
        <ele>89</ele>
        <time>2022-12-25T13:57:05Z</time>
      </trkpt>
      <trkpt lat="48.58453" lon="2.09399">
        <ele>89</ele>
        <time>2022-12-25T13:57:07Z</time>
      </trkpt>
      <trkpt lat="48.58451" lon="2.09398">
        <ele>89</ele>
        <time>2022-12-25T13:57:09Z</time>
      </trkpt>
      <trkpt lat="48.58448" lon="2.09398">
        <ele>88</ele>
        <time>2022-12-25T13:57:11Z</time>
      </trkpt>
      <trkpt lat="48.58446" lon="2.09397">
        <ele>88</ele>
        <time>2022-12-25T13:57:13Z</time>
      </trkpt>
      <trkpt lat="48.58443" lon="2.09397">
        <ele>88</ele>
        <time>2022-12-25T13:57:15Z</time>
      </trkpt>
      <trkpt lat="48.58441" lon="2.09396">
        <ele>88</ele>
        <time>2022-12-25T13:57:18Z</time>
      </trkpt>
      <trkpt lat="48.58438" lon="2.09396">
        <ele>87</ele>
        <time>2022-12-25T13:57:19Z</time>
      </trkpt>
      <trkpt lat="48.58436" lon="2.09395">
        <ele>87</ele>
        <time>2022-12-25T13:57:21Z</time>
      </trkpt>
      <trkpt lat="48.58434" lon="2.09395">
        <ele>87</ele>
        <time>2022-12-25T13:57:23Z</time>
      </trkpt>
      <trkpt lat="48.58431" lon="2.09394">
        <ele>87</ele>
        <time>2022-12-25T13:57:25Z</time>
      </trkpt>
      <trkpt lat="48.58429" lon="2.09393">
        <ele>87</ele>
        <time>2022-12-25T13:57:27Z</time>
      </trkpt>
      <trkpt lat="48.58427" lon="2.09392">
        <ele>86</ele>
        <time>2022-12-25T13:57:29Z</time>
      </trkpt>
      <trkpt lat="48.58425" lon="2.09391">
        <ele>86</ele>
        <time>2022-12-25T13:57:31Z</time>
      </trkpt>
      <trkpt lat="48.58422" lon="2.0939">
        <ele>86</ele>
        <time>2022-12-25T13:57:33Z</time>
      </trkpt>
      <trkpt lat="48.5842" lon="2.0939">
        <ele>85</ele>
        <time>2022-12-25T13:57:35Z</time>
      </trkpt>
      <trkpt lat="48.58417" lon="2.09389">
        <ele>85</ele>
        <time>2022-12-25T13:57:37Z</time>
      </trkpt>
      <trkpt lat="48.58414" lon="2.09389">
        <ele>85</ele>
        <time>2022-12-25T13:57:39Z</time>
      </trkpt>
      <trkpt lat="48.58412" lon="2.09388">
        <ele>85</ele>
        <time>2022-12-25T13:57:41Z</time>
      </trkpt>
      <trkpt lat="48.58409" lon="2.09388">
        <ele>85</ele>
        <time>2022-12-25T13:57:43Z</time>
      </trkpt>
      <trkpt lat="48.58407" lon="2.09387">
        <ele>85</ele>
        <time>2022-12-25T13:57:45Z</time>
      </trkpt>
      <trkpt lat="48.58404" lon="2.09386">
        <ele>84</ele>
        <time>2022-12-25T13:57:47Z</time>
      </trkpt>
      <trkpt lat="48.58402" lon="2.09385">
        <ele>84</ele>
        <time>2022-12-25T13:57:49Z</time>
      </trkpt>
      <trkpt lat="48.584" lon="2.09384">
        <ele>84</ele>
        <time>2022-12-25T13:57:51Z</time>
      </trkpt>
      <trkpt lat="48.58397" lon="2.09383">
        <ele>84</ele>
        <time>2022-12-25T13:57:53Z</time>
      </trkpt>
      <trkpt lat="48.58395" lon="2.09382">
        <ele>84</ele>
        <time>2022-12-25T13:57:56Z</time>
      </trkpt>
      <trkpt lat="48.58392" lon="2.09381">
        <ele>83</ele>
        <time>2022-12-25T13:57:57Z</time>
      </trkpt>
      <trkpt lat="48.58389" lon="2.0938">
        <ele>83</ele>
        <time>2022-12-25T13:57:59Z</time>
      </trkpt>
      <trkpt lat="48.58387" lon="2.0938">
        <ele>83</ele>
        <time>2022-12-25T13:58:01Z</time>
      </trkpt>
      <trkpt lat="48.58384" lon="2.0938">
        <ele>83</ele>
        <time>2022-12-25T13:58:03Z</time>
      </trkpt>
      <trkpt lat="48.58381" lon="2.0938">
        <ele>83</ele>
        <time>2022-12-25T13:58:05Z</time>
      </trkpt>
      <trkpt lat="48.58378" lon="2.09379">
        <ele>82</ele>
        <time>2022-12-25T13:58:07Z</time>
      </trkpt>
      <trkpt lat="48.58375" lon="2.09379">
        <ele>82</ele>
        <time>2022-12-25T13:58:09Z</time>
      </trkpt>
      <trkpt lat="48.58372" lon="2.09379">
        <ele>82</ele>
        <time>2022-12-25T13:58:11Z</time>
      </trkpt>
      <trkpt lat="48.58369" lon="2.09378">
        <ele>82</ele>
        <time>2022-12-25T13:58:13Z</time>
      </trkpt>
      <trkpt lat="48.58366" lon="2.09377">
        <ele>82</ele>
        <time>2022-12-25T13:58:15Z</time>
      </trkpt>
      <trkpt lat="48.58363" lon="2.09376">
        <ele>82</ele>
        <time>2022-12-25T13:58:17Z</time>
      </trkpt>
      <trkpt lat="48.58361" lon="2.09376">
        <ele>81</ele>
        <time>2022-12-25T13:58:19Z</time>
      </trkpt>
      <trkpt lat="48.58358" lon="2.09376">
        <ele>81</ele>
        <time>2022-12-25T13:58:21Z</time>
      </trkpt>
      <trkpt lat="48.58355" lon="2.09376">
        <ele>81</ele>
        <time>2022-12-25T13:58:23Z</time>
      </trkpt>
      <trkpt lat="48.58353" lon="2.09376">
        <ele>81</ele>
        <time>2022-12-25T13:58:25Z</time>
      </trkpt>
      <trkpt lat="48.58351" lon="2.09376">
        <ele>81</ele>
        <time>2022-12-25T13:58:27Z</time>
      </trkpt>
      <trkpt lat="48.58348" lon="2.09376">
        <ele>81</ele>
        <time>2022-12-25T13:58:29Z</time>
      </trkpt>
      <trkpt lat="48.58345" lon="2.09375">
        <ele>81</ele>
        <time>2022-12-25T13:58:31Z</time>
      </trkpt>
      <trkpt lat="48.58342" lon="2.09376">
        <ele>81</ele>
        <time>2022-12-25T13:58:34Z</time>
      </trkpt>
      <trkpt lat="48.5834" lon="2.09375">
        <ele>81</ele>
        <time>2022-12-25T13:58:35Z</time>
      </trkpt>
      <trkpt lat="48.58337" lon="2.09375">
        <ele>80</ele>
        <time>2022-12-25T13:58:37Z</time>
      </trkpt>
      <trkpt lat="48.58335" lon="2.09376">
        <ele>80</ele>
        <time>2022-12-25T13:58:39Z</time>
      </trkpt>
      <trkpt lat="48.58332" lon="2.09376">
        <ele>79</ele>
        <time>2022-12-25T13:58:41Z</time>
      </trkpt>
      <trkpt lat="48.5833" lon="2.09376">
        <ele>79</ele>
        <time>2022-12-25T13:58:43Z</time>
      </trkpt>
      <trkpt lat="48.58327" lon="2.09376">
        <ele>79</ele>
        <time>2022-12-25T13:58:45Z</time>
      </trkpt>
      <trkpt lat="48.58325" lon="2.09376">
        <ele>79</ele>
        <time>2022-12-25T13:58:47Z</time>
      </trkpt>
      <trkpt lat="48.58322" lon="2.09376">
        <ele>78</ele>
        <time>2022-12-25T13:58:49Z</time>
      </trkpt>
      <trkpt lat="48.5832" lon="2.09376">
        <ele>78</ele>
        <time>2022-12-25T13:58:51Z</time>
      </trkpt>
      <trkpt lat="48.58318" lon="2.09376">
        <ele>78</ele>
        <time>2022-12-25T13:58:53Z</time>
      </trkpt>
      <trkpt lat="48.58315" lon="2.09376">
        <ele>78</ele>
        <time>2022-12-25T13:58:55Z</time>
      </trkpt>
      <trkpt lat="48.58313" lon="2.09376">
        <ele>77</ele>
        <time>2022-12-25T13:58:57Z</time>
      </trkpt>
      <trkpt lat="48.5831" lon="2.09376">
        <ele>77</ele>
        <time>2022-12-25T13:58:59Z</time>
      </trkpt>
      <trkpt lat="48.58307" lon="2.09377">
        <ele>76</ele>
        <time>2022-12-25T13:59:01Z</time>
      </trkpt>
      <trkpt lat="48.58305" lon="2.09377">
        <ele>76</ele>
        <time>2022-12-25T13:59:03Z</time>
      </trkpt>
      <trkpt lat="48.58302" lon="2.09376">
        <ele>76</ele>
        <time>2022-12-25T13:59:05Z</time>
      </trkpt>
      <trkpt lat="48.583" lon="2.09376">
        <ele>75</ele>
        <time>2022-12-25T13:59:07Z</time>
      </trkpt>
      <trkpt lat="48.58297" lon="2.09376">
        <ele>75</ele>
        <time>2022-12-25T13:59:09Z</time>
      </trkpt>
      <trkpt lat="48.58294" lon="2.09376">
        <ele>75</ele>
        <time>2022-12-25T13:59:12Z</time>
      </trkpt>
      <trkpt lat="48.58292" lon="2.09376">
        <ele>74</ele>
        <time>2022-12-25T13:59:13Z</time>
      </trkpt>
      <trkpt lat="48.58289" lon="2.09376">
        <ele>74</ele>
        <time>2022-12-25T13:59:15Z</time>
      </trkpt>
      <trkpt lat="48.58287" lon="2.09376">
        <ele>74</ele>
        <time>2022-12-25T13:59:17Z</time>
      </trkpt>
      <trkpt lat="48.58284" lon="2.09377">
        <ele>74</ele>
        <time>2022-12-25T13:59:19Z</time>
      </trkpt>
      <trkpt lat="48.58282" lon="2.09377">
        <ele>74</ele>
        <time>2022-12-25T13:59:21Z</time>
      </trkpt>
      <trkpt lat="48.58279" lon="2.09377">
        <ele>73</ele>
        <time>2022-12-25T13:59:23Z</time>
      </trkpt>
      <trkpt lat="48.58277" lon="2.09377">
        <ele>73</ele>
        <time>2022-12-25T13:59:25Z</time>
      </trkpt>
      <trkpt lat="48.58274" lon="2.09378">
        <ele>73</ele>
        <time>2022-12-25T13:59:27Z</time>
      </trkpt>
      <trkpt lat="48.58271" lon="2.09378">
        <ele>73</ele>
        <time>2022-12-25T13:59:29Z</time>
      </trkpt>
      <trkpt lat="48.58268" lon="2.09378">
        <ele>72</ele>
        <time>2022-12-25T13:59:31Z</time>
      </trkpt>
      <trkpt lat="48.58266" lon="2.09378">
        <ele>72</ele>
        <time>2022-12-25T13:59:33Z</time>
      </trkpt>
      <trkpt lat="48.58263" lon="2.09378">
        <ele>72</ele>
        <time>2022-12-25T13:59:35Z</time>
      </trkpt>
      <trkpt lat="48.58261" lon="2.09378">
        <ele>72</ele>
        <time>2022-12-25T13:59:37Z</time>
      </trkpt>
      <trkpt lat="48.58258" lon="2.09379">
        <ele>72</ele>
        <time>2022-12-25T13:59:39Z</time>
      </trkpt>
      <trkpt lat="48.58256" lon="2.09379">
        <ele>72</ele>
        <time>2022-12-25T13:59:41Z</time>
      </trkpt>
      <trkpt lat="48.58253" lon="2.0938">
        <ele>72</ele>
        <time>2022-12-25T13:59:43Z</time>
      </trkpt>
      <trkpt lat="48.5825" lon="2.0938">
        <ele>72</ele>
        <time>2022-12-25T13:59:45Z</time>
      </trkpt>
      <trkpt lat="48.58247" lon="2.0938">
        <ele>72</ele>
        <time>2022-12-25T13:59:47Z</time>
      </trkpt>
      <trkpt lat="48.58245" lon="2.09381">
        <ele>71</ele>
        <time>2022-12-25T13:59:50Z</time>
      </trkpt>
      <trkpt lat="48.58242" lon="2.09382">
        <ele>71</ele>
        <time>2022-12-25T13:59:51Z</time>
      </trkpt>
      <trkpt lat="48.58239" lon="2.09382">
        <ele>71</ele>
        <time>2022-12-25T13:59:53Z</time>
      </trkpt>
      <trkpt lat="48.58237" lon="2.09382">
        <ele>71</ele>
        <time>2022-12-25T13:59:55Z</time>
      </trkpt>
      <trkpt lat="48.58234" lon="2.09381">
        <ele>71</ele>
        <time>2022-12-25T13:59:57Z</time>
      </trkpt>
      <trkpt lat="48.58231" lon="2.09381">
        <ele>71</ele>
        <time>2022-12-25T13:59:59Z</time>
      </trkpt>
      <trkpt lat="48.58228" lon="2.09381">
        <ele>71</ele>
        <time>2022-12-25T14:00:01Z</time>
      </trkpt>
      <trkpt lat="48.58226" lon="2.09382">
        <ele>71</ele>
        <time>2022-12-25T14:00:03Z</time>
      </trkpt>
      <trkpt lat="48.58223" lon="2.09382">
        <ele>71</ele>
        <time>2022-12-25T14:00:05Z</time>
      </trkpt>
      <trkpt lat="48.58221" lon="2.09382">
        <ele>71</ele>
        <time>2022-12-25T14:00:07Z</time>
      </trkpt>
      <trkpt lat="48.58218" lon="2.09382">
        <ele>70</ele>
        <time>2022-12-25T14:00:09Z</time>
      </trkpt>
      <trkpt lat="48.58215" lon="2.09383">
        <ele>71</ele>
        <time>2022-12-25T14:00:11Z</time>
      </trkpt>
      <trkpt lat="48.58213" lon="2.09383">
        <ele>71</ele>
        <time>2022-12-25T14:00:13Z</time>
      </trkpt>
      <trkpt lat="48.5821" lon="2.09384">
        <ele>71</ele>
        <time>2022-12-25T14:00:15Z</time>
      </trkpt>
      <trkpt lat="48.58207" lon="2.09384">
        <ele>71</ele>
        <time>2022-12-25T14:00:17Z</time>
      </trkpt>
      <trkpt lat="48.58205" lon="2.09385">
        <ele>71</ele>
        <time>2022-12-25T14:00:19Z</time>
      </trkpt>
      <trkpt lat="48.58202" lon="2.09385">
        <ele>71</ele>
        <time>2022-12-25T14:00:21Z</time>
      </trkpt>
      <trkpt lat="48.58199" lon="2.09386">
        <ele>71</ele>
        <time>2022-12-25T14:00:23Z</time>
      </trkpt>
      <trkpt lat="48.58196" lon="2.09386">
        <ele>71</ele>
        <time>2022-12-25T14:00:25Z</time>
      </trkpt>
      <trkpt lat="48.58193" lon="2.09387">
        <ele>71</ele>
        <time>2022-12-25T14:00:28Z</time>
      </trkpt>
      <trkpt lat="48.5819" lon="2.09387">
        <ele>71</ele>
        <time>2022-12-25T14:00:29Z</time>
      </trkpt>
      <trkpt lat="48.58187" lon="2.09388">
        <ele>71</ele>
        <time>2022-12-25T14:00:31Z</time>
      </trkpt>
      <trkpt lat="48.58184" lon="2.09388">
        <ele>71</ele>
        <time>2022-12-25T14:00:33Z</time>
      </trkpt>
      <trkpt lat="48.58181" lon="2.09388">
        <ele>71</ele>
        <time>2022-12-25T14:00:35Z</time>
      </trkpt>
      <trkpt lat="48.58178" lon="2.09388">
        <ele>71</ele>
        <time>2022-12-25T14:00:37Z</time>
      </trkpt>
      <trkpt lat="48.58175" lon="2.09387">
        <ele>71</ele>
        <time>2022-12-25T14:00:39Z</time>
      </trkpt>
      <trkpt lat="48.58172" lon="2.09387">
        <ele>71</ele>
        <time>2022-12-25T14:00:41Z</time>
      </trkpt>
      <trkpt lat="48.58169" lon="2.09386">
        <ele>71</ele>
        <time>2022-12-25T14:00:43Z</time>
      </trkpt>
      <trkpt lat="48.58167" lon="2.09385">
        <ele>71</ele>
        <time>2022-12-25T14:00:45Z</time>
      </trkpt>
      <trkpt lat="48.58164" lon="2.09384">
        <ele>70</ele>
        <time>2022-12-25T14:00:47Z</time>
      </trkpt>
      <trkpt lat="48.58162" lon="2.09384">
        <ele>70</ele>
        <time>2022-12-25T14:00:49Z</time>
      </trkpt>
      <trkpt lat="48.58159" lon="2.09383">
        <ele>70</ele>
        <time>2022-12-25T14:00:51Z</time>
      </trkpt>
      <trkpt lat="48.58157" lon="2.09383">
        <ele>69</ele>
        <time>2022-12-25T14:00:53Z</time>
      </trkpt>
      <trkpt lat="48.58154" lon="2.09383">
        <ele>69</ele>
        <time>2022-12-25T14:00:55Z</time>
      </trkpt>
      <trkpt lat="48.58151" lon="2.09382">
        <ele>69</ele>
        <time>2022-12-25T14:00:57Z</time>
      </trkpt>
      <trkpt lat="48.58149" lon="2.09381">
        <ele>69</ele>
        <time>2022-12-25T14:00:59Z</time>
      </trkpt>
      <trkpt lat="48.58146" lon="2.09381">
        <ele>69</ele>
        <time>2022-12-25T14:01:01Z</time>
      </trkpt>
      <trkpt lat="48.58144" lon="2.09381">
        <ele>69</ele>
        <time>2022-12-25T14:01:03Z</time>
      </trkpt>
      <trkpt lat="48.58141" lon="2.0938">
        <ele>69</ele>
        <time>2022-12-25T14:01:06Z</time>
      </trkpt>
      <trkpt lat="48.58138" lon="2.09379">
        <ele>69</ele>
        <time>2022-12-25T14:01:07Z</time>
      </trkpt>
      <trkpt lat="48.58135" lon="2.09379">
        <ele>69</ele>
        <time>2022-12-25T14:01:09Z</time>
      </trkpt>
      <trkpt lat="48.58133" lon="2.09378">
        <ele>69</ele>
        <time>2022-12-25T14:01:11Z</time>
      </trkpt>
      <trkpt lat="48.5813" lon="2.09378">
        <ele>69</ele>
        <time>2022-12-25T14:01:13Z</time>
      </trkpt>
      <trkpt lat="48.58127" lon="2.09378">
        <ele>69</ele>
        <time>2022-12-25T14:01:15Z</time>
      </trkpt>
      <trkpt lat="48.58124" lon="2.09377">
        <ele>69</ele>
        <time>2022-12-25T14:01:17Z</time>
      </trkpt>
      <trkpt lat="48.58121" lon="2.09377">
        <ele>69</ele>
        <time>2022-12-25T14:01:19Z</time>
      </trkpt>
      <trkpt lat="48.58118" lon="2.09376">
        <ele>69</ele>
        <time>2022-12-25T14:01:21Z</time>
      </trkpt>
      <trkpt lat="48.58115" lon="2.09376">
        <ele>69</ele>
        <time>2022-12-25T14:01:23Z</time>
      </trkpt>
      <trkpt lat="48.58113" lon="2.09375">
        <ele>69</ele>
        <time>2022-12-25T14:01:25Z</time>
      </trkpt>
      <trkpt lat="48.5811" lon="2.09374">
        <ele>69</ele>
        <time>2022-12-25T14:01:27Z</time>
      </trkpt>
      <trkpt lat="48.58107" lon="2.09374">
        <ele>69</ele>
        <time>2022-12-25T14:01:29Z</time>
      </trkpt>
      <trkpt lat="48.58104" lon="2.09374">
        <ele>69</ele>
        <time>2022-12-25T14:01:31Z</time>
      </trkpt>
      <trkpt lat="48.58102" lon="2.09373">
        <ele>69</ele>
        <time>2022-12-25T14:01:33Z</time>
      </trkpt>
      <trkpt lat="48.58099" lon="2.09373">
        <ele>69</ele>
        <time>2022-12-25T14:01:35Z</time>
      </trkpt>
      <trkpt lat="48.58096" lon="2.09372">
        <ele>69</ele>
        <time>2022-12-25T14:01:37Z</time>
      </trkpt>
      <trkpt lat="48.58094" lon="2.09372">
        <ele>69</ele>
        <time>2022-12-25T14:01:39Z</time>
      </trkpt>
      <trkpt lat="48.58091" lon="2.09371">
        <ele>69</ele>
        <time>2022-12-25T14:01:41Z</time>
      </trkpt>
      <trkpt lat="48.58088" lon="2.0937">
        <ele>69</ele>
        <time>2022-12-25T14:01:44Z</time>
      </trkpt>
      <trkpt lat="48.58086" lon="2.09369">
        <ele>68</ele>
        <time>2022-12-25T14:01:45Z</time>
      </trkpt>
      <trkpt lat="48.58083" lon="2.09369">
        <ele>68</ele>
        <time>2022-12-25T14:01:47Z</time>
      </trkpt>
      <trkpt lat="48.5808" lon="2.09368">
        <ele>68</ele>
        <time>2022-12-25T14:01:49Z</time>
      </trkpt>
      <trkpt lat="48.58077" lon="2.09368">
        <ele>68</ele>
        <time>2022-12-25T14:01:51Z</time>
      </trkpt>
      <trkpt lat="48.58075" lon="2.09368">
        <ele>68</ele>
        <time>2022-12-25T14:01:53Z</time>
      </trkpt>
      <trkpt lat="48.58072" lon="2.09367">
        <ele>69</ele>
        <time>2022-12-25T14:01:55Z</time>
      </trkpt>
      <trkpt lat="48.58069" lon="2.09367">
        <ele>69</ele>
        <time>2022-12-25T14:01:57Z</time>
      </trkpt>
      <trkpt lat="48.58067" lon="2.09366">
        <ele>69</ele>
        <time>2022-12-25T14:01:59Z</time>
      </trkpt>
      <trkpt lat="48.58064" lon="2.09365">
        <ele>69</ele>
        <time>2022-12-25T14:02:01Z</time>
      </trkpt>
      <trkpt lat="48.58062" lon="2.09365">
        <ele>68</ele>
        <time>2022-12-25T14:02:03Z</time>
      </trkpt>
      <trkpt lat="48.58059" lon="2.09365">
        <ele>68</ele>
        <time>2022-12-25T14:02:05Z</time>
      </trkpt>
      <trkpt lat="48.58057" lon="2.09364">
        <ele>69</ele>
        <time>2022-12-25T14:02:07Z</time>
      </trkpt>
      <trkpt lat="48.58054" lon="2.09364">
        <ele>69</ele>
        <time>2022-12-25T14:02:09Z</time>
      </trkpt>
      <trkpt lat="48.58051" lon="2.09363">
        <ele>69</ele>
        <time>2022-12-25T14:02:11Z</time>
      </trkpt>
      <trkpt lat="48.58049" lon="2.09363">
        <ele>69</ele>
        <time>2022-12-25T14:02:13Z</time>
      </trkpt>
      <trkpt lat="48.58046" lon="2.09363">
        <ele>69</ele>
        <time>2022-12-25T14:02:15Z</time>
      </trkpt>
      <trkpt lat="48.58044" lon="2.09363">
        <ele>69</ele>
        <time>2022-12-25T14:02:17Z</time>
      </trkpt>
      <trkpt lat="48.58041" lon="2.09362">
        <ele>69</ele>
        <time>2022-12-25T14:02:19Z</time>
      </trkpt>
      <trkpt lat="48.58038" lon="2.09362">
        <ele>70</ele>
        <time>2022-12-25T14:02:22Z</time>
      </trkpt>
      <trkpt lat="48.58036" lon="2.09362">
        <ele>70</ele>
        <time>2022-12-25T14:02:23Z</time>
      </trkpt>
      <trkpt lat="48.58033" lon="2.09361">
        <ele>70</ele>
        <time>2022-12-25T14:02:25Z</time>
      </trkpt>
      <trkpt lat="48.58031" lon="2.09361">
        <ele>70</ele>
        <time>2022-12-25T14:02:27Z</time>
      </trkpt>
      <trkpt lat="48.58028" lon="2.0936">
        <ele>70</ele>
        <time>2022-12-25T14:02:29Z</time>
      </trkpt>
      <trkpt lat="48.58026" lon="2.09359">
        <ele>70</ele>
        <time>2022-12-25T14:02:31Z</time>
      </trkpt>
      <trkpt lat="48.58023" lon="2.09358">
        <ele>71</ele>
        <time>2022-12-25T14:02:33Z</time>
      </trkpt>
      <trkpt lat="48.5802" lon="2.09358">
        <ele>71</ele>
        <time>2022-12-25T14:02:35Z</time>
      </trkpt>
      <trkpt lat="48.58018" lon="2.09358">
        <ele>71</ele>
        <time>2022-12-25T14:02:37Z</time>
      </trkpt>
      <trkpt lat="48.58015" lon="2.09358">
        <ele>71</ele>
        <time>2022-12-25T14:02:39Z</time>
      </trkpt>
      <trkpt lat="48.58012" lon="2.09357">
        <ele>71</ele>
        <time>2022-12-25T14:02:41Z</time>
      </trkpt>
      <trkpt lat="48.5801" lon="2.09357">
        <ele>71</ele>
        <time>2022-12-25T14:02:43Z</time>
      </trkpt>
      <trkpt lat="48.58007" lon="2.09356">
        <ele>71</ele>
        <time>2022-12-25T14:02:45Z</time>
      </trkpt>
      <trkpt lat="48.58004" lon="2.09356">
        <ele>71</ele>
        <time>2022-12-25T14:02:47Z</time>
      </trkpt>
      <trkpt lat="48.58001" lon="2.09356">
        <ele>71</ele>
        <time>2022-12-25T14:02:49Z</time>
      </trkpt>
      <trkpt lat="48.57999" lon="2.09355">
        <ele>71</ele>
        <time>2022-12-25T14:02:51Z</time>
      </trkpt>
      <trkpt lat="48.57996" lon="2.09356">
        <ele>71</ele>
        <time>2022-12-25T14:02:53Z</time>
      </trkpt>
      <trkpt lat="48.57993" lon="2.09356">
        <ele>71</ele>
        <time>2022-12-25T14:02:55Z</time>
      </trkpt>
      <trkpt lat="48.5799" lon="2.09356">
        <ele>71</ele>
        <time>2022-12-25T14:02:57Z</time>
      </trkpt>
      <trkpt lat="48.57987" lon="2.09355">
        <ele>71</ele>
        <time>2022-12-25T14:02:59Z</time>
      </trkpt>
      <trkpt lat="48.57984" lon="2.09353">
        <ele>71</ele>
        <time>2022-12-25T14:03:01Z</time>
      </trkpt>
      <trkpt lat="48.57982" lon="2.09351">
        <ele>72</ele>
        <time>2022-12-25T14:03:03Z</time>
      </trkpt>
      <trkpt lat="48.57979" lon="2.09349">
        <ele>72</ele>
        <time>2022-12-25T14:03:05Z</time>
      </trkpt>
      <trkpt lat="48.57976" lon="2.09347">
        <ele>72</ele>
        <time>2022-12-25T14:03:07Z</time>
      </trkpt>
      <trkpt lat="48.57973" lon="2.09345">
        <ele>72</ele>
        <time>2022-12-25T14:03:09Z</time>
      </trkpt>
      <trkpt lat="48.57971" lon="2.09343">
        <ele>72</ele>
        <time>2022-12-25T14:03:11Z</time>
      </trkpt>
      <trkpt lat="48.57969" lon="2.09341">
        <ele>72</ele>
        <time>2022-12-25T14:03:13Z</time>
      </trkpt>
      <trkpt lat="48.57967" lon="2.09338">
        <ele>72</ele>
        <time>2022-12-25T14:03:15Z</time>
      </trkpt>
      <trkpt lat="48.57965" lon="2.09336">
        <ele>72</ele>
        <time>2022-12-25T14:03:17Z</time>
      </trkpt>
      <trkpt lat="48.57963" lon="2.09334">
        <ele>72</ele>
        <time>2022-12-25T14:03:19Z</time>
      </trkpt>
      <trkpt lat="48.5796" lon="2.09332">
        <ele>73</ele>
        <time>2022-12-25T14:03:21Z</time>
      </trkpt>
      <trkpt lat="48.57958" lon="2.09329">
        <ele>73</ele>
        <time>2022-12-25T14:03:23Z</time>
      </trkpt>
      <trkpt lat="48.57956" lon="2.09326">
        <ele>73</ele>
        <time>2022-12-25T14:03:25Z</time>
      </trkpt>
      <trkpt lat="48.57954" lon="2.09324">
        <ele>73</ele>
        <time>2022-12-25T14:03:27Z</time>
      </trkpt>
      <trkpt lat="48.57953" lon="2.09322">
        <ele>73</ele>
        <time>2022-12-25T14:03:33Z</time>
      </trkpt>
      <trkpt lat="48.5795" lon="2.09317">
        <ele>73</ele>
        <time>2022-12-25T14:03:35Z</time>
      </trkpt>
      <trkpt lat="48.57948" lon="2.09314">
        <ele>73</ele>
        <time>2022-12-25T14:03:36Z</time>
      </trkpt>
      <trkpt lat="48.57947" lon="2.09312">
        <ele>73</ele>
        <time>2022-12-25T14:03:38Z</time>
      </trkpt>
      <trkpt lat="48.57945" lon="2.09309">
        <ele>73</ele>
        <time>2022-12-25T14:03:39Z</time>
      </trkpt>
      <trkpt lat="48.57942" lon="2.09306">
        <ele>73</ele>
        <time>2022-12-25T14:03:41Z</time>
      </trkpt>
      <trkpt lat="48.5794" lon="2.09303">
        <ele>73</ele>
        <time>2022-12-25T14:03:43Z</time>
      </trkpt>
      <trkpt lat="48.57937" lon="2.093">
        <ele>73</ele>
        <time>2022-12-25T14:03:45Z</time>
      </trkpt>
      <trkpt lat="48.57935" lon="2.09298">
        <ele>73</ele>
        <time>2022-12-25T14:03:47Z</time>
      </trkpt>
      <trkpt lat="48.57933" lon="2.09296">
        <ele>73</ele>
        <time>2022-12-25T14:03:49Z</time>
      </trkpt>
      <trkpt lat="48.5793" lon="2.09294">
        <ele>74</ele>
        <time>2022-12-25T14:03:51Z</time>
      </trkpt>
      <trkpt lat="48.57928" lon="2.09292">
        <ele>74</ele>
        <time>2022-12-25T14:03:53Z</time>
      </trkpt>
      <trkpt lat="48.57925" lon="2.0929">
        <ele>74</ele>
        <time>2022-12-25T14:03:55Z</time>
      </trkpt>
      <trkpt lat="48.57923" lon="2.09289">
        <ele>74</ele>
        <time>2022-12-25T14:03:57Z</time>
      </trkpt>
      <trkpt lat="48.5792" lon="2.09288">
        <ele>74</ele>
        <time>2022-12-25T14:03:59Z</time>
      </trkpt>
      <trkpt lat="48.57917" lon="2.09286">
        <ele>74</ele>
        <time>2022-12-25T14:04:01Z</time>
      </trkpt>
      <trkpt lat="48.57915" lon="2.09285">
        <ele>74</ele>
        <time>2022-12-25T14:04:03Z</time>
      </trkpt>
      <trkpt lat="48.57913" lon="2.09284">
        <ele>74</ele>
        <time>2022-12-25T14:04:05Z</time>
      </trkpt>
      <trkpt lat="48.5791" lon="2.09283">
        <ele>74</ele>
        <time>2022-12-25T14:04:07Z</time>
      </trkpt>
      <trkpt lat="48.57908" lon="2.09282">
        <ele>74</ele>
        <time>2022-12-25T14:04:09Z</time>
      </trkpt>
      <trkpt lat="48.57905" lon="2.09281">
        <ele>74</ele>
        <time>2022-12-25T14:04:11Z</time>
      </trkpt>
      <trkpt lat="48.57903" lon="2.0928">
        <ele>74</ele>
        <time>2022-12-25T14:04:13Z</time>
      </trkpt>
      <trkpt lat="48.579" lon="2.09279">
        <ele>75</ele>
        <time>2022-12-25T14:04:16Z</time>
      </trkpt>
      <trkpt lat="48.57897" lon="2.09278">
        <ele>75</ele>
        <time>2022-12-25T14:04:17Z</time>
      </trkpt>
      <trkpt lat="48.57895" lon="2.09277">
        <ele>75</ele>
        <time>2022-12-25T14:04:19Z</time>
      </trkpt>
      <trkpt lat="48.57892" lon="2.09277">
        <ele>75</ele>
        <time>2022-12-25T14:04:21Z</time>
      </trkpt>
      <trkpt lat="48.57889" lon="2.09276">
        <ele>75</ele>
        <time>2022-12-25T14:04:23Z</time>
      </trkpt>
      <trkpt lat="48.57887" lon="2.09276">
        <ele>75</ele>
        <time>2022-12-25T14:04:25Z</time>
      </trkpt>
      <trkpt lat="48.57884" lon="2.09275">
        <ele>76</ele>
        <time>2022-12-25T14:04:27Z</time>
      </trkpt>
      <trkpt lat="48.57881" lon="2.09274">
        <ele>76</ele>
        <time>2022-12-25T14:04:29Z</time>
      </trkpt>
      <trkpt lat="48.57878" lon="2.09274">
        <ele>76</ele>
        <time>2022-12-25T14:04:31Z</time>
      </trkpt>
      <trkpt lat="48.57876" lon="2.09274">
        <ele>76</ele>
        <time>2022-12-25T14:04:33Z</time>
      </trkpt>
      <trkpt lat="48.57873" lon="2.09273">
        <ele>76</ele>
        <time>2022-12-25T14:04:35Z</time>
      </trkpt>
      <trkpt lat="48.5787" lon="2.09273">
        <ele>76</ele>
        <time>2022-12-25T14:04:37Z</time>
      </trkpt>
      <trkpt lat="48.57868" lon="2.09272">
        <ele>76</ele>
        <time>2022-12-25T14:04:39Z</time>
      </trkpt>
      <trkpt lat="48.57865" lon="2.09271">
        <ele>76</ele>
        <time>2022-12-25T14:04:41Z</time>
      </trkpt>
      <trkpt lat="48.57862" lon="2.09271">
        <ele>76</ele>
        <time>2022-12-25T14:04:43Z</time>
      </trkpt>
      <trkpt lat="48.5786" lon="2.0927">
        <ele>76</ele>
        <time>2022-12-25T14:04:45Z</time>
      </trkpt>
      <trkpt lat="48.57857" lon="2.0927">
        <ele>76</ele>
        <time>2022-12-25T14:04:47Z</time>
      </trkpt>
      <trkpt lat="48.57855" lon="2.09269">
        <ele>77</ele>
        <time>2022-12-25T14:04:49Z</time>
      </trkpt>
      <trkpt lat="48.57851" lon="2.09269">
        <ele>77</ele>
        <time>2022-12-25T14:04:51Z</time>
      </trkpt>
      <trkpt lat="48.57848" lon="2.09269">
        <ele>77</ele>
        <time>2022-12-25T14:04:54Z</time>
      </trkpt>
      <trkpt lat="48.57845" lon="2.09269">
        <ele>77</ele>
        <time>2022-12-25T14:04:55Z</time>
      </trkpt>
      <trkpt lat="48.57842" lon="2.09269">
        <ele>77</ele>
        <time>2022-12-25T14:04:57Z</time>
      </trkpt>
      <trkpt lat="48.5784" lon="2.09268">
        <ele>77</ele>
        <time>2022-12-25T14:04:58Z</time>
      </trkpt>
      <trkpt lat="48.57837" lon="2.09267">
        <ele>77</ele>
        <time>2022-12-25T14:05:00Z</time>
      </trkpt>
      <trkpt lat="48.57835" lon="2.09266">
        <ele>77</ele>
        <time>2022-12-25T14:05:02Z</time>
      </trkpt>
      <trkpt lat="48.57832" lon="2.09265">
        <ele>78</ele>
        <time>2022-12-25T14:05:04Z</time>
      </trkpt>
      <trkpt lat="48.57829" lon="2.09265">
        <ele>78</ele>
        <time>2022-12-25T14:05:06Z</time>
      </trkpt>
      <trkpt lat="48.57826" lon="2.09264">
        <ele>78</ele>
        <time>2022-12-25T14:05:08Z</time>
      </trkpt>
      <trkpt lat="48.57823" lon="2.09263">
        <ele>78</ele>
        <time>2022-12-25T14:05:10Z</time>
      </trkpt>
      <trkpt lat="48.5782" lon="2.09263">
        <ele>78</ele>
        <time>2022-12-25T14:05:13Z</time>
      </trkpt>
      <trkpt lat="48.57817" lon="2.09263">
        <ele>78</ele>
        <time>2022-12-25T14:05:14Z</time>
      </trkpt>
      <trkpt lat="48.57815" lon="2.09262">
        <ele>78</ele>
        <time>2022-12-25T14:05:16Z</time>
      </trkpt>
      <trkpt lat="48.57812" lon="2.09261">
        <ele>78</ele>
        <time>2022-12-25T14:05:18Z</time>
      </trkpt>
      <trkpt lat="48.57809" lon="2.09261">
        <ele>78</ele>
        <time>2022-12-25T14:05:20Z</time>
      </trkpt>
      <trkpt lat="48.57805" lon="2.0926">
        <ele>78</ele>
        <time>2022-12-25T14:05:22Z</time>
      </trkpt>
      <trkpt lat="48.57803" lon="2.0926">
        <ele>79</ele>
        <time>2022-12-25T14:05:24Z</time>
      </trkpt>
      <trkpt lat="48.578" lon="2.09259">
        <ele>79</ele>
        <time>2022-12-25T14:05:26Z</time>
      </trkpt>
      <trkpt lat="48.57798" lon="2.09259">
        <ele>79</ele>
        <time>2022-12-25T14:05:28Z</time>
      </trkpt>
      <trkpt lat="48.57795" lon="2.09258">
        <ele>79</ele>
        <time>2022-12-25T14:05:30Z</time>
      </trkpt>
      <trkpt lat="48.57793" lon="2.09257">
        <ele>79</ele>
        <time>2022-12-25T14:05:33Z</time>
      </trkpt>
      <trkpt lat="48.5779" lon="2.09257">
        <ele>79</ele>
        <time>2022-12-25T14:05:35Z</time>
      </trkpt>
      <trkpt lat="48.57787" lon="2.09257">
        <ele>79</ele>
        <time>2022-12-25T14:05:37Z</time>
      </trkpt>
      <trkpt lat="48.57784" lon="2.09257">
        <ele>79</ele>
        <time>2022-12-25T14:05:39Z</time>
      </trkpt>
      <trkpt lat="48.57782" lon="2.09257">
        <ele>79</ele>
        <time>2022-12-25T14:05:41Z</time>
      </trkpt>
      <trkpt lat="48.57778" lon="2.09257">
        <ele>79</ele>
        <time>2022-12-25T14:05:43Z</time>
      </trkpt>
      <trkpt lat="48.57775" lon="2.09256">
        <ele>79</ele>
        <time>2022-12-25T14:05:45Z</time>
      </trkpt>
      <trkpt lat="48.57773" lon="2.09257">
        <ele>79</ele>
        <time>2022-12-25T14:05:46Z</time>
      </trkpt>
      <trkpt lat="48.5777" lon="2.09256">
        <ele>79</ele>
        <time>2022-12-25T14:05:48Z</time>
      </trkpt>
      <trkpt lat="48.57768" lon="2.09255">
        <ele>79</ele>
        <time>2022-12-25T14:05:51Z</time>
      </trkpt>
      <trkpt lat="48.57765" lon="2.09256">
        <ele>79</ele>
        <time>2022-12-25T14:05:52Z</time>
      </trkpt>
      <trkpt lat="48.57763" lon="2.09256">
        <ele>79</ele>
        <time>2022-12-25T14:05:54Z</time>
      </trkpt>
      <trkpt lat="48.5776" lon="2.09256">
        <ele>79</ele>
        <time>2022-12-25T14:05:56Z</time>
      </trkpt>
      <trkpt lat="48.57757" lon="2.09257">
        <ele>80</ele>
        <time>2022-12-25T14:05:58Z</time>
      </trkpt>
      <trkpt lat="48.57755" lon="2.09257">
        <ele>80</ele>
        <time>2022-12-25T14:05:59Z</time>
      </trkpt>
      <trkpt lat="48.57752" lon="2.09258">
        <ele>80</ele>
        <time>2022-12-25T14:06:01Z</time>
      </trkpt>
      <trkpt lat="48.5775" lon="2.09259">
        <ele>80</ele>
        <time>2022-12-25T14:06:03Z</time>
      </trkpt>
      <trkpt lat="48.57747" lon="2.0926">
        <ele>80</ele>
        <time>2022-12-25T14:06:05Z</time>
      </trkpt>
      <trkpt lat="48.57746" lon="2.09261">
        <ele>80</ele>
        <time>2022-12-25T14:06:07Z</time>
      </trkpt>
      <trkpt lat="48.57743" lon="2.09261">
        <ele>80</ele>
        <time>2022-12-25T14:06:10Z</time>
      </trkpt>
      <trkpt lat="48.5774" lon="2.09262">
        <ele>80</ele>
        <time>2022-12-25T14:06:11Z</time>
      </trkpt>
      <trkpt lat="48.57738" lon="2.09262">
        <ele>80</ele>
        <time>2022-12-25T14:06:13Z</time>
      </trkpt>
      <trkpt lat="48.57735" lon="2.09261">
        <ele>80</ele>
        <time>2022-12-25T14:06:15Z</time>
      </trkpt>
      <trkpt lat="48.57732" lon="2.09262">
        <ele>80</ele>
        <time>2022-12-25T14:06:17Z</time>
      </trkpt>
      <trkpt lat="48.57729" lon="2.09263">
        <ele>80</ele>
        <time>2022-12-25T14:06:19Z</time>
      </trkpt>
      <trkpt lat="48.57726" lon="2.09264">
        <ele>80</ele>
        <time>2022-12-25T14:06:21Z</time>
      </trkpt>
      <trkpt lat="48.57724" lon="2.09264">
        <ele>80</ele>
        <time>2022-12-25T14:06:23Z</time>
      </trkpt>
      <trkpt lat="48.5772" lon="2.09264">
        <ele>80</ele>
        <time>2022-12-25T14:06:25Z</time>
      </trkpt>
      <trkpt lat="48.57717" lon="2.09265">
        <ele>80</ele>
        <time>2022-12-25T14:06:27Z</time>
      </trkpt>
      <trkpt lat="48.57715" lon="2.09265">
        <ele>80</ele>
        <time>2022-12-25T14:06:29Z</time>
      </trkpt>
      <trkpt lat="48.57713" lon="2.09264">
        <ele>80</ele>
        <time>2022-12-25T14:06:31Z</time>
      </trkpt>
      <trkpt lat="48.57711" lon="2.09265">
        <ele>80</ele>
        <time>2022-12-25T14:06:33Z</time>
      </trkpt>
      <trkpt lat="48.57707" lon="2.09265">
        <ele>80</ele>
        <time>2022-12-25T14:06:38Z</time>
      </trkpt>
      <trkpt lat="48.57704" lon="2.09265">
        <ele>80</ele>
        <time>2022-12-25T14:06:40Z</time>
      </trkpt>
      <trkpt lat="48.57702" lon="2.09266">
        <ele>79</ele>
        <time>2022-12-25T14:06:41Z</time>
      </trkpt>
      <trkpt lat="48.57699" lon="2.09267">
        <ele>79</ele>
        <time>2022-12-25T14:06:43Z</time>
      </trkpt>
      <trkpt lat="48.57696" lon="2.09268">
        <ele>79</ele>
        <time>2022-12-25T14:06:45Z</time>
      </trkpt>
      <trkpt lat="48.57693" lon="2.09268">
        <ele>78</ele>
        <time>2022-12-25T14:06:48Z</time>
      </trkpt>
      <trkpt lat="48.5769" lon="2.09269">
        <ele>78</ele>
        <time>2022-12-25T14:06:49Z</time>
      </trkpt>
      <trkpt lat="48.57688" lon="2.09269">
        <ele>78</ele>
        <time>2022-12-25T14:06:51Z</time>
      </trkpt>
      <trkpt lat="48.57684" lon="2.09269">
        <ele>78</ele>
        <time>2022-12-25T14:06:53Z</time>
      </trkpt>
      <trkpt lat="48.57682" lon="2.09269">
        <ele>77</ele>
        <time>2022-12-25T14:06:55Z</time>
      </trkpt>
      <trkpt lat="48.57679" lon="2.09269">
        <ele>77</ele>
        <time>2022-12-25T14:06:58Z</time>
      </trkpt>
      <trkpt lat="48.57677" lon="2.09269">
        <ele>77</ele>
        <time>2022-12-25T14:07:00Z</time>
      </trkpt>
      <trkpt lat="48.57675" lon="2.0927">
        <ele>77</ele>
        <time>2022-12-25T14:07:02Z</time>
      </trkpt>
      <trkpt lat="48.57672" lon="2.09271">
        <ele>77</ele>
        <time>2022-12-25T14:07:04Z</time>
      </trkpt>
      <trkpt lat="48.5767" lon="2.09273">
        <ele>76</ele>
        <time>2022-12-25T14:07:07Z</time>
      </trkpt>
      <trkpt lat="48.57667" lon="2.09274">
        <ele>76</ele>
        <time>2022-12-25T14:07:08Z</time>
      </trkpt>
      <trkpt lat="48.57664" lon="2.09275">
        <ele>76</ele>
        <time>2022-12-25T14:07:10Z</time>
      </trkpt>
      <trkpt lat="48.5766" lon="2.09276">
        <ele>76</ele>
        <time>2022-12-25T14:07:12Z</time>
      </trkpt>
      <trkpt lat="48.57658" lon="2.09277">
        <ele>76</ele>
        <time>2022-12-25T14:07:14Z</time>
      </trkpt>
      <trkpt lat="48.57655" lon="2.09278">
        <ele>76</ele>
        <time>2022-12-25T14:07:16Z</time>
      </trkpt>
      <trkpt lat="48.57652" lon="2.09279">
        <ele>75</ele>
        <time>2022-12-25T14:07:18Z</time>
      </trkpt>
      <trkpt lat="48.57649" lon="2.0928">
        <ele>75</ele>
        <time>2022-12-25T14:07:20Z</time>
      </trkpt>
      <trkpt lat="48.57646" lon="2.09282">
        <ele>75</ele>
        <time>2022-12-25T14:07:22Z</time>
      </trkpt>
      <trkpt lat="48.57643" lon="2.09284">
        <ele>74</ele>
        <time>2022-12-25T14:07:24Z</time>
      </trkpt>
      <trkpt lat="48.57641" lon="2.09285">
        <ele>74</ele>
        <time>2022-12-25T14:07:26Z</time>
      </trkpt>
      <trkpt lat="48.57638" lon="2.09286">
        <ele>74</ele>
        <time>2022-12-25T14:07:28Z</time>
      </trkpt>
      <trkpt lat="48.57634" lon="2.09288">
        <ele>73</ele>
        <time>2022-12-25T14:07:30Z</time>
      </trkpt>
      <trkpt lat="48.57632" lon="2.0929">
        <ele>73</ele>
        <time>2022-12-25T14:07:32Z</time>
      </trkpt>
      <trkpt lat="48.57629" lon="2.09292">
        <ele>73</ele>
        <time>2022-12-25T14:07:34Z</time>
      </trkpt>
      <trkpt lat="48.57626" lon="2.09294">
        <ele>73</ele>
        <time>2022-12-25T14:07:36Z</time>
      </trkpt>
      <trkpt lat="48.57624" lon="2.09295">
        <ele>73</ele>
        <time>2022-12-25T14:07:38Z</time>
      </trkpt>
      <trkpt lat="48.57621" lon="2.09295">
        <ele>73</ele>
        <time>2022-12-25T14:07:40Z</time>
      </trkpt>
      <trkpt lat="48.57619" lon="2.09296">
        <ele>72</ele>
        <time>2022-12-25T14:07:45Z</time>
      </trkpt>
      <trkpt lat="48.57616" lon="2.09299">
        <ele>72</ele>
        <time>2022-12-25T14:07:47Z</time>
      </trkpt>
      <trkpt lat="48.57613" lon="2.09301">
        <ele>72</ele>
        <time>2022-12-25T14:07:49Z</time>
      </trkpt>
      <trkpt lat="48.5761" lon="2.09302">
        <ele>71</ele>
        <time>2022-12-25T14:07:51Z</time>
      </trkpt>
      <trkpt lat="48.57607" lon="2.09303">
        <ele>70</ele>
        <time>2022-12-25T14:07:53Z</time>
      </trkpt>
      <trkpt lat="48.57604" lon="2.09304">
        <ele>70</ele>
        <time>2022-12-25T14:07:55Z</time>
      </trkpt>
      <trkpt lat="48.57602" lon="2.09306">
        <ele>70</ele>
        <time>2022-12-25T14:07:57Z</time>
      </trkpt>
      <trkpt lat="48.57599" lon="2.09308">
        <ele>70</ele>
        <time>2022-12-25T14:07:59Z</time>
      </trkpt>
      <trkpt lat="48.57596" lon="2.09309">
        <ele>70</ele>
        <time>2022-12-25T14:08:01Z</time>
      </trkpt>
      <trkpt lat="48.57592" lon="2.09311">
        <ele>69</ele>
        <time>2022-12-25T14:08:04Z</time>
      </trkpt>
      <trkpt lat="48.57589" lon="2.09313">
        <ele>69</ele>
        <time>2022-12-25T14:08:05Z</time>
      </trkpt>
      <trkpt lat="48.57587" lon="2.09313">
        <ele>69</ele>
        <time>2022-12-25T14:08:07Z</time>
      </trkpt>
      <trkpt lat="48.57584" lon="2.09315">
        <ele>69</ele>
        <time>2022-12-25T14:08:09Z</time>
      </trkpt>
      <trkpt lat="48.57582" lon="2.09316">
        <ele>69</ele>
        <time>2022-12-25T14:08:11Z</time>
      </trkpt>
      <trkpt lat="48.57578" lon="2.09318">
        <ele>69</ele>
        <time>2022-12-25T14:08:13Z</time>
      </trkpt>
      <trkpt lat="48.57575" lon="2.0932">
        <ele>69</ele>
        <time>2022-12-25T14:08:15Z</time>
      </trkpt>
      <trkpt lat="48.57572" lon="2.09322">
        <ele>69</ele>
        <time>2022-12-25T14:08:17Z</time>
      </trkpt>
      <trkpt lat="48.57569" lon="2.09324">
        <ele>69</ele>
        <time>2022-12-25T14:08:19Z</time>
      </trkpt>
      <trkpt lat="48.57566" lon="2.09326">
        <ele>68</ele>
        <time>2022-12-25T14:08:21Z</time>
      </trkpt>
      <trkpt lat="48.57564" lon="2.09328">
        <ele>68</ele>
        <time>2022-12-25T14:08:23Z</time>
      </trkpt>
      <trkpt lat="48.57561" lon="2.09329">
        <ele>68</ele>
        <time>2022-12-25T14:08:25Z</time>
      </trkpt>
      <trkpt lat="48.57558" lon="2.09329">
        <ele>68</ele>
        <time>2022-12-25T14:08:27Z</time>
      </trkpt>
      <trkpt lat="48.57555" lon="2.0933">
        <ele>68</ele>
        <time>2022-12-25T14:08:29Z</time>
      </trkpt>
      <trkpt lat="48.57552" lon="2.09331">
        <ele>67</ele>
        <time>2022-12-25T14:08:31Z</time>
      </trkpt>
      <trkpt lat="48.57549" lon="2.09333">
        <ele>67</ele>
        <time>2022-12-25T14:08:33Z</time>
      </trkpt>
      <trkpt lat="48.57546" lon="2.09334">
        <ele>67</ele>
        <time>2022-12-25T14:08:35Z</time>
      </trkpt>
      <trkpt lat="48.57544" lon="2.09336">
        <ele>67</ele>
        <time>2022-12-25T14:08:37Z</time>
      </trkpt>
      <trkpt lat="48.57541" lon="2.09338">
        <ele>67</ele>
        <time>2022-12-25T14:08:39Z</time>
      </trkpt>
      <trkpt lat="48.57538" lon="2.0934">
        <ele>67</ele>
        <time>2022-12-25T14:08:42Z</time>
      </trkpt>
      <trkpt lat="48.57535" lon="2.09341">
        <ele>67</ele>
        <time>2022-12-25T14:08:43Z</time>
      </trkpt>
      <trkpt lat="48.57532" lon="2.09343">
        <ele>67</ele>
        <time>2022-12-25T14:08:45Z</time>
      </trkpt>
      <trkpt lat="48.57529" lon="2.09345">
        <ele>67</ele>
        <time>2022-12-25T14:08:47Z</time>
      </trkpt>
      <trkpt lat="48.57527" lon="2.09347">
        <ele>67</ele>
        <time>2022-12-25T14:08:49Z</time>
      </trkpt>
      <trkpt lat="48.57524" lon="2.09348">
        <ele>66</ele>
        <time>2022-12-25T14:08:51Z</time>
      </trkpt>
      <trkpt lat="48.57522" lon="2.0935">
        <ele>66</ele>
        <time>2022-12-25T14:08:53Z</time>
      </trkpt>
      <trkpt lat="48.57519" lon="2.09352">
        <ele>66</ele>
        <time>2022-12-25T14:08:55Z</time>
      </trkpt>
      <trkpt lat="48.57516" lon="2.09354">
        <ele>66</ele>
        <time>2022-12-25T14:08:57Z</time>
      </trkpt>
      <trkpt lat="48.57513" lon="2.09355">
        <ele>66</ele>
        <time>2022-12-25T14:08:59Z</time>
      </trkpt>
      <trkpt lat="48.57511" lon="2.09357">
        <ele>66</ele>
        <time>2022-12-25T14:09:01Z</time>
      </trkpt>
      <trkpt lat="48.57509" lon="2.09357">
        <ele>66</ele>
        <time>2022-12-25T14:09:03Z</time>
      </trkpt>
      <trkpt lat="48.57507" lon="2.09358">
        <ele>65</ele>
        <time>2022-12-25T14:09:05Z</time>
      </trkpt>
      <trkpt lat="48.57505" lon="2.0936">
        <ele>66</ele>
        <time>2022-12-25T14:09:07Z</time>
      </trkpt>
      <trkpt lat="48.57502" lon="2.0936">
        <ele>66</ele>
        <time>2022-12-25T14:09:09Z</time>
      </trkpt>
      <trkpt lat="48.57499" lon="2.09361">
        <ele>66</ele>
        <time>2022-12-25T14:09:11Z</time>
      </trkpt>
      <trkpt lat="48.57497" lon="2.09362">
        <ele>66</ele>
        <time>2022-12-25T14:09:13Z</time>
      </trkpt>
      <trkpt lat="48.57494" lon="2.09364">
        <ele>66</ele>
        <time>2022-12-25T14:09:15Z</time>
      </trkpt>
      <trkpt lat="48.57492" lon="2.09364">
        <ele>66</ele>
        <time>2022-12-25T14:09:17Z</time>
      </trkpt>
      <trkpt lat="48.5749" lon="2.09365">
        <ele>66</ele>
        <time>2022-12-25T14:09:18Z</time>
      </trkpt>
      <trkpt lat="48.57487" lon="2.09367">
        <ele>66</ele>
        <time>2022-12-25T14:09:20Z</time>
      </trkpt>
      <trkpt lat="48.57483" lon="2.09368">
        <ele>65</ele>
        <time>2022-12-25T14:09:22Z</time>
      </trkpt>
      <trkpt lat="48.5748" lon="2.09369">
        <ele>65</ele>
        <time>2022-12-25T14:09:24Z</time>
      </trkpt>
      <trkpt lat="48.57478" lon="2.09368">
        <ele>65</ele>
        <time>2022-12-25T14:09:27Z</time>
      </trkpt>
      <trkpt lat="48.57475" lon="2.09368">
        <ele>65</ele>
        <time>2022-12-25T14:09:29Z</time>
      </trkpt>
      <trkpt lat="48.57472" lon="2.09369">
        <ele>65</ele>
        <time>2022-12-25T14:09:33Z</time>
      </trkpt>
      <trkpt lat="48.5747" lon="2.0937">
        <ele>65</ele>
        <time>2022-12-25T14:09:34Z</time>
      </trkpt>
      <trkpt lat="48.57469" lon="2.09372">
        <ele>65</ele>
        <time>2022-12-25T14:09:35Z</time>
      </trkpt>
      <trkpt lat="48.57467" lon="2.09373">
        <ele>65</ele>
        <time>2022-12-25T14:09:36Z</time>
      </trkpt>
      <trkpt lat="48.57465" lon="2.09374">
        <ele>65</ele>
        <time>2022-12-25T14:09:37Z</time>
      </trkpt>
      <trkpt lat="48.57463" lon="2.09375">
        <ele>65</ele>
        <time>2022-12-25T14:09:39Z</time>
      </trkpt>
      <trkpt lat="48.57461" lon="2.09376">
        <ele>65</ele>
        <time>2022-12-25T14:09:44Z</time>
      </trkpt>
      <trkpt lat="48.57458" lon="2.09377">
        <ele>67</ele>
        <time>2022-12-25T14:09:58Z</time>
      </trkpt>
      <trkpt lat="48.57455" lon="2.09377">
        <ele>66</ele>
        <time>2022-12-25T14:09:59Z</time>
      </trkpt>
      <trkpt lat="48.57453" lon="2.09376">
        <ele>66</ele>
        <time>2022-12-25T14:10:01Z</time>
      </trkpt>
      <trkpt lat="48.5745" lon="2.09374">
        <ele>66</ele>
        <time>2022-12-25T14:10:03Z</time>
      </trkpt>
      <trkpt lat="48.57448" lon="2.09371">
        <ele>65</ele>
        <time>2022-12-25T14:10:05Z</time>
      </trkpt>
      <trkpt lat="48.57446" lon="2.09369">
        <ele>65</ele>
        <time>2022-12-25T14:10:07Z</time>
      </trkpt>
      <trkpt lat="48.57444" lon="2.09367">
        <ele>65</ele>
        <time>2022-12-25T14:10:09Z</time>
      </trkpt>
      <trkpt lat="48.57442" lon="2.09365">
        <ele>65</ele>
        <time>2022-12-25T14:10:11Z</time>
      </trkpt>
      <trkpt lat="48.5744" lon="2.09363">
        <ele>65</ele>
        <time>2022-12-25T14:10:13Z</time>
      </trkpt>
      <trkpt lat="48.57437" lon="2.09361">
        <ele>65</ele>
        <time>2022-12-25T14:10:15Z</time>
      </trkpt>
      <trkpt lat="48.57435" lon="2.09359">
        <ele>65</ele>
        <time>2022-12-25T14:10:17Z</time>
      </trkpt>
      <trkpt lat="48.57432" lon="2.09357">
        <ele>65</ele>
        <time>2022-12-25T14:10:19Z</time>
      </trkpt>
      <trkpt lat="48.5743" lon="2.09356">
        <ele>65</ele>
        <time>2022-12-25T14:10:21Z</time>
      </trkpt>
      <trkpt lat="48.57428" lon="2.09354">
        <ele>65</ele>
        <time>2022-12-25T14:10:23Z</time>
      </trkpt>
      <trkpt lat="48.57425" lon="2.09352">
        <ele>65</ele>
        <time>2022-12-25T14:10:25Z</time>
      </trkpt>
      <trkpt lat="48.57423" lon="2.0935">
        <ele>65</ele>
        <time>2022-12-25T14:10:27Z</time>
      </trkpt>
      <trkpt lat="48.57421" lon="2.0935">
        <ele>65</ele>
        <time>2022-12-25T14:10:29Z</time>
      </trkpt>
      <trkpt lat="48.57418" lon="2.09348">
        <ele>65</ele>
        <time>2022-12-25T14:10:31Z</time>
      </trkpt>
      <trkpt lat="48.57416" lon="2.09347">
        <ele>64</ele>
        <time>2022-12-25T14:10:33Z</time>
      </trkpt>
      <trkpt lat="48.57413" lon="2.09346">
        <ele>65</ele>
        <time>2022-12-25T14:10:36Z</time>
      </trkpt>
      <trkpt lat="48.57411" lon="2.09344">
        <ele>65</ele>
        <time>2022-12-25T14:10:37Z</time>
      </trkpt>
      <trkpt lat="48.57408" lon="2.09341">
        <ele>65</ele>
        <time>2022-12-25T14:10:39Z</time>
      </trkpt>
      <trkpt lat="48.57405" lon="2.0934">
        <ele>65</ele>
        <time>2022-12-25T14:10:41Z</time>
      </trkpt>
      <trkpt lat="48.57403" lon="2.09338">
        <ele>65</ele>
        <time>2022-12-25T14:10:43Z</time>
      </trkpt>
      <trkpt lat="48.574" lon="2.09337">
        <ele>65</ele>
        <time>2022-12-25T14:10:45Z</time>
      </trkpt>
      <trkpt lat="48.57398" lon="2.09335">
        <ele>65</ele>
        <time>2022-12-25T14:10:47Z</time>
      </trkpt>
      <trkpt lat="48.57395" lon="2.09333">
        <ele>65</ele>
        <time>2022-12-25T14:10:49Z</time>
      </trkpt>
      <trkpt lat="48.57392" lon="2.09331">
        <ele>65</ele>
        <time>2022-12-25T14:10:51Z</time>
      </trkpt>
      <trkpt lat="48.57389" lon="2.09329">
        <ele>66</ele>
        <time>2022-12-25T14:10:53Z</time>
      </trkpt>
      <trkpt lat="48.57386" lon="2.09327">
        <ele>66</ele>
        <time>2022-12-25T14:10:55Z</time>
      </trkpt>
      <trkpt lat="48.57384" lon="2.09325">
        <ele>66</ele>
        <time>2022-12-25T14:10:57Z</time>
      </trkpt>
      <trkpt lat="48.57382" lon="2.09323">
        <ele>66</ele>
        <time>2022-12-25T14:10:59Z</time>
      </trkpt>
      <trkpt lat="48.57379" lon="2.09321">
        <ele>66</ele>
        <time>2022-12-25T14:11:01Z</time>
      </trkpt>
      <trkpt lat="48.57376" lon="2.0932">
        <ele>66</ele>
        <time>2022-12-25T14:11:03Z</time>
      </trkpt>
      <trkpt lat="48.57374" lon="2.09318">
        <ele>66</ele>
        <time>2022-12-25T14:11:05Z</time>
      </trkpt>
      <trkpt lat="48.57371" lon="2.09317">
        <ele>66</ele>
        <time>2022-12-25T14:11:07Z</time>
      </trkpt>
      <trkpt lat="48.57369" lon="2.09315">
        <ele>66</ele>
        <time>2022-12-25T14:11:09Z</time>
      </trkpt>
      <trkpt lat="48.57366" lon="2.09313">
        <ele>67</ele>
        <time>2022-12-25T14:11:11Z</time>
      </trkpt>
      <trkpt lat="48.57364" lon="2.09312">
        <ele>67</ele>
        <time>2022-12-25T14:11:14Z</time>
      </trkpt>
      <trkpt lat="48.57361" lon="2.0931">
        <ele>67</ele>
        <time>2022-12-25T14:11:15Z</time>
      </trkpt>
      <trkpt lat="48.57359" lon="2.09309">
        <ele>67</ele>
        <time>2022-12-25T14:11:17Z</time>
      </trkpt>
      <trkpt lat="48.57357" lon="2.09307">
        <ele>67</ele>
        <time>2022-12-25T14:11:19Z</time>
      </trkpt>
      <trkpt lat="48.57354" lon="2.09306">
        <ele>67</ele>
        <time>2022-12-25T14:11:21Z</time>
      </trkpt>
      <trkpt lat="48.57351" lon="2.09305">
        <ele>67</ele>
        <time>2022-12-25T14:11:23Z</time>
      </trkpt>
      <trkpt lat="48.57348" lon="2.09304">
        <ele>68</ele>
        <time>2022-12-25T14:11:25Z</time>
      </trkpt>
      <trkpt lat="48.57345" lon="2.09302">
        <ele>67</ele>
        <time>2022-12-25T14:11:27Z</time>
      </trkpt>
      <trkpt lat="48.57343" lon="2.09301">
        <ele>68</ele>
        <time>2022-12-25T14:11:29Z</time>
      </trkpt>
      <trkpt lat="48.5734" lon="2.093">
        <ele>68</ele>
        <time>2022-12-25T14:11:31Z</time>
      </trkpt>
      <trkpt lat="48.57338" lon="2.09299">
        <ele>68</ele>
        <time>2022-12-25T14:11:33Z</time>
      </trkpt>
      <trkpt lat="48.57335" lon="2.09297">
        <ele>68</ele>
        <time>2022-12-25T14:11:35Z</time>
      </trkpt>
      <trkpt lat="48.57333" lon="2.09295">
        <ele>68</ele>
        <time>2022-12-25T14:11:37Z</time>
      </trkpt>
      <trkpt lat="48.57331" lon="2.09292">
        <ele>68</ele>
        <time>2022-12-25T14:11:39Z</time>
      </trkpt>
      <trkpt lat="48.57329" lon="2.0929">
        <ele>69</ele>
        <time>2022-12-25T14:11:41Z</time>
      </trkpt>
      <trkpt lat="48.57328" lon="2.09289">
        <ele>69</ele>
        <time>2022-12-25T14:11:43Z</time>
      </trkpt>
      <trkpt lat="48.57326" lon="2.09287">
        <ele>69</ele>
        <time>2022-12-25T14:11:45Z</time>
      </trkpt>
      <trkpt lat="48.57324" lon="2.09286">
        <ele>70</ele>
        <time>2022-12-25T14:11:47Z</time>
      </trkpt>
      <trkpt lat="48.57321" lon="2.09284">
        <ele>70</ele>
        <time>2022-12-25T14:11:49Z</time>
      </trkpt>
      <trkpt lat="48.57319" lon="2.09282">
        <ele>70</ele>
        <time>2022-12-25T14:11:51Z</time>
      </trkpt>
      <trkpt lat="48.57316" lon="2.0928">
        <ele>70</ele>
        <time>2022-12-25T14:11:53Z</time>
      </trkpt>
      <trkpt lat="48.57313" lon="2.09278">
        <ele>70</ele>
        <time>2022-12-25T14:11:55Z</time>
      </trkpt>
      <trkpt lat="48.5731" lon="2.09278">
        <ele>70</ele>
        <time>2022-12-25T14:11:57Z</time>
      </trkpt>
      <trkpt lat="48.57307" lon="2.09276">
        <ele>71</ele>
        <time>2022-12-25T14:11:59Z</time>
      </trkpt>
      <trkpt lat="48.57305" lon="2.09274">
        <ele>71</ele>
        <time>2022-12-25T14:12:01Z</time>
      </trkpt>
      <trkpt lat="48.57302" lon="2.09273">
        <ele>71</ele>
        <time>2022-12-25T14:12:03Z</time>
      </trkpt>
      <trkpt lat="48.573" lon="2.09271">
        <ele>72</ele>
        <time>2022-12-25T14:12:05Z</time>
      </trkpt>
      <trkpt lat="48.57297" lon="2.0927">
        <ele>72</ele>
        <time>2022-12-25T14:12:07Z</time>
      </trkpt>
      <trkpt lat="48.57296" lon="2.09268">
        <ele>72</ele>
        <time>2022-12-25T14:12:09Z</time>
      </trkpt>
      <trkpt lat="48.57293" lon="2.09266">
        <ele>72</ele>
        <time>2022-12-25T14:12:11Z</time>
      </trkpt>
      <trkpt lat="48.5729" lon="2.09265">
        <ele>72</ele>
        <time>2022-12-25T14:12:13Z</time>
      </trkpt>
      <trkpt lat="48.57287" lon="2.09262">
        <ele>72</ele>
        <time>2022-12-25T14:12:15Z</time>
      </trkpt>
      <trkpt lat="48.57285" lon="2.09261">
        <ele>73</ele>
        <time>2022-12-25T14:12:16Z</time>
      </trkpt>
      <trkpt lat="48.57283" lon="2.0926">
        <ele>73</ele>
        <time>2022-12-25T14:12:17Z</time>
      </trkpt>
      <trkpt lat="48.57281" lon="2.0926">
        <ele>73</ele>
        <time>2022-12-25T14:12:18Z</time>
      </trkpt>
      <trkpt lat="48.57278" lon="2.09258">
        <ele>73</ele>
        <time>2022-12-25T14:12:20Z</time>
      </trkpt>
      <trkpt lat="48.57276" lon="2.09256">
        <ele>73</ele>
        <time>2022-12-25T14:12:22Z</time>
      </trkpt>
      <trkpt lat="48.57274" lon="2.09254">
        <ele>73</ele>
        <time>2022-12-25T14:12:24Z</time>
      </trkpt>
      <trkpt lat="48.57271" lon="2.09252">
        <ele>73</ele>
        <time>2022-12-25T14:12:26Z</time>
      </trkpt>
      <trkpt lat="48.57269" lon="2.09249">
        <ele>73</ele>
        <time>2022-12-25T14:12:28Z</time>
      </trkpt>
      <trkpt lat="48.57266" lon="2.09247">
        <ele>73</ele>
        <time>2022-12-25T14:12:30Z</time>
      </trkpt>
      <trkpt lat="48.57262" lon="2.09245">
        <ele>73</ele>
        <time>2022-12-25T14:12:32Z</time>
      </trkpt>
      <trkpt lat="48.57259" lon="2.09242">
        <ele>74</ele>
        <time>2022-12-25T14:12:34Z</time>
      </trkpt>
      <trkpt lat="48.57257" lon="2.0924">
        <ele>73</ele>
        <time>2022-12-25T14:12:36Z</time>
      </trkpt>
      <trkpt lat="48.57255" lon="2.09238">
        <ele>73</ele>
        <time>2022-12-25T14:12:37Z</time>
      </trkpt>
      <trkpt lat="48.57253" lon="2.09237">
        <ele>73</ele>
        <time>2022-12-25T14:12:38Z</time>
      </trkpt>
      <trkpt lat="48.57252" lon="2.09235">
        <ele>73</ele>
        <time>2022-12-25T14:12:39Z</time>
      </trkpt>
      <trkpt lat="48.57249" lon="2.09233">
        <ele>73</ele>
        <time>2022-12-25T14:12:41Z</time>
      </trkpt>
      <trkpt lat="48.57246" lon="2.09231">
        <ele>72</ele>
        <time>2022-12-25T14:12:43Z</time>
      </trkpt>
      <trkpt lat="48.57243" lon="2.09228">
        <ele>72</ele>
        <time>2022-12-25T14:12:45Z</time>
      </trkpt>
      <trkpt lat="48.57241" lon="2.09225">
        <ele>72</ele>
        <time>2022-12-25T14:12:47Z</time>
      </trkpt>
      <trkpt lat="48.57238" lon="2.09222">
        <ele>71</ele>
        <time>2022-12-25T14:12:49Z</time>
      </trkpt>
      <trkpt lat="48.57236" lon="2.09219">
        <ele>71</ele>
        <time>2022-12-25T14:12:51Z</time>
      </trkpt>
      <trkpt lat="48.57234" lon="2.09217">
        <ele>70</ele>
        <time>2022-12-25T14:12:53Z</time>
      </trkpt>
      <trkpt lat="48.57231" lon="2.09214">
        <ele>70</ele>
        <time>2022-12-25T14:12:55Z</time>
      </trkpt>
      <trkpt lat="48.57229" lon="2.09211">
        <ele>70</ele>
        <time>2022-12-25T14:12:57Z</time>
      </trkpt>
      <trkpt lat="48.57226" lon="2.09209">
        <ele>69</ele>
        <time>2022-12-25T14:12:59Z</time>
      </trkpt>
      <trkpt lat="48.57224" lon="2.09206">
        <ele>69</ele>
        <time>2022-12-25T14:13:01Z</time>
      </trkpt>
      <trkpt lat="48.57222" lon="2.09203">
        <ele>69</ele>
        <time>2022-12-25T14:13:03Z</time>
      </trkpt>
      <trkpt lat="48.57219" lon="2.092">
        <ele>69</ele>
        <time>2022-12-25T14:13:05Z</time>
      </trkpt>
      <trkpt lat="48.57218" lon="2.09196">
        <ele>68</ele>
        <time>2022-12-25T14:13:08Z</time>
      </trkpt>
      <trkpt lat="48.57216" lon="2.09194">
        <ele>68</ele>
        <time>2022-12-25T14:13:09Z</time>
      </trkpt>
      <trkpt lat="48.57213" lon="2.09192">
        <ele>68</ele>
        <time>2022-12-25T14:13:11Z</time>
      </trkpt>
      <trkpt lat="48.57211" lon="2.09189">
        <ele>68</ele>
        <time>2022-12-25T14:13:13Z</time>
      </trkpt>
      <trkpt lat="48.57209" lon="2.09186">
        <ele>68</ele>
        <time>2022-12-25T14:13:15Z</time>
      </trkpt>
      <trkpt lat="48.57207" lon="2.09185">
        <ele>68</ele>
        <time>2022-12-25T14:13:17Z</time>
      </trkpt>
      <trkpt lat="48.57205" lon="2.09186">
        <ele>68</ele>
        <time>2022-12-25T14:13:19Z</time>
      </trkpt>
      <trkpt lat="48.57203" lon="2.09189">
        <ele>67</ele>
        <time>2022-12-25T14:13:21Z</time>
      </trkpt>
      <trkpt lat="48.57201" lon="2.09193">
        <ele>67</ele>
        <time>2022-12-25T14:13:23Z</time>
      </trkpt>
      <trkpt lat="48.572" lon="2.09197">
        <ele>66</ele>
        <time>2022-12-25T14:13:25Z</time>
      </trkpt>
      <trkpt lat="48.57199" lon="2.09202">
        <ele>66</ele>
        <time>2022-12-25T14:13:27Z</time>
      </trkpt>
      <trkpt lat="48.57199" lon="2.09205">
        <ele>66</ele>
        <time>2022-12-25T14:13:28Z</time>
      </trkpt>
      <trkpt lat="48.57199" lon="2.09211">
        <ele>66</ele>
        <time>2022-12-25T14:13:30Z</time>
      </trkpt>
      <trkpt lat="48.57199" lon="2.09216">
        <ele>65</ele>
        <time>2022-12-25T14:13:32Z</time>
      </trkpt>
      <trkpt lat="48.57198" lon="2.09219">
        <ele>65</ele>
        <time>2022-12-25T14:13:33Z</time>
      </trkpt>
      <trkpt lat="48.57198" lon="2.09222">
        <ele>65</ele>
        <time>2022-12-25T14:13:34Z</time>
      </trkpt>
      <trkpt lat="48.57198" lon="2.09225">
        <ele>65</ele>
        <time>2022-12-25T14:13:35Z</time>
      </trkpt>
      <trkpt lat="48.57197" lon="2.09228">
        <ele>65</ele>
        <time>2022-12-25T14:13:36Z</time>
      </trkpt>
      <trkpt lat="48.57197" lon="2.09231">
        <ele>65</ele>
        <time>2022-12-25T14:13:37Z</time>
      </trkpt>
      <trkpt lat="48.57196" lon="2.09234">
        <ele>65</ele>
        <time>2022-12-25T14:13:38Z</time>
      </trkpt>
      <trkpt lat="48.57196" lon="2.09237">
        <ele>65</ele>
        <time>2022-12-25T14:13:39Z</time>
      </trkpt>
      <trkpt lat="48.57195" lon="2.0924">
        <ele>65</ele>
        <time>2022-12-25T14:13:40Z</time>
      </trkpt>
      <trkpt lat="48.57195" lon="2.09243">
        <ele>65</ele>
        <time>2022-12-25T14:13:41Z</time>
      </trkpt>
      <trkpt lat="48.57194" lon="2.09245">
        <ele>65</ele>
        <time>2022-12-25T14:13:42Z</time>
      </trkpt>
      <trkpt lat="48.57194" lon="2.09248">
        <ele>65</ele>
        <time>2022-12-25T14:13:43Z</time>
      </trkpt>
      <trkpt lat="48.57194" lon="2.09251">
        <ele>65</ele>
        <time>2022-12-25T14:13:44Z</time>
      </trkpt>
      <trkpt lat="48.57193" lon="2.09257">
        <ele>65</ele>
        <time>2022-12-25T14:13:46Z</time>
      </trkpt>
      <trkpt lat="48.57193" lon="2.09262">
        <ele>65</ele>
        <time>2022-12-25T14:13:48Z</time>
      </trkpt>
      <trkpt lat="48.57192" lon="2.09267">
        <ele>65</ele>
        <time>2022-12-25T14:13:50Z</time>
      </trkpt>
      <trkpt lat="48.57191" lon="2.09271">
        <ele>65</ele>
        <time>2022-12-25T14:13:52Z</time>
      </trkpt>
      <trkpt lat="48.5719" lon="2.09276">
        <ele>65</ele>
        <time>2022-12-25T14:13:54Z</time>
      </trkpt>
      <trkpt lat="48.57189" lon="2.09281">
        <ele>65</ele>
        <time>2022-12-25T14:13:56Z</time>
      </trkpt>
      <trkpt lat="48.57188" lon="2.09286">
        <ele>65</ele>
        <time>2022-12-25T14:13:58Z</time>
      </trkpt>
      <trkpt lat="48.57187" lon="2.09288">
        <ele>65</ele>
        <time>2022-12-25T14:13:59Z</time>
      </trkpt>
      <trkpt lat="48.57186" lon="2.09292">
        <ele>66</ele>
        <time>2022-12-25T14:14:01Z</time>
      </trkpt>
      <trkpt lat="48.57184" lon="2.09297">
        <ele>66</ele>
        <time>2022-12-25T14:14:03Z</time>
      </trkpt>
      <trkpt lat="48.57183" lon="2.09301">
        <ele>66</ele>
        <time>2022-12-25T14:14:05Z</time>
      </trkpt>
      <trkpt lat="48.57181" lon="2.09304">
        <ele>66</ele>
        <time>2022-12-25T14:14:07Z</time>
      </trkpt>
      <trkpt lat="48.57178" lon="2.09305">
        <ele>66</ele>
        <time>2022-12-25T14:14:09Z</time>
      </trkpt>
      <trkpt lat="48.57176" lon="2.09305">
        <ele>67</ele>
        <time>2022-12-25T14:14:11Z</time>
      </trkpt>
      <trkpt lat="48.57174" lon="2.09305">
        <ele>67</ele>
        <time>2022-12-25T14:14:13Z</time>
      </trkpt>
      <trkpt lat="48.57171" lon="2.09305">
        <ele>67</ele>
        <time>2022-12-25T14:14:15Z</time>
      </trkpt>
      <trkpt lat="48.57169" lon="2.09304">
        <ele>68</ele>
        <time>2022-12-25T14:14:17Z</time>
      </trkpt>
      <trkpt lat="48.57166" lon="2.09302">
        <ele>68</ele>
        <time>2022-12-25T14:14:19Z</time>
      </trkpt>
      <trkpt lat="48.57164" lon="2.09301">
        <ele>68</ele>
        <time>2022-12-25T14:14:21Z</time>
      </trkpt>
      <trkpt lat="48.57161" lon="2.09301">
        <ele>68</ele>
        <time>2022-12-25T14:14:24Z</time>
      </trkpt>
      <trkpt lat="48.5716" lon="2.093">
        <ele>68</ele>
        <time>2022-12-25T14:14:26Z</time>
      </trkpt>
      <trkpt lat="48.57157" lon="2.09298">
        <ele>68</ele>
        <time>2022-12-25T14:14:28Z</time>
      </trkpt>
      <trkpt lat="48.57155" lon="2.09298">
        <ele>68</ele>
        <time>2022-12-25T14:14:30Z</time>
      </trkpt>
      <trkpt lat="48.57153" lon="2.09298">
        <ele>68</ele>
        <time>2022-12-25T14:14:32Z</time>
      </trkpt>
      <trkpt lat="48.5715" lon="2.09298">
        <ele>68</ele>
        <time>2022-12-25T14:14:34Z</time>
      </trkpt>
      <trkpt lat="48.57149" lon="2.09299">
        <ele>68</ele>
        <time>2022-12-25T14:14:35Z</time>
      </trkpt>
      <trkpt lat="48.57146" lon="2.09299">
        <ele>68</ele>
        <time>2022-12-25T14:14:37Z</time>
      </trkpt>
      <trkpt lat="48.57144" lon="2.09299">
        <ele>68</ele>
        <time>2022-12-25T14:14:39Z</time>
      </trkpt>
      <trkpt lat="48.57141" lon="2.09299">
        <ele>68</ele>
        <time>2022-12-25T14:14:41Z</time>
      </trkpt>
      <trkpt lat="48.57139" lon="2.09299">
        <ele>69</ele>
        <time>2022-12-25T14:14:43Z</time>
      </trkpt>
      <trkpt lat="48.57136" lon="2.09298">
        <ele>69</ele>
        <time>2022-12-25T14:14:45Z</time>
      </trkpt>
      <trkpt lat="48.57133" lon="2.09299">
        <ele>69</ele>
        <time>2022-12-25T14:14:47Z</time>
      </trkpt>
      <trkpt lat="48.57131" lon="2.09299">
        <ele>69</ele>
        <time>2022-12-25T14:14:48Z</time>
      </trkpt>
      <trkpt lat="48.57128" lon="2.093">
        <ele>69</ele>
        <time>2022-12-25T14:14:50Z</time>
      </trkpt>
      <trkpt lat="48.57126" lon="2.093">
        <ele>69</ele>
        <time>2022-12-25T14:14:52Z</time>
      </trkpt>
      <trkpt lat="48.57123" lon="2.093">
        <ele>69</ele>
        <time>2022-12-25T14:14:54Z</time>
      </trkpt>
      <trkpt lat="48.57121" lon="2.093">
        <ele>69</ele>
        <time>2022-12-25T14:14:56Z</time>
      </trkpt>
      <trkpt lat="48.57118" lon="2.093">
        <ele>69</ele>
        <time>2022-12-25T14:14:59Z</time>
      </trkpt>
      <trkpt lat="48.57115" lon="2.093">
        <ele>69</ele>
        <time>2022-12-25T14:15:00Z</time>
      </trkpt>
      <trkpt lat="48.57113" lon="2.09299">
        <ele>70</ele>
        <time>2022-12-25T14:15:02Z</time>
      </trkpt>
      <trkpt lat="48.57111" lon="2.09298">
        <ele>70</ele>
        <time>2022-12-25T14:15:05Z</time>
      </trkpt>
      <trkpt lat="48.57108" lon="2.09299">
        <ele>71</ele>
        <time>2022-12-25T14:15:07Z</time>
      </trkpt>
      <trkpt lat="48.57105" lon="2.09299">
        <ele>71</ele>
        <time>2022-12-25T14:15:09Z</time>
      </trkpt>
      <trkpt lat="48.57102" lon="2.09299">
        <ele>71</ele>
        <time>2022-12-25T14:15:12Z</time>
      </trkpt>
      <trkpt lat="48.571" lon="2.09298">
        <ele>71</ele>
        <time>2022-12-25T14:15:14Z</time>
      </trkpt>
      <trkpt lat="48.57097" lon="2.09298">
        <ele>72</ele>
        <time>2022-12-25T14:15:16Z</time>
      </trkpt>
      <trkpt lat="48.57095" lon="2.09297">
        <ele>72</ele>
        <time>2022-12-25T14:15:18Z</time>
      </trkpt>
      <trkpt lat="48.57092" lon="2.09297">
        <ele>72</ele>
        <time>2022-12-25T14:15:21Z</time>
      </trkpt>
      <trkpt lat="48.5709" lon="2.09296">
        <ele>73</ele>
        <time>2022-12-25T14:15:22Z</time>
      </trkpt>
      <trkpt lat="48.57087" lon="2.09297">
        <ele>73</ele>
        <time>2022-12-25T14:15:24Z</time>
      </trkpt>
      <trkpt lat="48.57085" lon="2.09297">
        <ele>73</ele>
        <time>2022-12-25T14:15:25Z</time>
      </trkpt>
      <trkpt lat="48.57082" lon="2.09298">
        <ele>73</ele>
        <time>2022-12-25T14:15:27Z</time>
      </trkpt>
      <trkpt lat="48.5708" lon="2.09298">
        <ele>73</ele>
        <time>2022-12-25T14:15:28Z</time>
      </trkpt>
      <trkpt lat="48.57077" lon="2.09298">
        <ele>74</ele>
        <time>2022-12-25T14:15:30Z</time>
      </trkpt>
      <trkpt lat="48.57073" lon="2.09299">
        <ele>74</ele>
        <time>2022-12-25T14:15:32Z</time>
      </trkpt>
      <trkpt lat="48.57071" lon="2.09299">
        <ele>73</ele>
        <time>2022-12-25T14:15:34Z</time>
      </trkpt>
      <trkpt lat="48.57069" lon="2.09299">
        <ele>73</ele>
        <time>2022-12-25T14:15:36Z</time>
      </trkpt>
      <trkpt lat="48.57066" lon="2.09299">
        <ele>74</ele>
        <time>2022-12-25T14:15:38Z</time>
      </trkpt>
      <trkpt lat="48.57064" lon="2.093">
        <ele>74</ele>
        <time>2022-12-25T14:15:40Z</time>
      </trkpt>
      <trkpt lat="48.57062" lon="2.09299">
        <ele>74</ele>
        <time>2022-12-25T14:15:42Z</time>
      </trkpt>
      <trkpt lat="48.5706" lon="2.09298">
        <ele>75</ele>
        <time>2022-12-25T14:15:45Z</time>
      </trkpt>
      <trkpt lat="48.57058" lon="2.09297">
        <ele>75</ele>
        <time>2022-12-25T14:15:47Z</time>
      </trkpt>
      <trkpt lat="48.57055" lon="2.09297">
        <ele>75</ele>
        <time>2022-12-25T14:15:49Z</time>
      </trkpt>
      <trkpt lat="48.57052" lon="2.09297">
        <ele>76</ele>
        <time>2022-12-25T14:15:51Z</time>
      </trkpt>
      <trkpt lat="48.57049" lon="2.09298">
        <ele>76</ele>
        <time>2022-12-25T14:15:53Z</time>
      </trkpt>
      <trkpt lat="48.57047" lon="2.09298">
        <ele>77</ele>
        <time>2022-12-25T14:15:55Z</time>
      </trkpt>
      <trkpt lat="48.57045" lon="2.09299">
        <ele>77</ele>
        <time>2022-12-25T14:15:57Z</time>
      </trkpt>
      <trkpt lat="48.57041" lon="2.09299">
        <ele>77</ele>
        <time>2022-12-25T14:15:59Z</time>
      </trkpt>
      <trkpt lat="48.57038" lon="2.09298">
        <ele>77</ele>
        <time>2022-12-25T14:16:01Z</time>
      </trkpt>
      <trkpt lat="48.57037" lon="2.09298">
        <ele>77</ele>
        <time>2022-12-25T14:16:02Z</time>
      </trkpt>
      <trkpt lat="48.57034" lon="2.09298">
        <ele>78</ele>
        <time>2022-12-25T14:16:04Z</time>
      </trkpt>
      <trkpt lat="48.57032" lon="2.09298">
        <ele>78</ele>
        <time>2022-12-25T14:16:06Z</time>
      </trkpt>
      <trkpt lat="48.57029" lon="2.09298">
        <ele>78</ele>
        <time>2022-12-25T14:16:08Z</time>
      </trkpt>
      <trkpt lat="48.57026" lon="2.09298">
        <ele>78</ele>
        <time>2022-12-25T14:16:10Z</time>
      </trkpt>
      <trkpt lat="48.57024" lon="2.09298">
        <ele>78</ele>
        <time>2022-12-25T14:16:11Z</time>
      </trkpt>
      <trkpt lat="48.57021" lon="2.093">
        <ele>78</ele>
        <time>2022-12-25T14:16:12Z</time>
      </trkpt>
      <trkpt lat="48.57018" lon="2.093">
        <ele>78</ele>
        <time>2022-12-25T14:16:14Z</time>
      </trkpt>
      <trkpt lat="48.57015" lon="2.09301">
        <ele>78</ele>
        <time>2022-12-25T14:16:16Z</time>
      </trkpt>
      <trkpt lat="48.57012" lon="2.09301">
        <ele>78</ele>
        <time>2022-12-25T14:16:18Z</time>
      </trkpt>
      <trkpt lat="48.5701" lon="2.09302">
        <ele>78</ele>
        <time>2022-12-25T14:16:19Z</time>
      </trkpt>
      <trkpt lat="48.57007" lon="2.09302">
        <ele>78</ele>
        <time>2022-12-25T14:16:21Z</time>
      </trkpt>
      <trkpt lat="48.57005" lon="2.09302">
        <ele>78</ele>
        <time>2022-12-25T14:16:23Z</time>
      </trkpt>
      <trkpt lat="48.57002" lon="2.09302">
        <ele>79</ele>
        <time>2022-12-25T14:16:25Z</time>
      </trkpt>
      <trkpt lat="48.56999" lon="2.09302">
        <ele>79</ele>
        <time>2022-12-25T14:16:27Z</time>
      </trkpt>
      <trkpt lat="48.56997" lon="2.09302">
        <ele>79</ele>
        <time>2022-12-25T14:16:29Z</time>
      </trkpt>
      <trkpt lat="48.56994" lon="2.09302">
        <ele>80</ele>
        <time>2022-12-25T14:16:31Z</time>
      </trkpt>
      <trkpt lat="48.56991" lon="2.09302">
        <ele>80</ele>
        <time>2022-12-25T14:16:33Z</time>
      </trkpt>
      <trkpt lat="48.56989" lon="2.09302">
        <ele>80</ele>
        <time>2022-12-25T14:16:35Z</time>
      </trkpt>
      <trkpt lat="48.56987" lon="2.09303">
        <ele>80</ele>
        <time>2022-12-25T14:16:37Z</time>
      </trkpt>
      <trkpt lat="48.56984" lon="2.09303">
        <ele>80</ele>
        <time>2022-12-25T14:16:38Z</time>
      </trkpt>
      <trkpt lat="48.56981" lon="2.09303">
        <ele>80</ele>
        <time>2022-12-25T14:16:40Z</time>
      </trkpt>
      <trkpt lat="48.56979" lon="2.09303">
        <ele>81</ele>
        <time>2022-12-25T14:16:42Z</time>
      </trkpt>
      <trkpt lat="48.56976" lon="2.09303">
        <ele>81</ele>
        <time>2022-12-25T14:16:43Z</time>
      </trkpt>
      <trkpt lat="48.56973" lon="2.09304">
        <ele>81</ele>
        <time>2022-12-25T14:16:45Z</time>
      </trkpt>
      <trkpt lat="48.5697" lon="2.09304">
        <ele>81</ele>
        <time>2022-12-25T14:16:47Z</time>
      </trkpt>
      <trkpt lat="48.56967" lon="2.09304">
        <ele>81</ele>
        <time>2022-12-25T14:16:49Z</time>
      </trkpt>
      <trkpt lat="48.56965" lon="2.09304">
        <ele>82</ele>
        <time>2022-12-25T14:16:51Z</time>
      </trkpt>
      <trkpt lat="48.56962" lon="2.09304">
        <ele>82</ele>
        <time>2022-12-25T14:16:53Z</time>
      </trkpt>
      <trkpt lat="48.56959" lon="2.09304">
        <ele>83</ele>
        <time>2022-12-25T14:16:56Z</time>
      </trkpt>
      <trkpt lat="48.56956" lon="2.09304">
        <ele>83</ele>
        <time>2022-12-25T14:16:57Z</time>
      </trkpt>
      <trkpt lat="48.56954" lon="2.09304">
        <ele>83</ele>
        <time>2022-12-25T14:16:59Z</time>
      </trkpt>
      <trkpt lat="48.56951" lon="2.09304">
        <ele>84</ele>
        <time>2022-12-25T14:17:01Z</time>
      </trkpt>
      <trkpt lat="48.56949" lon="2.09304">
        <ele>84</ele>
        <time>2022-12-25T14:17:03Z</time>
      </trkpt>
      <trkpt lat="48.56946" lon="2.09305">
        <ele>85</ele>
        <time>2022-12-25T14:17:05Z</time>
      </trkpt>
      <trkpt lat="48.56943" lon="2.09305">
        <ele>85</ele>
        <time>2022-12-25T14:17:07Z</time>
      </trkpt>
      <trkpt lat="48.56941" lon="2.09305">
        <ele>86</ele>
        <time>2022-12-25T14:17:09Z</time>
      </trkpt>
      <trkpt lat="48.56939" lon="2.09305">
        <ele>86</ele>
        <time>2022-12-25T14:17:11Z</time>
      </trkpt>
      <trkpt lat="48.56936" lon="2.09305">
        <ele>87</ele>
        <time>2022-12-25T14:17:15Z</time>
      </trkpt>
      <trkpt lat="48.56934" lon="2.09305">
        <ele>87</ele>
        <time>2022-12-25T14:17:16Z</time>
      </trkpt>
      <trkpt lat="48.56932" lon="2.09305">
        <ele>88</ele>
        <time>2022-12-25T14:17:18Z</time>
      </trkpt>
      <trkpt lat="48.56929" lon="2.09305">
        <ele>88</ele>
        <time>2022-12-25T14:17:20Z</time>
      </trkpt>
      <trkpt lat="48.56927" lon="2.09305">
        <ele>88</ele>
        <time>2022-12-25T14:17:22Z</time>
      </trkpt>
      <trkpt lat="48.56924" lon="2.09305">
        <ele>88</ele>
        <time>2022-12-25T14:17:24Z</time>
      </trkpt>
      <trkpt lat="48.56922" lon="2.09305">
        <ele>89</ele>
        <time>2022-12-25T14:17:26Z</time>
      </trkpt>
      <trkpt lat="48.56919" lon="2.09305">
        <ele>89</ele>
        <time>2022-12-25T14:17:28Z</time>
      </trkpt>
      <trkpt lat="48.56917" lon="2.09305">
        <ele>89</ele>
        <time>2022-12-25T14:17:30Z</time>
      </trkpt>
      <trkpt lat="48.56915" lon="2.09305">
        <ele>89</ele>
        <time>2022-12-25T14:17:32Z</time>
      </trkpt>
      <trkpt lat="48.56913" lon="2.09305">
        <ele>90</ele>
        <time>2022-12-25T14:17:34Z</time>
      </trkpt>
      <trkpt lat="48.5691" lon="2.09305">
        <ele>90</ele>
        <time>2022-12-25T14:17:36Z</time>
      </trkpt>
      <trkpt lat="48.56907" lon="2.09304">
        <ele>91</ele>
        <time>2022-12-25T14:17:38Z</time>
      </trkpt>
      <trkpt lat="48.56903" lon="2.09303">
        <ele>91</ele>
        <time>2022-12-25T14:17:40Z</time>
      </trkpt>
      <trkpt lat="48.56901" lon="2.09302">
        <ele>91</ele>
        <time>2022-12-25T14:17:41Z</time>
      </trkpt>
      <trkpt lat="48.56898" lon="2.09303">
        <ele>91</ele>
        <time>2022-12-25T14:17:42Z</time>
      </trkpt>
      <trkpt lat="48.56896" lon="2.09303">
        <ele>91</ele>
        <time>2022-12-25T14:17:43Z</time>
      </trkpt>
      <trkpt lat="48.56893" lon="2.09303">
        <ele>91</ele>
        <time>2022-12-25T14:17:44Z</time>
      </trkpt>
      <trkpt lat="48.56891" lon="2.09303">
        <ele>92</ele>
        <time>2022-12-25T14:17:45Z</time>
      </trkpt>
      <trkpt lat="48.56888" lon="2.09303">
        <ele>92</ele>
        <time>2022-12-25T14:17:46Z</time>
      </trkpt>
      <trkpt lat="48.56885" lon="2.09303">
        <ele>92</ele>
        <time>2022-12-25T14:17:47Z</time>
      </trkpt>
      <trkpt lat="48.56881" lon="2.09305">
        <ele>92</ele>
        <time>2022-12-25T14:17:48Z</time>
      </trkpt>
      <trkpt lat="48.56878" lon="2.09305">
        <ele>92</ele>
        <time>2022-12-25T14:17:49Z</time>
      </trkpt>
      <trkpt lat="48.56876" lon="2.09304">
        <ele>92</ele>
        <time>2022-12-25T14:17:50Z</time>
      </trkpt>
      <trkpt lat="48.56874" lon="2.09303">
        <ele>92</ele>
        <time>2022-12-25T14:17:51Z</time>
      </trkpt>
      <trkpt lat="48.56869" lon="2.09301">
        <ele>93</ele>
        <time>2022-12-25T14:17:53Z</time>
      </trkpt>
      <trkpt lat="48.56867" lon="2.093">
        <ele>93</ele>
        <time>2022-12-25T14:17:54Z</time>
      </trkpt>
      <trkpt lat="48.56864" lon="2.093">
        <ele>93</ele>
        <time>2022-12-25T14:17:55Z</time>
      </trkpt>
      <trkpt lat="48.56862" lon="2.09299">
        <ele>93</ele>
        <time>2022-12-25T14:17:56Z</time>
      </trkpt>
      <trkpt lat="48.56859" lon="2.09299">
        <ele>93</ele>
        <time>2022-12-25T14:17:57Z</time>
      </trkpt>
      <trkpt lat="48.56856" lon="2.09299">
        <ele>93</ele>
        <time>2022-12-25T14:17:58Z</time>
      </trkpt>
      <trkpt lat="48.56851" lon="2.09298">
        <ele>94</ele>
        <time>2022-12-25T14:18:00Z</time>
      </trkpt>
      <trkpt lat="48.56841" lon="2.09298">
        <ele>94</ele>
        <time>2022-12-25T14:18:03Z</time>
      </trkpt>
      <trkpt lat="48.56831" lon="2.09299">
        <ele>94</ele>
        <time>2022-12-25T14:18:05Z</time>
      </trkpt>
      <trkpt lat="48.56817" lon="2.09299">
        <ele>94</ele>
        <time>2022-12-25T14:18:08Z</time>
      </trkpt>
      <trkpt lat="48.56807" lon="2.093">
        <ele>94</ele>
        <time>2022-12-25T14:18:10Z</time>
      </trkpt>
      <trkpt lat="48.56797" lon="2.09301">
        <ele>95</ele>
        <time>2022-12-25T14:18:12Z</time>
      </trkpt>
      <trkpt lat="48.56787" lon="2.09301">
        <ele>95</ele>
        <time>2022-12-25T14:18:14Z</time>
      </trkpt>
      <trkpt lat="48.56775" lon="2.09302">
        <ele>95</ele>
        <time>2022-12-25T14:18:16Z</time>
      </trkpt>
      <trkpt lat="48.56764" lon="2.09303">
        <ele>95</ele>
        <time>2022-12-25T14:18:18Z</time>
      </trkpt>
      <trkpt lat="48.56752" lon="2.09303">
        <ele>96</ele>
        <time>2022-12-25T14:18:20Z</time>
      </trkpt>
      <trkpt lat="48.56742" lon="2.09303">
        <ele>96</ele>
        <time>2022-12-25T14:18:22Z</time>
      </trkpt>
      <trkpt lat="48.56732" lon="2.09302">
        <ele>97</ele>
        <time>2022-12-25T14:18:24Z</time>
      </trkpt>
      <trkpt lat="48.5672" lon="2.09299">
        <ele>97</ele>
        <time>2022-12-25T14:18:26Z</time>
      </trkpt>
      <trkpt lat="48.56709" lon="2.09295">
        <ele>97</ele>
        <time>2022-12-25T14:18:29Z</time>
      </trkpt>
      <trkpt lat="48.56697" lon="2.0929">
        <ele>98</ele>
        <time>2022-12-25T14:18:31Z</time>
      </trkpt>
      <trkpt lat="48.56683" lon="2.09286">
        <ele>98</ele>
        <time>2022-12-25T14:18:32Z</time>
      </trkpt>
      <trkpt lat="48.56671" lon="2.0928">
        <ele>98</ele>
        <time>2022-12-25T14:18:34Z</time>
      </trkpt>
      <trkpt lat="48.56659" lon="2.09275">
        <ele>99</ele>
        <time>2022-12-25T14:18:36Z</time>
      </trkpt>
      <trkpt lat="48.56645" lon="2.09267">
        <ele>99</ele>
        <time>2022-12-25T14:18:38Z</time>
      </trkpt>
      <trkpt lat="48.56632" lon="2.0926">
        <ele>100</ele>
        <time>2022-12-25T14:18:40Z</time>
      </trkpt>
      <trkpt lat="48.56618" lon="2.09254">
        <ele>100</ele>
        <time>2022-12-25T14:18:42Z</time>
      </trkpt>
      <trkpt lat="48.56606" lon="2.09247">
        <ele>101</ele>
        <time>2022-12-25T14:18:44Z</time>
      </trkpt>
      <trkpt lat="48.56592" lon="2.0924">
        <ele>101</ele>
        <time>2022-12-25T14:18:46Z</time>
      </trkpt>
      <trkpt lat="48.56578" lon="2.09234">
        <ele>101</ele>
        <time>2022-12-25T14:18:48Z</time>
      </trkpt>
      <trkpt lat="48.56566" lon="2.09227">
        <ele>101</ele>
        <time>2022-12-25T14:18:50Z</time>
      </trkpt>
      <trkpt lat="48.56553" lon="2.0922">
        <ele>102</ele>
        <time>2022-12-25T14:18:52Z</time>
      </trkpt>
      <trkpt lat="48.56539" lon="2.09213">
        <ele>102</ele>
        <time>2022-12-25T14:18:54Z</time>
      </trkpt>
      <trkpt lat="48.56526" lon="2.09208">
        <ele>103</ele>
        <time>2022-12-25T14:18:56Z</time>
      </trkpt>
      <trkpt lat="48.56513" lon="2.09207">
        <ele>103</ele>
        <time>2022-12-25T14:18:58Z</time>
      </trkpt>
      <trkpt lat="48.565" lon="2.09205">
        <ele>103</ele>
        <time>2022-12-25T14:19:00Z</time>
      </trkpt>
      <trkpt lat="48.56486" lon="2.09201">
        <ele>104</ele>
        <time>2022-12-25T14:19:02Z</time>
      </trkpt>
      <trkpt lat="48.56471" lon="2.09196">
        <ele>104</ele>
        <time>2022-12-25T14:19:04Z</time>
      </trkpt>
      <trkpt lat="48.56459" lon="2.09189">
        <ele>105</ele>
        <time>2022-12-25T14:19:06Z</time>
      </trkpt>
      <trkpt lat="48.56447" lon="2.09182">
        <ele>106</ele>
        <time>2022-12-25T14:19:09Z</time>
      </trkpt>
      <trkpt lat="48.56433" lon="2.09176">
        <ele>106</ele>
        <time>2022-12-25T14:19:10Z</time>
      </trkpt>
      <trkpt lat="48.56421" lon="2.09168">
        <ele>106</ele>
        <time>2022-12-25T14:19:12Z</time>
      </trkpt>
      <trkpt lat="48.56409" lon="2.09161">
        <ele>107</ele>
        <time>2022-12-25T14:19:14Z</time>
      </trkpt>
      <trkpt lat="48.56395" lon="2.09155">
        <ele>107</ele>
        <time>2022-12-25T14:19:16Z</time>
      </trkpt>
      <trkpt lat="48.56383" lon="2.09151">
        <ele>107</ele>
        <time>2022-12-25T14:19:18Z</time>
      </trkpt>
      <trkpt lat="48.56369" lon="2.0915">
        <ele>108</ele>
        <time>2022-12-25T14:19:20Z</time>
      </trkpt>
      <trkpt lat="48.56355" lon="2.09149">
        <ele>108</ele>
        <time>2022-12-25T14:19:22Z</time>
      </trkpt>
      <trkpt lat="48.56339" lon="2.09148">
        <ele>109</ele>
        <time>2022-12-25T14:19:24Z</time>
      </trkpt>
      <trkpt lat="48.56326" lon="2.09145">
        <ele>109</ele>
        <time>2022-12-25T14:19:26Z</time>
      </trkpt>
      <trkpt lat="48.56315" lon="2.09143">
        <ele>110</ele>
        <time>2022-12-25T14:19:28Z</time>
      </trkpt>
      <trkpt lat="48.56302" lon="2.09143">
        <ele>110</ele>
        <time>2022-12-25T14:19:30Z</time>
      </trkpt>
      <trkpt lat="48.56288" lon="2.09141">
        <ele>111</ele>
        <time>2022-12-25T14:19:32Z</time>
      </trkpt>
      <trkpt lat="48.56276" lon="2.09137">
        <ele>111</ele>
        <time>2022-12-25T14:19:34Z</time>
      </trkpt>
      <trkpt lat="48.56264" lon="2.09135">
        <ele>112</ele>
        <time>2022-12-25T14:19:36Z</time>
      </trkpt>
      <trkpt lat="48.56252" lon="2.09132">
        <ele>112</ele>
        <time>2022-12-25T14:19:38Z</time>
      </trkpt>
      <trkpt lat="48.56239" lon="2.09128">
        <ele>112</ele>
        <time>2022-12-25T14:19:40Z</time>
      </trkpt>
      <trkpt lat="48.56227" lon="2.09123">
        <ele>113</ele>
        <time>2022-12-25T14:19:42Z</time>
      </trkpt>
      <trkpt lat="48.56214" lon="2.09119">
        <ele>113</ele>
        <time>2022-12-25T14:19:44Z</time>
      </trkpt>
      <trkpt lat="48.56203" lon="2.09117">
        <ele>113</ele>
        <time>2022-12-25T14:19:47Z</time>
      </trkpt>
      <trkpt lat="48.5619" lon="2.09116">
        <ele>114</ele>
        <time>2022-12-25T14:19:48Z</time>
      </trkpt>
      <trkpt lat="48.56177" lon="2.09113">
        <ele>114</ele>
        <time>2022-12-25T14:19:50Z</time>
      </trkpt>
      <trkpt lat="48.56165" lon="2.0911">
        <ele>114</ele>
        <time>2022-12-25T14:19:52Z</time>
      </trkpt>
      <trkpt lat="48.56153" lon="2.09108">
        <ele>114</ele>
        <time>2022-12-25T14:19:54Z</time>
      </trkpt>
      <trkpt lat="48.5614" lon="2.09108">
        <ele>114</ele>
        <time>2022-12-25T14:19:56Z</time>
      </trkpt>
      <trkpt lat="48.56128" lon="2.09107">
        <ele>115</ele>
        <time>2022-12-25T14:19:58Z</time>
      </trkpt>
      <trkpt lat="48.56116" lon="2.09107">
        <ele>115</ele>
        <time>2022-12-25T14:20:00Z</time>
      </trkpt>
      <trkpt lat="48.56102" lon="2.09108">
        <ele>115</ele>
        <time>2022-12-25T14:20:02Z</time>
      </trkpt>
      <trkpt lat="48.5609" lon="2.09109">
        <ele>115</ele>
        <time>2022-12-25T14:20:04Z</time>
      </trkpt>
      <trkpt lat="48.56079" lon="2.09114">
        <ele>115</ele>
        <time>2022-12-25T14:20:06Z</time>
      </trkpt>
      <trkpt lat="48.56067" lon="2.09118">
        <ele>114</ele>
        <time>2022-12-25T14:20:08Z</time>
      </trkpt>
      <trkpt lat="48.56052" lon="2.09122">
        <ele>114</ele>
        <time>2022-12-25T14:20:10Z</time>
      </trkpt>
      <trkpt lat="48.56036" lon="2.09128">
        <ele>114</ele>
        <time>2022-12-25T14:20:12Z</time>
      </trkpt>
      <trkpt lat="48.56023" lon="2.09135">
        <ele>113</ele>
        <time>2022-12-25T14:20:14Z</time>
      </trkpt>
      <trkpt lat="48.56013" lon="2.0914">
        <ele>113</ele>
        <time>2022-12-25T14:20:16Z</time>
      </trkpt>
      <trkpt lat="48.56004" lon="2.09144">
        <ele>113</ele>
        <time>2022-12-25T14:20:18Z</time>
      </trkpt>
      <trkpt lat="48.55995" lon="2.09149">
        <ele>112</ele>
        <time>2022-12-25T14:20:20Z</time>
      </trkpt>
      <trkpt lat="48.55981" lon="2.09156">
        <ele>112</ele>
        <time>2022-12-25T14:20:22Z</time>
      </trkpt>
      <trkpt lat="48.55964" lon="2.09163">
        <ele>112</ele>
        <time>2022-12-25T14:20:24Z</time>
      </trkpt>
      <trkpt lat="48.55937" lon="2.0918">
        <ele>111</ele>
        <time>2022-12-25T14:20:25Z</time>
      </trkpt>
      <trkpt lat="48.55922" lon="2.09185">
        <ele>110</ele>
        <time>2022-12-25T14:20:27Z</time>
      </trkpt>
      <trkpt lat="48.5591" lon="2.09187">
        <ele>111</ele>
        <time>2022-12-25T14:20:29Z</time>
      </trkpt>
      <trkpt lat="48.559" lon="2.09186">
        <ele>111</ele>
        <time>2022-12-25T14:20:31Z</time>
      </trkpt>
      <trkpt lat="48.55887" lon="2.09183">
        <ele>112</ele>
        <time>2022-12-25T14:20:34Z</time>
      </trkpt>
      <trkpt lat="48.55875" lon="2.09179">
        <ele>113</ele>
        <time>2022-12-25T14:20:37Z</time>
      </trkpt>
      <trkpt lat="48.55863" lon="2.09175">
        <ele>114</ele>
        <time>2022-12-25T14:20:40Z</time>
      </trkpt>
      <trkpt lat="48.55853" lon="2.0917">
        <ele>115</ele>
        <time>2022-12-25T14:20:44Z</time>
      </trkpt>
      <trkpt lat="48.5584" lon="2.09164">
        <ele>115</ele>
        <time>2022-12-25T14:20:46Z</time>
      </trkpt>
      <trkpt lat="48.5583" lon="2.09159">
        <ele>115</ele>
        <time>2022-12-25T14:20:48Z</time>
      </trkpt>
      <trkpt lat="48.5582" lon="2.09153">
        <ele>115</ele>
        <time>2022-12-25T14:20:50Z</time>
      </trkpt>
      <trkpt lat="48.55807" lon="2.09147">
        <ele>115</ele>
        <time>2022-12-25T14:20:52Z</time>
      </trkpt>
      <trkpt lat="48.55794" lon="2.09141">
        <ele>114</ele>
        <time>2022-12-25T14:20:54Z</time>
      </trkpt>
      <trkpt lat="48.55784" lon="2.09135">
        <ele>114</ele>
        <time>2022-12-25T14:20:56Z</time>
      </trkpt>
      <trkpt lat="48.55772" lon="2.09128">
        <ele>114</ele>
        <time>2022-12-25T14:20:58Z</time>
      </trkpt>
      <trkpt lat="48.55759" lon="2.09124">
        <ele>114</ele>
        <time>2022-12-25T14:21:00Z</time>
      </trkpt>
      <trkpt lat="48.55748" lon="2.09119">
        <ele>113</ele>
        <time>2022-12-25T14:21:03Z</time>
      </trkpt>
      <trkpt lat="48.55736" lon="2.09113">
        <ele>114</ele>
        <time>2022-12-25T14:21:04Z</time>
      </trkpt>
      <trkpt lat="48.55724" lon="2.09103">
        <ele>115</ele>
        <time>2022-12-25T14:21:06Z</time>
      </trkpt>
      <trkpt lat="48.55713" lon="2.09094">
        <ele>116</ele>
        <time>2022-12-25T14:21:09Z</time>
      </trkpt>
      <trkpt lat="48.55707" lon="2.09078">
        <ele>117</ele>
        <time>2022-12-25T14:21:12Z</time>
      </trkpt>
      <trkpt lat="48.55702" lon="2.09066">
        <ele>118</ele>
        <time>2022-12-25T14:21:15Z</time>
      </trkpt>
      <trkpt lat="48.55694" lon="2.09052">
        <ele>122</ele>
        <time>2022-12-25T14:21:19Z</time>
      </trkpt>
      <trkpt lat="48.55688" lon="2.09042">
        <ele>124</ele>
        <time>2022-12-25T14:21:23Z</time>
      </trkpt>
      <trkpt lat="48.55679" lon="2.09034">
        <ele>125</ele>
        <time>2022-12-25T14:21:27Z</time>
      </trkpt>
      <trkpt lat="48.5567" lon="2.09028">
        <ele>127</ele>
        <time>2022-12-25T14:21:30Z</time>
      </trkpt>
      <trkpt lat="48.55663" lon="2.09017">
        <ele>129</ele>
        <time>2022-12-25T14:21:35Z</time>
      </trkpt>
      <trkpt lat="48.55655" lon="2.09009">
        <ele>130</ele>
        <time>2022-12-25T14:21:39Z</time>
      </trkpt>
      <trkpt lat="48.55647" lon="2.08998">
        <ele>132</ele>
        <time>2022-12-25T14:21:43Z</time>
      </trkpt>
      <trkpt lat="48.5564" lon="2.08987">
        <ele>133</ele>
        <time>2022-12-25T14:21:47Z</time>
      </trkpt>
      <trkpt lat="48.5563" lon="2.08977">
        <ele>134</ele>
        <time>2022-12-25T14:21:52Z</time>
      </trkpt>
      <trkpt lat="48.55621" lon="2.08969">
        <ele>135</ele>
        <time>2022-12-25T14:21:58Z</time>
      </trkpt>
      <trkpt lat="48.55618" lon="2.08967">
        <ele>136</ele>
        <time>2022-12-25T14:22:00Z</time>
      </trkpt>
      <trkpt lat="48.55615" lon="2.08968">
        <ele>137</ele>
        <time>2022-12-25T14:22:04Z</time>
      </trkpt>
      <trkpt lat="48.55614" lon="2.08969">
        <ele>139</ele>
        <time>2022-12-25T14:22:06Z</time>
      </trkpt>
      <trkpt lat="48.55615" lon="2.08966">
        <ele>142</ele>
        <time>2022-12-25T14:22:11Z</time>
      </trkpt>
      <trkpt lat="48.55617" lon="2.08966">
        <ele>143</ele>
        <time>2022-12-25T14:22:14Z</time>
      </trkpt>
      <trkpt lat="48.5562" lon="2.08966">
        <ele>144</ele>
        <time>2022-12-25T14:22:17Z</time>
      </trkpt>
      <trkpt lat="48.55622" lon="2.08969">
        <ele>145</ele>
        <time>2022-12-25T14:22:21Z</time>
      </trkpt>
      <trkpt lat="48.55619" lon="2.08968">
        <ele>146</ele>
        <time>2022-12-25T14:22:24Z</time>
      </trkpt>
      <trkpt lat="48.55615" lon="2.08967">
        <ele>147</ele>
        <time>2022-12-25T14:22:26Z</time>
      </trkpt>
      <trkpt lat="48.55613" lon="2.08965">
        <ele>147</ele>
        <time>2022-12-25T14:22:27Z</time>
      </trkpt>
      <trkpt lat="48.55611" lon="2.08964">
        <ele>147</ele>
        <time>2022-12-25T14:22:28Z</time>
      </trkpt>
      <trkpt lat="48.55609" lon="2.08963">
        <ele>147</ele>
        <time>2022-12-25T14:22:29Z</time>
      </trkpt>
      <trkpt lat="48.55607" lon="2.08962">
        <ele>147</ele>
        <time>2022-12-25T14:22:30Z</time>
      </trkpt>
      <trkpt lat="48.55605" lon="2.0896">
        <ele>148</ele>
        <time>2022-12-25T14:22:31Z</time>
      </trkpt>
      <trkpt lat="48.55603" lon="2.08958">
        <ele>148</ele>
        <time>2022-12-25T14:22:32Z</time>
      </trkpt>
      <trkpt lat="48.55602" lon="2.08955">
        <ele>148</ele>
        <time>2022-12-25T14:22:33Z</time>
      </trkpt>
      <trkpt lat="48.556" lon="2.08953">
        <ele>148</ele>
        <time>2022-12-25T14:22:34Z</time>
      </trkpt>
      <trkpt lat="48.55596" lon="2.0895">
        <ele>149</ele>
        <time>2022-12-25T14:22:36Z</time>
      </trkpt>
      <trkpt lat="48.55586" lon="2.08945">
        <ele>151</ele>
        <time>2022-12-25T14:22:41Z</time>
      </trkpt>
      <trkpt lat="48.55577" lon="2.0894">
        <ele>152</ele>
        <time>2022-12-25T14:22:44Z</time>
      </trkpt>
      <trkpt lat="48.5557" lon="2.08931">
        <ele>153</ele>
        <time>2022-12-25T14:22:47Z</time>
      </trkpt>
      <trkpt lat="48.55561" lon="2.08922">
        <ele>154</ele>
        <time>2022-12-25T14:22:51Z</time>
      </trkpt>
      <trkpt lat="48.55553" lon="2.08911">
        <ele>155</ele>
        <time>2022-12-25T14:22:55Z</time>
      </trkpt>
      <trkpt lat="48.55547" lon="2.08899">
        <ele>156</ele>
        <time>2022-12-25T14:22:58Z</time>
      </trkpt>
      <trkpt lat="48.55538" lon="2.08891">
        <ele>156</ele>
        <time>2022-12-25T14:23:01Z</time>
      </trkpt>
      <trkpt lat="48.5553" lon="2.08882">
        <ele>157</ele>
        <time>2022-12-25T14:23:04Z</time>
      </trkpt>
      <trkpt lat="48.55521" lon="2.08874">
        <ele>158</ele>
        <time>2022-12-25T14:23:08Z</time>
      </trkpt>
      <trkpt lat="48.55512" lon="2.08866">
        <ele>158</ele>
        <time>2022-12-25T14:23:11Z</time>
      </trkpt>
      <trkpt lat="48.55503" lon="2.0886">
        <ele>159</ele>
        <time>2022-12-25T14:23:14Z</time>
      </trkpt>
      <trkpt lat="48.55493" lon="2.08852">
        <ele>160</ele>
        <time>2022-12-25T14:23:18Z</time>
      </trkpt>
      <trkpt lat="48.55484" lon="2.08845">
        <ele>161</ele>
        <time>2022-12-25T14:23:21Z</time>
      </trkpt>
      <trkpt lat="48.55475" lon="2.08838">
        <ele>161</ele>
        <time>2022-12-25T14:23:24Z</time>
      </trkpt>
      <trkpt lat="48.55465" lon="2.08832">
        <ele>161</ele>
        <time>2022-12-25T14:23:27Z</time>
      </trkpt>
      <trkpt lat="48.55455" lon="2.08824">
        <ele>162</ele>
        <time>2022-12-25T14:23:30Z</time>
      </trkpt>
      <trkpt lat="48.55446" lon="2.08821">
        <ele>162</ele>
        <time>2022-12-25T14:23:33Z</time>
      </trkpt>
      <trkpt lat="48.55438" lon="2.08815">
        <ele>163</ele>
        <time>2022-12-25T14:23:36Z</time>
      </trkpt>
      <trkpt lat="48.5543" lon="2.08807">
        <ele>163</ele>
        <time>2022-12-25T14:23:39Z</time>
      </trkpt>
      <trkpt lat="48.55421" lon="2.08804">
        <ele>164</ele>
        <time>2022-12-25T14:23:42Z</time>
      </trkpt>
      <trkpt lat="48.5541" lon="2.08804">
        <ele>164</ele>
        <time>2022-12-25T14:23:45Z</time>
      </trkpt>
      <trkpt lat="48.554" lon="2.08804">
        <ele>164</ele>
        <time>2022-12-25T14:23:48Z</time>
      </trkpt>
      <trkpt lat="48.5539" lon="2.08799">
        <ele>165</ele>
        <time>2022-12-25T14:23:52Z</time>
      </trkpt>
      <trkpt lat="48.55381" lon="2.08794">
        <ele>165</ele>
        <time>2022-12-25T14:23:56Z</time>
      </trkpt>
      <trkpt lat="48.5537" lon="2.08791">
        <ele>165</ele>
        <time>2022-12-25T14:23:59Z</time>
      </trkpt>
      <trkpt lat="48.55359" lon="2.08784">
        <ele>164</ele>
        <time>2022-12-25T14:24:02Z</time>
      </trkpt>
      <trkpt lat="48.55349" lon="2.08778">
        <ele>164</ele>
        <time>2022-12-25T14:24:05Z</time>
      </trkpt>
      <trkpt lat="48.55339" lon="2.08776">
        <ele>164</ele>
        <time>2022-12-25T14:24:08Z</time>
      </trkpt>
      <trkpt lat="48.5533" lon="2.08772">
        <ele>164</ele>
        <time>2022-12-25T14:24:11Z</time>
      </trkpt>
      <trkpt lat="48.55319" lon="2.0877">
        <ele>164</ele>
        <time>2022-12-25T14:24:14Z</time>
      </trkpt>
      <trkpt lat="48.55309" lon="2.08767">
        <ele>164</ele>
        <time>2022-12-25T14:24:17Z</time>
      </trkpt>
      <trkpt lat="48.55296" lon="2.08765">
        <ele>164</ele>
        <time>2022-12-25T14:24:21Z</time>
      </trkpt>
      <trkpt lat="48.55286" lon="2.08763">
        <ele>164</ele>
        <time>2022-12-25T14:24:24Z</time>
      </trkpt>
      <trkpt lat="48.55274" lon="2.08765">
        <ele>164</ele>
        <time>2022-12-25T14:24:28Z</time>
      </trkpt>
      <trkpt lat="48.55264" lon="2.08765">
        <ele>164</ele>
        <time>2022-12-25T14:24:32Z</time>
      </trkpt>
      <trkpt lat="48.55254" lon="2.08766">
        <ele>164</ele>
        <time>2022-12-25T14:24:34Z</time>
      </trkpt>
      <trkpt lat="48.55244" lon="2.08766">
        <ele>164</ele>
        <time>2022-12-25T14:24:37Z</time>
      </trkpt>
      <trkpt lat="48.55233" lon="2.08769">
        <ele>164</ele>
        <time>2022-12-25T14:24:40Z</time>
      </trkpt>
      <trkpt lat="48.55224" lon="2.0877">
        <ele>164</ele>
        <time>2022-12-25T14:24:42Z</time>
      </trkpt>
      <trkpt lat="48.55217" lon="2.08771">
        <ele>164</ele>
        <time>2022-12-25T14:24:44Z</time>
      </trkpt>
      <trkpt lat="48.55214" lon="2.08771">
        <ele>163</ele>
        <time>2022-12-25T14:24:45Z</time>
      </trkpt>
      <trkpt lat="48.5521" lon="2.08772">
        <ele>163</ele>
        <time>2022-12-25T14:24:46Z</time>
      </trkpt>
      <trkpt lat="48.55207" lon="2.08773">
        <ele>163</ele>
        <time>2022-12-25T14:24:47Z</time>
      </trkpt>
      <trkpt lat="48.55199" lon="2.08784">
        <ele>162</ele>
        <time>2022-12-25T14:24:52Z</time>
      </trkpt>
      <trkpt lat="48.55195" lon="2.08801">
        <ele>161</ele>
        <time>2022-12-25T14:24:56Z</time>
      </trkpt>
      <trkpt lat="48.55191" lon="2.08817">
        <ele>161</ele>
        <time>2022-12-25T14:24:59Z</time>
      </trkpt>
      <trkpt lat="48.55189" lon="2.08834">
        <ele>161</ele>
        <time>2022-12-25T14:25:02Z</time>
      </trkpt>
      <trkpt lat="48.55188" lon="2.08852">
        <ele>161</ele>
        <time>2022-12-25T14:25:05Z</time>
      </trkpt>
      <trkpt lat="48.55188" lon="2.08867">
        <ele>160</ele>
        <time>2022-12-25T14:25:08Z</time>
      </trkpt>
      <trkpt lat="48.55188" lon="2.08881">
        <ele>160</ele>
        <time>2022-12-25T14:25:11Z</time>
      </trkpt>
      <trkpt lat="48.55187" lon="2.089">
        <ele>160</ele>
        <time>2022-12-25T14:25:15Z</time>
      </trkpt>
      <trkpt lat="48.55188" lon="2.08916">
        <ele>160</ele>
        <time>2022-12-25T14:25:18Z</time>
      </trkpt>
      <trkpt lat="48.55188" lon="2.08931">
        <ele>160</ele>
        <time>2022-12-25T14:25:21Z</time>
      </trkpt>
      <trkpt lat="48.55189" lon="2.08945">
        <ele>160</ele>
        <time>2022-12-25T14:25:24Z</time>
      </trkpt>
      <trkpt lat="48.55191" lon="2.08959">
        <ele>159</ele>
        <time>2022-12-25T14:25:27Z</time>
      </trkpt>
      <trkpt lat="48.55192" lon="2.08974">
        <ele>160</ele>
        <time>2022-12-25T14:25:30Z</time>
      </trkpt>
      <trkpt lat="48.55194" lon="2.0899">
        <ele>160</ele>
        <time>2022-12-25T14:25:33Z</time>
      </trkpt>
      <trkpt lat="48.55197" lon="2.09004">
        <ele>160</ele>
        <time>2022-12-25T14:25:36Z</time>
      </trkpt>
      <trkpt lat="48.55196" lon="2.09018">
        <ele>160</ele>
        <time>2022-12-25T14:25:40Z</time>
      </trkpt>
      <trkpt lat="48.55197" lon="2.09026">
        <ele>161</ele>
        <time>2022-12-25T14:25:43Z</time>
      </trkpt>
      <trkpt lat="48.55198" lon="2.09032">
        <ele>161</ele>
        <time>2022-12-25T14:25:45Z</time>
      </trkpt>
      <trkpt lat="48.55198" lon="2.09037">
        <ele>161</ele>
        <time>2022-12-25T14:25:48Z</time>
      </trkpt>
      <trkpt lat="48.55199" lon="2.09042">
        <ele>161</ele>
        <time>2022-12-25T14:25:49Z</time>
      </trkpt>
      <trkpt lat="48.55199" lon="2.09046">
        <ele>161</ele>
        <time>2022-12-25T14:25:51Z</time>
      </trkpt>
      <trkpt lat="48.55199" lon="2.09051">
        <ele>161</ele>
        <time>2022-12-25T14:25:53Z</time>
      </trkpt>
      <trkpt lat="48.55198" lon="2.09056">
        <ele>161</ele>
        <time>2022-12-25T14:25:55Z</time>
      </trkpt>
      <trkpt lat="48.55198" lon="2.09059">
        <ele>161</ele>
        <time>2022-12-25T14:25:56Z</time>
      </trkpt>
      <trkpt lat="48.55198" lon="2.09063">
        <ele>161</ele>
        <time>2022-12-25T14:25:57Z</time>
      </trkpt>
      <trkpt lat="48.55198" lon="2.09066">
        <ele>161</ele>
        <time>2022-12-25T14:25:59Z</time>
      </trkpt>
      <trkpt lat="48.55199" lon="2.09071">
        <ele>161</ele>
        <time>2022-12-25T14:26:00Z</time>
      </trkpt>
      <trkpt lat="48.552" lon="2.09074">
        <ele>161</ele>
        <time>2022-12-25T14:26:01Z</time>
      </trkpt>
      <trkpt lat="48.552" lon="2.09077">
        <ele>161</ele>
        <time>2022-12-25T14:26:02Z</time>
      </trkpt>
      <trkpt lat="48.552" lon="2.09079">
        <ele>161</ele>
        <time>2022-12-25T14:26:03Z</time>
      </trkpt>
      <trkpt lat="48.55202" lon="2.09084">
        <ele>161</ele>
        <time>2022-12-25T14:26:05Z</time>
      </trkpt>
      <trkpt lat="48.55203" lon="2.09088">
        <ele>162</ele>
        <time>2022-12-25T14:26:07Z</time>
      </trkpt>
      <trkpt lat="48.55205" lon="2.09092">
        <ele>162</ele>
        <time>2022-12-25T14:26:09Z</time>
      </trkpt>
      <trkpt lat="48.55206" lon="2.09096">
        <ele>162</ele>
        <time>2022-12-25T14:26:11Z</time>
      </trkpt>
      <trkpt lat="48.55206" lon="2.09101">
        <ele>162</ele>
        <time>2022-12-25T14:26:13Z</time>
      </trkpt>
      <trkpt lat="48.55206" lon="2.09105">
        <ele>162</ele>
        <time>2022-12-25T14:26:15Z</time>
      </trkpt>
      <trkpt lat="48.55206" lon="2.0911">
        <ele>162</ele>
        <time>2022-12-25T14:26:17Z</time>
      </trkpt>
      <trkpt lat="48.55207" lon="2.09115">
        <ele>162</ele>
        <time>2022-12-25T14:26:19Z</time>
      </trkpt>
      <trkpt lat="48.55206" lon="2.09119">
        <ele>162</ele>
        <time>2022-12-25T14:26:21Z</time>
      </trkpt>
      <trkpt lat="48.55207" lon="2.09124">
        <ele>162</ele>
        <time>2022-12-25T14:26:23Z</time>
      </trkpt>
      <trkpt lat="48.55206" lon="2.09132">
        <ele>162</ele>
        <time>2022-12-25T14:26:26Z</time>
      </trkpt>
      <trkpt lat="48.55206" lon="2.09137">
        <ele>162</ele>
        <time>2022-12-25T14:26:28Z</time>
      </trkpt>
      <trkpt lat="48.55207" lon="2.09142">
        <ele>162</ele>
        <time>2022-12-25T14:26:30Z</time>
      </trkpt>
      <trkpt lat="48.55207" lon="2.09146">
        <ele>163</ele>
        <time>2022-12-25T14:26:32Z</time>
      </trkpt>
      <trkpt lat="48.55207" lon="2.09151">
        <ele>163</ele>
        <time>2022-12-25T14:26:34Z</time>
      </trkpt>
      <trkpt lat="48.55207" lon="2.09155">
        <ele>163</ele>
        <time>2022-12-25T14:26:36Z</time>
      </trkpt>
      <trkpt lat="48.55208" lon="2.0916">
        <ele>162</ele>
        <time>2022-12-25T14:26:38Z</time>
      </trkpt>
      <trkpt lat="48.5521" lon="2.09164">
        <ele>162</ele>
        <time>2022-12-25T14:26:40Z</time>
      </trkpt>
      <trkpt lat="48.5521" lon="2.09168">
        <ele>162</ele>
        <time>2022-12-25T14:26:43Z</time>
      </trkpt>
      <trkpt lat="48.55211" lon="2.09172">
        <ele>162</ele>
        <time>2022-12-25T14:26:45Z</time>
      </trkpt>
      <trkpt lat="48.55212" lon="2.09175">
        <ele>162</ele>
        <time>2022-12-25T14:26:46Z</time>
      </trkpt>
      <trkpt lat="48.55213" lon="2.0918">
        <ele>162</ele>
        <time>2022-12-25T14:26:47Z</time>
      </trkpt>
      <trkpt lat="48.55214" lon="2.09184">
        <ele>162</ele>
        <time>2022-12-25T14:26:49Z</time>
      </trkpt>
      <trkpt lat="48.55215" lon="2.09189">
        <ele>161</ele>
        <time>2022-12-25T14:26:51Z</time>
      </trkpt>
      <trkpt lat="48.55217" lon="2.09193">
        <ele>161</ele>
        <time>2022-12-25T14:26:53Z</time>
      </trkpt>
      <trkpt lat="48.55218" lon="2.09197">
        <ele>161</ele>
        <time>2022-12-25T14:26:55Z</time>
      </trkpt>
      <trkpt lat="48.55218" lon="2.09202">
        <ele>161</ele>
        <time>2022-12-25T14:26:57Z</time>
      </trkpt>
      <trkpt lat="48.55219" lon="2.09207">
        <ele>161</ele>
        <time>2022-12-25T14:26:59Z</time>
      </trkpt>
      <trkpt lat="48.55221" lon="2.09211">
        <ele>161</ele>
        <time>2022-12-25T14:27:01Z</time>
      </trkpt>
      <trkpt lat="48.55222" lon="2.09215">
        <ele>162</ele>
        <time>2022-12-25T14:27:04Z</time>
      </trkpt>
      <trkpt lat="48.55223" lon="2.0922">
        <ele>162</ele>
        <time>2022-12-25T14:27:05Z</time>
      </trkpt>
      <trkpt lat="48.55224" lon="2.09224">
        <ele>161</ele>
        <time>2022-12-25T14:27:07Z</time>
      </trkpt>
      <trkpt lat="48.55225" lon="2.09228">
        <ele>161</ele>
        <time>2022-12-25T14:27:09Z</time>
      </trkpt>
      <trkpt lat="48.55226" lon="2.09231">
        <ele>161</ele>
        <time>2022-12-25T14:27:11Z</time>
      </trkpt>
      <trkpt lat="48.55228" lon="2.09234">
        <ele>161</ele>
        <time>2022-12-25T14:27:13Z</time>
      </trkpt>
      <trkpt lat="48.5523" lon="2.09238">
        <ele>161</ele>
        <time>2022-12-25T14:27:15Z</time>
      </trkpt>
      <trkpt lat="48.5523" lon="2.09242">
        <ele>161</ele>
        <time>2022-12-25T14:27:17Z</time>
      </trkpt>
      <trkpt lat="48.55232" lon="2.09247">
        <ele>161</ele>
        <time>2022-12-25T14:27:19Z</time>
      </trkpt>
      <trkpt lat="48.55234" lon="2.09251">
        <ele>160</ele>
        <time>2022-12-25T14:27:21Z</time>
      </trkpt>
      <trkpt lat="48.55237" lon="2.09255">
        <ele>161</ele>
        <time>2022-12-25T14:27:23Z</time>
      </trkpt>
      <trkpt lat="48.55239" lon="2.09259">
        <ele>161</ele>
        <time>2022-12-25T14:27:25Z</time>
      </trkpt>
      <trkpt lat="48.5524" lon="2.09264">
        <ele>161</ele>
        <time>2022-12-25T14:27:27Z</time>
      </trkpt>
      <trkpt lat="48.55242" lon="2.09267">
        <ele>161</ele>
        <time>2022-12-25T14:27:29Z</time>
      </trkpt>
      <trkpt lat="48.55244" lon="2.09271">
        <ele>161</ele>
        <time>2022-12-25T14:27:31Z</time>
      </trkpt>
      <trkpt lat="48.55245" lon="2.09274">
        <ele>161</ele>
        <time>2022-12-25T14:27:32Z</time>
      </trkpt>
      <trkpt lat="48.55246" lon="2.09278">
        <ele>161</ele>
        <time>2022-12-25T14:27:34Z</time>
      </trkpt>
      <trkpt lat="48.55248" lon="2.09282">
        <ele>161</ele>
        <time>2022-12-25T14:27:36Z</time>
      </trkpt>
      <trkpt lat="48.5525" lon="2.09286">
        <ele>161</ele>
        <time>2022-12-25T14:27:38Z</time>
      </trkpt>
      <trkpt lat="48.55252" lon="2.09289">
        <ele>161</ele>
        <time>2022-12-25T14:27:40Z</time>
      </trkpt>
      <trkpt lat="48.55254" lon="2.09293">
        <ele>161</ele>
        <time>2022-12-25T14:27:42Z</time>
      </trkpt>
      <trkpt lat="48.55256" lon="2.09296">
        <ele>161</ele>
        <time>2022-12-25T14:27:44Z</time>
      </trkpt>
      <trkpt lat="48.55258" lon="2.09301">
        <ele>161</ele>
        <time>2022-12-25T14:27:46Z</time>
      </trkpt>
      <trkpt lat="48.55259" lon="2.09305">
        <ele>161</ele>
        <time>2022-12-25T14:27:48Z</time>
      </trkpt>
      <trkpt lat="48.55261" lon="2.09309">
        <ele>160</ele>
        <time>2022-12-25T14:27:50Z</time>
      </trkpt>
      <trkpt lat="48.55262" lon="2.09313">
        <ele>160</ele>
        <time>2022-12-25T14:27:52Z</time>
      </trkpt>
      <trkpt lat="48.55264" lon="2.09316">
        <ele>160</ele>
        <time>2022-12-25T14:27:54Z</time>
      </trkpt>
      <trkpt lat="48.55267" lon="2.09319">
        <ele>160</ele>
        <time>2022-12-25T14:27:56Z</time>
      </trkpt>
      <trkpt lat="48.55268" lon="2.09323">
        <ele>160</ele>
        <time>2022-12-25T14:27:58Z</time>
      </trkpt>
      <trkpt lat="48.55271" lon="2.0933">
        <ele>160</ele>
        <time>2022-12-25T14:28:01Z</time>
      </trkpt>
      <trkpt lat="48.55273" lon="2.09333">
        <ele>160</ele>
        <time>2022-12-25T14:28:03Z</time>
      </trkpt>
      <trkpt lat="48.55274" lon="2.09337">
        <ele>160</ele>
        <time>2022-12-25T14:28:05Z</time>
      </trkpt>
      <trkpt lat="48.55276" lon="2.09342">
        <ele>159</ele>
        <time>2022-12-25T14:28:07Z</time>
      </trkpt>
      <trkpt lat="48.55277" lon="2.09345">
        <ele>159</ele>
        <time>2022-12-25T14:28:09Z</time>
      </trkpt>
      <trkpt lat="48.55279" lon="2.09349">
        <ele>159</ele>
        <time>2022-12-25T14:28:11Z</time>
      </trkpt>
      <trkpt lat="48.55281" lon="2.09354">
        <ele>159</ele>
        <time>2022-12-25T14:28:13Z</time>
      </trkpt>
      <trkpt lat="48.55282" lon="2.09358">
        <ele>159</ele>
        <time>2022-12-25T14:28:15Z</time>
      </trkpt>
      <trkpt lat="48.55283" lon="2.09362">
        <ele>159</ele>
        <time>2022-12-25T14:28:17Z</time>
      </trkpt>
      <trkpt lat="48.55284" lon="2.09366">
        <ele>159</ele>
        <time>2022-12-25T14:28:20Z</time>
      </trkpt>
      <trkpt lat="48.55284" lon="2.09372">
        <ele>159</ele>
        <time>2022-12-25T14:28:21Z</time>
      </trkpt>
      <trkpt lat="48.55284" lon="2.09375">
        <ele>159</ele>
        <time>2022-12-25T14:28:22Z</time>
      </trkpt>
      <trkpt lat="48.55285" lon="2.0938">
        <ele>159</ele>
        <time>2022-12-25T14:28:24Z</time>
      </trkpt>
      <trkpt lat="48.55286" lon="2.09383">
        <ele>159</ele>
        <time>2022-12-25T14:28:26Z</time>
      </trkpt>
      <trkpt lat="48.55289" lon="2.09387">
        <ele>159</ele>
        <time>2022-12-25T14:28:28Z</time>
      </trkpt>
      <trkpt lat="48.55291" lon="2.09391">
        <ele>159</ele>
        <time>2022-12-25T14:28:30Z</time>
      </trkpt>
      <trkpt lat="48.55292" lon="2.09395">
        <ele>159</ele>
        <time>2022-12-25T14:28:32Z</time>
      </trkpt>
      <trkpt lat="48.55294" lon="2.09398">
        <ele>159</ele>
        <time>2022-12-25T14:28:34Z</time>
      </trkpt>
      <trkpt lat="48.55295" lon="2.09401">
        <ele>160</ele>
        <time>2022-12-25T14:28:36Z</time>
      </trkpt>
      <trkpt lat="48.55296" lon="2.09406">
        <ele>160</ele>
        <time>2022-12-25T14:28:39Z</time>
      </trkpt>
      <trkpt lat="48.55297" lon="2.0941">
        <ele>159</ele>
        <time>2022-12-25T14:28:40Z</time>
      </trkpt>
      <trkpt lat="48.55297" lon="2.09413">
        <ele>159</ele>
        <time>2022-12-25T14:28:43Z</time>
      </trkpt>
      <trkpt lat="48.55299" lon="2.09417">
        <ele>158</ele>
        <time>2022-12-25T14:28:45Z</time>
      </trkpt>
      <trkpt lat="48.553" lon="2.0942">
        <ele>158</ele>
        <time>2022-12-25T14:28:46Z</time>
      </trkpt>
      <trkpt lat="48.55301" lon="2.09423">
        <ele>158</ele>
        <time>2022-12-25T14:28:47Z</time>
      </trkpt>
      <trkpt lat="48.55302" lon="2.09425">
        <ele>158</ele>
        <time>2022-12-25T14:28:48Z</time>
      </trkpt>
      <trkpt lat="48.55303" lon="2.09428">
        <ele>158</ele>
        <time>2022-12-25T14:28:49Z</time>
      </trkpt>
      <trkpt lat="48.55304" lon="2.0943">
        <ele>157</ele>
        <time>2022-12-25T14:28:50Z</time>
      </trkpt>
      <trkpt lat="48.55306" lon="2.09435">
        <ele>157</ele>
        <time>2022-12-25T14:28:52Z</time>
      </trkpt>
      <trkpt lat="48.55308" lon="2.09439">
        <ele>156</ele>
        <time>2022-12-25T14:28:54Z</time>
      </trkpt>
      <trkpt lat="48.55309" lon="2.09444">
        <ele>156</ele>
        <time>2022-12-25T14:28:56Z</time>
      </trkpt>
      <trkpt lat="48.55311" lon="2.09448">
        <ele>156</ele>
        <time>2022-12-25T14:28:58Z</time>
      </trkpt>
      <trkpt lat="48.55312" lon="2.09452">
        <ele>155</ele>
        <time>2022-12-25T14:29:00Z</time>
      </trkpt>
      <trkpt lat="48.55313" lon="2.09456">
        <ele>155</ele>
        <time>2022-12-25T14:29:02Z</time>
      </trkpt>
      <trkpt lat="48.55315" lon="2.0946">
        <ele>155</ele>
        <time>2022-12-25T14:29:04Z</time>
      </trkpt>
      <trkpt lat="48.55316" lon="2.09465">
        <ele>155</ele>
        <time>2022-12-25T14:29:06Z</time>
      </trkpt>
      <trkpt lat="48.55317" lon="2.09468">
        <ele>155</ele>
        <time>2022-12-25T14:29:08Z</time>
      </trkpt>
      <trkpt lat="48.55319" lon="2.09472">
        <ele>154</ele>
        <time>2022-12-25T14:29:10Z</time>
      </trkpt>
      <trkpt lat="48.5532" lon="2.09476">
        <ele>154</ele>
        <time>2022-12-25T14:29:12Z</time>
      </trkpt>
      <trkpt lat="48.55321" lon="2.09481">
        <ele>154</ele>
        <time>2022-12-25T14:29:14Z</time>
      </trkpt>
      <trkpt lat="48.55322" lon="2.09485">
        <ele>154</ele>
        <time>2022-12-25T14:29:17Z</time>
      </trkpt>
      <trkpt lat="48.55324" lon="2.09489">
        <ele>154</ele>
        <time>2022-12-25T14:29:18Z</time>
      </trkpt>
      <trkpt lat="48.55326" lon="2.09492">
        <ele>154</ele>
        <time>2022-12-25T14:29:20Z</time>
      </trkpt>
      <trkpt lat="48.55328" lon="2.09496">
        <ele>154</ele>
        <time>2022-12-25T14:29:22Z</time>
      </trkpt>
      <trkpt lat="48.5533" lon="2.095">
        <ele>154</ele>
        <time>2022-12-25T14:29:24Z</time>
      </trkpt>
      <trkpt lat="48.55331" lon="2.09504">
        <ele>154</ele>
        <time>2022-12-25T14:29:26Z</time>
      </trkpt>
      <trkpt lat="48.55333" lon="2.09507">
        <ele>154</ele>
        <time>2022-12-25T14:29:28Z</time>
      </trkpt>
      <trkpt lat="48.55335" lon="2.0951">
        <ele>154</ele>
        <time>2022-12-25T14:29:30Z</time>
      </trkpt>
      <trkpt lat="48.55337" lon="2.09514">
        <ele>154</ele>
        <time>2022-12-25T14:29:32Z</time>
      </trkpt>
      <trkpt lat="48.55339" lon="2.09518">
        <ele>154</ele>
        <time>2022-12-25T14:29:34Z</time>
      </trkpt>
      <trkpt lat="48.55339" lon="2.09523">
        <ele>155</ele>
        <time>2022-12-25T14:29:36Z</time>
      </trkpt>
      <trkpt lat="48.5534" lon="2.09527">
        <ele>155</ele>
        <time>2022-12-25T14:29:38Z</time>
      </trkpt>
      <trkpt lat="48.55343" lon="2.0953">
        <ele>154</ele>
        <time>2022-12-25T14:29:40Z</time>
      </trkpt>
      <trkpt lat="48.55344" lon="2.09532">
        <ele>155</ele>
        <time>2022-12-25T14:29:41Z</time>
      </trkpt>
      <trkpt lat="48.55346" lon="2.09536">
        <ele>155</ele>
        <time>2022-12-25T14:29:43Z</time>
      </trkpt>
      <trkpt lat="48.55348" lon="2.0954">
        <ele>155</ele>
        <time>2022-12-25T14:29:45Z</time>
      </trkpt>
      <trkpt lat="48.5535" lon="2.09542">
        <ele>155</ele>
        <time>2022-12-25T14:29:47Z</time>
      </trkpt>
      <trkpt lat="48.55352" lon="2.09544">
        <ele>155</ele>
        <time>2022-12-25T14:29:49Z</time>
      </trkpt>
      <trkpt lat="48.55355" lon="2.09545">
        <ele>156</ele>
        <time>2022-12-25T14:29:51Z</time>
      </trkpt>
      <trkpt lat="48.55358" lon="2.09547">
        <ele>156</ele>
        <time>2022-12-25T14:29:53Z</time>
      </trkpt>
      <trkpt lat="48.55361" lon="2.09549">
        <ele>156</ele>
        <time>2022-12-25T14:29:55Z</time>
      </trkpt>
      <trkpt lat="48.55362" lon="2.09551">
        <ele>156</ele>
        <time>2022-12-25T14:29:59Z</time>
      </trkpt>
      <trkpt lat="48.55363" lon="2.09555">
        <ele>157</ele>
        <time>2022-12-25T14:30:03Z</time>
      </trkpt>
      <trkpt lat="48.55365" lon="2.09558">
        <ele>157</ele>
        <time>2022-12-25T14:30:05Z</time>
      </trkpt>
      <trkpt lat="48.55367" lon="2.0956">
        <ele>157</ele>
        <time>2022-12-25T14:30:07Z</time>
      </trkpt>
      <trkpt lat="48.55369" lon="2.09563">
        <ele>157</ele>
        <time>2022-12-25T14:30:09Z</time>
      </trkpt>
      <trkpt lat="48.55371" lon="2.09564">
        <ele>157</ele>
        <time>2022-12-25T14:30:11Z</time>
      </trkpt>
      <trkpt lat="48.55373" lon="2.09567">
        <ele>158</ele>
        <time>2022-12-25T14:30:14Z</time>
      </trkpt>
      <trkpt lat="48.55375" lon="2.0957">
        <ele>158</ele>
        <time>2022-12-25T14:30:15Z</time>
      </trkpt>
      <trkpt lat="48.55376" lon="2.09575">
        <ele>158</ele>
        <time>2022-12-25T14:30:17Z</time>
      </trkpt>
      <trkpt lat="48.55377" lon="2.09579">
        <ele>159</ele>
        <time>2022-12-25T14:30:19Z</time>
      </trkpt>
      <trkpt lat="48.55377" lon="2.09583">
        <ele>159</ele>
        <time>2022-12-25T14:30:21Z</time>
      </trkpt>
      <trkpt lat="48.55378" lon="2.09587">
        <ele>159</ele>
        <time>2022-12-25T14:30:23Z</time>
      </trkpt>
      <trkpt lat="48.55379" lon="2.09591">
        <ele>159</ele>
        <time>2022-12-25T14:30:25Z</time>
      </trkpt>
      <trkpt lat="48.55381" lon="2.09595">
        <ele>159</ele>
        <time>2022-12-25T14:30:27Z</time>
      </trkpt>
      <trkpt lat="48.55382" lon="2.09598">
        <ele>160</ele>
        <time>2022-12-25T14:30:29Z</time>
      </trkpt>
      <trkpt lat="48.55384" lon="2.09602">
        <ele>160</ele>
        <time>2022-12-25T14:30:31Z</time>
      </trkpt>
      <trkpt lat="48.55384" lon="2.09606">
        <ele>160</ele>
        <time>2022-12-25T14:30:33Z</time>
      </trkpt>
      <trkpt lat="48.55386" lon="2.0961">
        <ele>160</ele>
        <time>2022-12-25T14:30:35Z</time>
      </trkpt>
      <trkpt lat="48.55388" lon="2.09614">
        <ele>159</ele>
        <time>2022-12-25T14:30:37Z</time>
      </trkpt>
      <trkpt lat="48.5539" lon="2.09619">
        <ele>160</ele>
        <time>2022-12-25T14:30:39Z</time>
      </trkpt>
      <trkpt lat="48.55391" lon="2.09621">
        <ele>160</ele>
        <time>2022-12-25T14:30:40Z</time>
      </trkpt>
      <trkpt lat="48.55393" lon="2.09625">
        <ele>160</ele>
        <time>2022-12-25T14:30:42Z</time>
      </trkpt>
      <trkpt lat="48.55395" lon="2.09629">
        <ele>160</ele>
        <time>2022-12-25T14:30:44Z</time>
      </trkpt>
      <trkpt lat="48.55396" lon="2.09633">
        <ele>160</ele>
        <time>2022-12-25T14:30:46Z</time>
      </trkpt>
      <trkpt lat="48.55398" lon="2.09636">
        <ele>160</ele>
        <time>2022-12-25T14:30:48Z</time>
      </trkpt>
      <trkpt lat="48.55399" lon="2.09637">
        <ele>160</ele>
        <time>2022-12-25T14:30:49Z</time>
      </trkpt>
      <trkpt lat="48.55401" lon="2.09641">
        <ele>160</ele>
        <time>2022-12-25T14:30:52Z</time>
      </trkpt>
      <trkpt lat="48.55402" lon="2.09645">
        <ele>160</ele>
        <time>2022-12-25T14:30:53Z</time>
      </trkpt>
      <trkpt lat="48.55404" lon="2.09647">
        <ele>160</ele>
        <time>2022-12-25T14:30:55Z</time>
      </trkpt>
      <trkpt lat="48.55407" lon="2.09649">
        <ele>161</ele>
        <time>2022-12-25T14:30:57Z</time>
      </trkpt>
      <trkpt lat="48.55408" lon="2.09651">
        <ele>161</ele>
        <time>2022-12-25T14:30:58Z</time>
      </trkpt>
      <trkpt lat="48.55409" lon="2.09653">
        <ele>161</ele>
        <time>2022-12-25T14:30:59Z</time>
      </trkpt>
      <trkpt lat="48.55411" lon="2.09657">
        <ele>161</ele>
        <time>2022-12-25T14:31:01Z</time>
      </trkpt>
      <trkpt lat="48.55413" lon="2.09661">
        <ele>161</ele>
        <time>2022-12-25T14:31:03Z</time>
      </trkpt>
      <trkpt lat="48.55414" lon="2.09666">
        <ele>161</ele>
        <time>2022-12-25T14:31:05Z</time>
      </trkpt>
      <trkpt lat="48.55414" lon="2.0967">
        <ele>162</ele>
        <time>2022-12-25T14:31:07Z</time>
      </trkpt>
      <trkpt lat="48.55414" lon="2.09674">
        <ele>162</ele>
        <time>2022-12-25T14:31:09Z</time>
      </trkpt>
      <trkpt lat="48.55414" lon="2.09679">
        <ele>162</ele>
        <time>2022-12-25T14:31:11Z</time>
      </trkpt>
      <trkpt lat="48.55415" lon="2.09683">
        <ele>162</ele>
        <time>2022-12-25T14:31:13Z</time>
      </trkpt>
      <trkpt lat="48.55416" lon="2.09688">
        <ele>163</ele>
        <time>2022-12-25T14:31:15Z</time>
      </trkpt>
      <trkpt lat="48.55416" lon="2.09693">
        <ele>163</ele>
        <time>2022-12-25T14:31:17Z</time>
      </trkpt>
      <trkpt lat="48.55417" lon="2.09697">
        <ele>163</ele>
        <time>2022-12-25T14:31:19Z</time>
      </trkpt>
      <trkpt lat="48.55417" lon="2.09702">
        <ele>163</ele>
        <time>2022-12-25T14:31:21Z</time>
      </trkpt>
      <trkpt lat="48.55418" lon="2.09707">
        <ele>163</ele>
        <time>2022-12-25T14:31:23Z</time>
      </trkpt>
      <trkpt lat="48.55417" lon="2.09712">
        <ele>162</ele>
        <time>2022-12-25T14:31:25Z</time>
      </trkpt>
      <trkpt lat="48.55416" lon="2.09719">
        <ele>163</ele>
        <time>2022-12-25T14:31:28Z</time>
      </trkpt>
      <trkpt lat="48.55415" lon="2.09723">
        <ele>163</ele>
        <time>2022-12-25T14:31:30Z</time>
      </trkpt>
      <trkpt lat="48.55413" lon="2.09727">
        <ele>163</ele>
        <time>2022-12-25T14:31:32Z</time>
      </trkpt>
      <trkpt lat="48.55413" lon="2.0973">
        <ele>163</ele>
        <time>2022-12-25T14:31:33Z</time>
      </trkpt>
      <trkpt lat="48.55413" lon="2.09735">
        <ele>163</ele>
        <time>2022-12-25T14:31:35Z</time>
      </trkpt>
      <trkpt lat="48.55413" lon="2.0974">
        <ele>164</ele>
        <time>2022-12-25T14:31:37Z</time>
      </trkpt>
      <trkpt lat="48.55413" lon="2.09743">
        <ele>164</ele>
        <time>2022-12-25T14:31:38Z</time>
      </trkpt>
      <trkpt lat="48.55414" lon="2.09748">
        <ele>164</ele>
        <time>2022-12-25T14:31:40Z</time>
      </trkpt>
      <trkpt lat="48.55414" lon="2.09752">
        <ele>164</ele>
        <time>2022-12-25T14:31:42Z</time>
      </trkpt>
      <trkpt lat="48.55415" lon="2.09757">
        <ele>164</ele>
        <time>2022-12-25T14:31:44Z</time>
      </trkpt>
      <trkpt lat="48.55415" lon="2.09762">
        <ele>164</ele>
        <time>2022-12-25T14:31:46Z</time>
      </trkpt>
      <trkpt lat="48.55415" lon="2.0977">
        <ele>164</ele>
        <time>2022-12-25T14:31:49Z</time>
      </trkpt>
      <trkpt lat="48.55415" lon="2.09774">
        <ele>165</ele>
        <time>2022-12-25T14:31:51Z</time>
      </trkpt>
      <trkpt lat="48.55416" lon="2.09779">
        <ele>164</ele>
        <time>2022-12-25T14:31:53Z</time>
      </trkpt>
      <trkpt lat="48.55416" lon="2.09784">
        <ele>164</ele>
        <time>2022-12-25T14:31:55Z</time>
      </trkpt>
      <trkpt lat="48.55417" lon="2.09789">
        <ele>164</ele>
        <time>2022-12-25T14:31:57Z</time>
      </trkpt>
      <trkpt lat="48.55417" lon="2.09793">
        <ele>164</ele>
        <time>2022-12-25T14:31:59Z</time>
      </trkpt>
      <trkpt lat="48.55417" lon="2.09797">
        <ele>164</ele>
        <time>2022-12-25T14:32:01Z</time>
      </trkpt>
      <trkpt lat="48.55418" lon="2.09802">
        <ele>164</ele>
        <time>2022-12-25T14:32:03Z</time>
      </trkpt>
      <trkpt lat="48.55419" lon="2.09806">
        <ele>164</ele>
        <time>2022-12-25T14:32:05Z</time>
      </trkpt>
      <trkpt lat="48.55418" lon="2.09808">
        <ele>164</ele>
        <time>2022-12-25T14:32:06Z</time>
      </trkpt>
      <trkpt lat="48.55419" lon="2.09813">
        <ele>163</ele>
        <time>2022-12-25T14:32:08Z</time>
      </trkpt>
      <trkpt lat="48.5542" lon="2.09817">
        <ele>163</ele>
        <time>2022-12-25T14:32:10Z</time>
      </trkpt>
      <trkpt lat="48.55421" lon="2.09822">
        <ele>163</ele>
        <time>2022-12-25T14:32:12Z</time>
      </trkpt>
      <trkpt lat="48.55422" lon="2.09827">
        <ele>163</ele>
        <time>2022-12-25T14:32:14Z</time>
      </trkpt>
      <trkpt lat="48.55423" lon="2.09831">
        <ele>163</ele>
        <time>2022-12-25T14:32:16Z</time>
      </trkpt>
      <trkpt lat="48.55424" lon="2.09835">
        <ele>163</ele>
        <time>2022-12-25T14:32:18Z</time>
      </trkpt>
      <trkpt lat="48.55424" lon="2.09839">
        <ele>163</ele>
        <time>2022-12-25T14:32:20Z</time>
      </trkpt>
      <trkpt lat="48.55425" lon="2.09844">
        <ele>163</ele>
        <time>2022-12-25T14:32:22Z</time>
      </trkpt>
      <trkpt lat="48.55426" lon="2.09848">
        <ele>163</ele>
        <time>2022-12-25T14:32:24Z</time>
      </trkpt>
      <trkpt lat="48.55427" lon="2.09851">
        <ele>163</ele>
        <time>2022-12-25T14:32:27Z</time>
      </trkpt>
      <trkpt lat="48.55427" lon="2.09856">
        <ele>163</ele>
        <time>2022-12-25T14:32:28Z</time>
      </trkpt>
      <trkpt lat="48.55428" lon="2.0986">
        <ele>163</ele>
        <time>2022-12-25T14:32:30Z</time>
      </trkpt>
      <trkpt lat="48.55428" lon="2.09865">
        <ele>163</ele>
        <time>2022-12-25T14:32:32Z</time>
      </trkpt>
      <trkpt lat="48.55428" lon="2.09869">
        <ele>163</ele>
        <time>2022-12-25T14:32:35Z</time>
      </trkpt>
      <trkpt lat="48.55429" lon="2.09874">
        <ele>162</ele>
        <time>2022-12-25T14:32:37Z</time>
      </trkpt>
      <trkpt lat="48.5543" lon="2.0988">
        <ele>163</ele>
        <time>2022-12-25T14:32:39Z</time>
      </trkpt>
      <trkpt lat="48.55431" lon="2.09885">
        <ele>163</ele>
        <time>2022-12-25T14:32:41Z</time>
      </trkpt>
      <trkpt lat="48.55431" lon="2.09888">
        <ele>163</ele>
        <time>2022-12-25T14:32:42Z</time>
      </trkpt>
      <trkpt lat="48.55432" lon="2.09893">
        <ele>163</ele>
        <time>2022-12-25T14:32:44Z</time>
      </trkpt>
      <trkpt lat="48.55434" lon="2.09897">
        <ele>163</ele>
        <time>2022-12-25T14:32:46Z</time>
      </trkpt>
      <trkpt lat="48.55436" lon="2.09901">
        <ele>163</ele>
        <time>2022-12-25T14:32:48Z</time>
      </trkpt>
      <trkpt lat="48.55437" lon="2.09906">
        <ele>163</ele>
        <time>2022-12-25T14:32:50Z</time>
      </trkpt>
      <trkpt lat="48.55438" lon="2.09911">
        <ele>164</ele>
        <time>2022-12-25T14:32:52Z</time>
      </trkpt>
      <trkpt lat="48.55439" lon="2.09915">
        <ele>164</ele>
        <time>2022-12-25T14:32:54Z</time>
      </trkpt>
      <trkpt lat="48.55441" lon="2.09919">
        <ele>164</ele>
        <time>2022-12-25T14:32:56Z</time>
      </trkpt>
      <trkpt lat="48.55442" lon="2.09923">
        <ele>164</ele>
        <time>2022-12-25T14:32:58Z</time>
      </trkpt>
      <trkpt lat="48.55442" lon="2.09927">
        <ele>164</ele>
        <time>2022-12-25T14:33:00Z</time>
      </trkpt>
      <trkpt lat="48.55443" lon="2.0993">
        <ele>164</ele>
        <time>2022-12-25T14:33:01Z</time>
      </trkpt>
      <trkpt lat="48.55444" lon="2.09932">
        <ele>164</ele>
        <time>2022-12-25T14:33:02Z</time>
      </trkpt>
      <trkpt lat="48.55445" lon="2.09937">
        <ele>164</ele>
        <time>2022-12-25T14:33:05Z</time>
      </trkpt>
      <trkpt lat="48.55446" lon="2.09941">
        <ele>164</ele>
        <time>2022-12-25T14:33:06Z</time>
      </trkpt>
      <trkpt lat="48.55448" lon="2.09945">
        <ele>164</ele>
        <time>2022-12-25T14:33:08Z</time>
      </trkpt>
      <trkpt lat="48.5545" lon="2.09949">
        <ele>164</ele>
        <time>2022-12-25T14:33:10Z</time>
      </trkpt>
      <trkpt lat="48.55451" lon="2.09953">
        <ele>164</ele>
        <time>2022-12-25T14:33:12Z</time>
      </trkpt>
      <trkpt lat="48.55452" lon="2.09956">
        <ele>164</ele>
        <time>2022-12-25T14:33:14Z</time>
      </trkpt>
      <trkpt lat="48.55454" lon="2.0996">
        <ele>164</ele>
        <time>2022-12-25T14:33:16Z</time>
      </trkpt>
      <trkpt lat="48.55455" lon="2.09964">
        <ele>164</ele>
        <time>2022-12-25T14:33:18Z</time>
      </trkpt>
      <trkpt lat="48.55457" lon="2.09967">
        <ele>165</ele>
        <time>2022-12-25T14:33:20Z</time>
      </trkpt>
      <trkpt lat="48.55458" lon="2.09971">
        <ele>165</ele>
        <time>2022-12-25T14:33:22Z</time>
      </trkpt>
      <trkpt lat="48.55459" lon="2.09975">
        <ele>165</ele>
        <time>2022-12-25T14:33:24Z</time>
      </trkpt>
      <trkpt lat="48.5546" lon="2.0998">
        <ele>165</ele>
        <time>2022-12-25T14:33:26Z</time>
      </trkpt>
      <trkpt lat="48.55462" lon="2.09984">
        <ele>166</ele>
        <time>2022-12-25T14:33:29Z</time>
      </trkpt>
      <trkpt lat="48.55463" lon="2.09988">
        <ele>166</ele>
        <time>2022-12-25T14:33:30Z</time>
      </trkpt>
      <trkpt lat="48.55464" lon="2.09992">
        <ele>166</ele>
        <time>2022-12-25T14:33:32Z</time>
      </trkpt>
      <trkpt lat="48.55465" lon="2.09996">
        <ele>166</ele>
        <time>2022-12-25T14:33:34Z</time>
      </trkpt>
      <trkpt lat="48.55466" lon="2.1">
        <ele>166</ele>
        <time>2022-12-25T14:33:36Z</time>
      </trkpt>
      <trkpt lat="48.55468" lon="2.10004">
        <ele>165</ele>
        <time>2022-12-25T14:33:38Z</time>
      </trkpt>
      <trkpt lat="48.55468" lon="2.1001">
        <ele>166</ele>
        <time>2022-12-25T14:33:40Z</time>
      </trkpt>
      <trkpt lat="48.5547" lon="2.10013">
        <ele>166</ele>
        <time>2022-12-25T14:33:43Z</time>
      </trkpt>
      <trkpt lat="48.55471" lon="2.10018">
        <ele>166</ele>
        <time>2022-12-25T14:33:44Z</time>
      </trkpt>
      <trkpt lat="48.55471" lon="2.10022">
        <ele>166</ele>
        <time>2022-12-25T14:33:46Z</time>
      </trkpt>
      <trkpt lat="48.55473" lon="2.10026">
        <ele>166</ele>
        <time>2022-12-25T14:33:48Z</time>
      </trkpt>
      <trkpt lat="48.55474" lon="2.1003">
        <ele>166</ele>
        <time>2022-12-25T14:33:50Z</time>
      </trkpt>
      <trkpt lat="48.55476" lon="2.10034">
        <ele>166</ele>
        <time>2022-12-25T14:33:52Z</time>
      </trkpt>
      <trkpt lat="48.55477" lon="2.10038">
        <ele>166</ele>
        <time>2022-12-25T14:33:54Z</time>
      </trkpt>
      <trkpt lat="48.55479" lon="2.10042">
        <ele>166</ele>
        <time>2022-12-25T14:33:56Z</time>
      </trkpt>
      <trkpt lat="48.5548" lon="2.10045">
        <ele>166</ele>
        <time>2022-12-25T14:33:58Z</time>
      </trkpt>
      <trkpt lat="48.55482" lon="2.10049">
        <ele>166</ele>
        <time>2022-12-25T14:34:00Z</time>
      </trkpt>
      <trkpt lat="48.55483" lon="2.10053">
        <ele>166</ele>
        <time>2022-12-25T14:34:02Z</time>
      </trkpt>
      <trkpt lat="48.55486" lon="2.10056">
        <ele>166</ele>
        <time>2022-12-25T14:34:04Z</time>
      </trkpt>
      <trkpt lat="48.55486" lon="2.10061">
        <ele>166</ele>
        <time>2022-12-25T14:34:06Z</time>
      </trkpt>
      <trkpt lat="48.55486" lon="2.10065">
        <ele>166</ele>
        <time>2022-12-25T14:34:08Z</time>
      </trkpt>
      <trkpt lat="48.55487" lon="2.10069">
        <ele>166</ele>
        <time>2022-12-25T14:34:10Z</time>
      </trkpt>
      <trkpt lat="48.55488" lon="2.10072">
        <ele>166</ele>
        <time>2022-12-25T14:34:12Z</time>
      </trkpt>
      <trkpt lat="48.55489" lon="2.10076">
        <ele>165</ele>
        <time>2022-12-25T14:34:14Z</time>
      </trkpt>
      <trkpt lat="48.5549" lon="2.1008">
        <ele>165</ele>
        <time>2022-12-25T14:34:16Z</time>
      </trkpt>
      <trkpt lat="48.55491" lon="2.10084">
        <ele>165</ele>
        <time>2022-12-25T14:34:18Z</time>
      </trkpt>
      <trkpt lat="48.55491" lon="2.10089">
        <ele>165</ele>
        <time>2022-12-25T14:34:21Z</time>
      </trkpt>
      <trkpt lat="48.55491" lon="2.10094">
        <ele>165</ele>
        <time>2022-12-25T14:34:22Z</time>
      </trkpt>
      <trkpt lat="48.55492" lon="2.10098">
        <ele>166</ele>
        <time>2022-12-25T14:34:24Z</time>
      </trkpt>
      <trkpt lat="48.55493" lon="2.10103">
        <ele>166</ele>
        <time>2022-12-25T14:34:26Z</time>
      </trkpt>
      <trkpt lat="48.55494" lon="2.10107">
        <ele>166</ele>
        <time>2022-12-25T14:34:28Z</time>
      </trkpt>
      <trkpt lat="48.55494" lon="2.1011">
        <ele>166</ele>
        <time>2022-12-25T14:34:29Z</time>
      </trkpt>
      <trkpt lat="48.55495" lon="2.10114">
        <ele>166</ele>
        <time>2022-12-25T14:34:31Z</time>
      </trkpt>
      <trkpt lat="48.55496" lon="2.10118">
        <ele>166</ele>
        <time>2022-12-25T14:34:33Z</time>
      </trkpt>
      <trkpt lat="48.55497" lon="2.10122">
        <ele>166</ele>
        <time>2022-12-25T14:34:35Z</time>
      </trkpt>
      <trkpt lat="48.55498" lon="2.10126">
        <ele>166</ele>
        <time>2022-12-25T14:34:37Z</time>
      </trkpt>
      <trkpt lat="48.55499" lon="2.1013">
        <ele>167</ele>
        <time>2022-12-25T14:34:40Z</time>
      </trkpt>
      <trkpt lat="48.55499" lon="2.10134">
        <ele>167</ele>
        <time>2022-12-25T14:34:41Z</time>
      </trkpt>
      <trkpt lat="48.555" lon="2.10138">
        <ele>167</ele>
        <time>2022-12-25T14:34:43Z</time>
      </trkpt>
      <trkpt lat="48.55502" lon="2.10141">
        <ele>167</ele>
        <time>2022-12-25T14:34:45Z</time>
      </trkpt>
      <trkpt lat="48.55503" lon="2.10146">
        <ele>167</ele>
        <time>2022-12-25T14:34:47Z</time>
      </trkpt>
      <trkpt lat="48.55503" lon="2.10149">
        <ele>167</ele>
        <time>2022-12-25T14:34:49Z</time>
      </trkpt>
      <trkpt lat="48.55504" lon="2.10152">
        <ele>167</ele>
        <time>2022-12-25T14:34:51Z</time>
      </trkpt>
      <trkpt lat="48.55504" lon="2.10155">
        <ele>167</ele>
        <time>2022-12-25T14:34:53Z</time>
      </trkpt>
      <trkpt lat="48.55504" lon="2.1016">
        <ele>167</ele>
        <time>2022-12-25T14:34:55Z</time>
      </trkpt>
      <trkpt lat="48.55504" lon="2.10164">
        <ele>167</ele>
        <time>2022-12-25T14:34:57Z</time>
      </trkpt>
      <trkpt lat="48.55505" lon="2.10168">
        <ele>167</ele>
        <time>2022-12-25T14:34:59Z</time>
      </trkpt>
      <trkpt lat="48.55507" lon="2.10172">
        <ele>167</ele>
        <time>2022-12-25T14:35:01Z</time>
      </trkpt>
      <trkpt lat="48.55508" lon="2.10176">
        <ele>167</ele>
        <time>2022-12-25T14:35:03Z</time>
      </trkpt>
      <trkpt lat="48.5551" lon="2.10179">
        <ele>166</ele>
        <time>2022-12-25T14:35:05Z</time>
      </trkpt>
      <trkpt lat="48.55511" lon="2.10183">
        <ele>166</ele>
        <time>2022-12-25T14:35:07Z</time>
      </trkpt>
      <trkpt lat="48.55511" lon="2.10187">
        <ele>166</ele>
        <time>2022-12-25T14:35:09Z</time>
      </trkpt>
      <trkpt lat="48.55511" lon="2.10191">
        <ele>166</ele>
        <time>2022-12-25T14:35:11Z</time>
      </trkpt>
      <trkpt lat="48.55511" lon="2.10195">
        <ele>166</ele>
        <time>2022-12-25T14:35:13Z</time>
      </trkpt>
      <trkpt lat="48.55511" lon="2.102">
        <ele>166</ele>
        <time>2022-12-25T14:35:15Z</time>
      </trkpt>
      <trkpt lat="48.55512" lon="2.10204">
        <ele>166</ele>
        <time>2022-12-25T14:35:18Z</time>
      </trkpt>
      <trkpt lat="48.55513" lon="2.10209">
        <ele>166</ele>
        <time>2022-12-25T14:35:19Z</time>
      </trkpt>
      <trkpt lat="48.55514" lon="2.10214">
        <ele>166</ele>
        <time>2022-12-25T14:35:21Z</time>
      </trkpt>
      <trkpt lat="48.55515" lon="2.10219">
        <ele>166</ele>
        <time>2022-12-25T14:35:23Z</time>
      </trkpt>
      <trkpt lat="48.55516" lon="2.10224">
        <ele>166</ele>
        <time>2022-12-25T14:35:25Z</time>
      </trkpt>
      <trkpt lat="48.55516" lon="2.10227">
        <ele>166</ele>
        <time>2022-12-25T14:35:26Z</time>
      </trkpt>
      <trkpt lat="48.55517" lon="2.10231">
        <ele>166</ele>
        <time>2022-12-25T14:35:28Z</time>
      </trkpt>
      <trkpt lat="48.55518" lon="2.10236">
        <ele>166</ele>
        <time>2022-12-25T14:35:30Z</time>
      </trkpt>
      <trkpt lat="48.55519" lon="2.1024">
        <ele>166</ele>
        <time>2022-12-25T14:35:32Z</time>
      </trkpt>
      <trkpt lat="48.55519" lon="2.10243">
        <ele>166</ele>
        <time>2022-12-25T14:35:34Z</time>
      </trkpt>
      <trkpt lat="48.55521" lon="2.10248">
        <ele>166</ele>
        <time>2022-12-25T14:35:37Z</time>
      </trkpt>
      <trkpt lat="48.55522" lon="2.10252">
        <ele>166</ele>
        <time>2022-12-25T14:35:38Z</time>
      </trkpt>
      <trkpt lat="48.55523" lon="2.10256">
        <ele>166</ele>
        <time>2022-12-25T14:35:40Z</time>
      </trkpt>
      <trkpt lat="48.55523" lon="2.10259">
        <ele>166</ele>
        <time>2022-12-25T14:35:41Z</time>
      </trkpt>
      <trkpt lat="48.55524" lon="2.10264">
        <ele>166</ele>
        <time>2022-12-25T14:35:43Z</time>
      </trkpt>
      <trkpt lat="48.55525" lon="2.10269">
        <ele>166</ele>
        <time>2022-12-25T14:35:45Z</time>
      </trkpt>
      <trkpt lat="48.55527" lon="2.10273">
        <ele>166</ele>
        <time>2022-12-25T14:35:47Z</time>
      </trkpt>
      <trkpt lat="48.55528" lon="2.10277">
        <ele>166</ele>
        <time>2022-12-25T14:35:49Z</time>
      </trkpt>
      <trkpt lat="48.55529" lon="2.10281">
        <ele>166</ele>
        <time>2022-12-25T14:35:51Z</time>
      </trkpt>
      <trkpt lat="48.55531" lon="2.10285">
        <ele>166</ele>
        <time>2022-12-25T14:35:53Z</time>
      </trkpt>
      <trkpt lat="48.55531" lon="2.10289">
        <ele>166</ele>
        <time>2022-12-25T14:35:56Z</time>
      </trkpt>
      <trkpt lat="48.55532" lon="2.10293">
        <ele>166</ele>
        <time>2022-12-25T14:35:57Z</time>
      </trkpt>
      <trkpt lat="48.55533" lon="2.10298">
        <ele>165</ele>
        <time>2022-12-25T14:35:59Z</time>
      </trkpt>
      <trkpt lat="48.55534" lon="2.10302">
        <ele>165</ele>
        <time>2022-12-25T14:36:01Z</time>
      </trkpt>
      <trkpt lat="48.55534" lon="2.10305">
        <ele>165</ele>
        <time>2022-12-25T14:36:03Z</time>
      </trkpt>
      <trkpt lat="48.55532" lon="2.10306">
        <ele>165</ele>
        <time>2022-12-25T14:36:04Z</time>
      </trkpt>
      <trkpt lat="48.55529" lon="2.10308">
        <ele>164</ele>
        <time>2022-12-25T14:36:06Z</time>
      </trkpt>
      <trkpt lat="48.55527" lon="2.10311">
        <ele>164</ele>
        <time>2022-12-25T14:36:10Z</time>
      </trkpt>
      <trkpt lat="48.55528" lon="2.10315">
        <ele>164</ele>
        <time>2022-12-25T14:36:12Z</time>
      </trkpt>
      <trkpt lat="48.5553" lon="2.10318">
        <ele>163</ele>
        <time>2022-12-25T14:36:15Z</time>
      </trkpt>
      <trkpt lat="48.55533" lon="2.1032">
        <ele>163</ele>
        <time>2022-12-25T14:36:16Z</time>
      </trkpt>
      <trkpt lat="48.55536" lon="2.10323">
        <ele>163</ele>
        <time>2022-12-25T14:36:18Z</time>
      </trkpt>
      <trkpt lat="48.55537" lon="2.10326">
        <ele>162</ele>
        <time>2022-12-25T14:36:20Z</time>
      </trkpt>
      <trkpt lat="48.55539" lon="2.1033">
        <ele>162</ele>
        <time>2022-12-25T14:36:22Z</time>
      </trkpt>
      <trkpt lat="48.5554" lon="2.10333">
        <ele>163</ele>
        <time>2022-12-25T14:36:24Z</time>
      </trkpt>
      <trkpt lat="48.55542" lon="2.10337">
        <ele>163</ele>
        <time>2022-12-25T14:36:26Z</time>
      </trkpt>
      <trkpt lat="48.55543" lon="2.10341">
        <ele>163</ele>
        <time>2022-12-25T14:36:28Z</time>
      </trkpt>
      <trkpt lat="48.55544" lon="2.10345">
        <ele>163</ele>
        <time>2022-12-25T14:36:30Z</time>
      </trkpt>
      <trkpt lat="48.55545" lon="2.10349">
        <ele>163</ele>
        <time>2022-12-25T14:36:32Z</time>
      </trkpt>
      <trkpt lat="48.55546" lon="2.10354">
        <ele>163</ele>
        <time>2022-12-25T14:36:34Z</time>
      </trkpt>
      <trkpt lat="48.55547" lon="2.10356">
        <ele>163</ele>
        <time>2022-12-25T14:36:35Z</time>
      </trkpt>
      <trkpt lat="48.55549" lon="2.1036">
        <ele>163</ele>
        <time>2022-12-25T14:36:37Z</time>
      </trkpt>
      <trkpt lat="48.5555" lon="2.10363">
        <ele>163</ele>
        <time>2022-12-25T14:36:39Z</time>
      </trkpt>
      <trkpt lat="48.55551" lon="2.10367">
        <ele>163</ele>
        <time>2022-12-25T14:36:41Z</time>
      </trkpt>
      <trkpt lat="48.55553" lon="2.1037">
        <ele>163</ele>
        <time>2022-12-25T14:36:43Z</time>
      </trkpt>
      <trkpt lat="48.55554" lon="2.10374">
        <ele>163</ele>
        <time>2022-12-25T14:36:45Z</time>
      </trkpt>
      <trkpt lat="48.55555" lon="2.10377">
        <ele>164</ele>
        <time>2022-12-25T14:36:47Z</time>
      </trkpt>
      <trkpt lat="48.55557" lon="2.1038">
        <ele>164</ele>
        <time>2022-12-25T14:36:49Z</time>
      </trkpt>
      <trkpt lat="48.55558" lon="2.10384">
        <ele>163</ele>
        <time>2022-12-25T14:36:51Z</time>
      </trkpt>
      <trkpt lat="48.5556" lon="2.10387">
        <ele>163</ele>
        <time>2022-12-25T14:36:53Z</time>
      </trkpt>
      <trkpt lat="48.55561" lon="2.1039">
        <ele>163</ele>
        <time>2022-12-25T14:36:55Z</time>
      </trkpt>
      <trkpt lat="48.55563" lon="2.10394">
        <ele>163</ele>
        <time>2022-12-25T14:36:57Z</time>
      </trkpt>
      <trkpt lat="48.55565" lon="2.10397">
        <ele>163</ele>
        <time>2022-12-25T14:36:59Z</time>
      </trkpt>
      <trkpt lat="48.55567" lon="2.104">
        <ele>163</ele>
        <time>2022-12-25T14:37:01Z</time>
      </trkpt>
      <trkpt lat="48.55567" lon="2.10403">
        <ele>163</ele>
        <time>2022-12-25T14:37:03Z</time>
      </trkpt>
      <trkpt lat="48.55568" lon="2.10406">
        <ele>163</ele>
        <time>2022-12-25T14:37:05Z</time>
      </trkpt>
      <trkpt lat="48.55569" lon="2.10411">
        <ele>163</ele>
        <time>2022-12-25T14:37:07Z</time>
      </trkpt>
      <trkpt lat="48.5557" lon="2.10415">
        <ele>163</ele>
        <time>2022-12-25T14:37:09Z</time>
      </trkpt>
      <trkpt lat="48.55572" lon="2.10419">
        <ele>163</ele>
        <time>2022-12-25T14:37:12Z</time>
      </trkpt>
      <trkpt lat="48.55574" lon="2.10423">
        <ele>163</ele>
        <time>2022-12-25T14:37:13Z</time>
      </trkpt>
      <trkpt lat="48.55575" lon="2.10426">
        <ele>163</ele>
        <time>2022-12-25T14:37:15Z</time>
      </trkpt>
      <trkpt lat="48.55576" lon="2.1043">
        <ele>162</ele>
        <time>2022-12-25T14:37:17Z</time>
      </trkpt>
      <trkpt lat="48.55578" lon="2.10433">
        <ele>162</ele>
        <time>2022-12-25T14:37:19Z</time>
      </trkpt>
      <trkpt lat="48.5558" lon="2.10437">
        <ele>162</ele>
        <time>2022-12-25T14:37:21Z</time>
      </trkpt>
      <trkpt lat="48.55581" lon="2.1044">
        <ele>162</ele>
        <time>2022-12-25T14:37:23Z</time>
      </trkpt>
      <trkpt lat="48.55583" lon="2.10443">
        <ele>162</ele>
        <time>2022-12-25T14:37:25Z</time>
      </trkpt>
      <trkpt lat="48.55584" lon="2.10447">
        <ele>162</ele>
        <time>2022-12-25T14:37:27Z</time>
      </trkpt>
      <trkpt lat="48.55585" lon="2.10451">
        <ele>162</ele>
        <time>2022-12-25T14:37:29Z</time>
      </trkpt>
      <trkpt lat="48.55586" lon="2.10455">
        <ele>162</ele>
        <time>2022-12-25T14:37:31Z</time>
      </trkpt>
      <trkpt lat="48.55588" lon="2.10459">
        <ele>162</ele>
        <time>2022-12-25T14:37:33Z</time>
      </trkpt>
      <trkpt lat="48.5559" lon="2.10462">
        <ele>162</ele>
        <time>2022-12-25T14:37:35Z</time>
      </trkpt>
      <trkpt lat="48.55591" lon="2.10466">
        <ele>162</ele>
        <time>2022-12-25T14:37:37Z</time>
      </trkpt>
      <trkpt lat="48.55592" lon="2.10469">
        <ele>161</ele>
        <time>2022-12-25T14:37:38Z</time>
      </trkpt>
      <trkpt lat="48.55593" lon="2.10471">
        <ele>161</ele>
        <time>2022-12-25T14:37:39Z</time>
      </trkpt>
      <trkpt lat="48.55594" lon="2.10475">
        <ele>161</ele>
        <time>2022-12-25T14:37:40Z</time>
      </trkpt>
      <trkpt lat="48.55596" lon="2.10479">
        <ele>161</ele>
        <time>2022-12-25T14:37:41Z</time>
      </trkpt>
      <trkpt lat="48.55597" lon="2.10483">
        <ele>161</ele>
        <time>2022-12-25T14:37:42Z</time>
      </trkpt>
      <trkpt lat="48.55599" lon="2.10488">
        <ele>161</ele>
        <time>2022-12-25T14:37:43Z</time>
      </trkpt>
      <trkpt lat="48.55601" lon="2.10492">
        <ele>161</ele>
        <time>2022-12-25T14:37:44Z</time>
      </trkpt>
      <trkpt lat="48.55604" lon="2.10496">
        <ele>161</ele>
        <time>2022-12-25T14:37:45Z</time>
      </trkpt>
      <trkpt lat="48.55608" lon="2.10505">
        <ele>161</ele>
        <time>2022-12-25T14:37:47Z</time>
      </trkpt>
      <trkpt lat="48.5561" lon="2.1051">
        <ele>162</ele>
        <time>2022-12-25T14:37:48Z</time>
      </trkpt>
      <trkpt lat="48.55613" lon="2.1052">
        <ele>162</ele>
        <time>2022-12-25T14:37:50Z</time>
      </trkpt>
      <trkpt lat="48.55614" lon="2.10525">
        <ele>162</ele>
        <time>2022-12-25T14:37:51Z</time>
      </trkpt>
      <trkpt lat="48.55614" lon="2.10531">
        <ele>162</ele>
        <time>2022-12-25T14:37:52Z</time>
      </trkpt>
      <trkpt lat="48.55615" lon="2.10537">
        <ele>162</ele>
        <time>2022-12-25T14:37:53Z</time>
      </trkpt>
      <trkpt lat="48.55616" lon="2.10542">
        <ele>162</ele>
        <time>2022-12-25T14:37:54Z</time>
      </trkpt>
      <trkpt lat="48.55617" lon="2.10548">
        <ele>162</ele>
        <time>2022-12-25T14:37:55Z</time>
      </trkpt>
      <trkpt lat="48.55618" lon="2.10552">
        <ele>162</ele>
        <time>2022-12-25T14:37:56Z</time>
      </trkpt>
      <trkpt lat="48.55619" lon="2.10557">
        <ele>162</ele>
        <time>2022-12-25T14:37:57Z</time>
      </trkpt>
      <trkpt lat="48.55621" lon="2.10561">
        <ele>162</ele>
        <time>2022-12-25T14:37:58Z</time>
      </trkpt>
      <trkpt lat="48.55623" lon="2.10567">
        <ele>162</ele>
        <time>2022-12-25T14:37:59Z</time>
      </trkpt>
      <trkpt lat="48.55629" lon="2.10577">
        <ele>162</ele>
        <time>2022-12-25T14:38:01Z</time>
      </trkpt>
      <trkpt lat="48.55631" lon="2.10582">
        <ele>162</ele>
        <time>2022-12-25T14:38:02Z</time>
      </trkpt>
      <trkpt lat="48.55633" lon="2.10586">
        <ele>162</ele>
        <time>2022-12-25T14:38:03Z</time>
      </trkpt>
      <trkpt lat="48.55635" lon="2.10591">
        <ele>162</ele>
        <time>2022-12-25T14:38:04Z</time>
      </trkpt>
      <trkpt lat="48.55637" lon="2.10595">
        <ele>162</ele>
        <time>2022-12-25T14:38:05Z</time>
      </trkpt>
      <trkpt lat="48.55639" lon="2.106">
        <ele>162</ele>
        <time>2022-12-25T14:38:06Z</time>
      </trkpt>
      <trkpt lat="48.55641" lon="2.10605">
        <ele>162</ele>
        <time>2022-12-25T14:38:07Z</time>
      </trkpt>
      <trkpt lat="48.55645" lon="2.10615">
        <ele>162</ele>
        <time>2022-12-25T14:38:09Z</time>
      </trkpt>
      <trkpt lat="48.55646" lon="2.10619">
        <ele>162</ele>
        <time>2022-12-25T14:38:10Z</time>
      </trkpt>
      <trkpt lat="48.55648" lon="2.10624">
        <ele>162</ele>
        <time>2022-12-25T14:38:11Z</time>
      </trkpt>
      <trkpt lat="48.55653" lon="2.10636">
        <ele>162</ele>
        <time>2022-12-25T14:38:13Z</time>
      </trkpt>
      <trkpt lat="48.55659" lon="2.10649">
        <ele>162</ele>
        <time>2022-12-25T14:38:15Z</time>
      </trkpt>
      <trkpt lat="48.55664" lon="2.10661">
        <ele>162</ele>
        <time>2022-12-25T14:38:17Z</time>
      </trkpt>
      <trkpt lat="48.55669" lon="2.10672">
        <ele>162</ele>
        <time>2022-12-25T14:38:19Z</time>
      </trkpt>
      <trkpt lat="48.55676" lon="2.10685">
        <ele>162</ele>
        <time>2022-12-25T14:38:21Z</time>
      </trkpt>
      <trkpt lat="48.55681" lon="2.10699">
        <ele>162</ele>
        <time>2022-12-25T14:38:23Z</time>
      </trkpt>
      <trkpt lat="48.55686" lon="2.10712">
        <ele>162</ele>
        <time>2022-12-25T14:38:25Z</time>
      </trkpt>
      <trkpt lat="48.55692" lon="2.10728">
        <ele>162</ele>
        <time>2022-12-25T14:38:28Z</time>
      </trkpt>
      <trkpt lat="48.55695" lon="2.10742">
        <ele>162</ele>
        <time>2022-12-25T14:38:29Z</time>
      </trkpt>
      <trkpt lat="48.55698" lon="2.10755">
        <ele>162</ele>
        <time>2022-12-25T14:38:31Z</time>
      </trkpt>
      <trkpt lat="48.55701" lon="2.10769">
        <ele>162</ele>
        <time>2022-12-25T14:38:33Z</time>
      </trkpt>
      <trkpt lat="48.55705" lon="2.10782">
        <ele>162</ele>
        <time>2022-12-25T14:38:35Z</time>
      </trkpt>
      <trkpt lat="48.55709" lon="2.10796">
        <ele>163</ele>
        <time>2022-12-25T14:38:37Z</time>
      </trkpt>
      <trkpt lat="48.55713" lon="2.10809">
        <ele>163</ele>
        <time>2022-12-25T14:38:39Z</time>
      </trkpt>
      <trkpt lat="48.55718" lon="2.10824">
        <ele>163</ele>
        <time>2022-12-25T14:38:41Z</time>
      </trkpt>
      <trkpt lat="48.55723" lon="2.10836">
        <ele>162</ele>
        <time>2022-12-25T14:38:43Z</time>
      </trkpt>
      <trkpt lat="48.55729" lon="2.10849">
        <ele>162</ele>
        <time>2022-12-25T14:38:45Z</time>
      </trkpt>
      <trkpt lat="48.55735" lon="2.10861">
        <ele>162</ele>
        <time>2022-12-25T14:38:47Z</time>
      </trkpt>
      <trkpt lat="48.55741" lon="2.10873">
        <ele>161</ele>
        <time>2022-12-25T14:38:49Z</time>
      </trkpt>
      <trkpt lat="48.55747" lon="2.10886">
        <ele>161</ele>
        <time>2022-12-25T14:38:51Z</time>
      </trkpt>
      <trkpt lat="48.55753" lon="2.10901">
        <ele>161</ele>
        <time>2022-12-25T14:38:53Z</time>
      </trkpt>
      <trkpt lat="48.55759" lon="2.10913">
        <ele>161</ele>
        <time>2022-12-25T14:38:55Z</time>
      </trkpt>
      <trkpt lat="48.55766" lon="2.1093">
        <ele>161</ele>
        <time>2022-12-25T14:38:58Z</time>
      </trkpt>
      <trkpt lat="48.55771" lon="2.10943">
        <ele>161</ele>
        <time>2022-12-25T14:39:00Z</time>
      </trkpt>
      <trkpt lat="48.55776" lon="2.10955">
        <ele>161</ele>
        <time>2022-12-25T14:39:02Z</time>
      </trkpt>
      <trkpt lat="48.55781" lon="2.10966">
        <ele>161</ele>
        <time>2022-12-25T14:39:04Z</time>
      </trkpt>
      <trkpt lat="48.55786" lon="2.10978">
        <ele>161</ele>
        <time>2022-12-25T14:39:06Z</time>
      </trkpt>
      <trkpt lat="48.55792" lon="2.10991">
        <ele>161</ele>
        <time>2022-12-25T14:39:08Z</time>
      </trkpt>
      <trkpt lat="48.55798" lon="2.11005">
        <ele>161</ele>
        <time>2022-12-25T14:39:10Z</time>
      </trkpt>
      <trkpt lat="48.55803" lon="2.11019">
        <ele>161</ele>
        <time>2022-12-25T14:39:12Z</time>
      </trkpt>
      <trkpt lat="48.55809" lon="2.11035">
        <ele>161</ele>
        <time>2022-12-25T14:39:14Z</time>
      </trkpt>
      <trkpt lat="48.55816" lon="2.11049">
        <ele>160</ele>
        <time>2022-12-25T14:39:16Z</time>
      </trkpt>
      <trkpt lat="48.55823" lon="2.11062">
        <ele>160</ele>
        <time>2022-12-25T14:39:18Z</time>
      </trkpt>
      <trkpt lat="48.55829" lon="2.11073">
        <ele>160</ele>
        <time>2022-12-25T14:39:20Z</time>
      </trkpt>
      <trkpt lat="48.55837" lon="2.11084">
        <ele>160</ele>
        <time>2022-12-25T14:39:22Z</time>
      </trkpt>
      <trkpt lat="48.55845" lon="2.11097">
        <ele>160</ele>
        <time>2022-12-25T14:39:25Z</time>
      </trkpt>
      <trkpt lat="48.55852" lon="2.11109">
        <ele>160</ele>
        <time>2022-12-25T14:39:26Z</time>
      </trkpt>
      <trkpt lat="48.55859" lon="2.11122">
        <ele>160</ele>
        <time>2022-12-25T14:39:28Z</time>
      </trkpt>
      <trkpt lat="48.55864" lon="2.11135">
        <ele>160</ele>
        <time>2022-12-25T14:39:30Z</time>
      </trkpt>
      <trkpt lat="48.5587" lon="2.11151">
        <ele>161</ele>
        <time>2022-12-25T14:39:33Z</time>
      </trkpt>
      <trkpt lat="48.55875" lon="2.11162">
        <ele>161</ele>
        <time>2022-12-25T14:39:37Z</time>
      </trkpt>
      <trkpt lat="48.55877" lon="2.11167">
        <ele>160</ele>
        <time>2022-12-25T14:39:39Z</time>
      </trkpt>
      <trkpt lat="48.55879" lon="2.11169">
        <ele>160</ele>
        <time>2022-12-25T14:39:40Z</time>
      </trkpt>
      <trkpt lat="48.55882" lon="2.11173">
        <ele>160</ele>
        <time>2022-12-25T14:39:42Z</time>
      </trkpt>
      <trkpt lat="48.55885" lon="2.11178">
        <ele>160</ele>
        <time>2022-12-25T14:39:44Z</time>
      </trkpt>
      <trkpt lat="48.55887" lon="2.1118">
        <ele>160</ele>
        <time>2022-12-25T14:39:45Z</time>
      </trkpt>
      <trkpt lat="48.55888" lon="2.11181">
        <ele>160</ele>
        <time>2022-12-25T14:39:46Z</time>
      </trkpt>
      <trkpt lat="48.55892" lon="2.11185">
        <ele>160</ele>
        <time>2022-12-25T14:39:48Z</time>
      </trkpt>
      <trkpt lat="48.55893" lon="2.11186">
        <ele>159</ele>
        <time>2022-12-25T14:39:49Z</time>
      </trkpt>
      <trkpt lat="48.55895" lon="2.11188">
        <ele>159</ele>
        <time>2022-12-25T14:39:50Z</time>
      </trkpt>
      <trkpt lat="48.55899" lon="2.11191">
        <ele>159</ele>
        <time>2022-12-25T14:39:52Z</time>
      </trkpt>
      <trkpt lat="48.55901" lon="2.11193">
        <ele>159</ele>
        <time>2022-12-25T14:39:53Z</time>
      </trkpt>
      <trkpt lat="48.55902" lon="2.11195">
        <ele>159</ele>
        <time>2022-12-25T14:39:54Z</time>
      </trkpt>
      <trkpt lat="48.55904" lon="2.11197">
        <ele>159</ele>
        <time>2022-12-25T14:39:55Z</time>
      </trkpt>
      <trkpt lat="48.55906" lon="2.11198">
        <ele>159</ele>
        <time>2022-12-25T14:39:56Z</time>
      </trkpt>
      <trkpt lat="48.55908" lon="2.11201">
        <ele>159</ele>
        <time>2022-12-25T14:39:58Z</time>
      </trkpt>
      <trkpt lat="48.5591" lon="2.11204">
        <ele>160</ele>
        <time>2022-12-25T14:40:00Z</time>
      </trkpt>
      <trkpt lat="48.55912" lon="2.11205">
        <ele>160</ele>
        <time>2022-12-25T14:40:01Z</time>
      </trkpt>
      <trkpt lat="48.55916" lon="2.11208">
        <ele>160</ele>
        <time>2022-12-25T14:40:03Z</time>
      </trkpt>
      <trkpt lat="48.55918" lon="2.1121">
        <ele>160</ele>
        <time>2022-12-25T14:40:07Z</time>
      </trkpt>
      <trkpt lat="48.55919" lon="2.11213">
        <ele>160</ele>
        <time>2022-12-25T14:40:09Z</time>
      </trkpt>
      <trkpt lat="48.55922" lon="2.11216">
        <ele>160</ele>
        <time>2022-12-25T14:40:11Z</time>
      </trkpt>
      <trkpt lat="48.55923" lon="2.11218">
        <ele>160</ele>
        <time>2022-12-25T14:40:12Z</time>
      </trkpt>
      <trkpt lat="48.55924" lon="2.11221">
        <ele>160</ele>
        <time>2022-12-25T14:40:13Z</time>
      </trkpt>
      <trkpt lat="48.55925" lon="2.11223">
        <ele>159</ele>
        <time>2022-12-25T14:40:14Z</time>
      </trkpt>
      <trkpt lat="48.55927" lon="2.11226">
        <ele>159</ele>
        <time>2022-12-25T14:40:15Z</time>
      </trkpt>
      <trkpt lat="48.55928" lon="2.11228">
        <ele>159</ele>
        <time>2022-12-25T14:40:16Z</time>
      </trkpt>
      <trkpt lat="48.5593" lon="2.11231">
        <ele>159</ele>
        <time>2022-12-25T14:40:17Z</time>
      </trkpt>
      <trkpt lat="48.55932" lon="2.11234">
        <ele>159</ele>
        <time>2022-12-25T14:40:18Z</time>
      </trkpt>
      <trkpt lat="48.55934" lon="2.11237">
        <ele>159</ele>
        <time>2022-12-25T14:40:19Z</time>
      </trkpt>
      <trkpt lat="48.55935" lon="2.11239">
        <ele>159</ele>
        <time>2022-12-25T14:40:21Z</time>
      </trkpt>
      <trkpt lat="48.55939" lon="2.11243">
        <ele>158</ele>
        <time>2022-12-25T14:40:22Z</time>
      </trkpt>
      <trkpt lat="48.5594" lon="2.11246">
        <ele>158</ele>
        <time>2022-12-25T14:40:23Z</time>
      </trkpt>
      <trkpt lat="48.55942" lon="2.11248">
        <ele>158</ele>
        <time>2022-12-25T14:40:24Z</time>
      </trkpt>
      <trkpt lat="48.55943" lon="2.1125">
        <ele>158</ele>
        <time>2022-12-25T14:40:25Z</time>
      </trkpt>
      <trkpt lat="48.55945" lon="2.11253">
        <ele>158</ele>
        <time>2022-12-25T14:40:26Z</time>
      </trkpt>
      <trkpt lat="48.55946" lon="2.11255">
        <ele>158</ele>
        <time>2022-12-25T14:40:27Z</time>
      </trkpt>
      <trkpt lat="48.55948" lon="2.11257">
        <ele>158</ele>
        <time>2022-12-25T14:40:28Z</time>
      </trkpt>
      <trkpt lat="48.55951" lon="2.11259">
        <ele>157</ele>
        <time>2022-12-25T14:40:30Z</time>
      </trkpt>
      <trkpt lat="48.55954" lon="2.11263">
        <ele>157</ele>
        <time>2022-12-25T14:40:32Z</time>
      </trkpt>
      <trkpt lat="48.55956" lon="2.11264">
        <ele>157</ele>
        <time>2022-12-25T14:40:33Z</time>
      </trkpt>
      <trkpt lat="48.55959" lon="2.11267">
        <ele>156</ele>
        <time>2022-12-25T14:40:35Z</time>
      </trkpt>
      <trkpt lat="48.5596" lon="2.11269">
        <ele>156</ele>
        <time>2022-12-25T14:40:36Z</time>
      </trkpt>
      <trkpt lat="48.55962" lon="2.11271">
        <ele>155</ele>
        <time>2022-12-25T14:40:37Z</time>
      </trkpt>
      <trkpt lat="48.55964" lon="2.11275">
        <ele>155</ele>
        <time>2022-12-25T14:40:39Z</time>
      </trkpt>
      <trkpt lat="48.55966" lon="2.11278">
        <ele>155</ele>
        <time>2022-12-25T14:40:41Z</time>
      </trkpt>
      <trkpt lat="48.55968" lon="2.11282">
        <ele>155</ele>
        <time>2022-12-25T14:40:43Z</time>
      </trkpt>
      <trkpt lat="48.5597" lon="2.11286">
        <ele>154</ele>
        <time>2022-12-25T14:40:45Z</time>
      </trkpt>
      <trkpt lat="48.55973" lon="2.1129">
        <ele>154</ele>
        <time>2022-12-25T14:40:47Z</time>
      </trkpt>
      <trkpt lat="48.55975" lon="2.11292">
        <ele>154</ele>
        <time>2022-12-25T14:40:49Z</time>
      </trkpt>
      <trkpt lat="48.55978" lon="2.11294">
        <ele>153</ele>
        <time>2022-12-25T14:40:51Z</time>
      </trkpt>
      <trkpt lat="48.55982" lon="2.11296">
        <ele>153</ele>
        <time>2022-12-25T14:40:53Z</time>
      </trkpt>
      <trkpt lat="48.55983" lon="2.11298">
        <ele>152</ele>
        <time>2022-12-25T14:40:54Z</time>
      </trkpt>
      <trkpt lat="48.55985" lon="2.11301">
        <ele>152</ele>
        <time>2022-12-25T14:40:55Z</time>
      </trkpt>
      <trkpt lat="48.55985" lon="2.11303">
        <ele>151</ele>
        <time>2022-12-25T14:40:56Z</time>
      </trkpt>
      <trkpt lat="48.55987" lon="2.11306">
        <ele>150</ele>
        <time>2022-12-25T14:40:57Z</time>
      </trkpt>
      <trkpt lat="48.55988" lon="2.11307">
        <ele>149</ele>
        <time>2022-12-25T14:40:59Z</time>
      </trkpt>
      <trkpt lat="48.55989" lon="2.11309">
        <ele>148</ele>
        <time>2022-12-25T14:41:00Z</time>
      </trkpt>
      <trkpt lat="48.55993" lon="2.1131">
        <ele>147</ele>
        <time>2022-12-25T14:41:01Z</time>
      </trkpt>
      <trkpt lat="48.55995" lon="2.11309">
        <ele>147</ele>
        <time>2022-12-25T14:41:03Z</time>
      </trkpt>
      <trkpt lat="48.55996" lon="2.11307">
        <ele>146</ele>
        <time>2022-12-25T14:41:05Z</time>
      </trkpt>
      <trkpt lat="48.55998" lon="2.11305">
        <ele>146</ele>
        <time>2022-12-25T14:41:07Z</time>
      </trkpt>
      <trkpt lat="48.55999" lon="2.11303">
        <ele>146</ele>
        <time>2022-12-25T14:41:10Z</time>
      </trkpt>
      <trkpt lat="48.56002" lon="2.11301">
        <ele>146</ele>
        <time>2022-12-25T14:41:12Z</time>
      </trkpt>
      <trkpt lat="48.56003" lon="2.11299">
        <ele>146</ele>
        <time>2022-12-25T14:41:13Z</time>
      </trkpt>
      <trkpt lat="48.56006" lon="2.11296">
        <ele>146</ele>
        <time>2022-12-25T14:41:15Z</time>
      </trkpt>
      <trkpt lat="48.56009" lon="2.11294">
        <ele>145</ele>
        <time>2022-12-25T14:41:17Z</time>
      </trkpt>
      <trkpt lat="48.5601" lon="2.11292">
        <ele>145</ele>
        <time>2022-12-25T14:41:19Z</time>
      </trkpt>
      <trkpt lat="48.56012" lon="2.1129">
        <ele>145</ele>
        <time>2022-12-25T14:41:21Z</time>
      </trkpt>
      <trkpt lat="48.56014" lon="2.11287">
        <ele>145</ele>
        <time>2022-12-25T14:41:23Z</time>
      </trkpt>
      <trkpt lat="48.56015" lon="2.11286">
        <ele>145</ele>
        <time>2022-12-25T14:41:24Z</time>
      </trkpt>
      <trkpt lat="48.56018" lon="2.11283">
        <ele>145</ele>
        <time>2022-12-25T14:41:26Z</time>
      </trkpt>
      <trkpt lat="48.56019" lon="2.1128">
        <ele>145</ele>
        <time>2022-12-25T14:41:28Z</time>
      </trkpt>
      <trkpt lat="48.56021" lon="2.11278">
        <ele>145</ele>
        <time>2022-12-25T14:41:30Z</time>
      </trkpt>
      <trkpt lat="48.56023" lon="2.11275">
        <ele>145</ele>
        <time>2022-12-25T14:41:32Z</time>
      </trkpt>
      <trkpt lat="48.56025" lon="2.11273">
        <ele>145</ele>
        <time>2022-12-25T14:41:33Z</time>
      </trkpt>
      <trkpt lat="48.56028" lon="2.11271">
        <ele>145</ele>
        <time>2022-12-25T14:41:35Z</time>
      </trkpt>
      <trkpt lat="48.56031" lon="2.11267">
        <ele>145</ele>
        <time>2022-12-25T14:41:38Z</time>
      </trkpt>
      <trkpt lat="48.56034" lon="2.11264">
        <ele>145</ele>
        <time>2022-12-25T14:41:39Z</time>
      </trkpt>
      <trkpt lat="48.56036" lon="2.11263">
        <ele>145</ele>
        <time>2022-12-25T14:41:40Z</time>
      </trkpt>
      <trkpt lat="48.56038" lon="2.11259">
        <ele>144</ele>
        <time>2022-12-25T14:41:42Z</time>
      </trkpt>
      <trkpt lat="48.56041" lon="2.11255">
        <ele>144</ele>
        <time>2022-12-25T14:41:44Z</time>
      </trkpt>
      <trkpt lat="48.56043" lon="2.11253">
        <ele>144</ele>
        <time>2022-12-25T14:41:46Z</time>
      </trkpt>
      <trkpt lat="48.56045" lon="2.11251">
        <ele>144</ele>
        <time>2022-12-25T14:41:47Z</time>
      </trkpt>
      <trkpt lat="48.56046" lon="2.11249">
        <ele>144</ele>
        <time>2022-12-25T14:41:48Z</time>
      </trkpt>
      <trkpt lat="48.56049" lon="2.11247">
        <ele>144</ele>
        <time>2022-12-25T14:41:49Z</time>
      </trkpt>
      <trkpt lat="48.56052" lon="2.11243">
        <ele>144</ele>
        <time>2022-12-25T14:41:51Z</time>
      </trkpt>
      <trkpt lat="48.56055" lon="2.11241">
        <ele>144</ele>
        <time>2022-12-25T14:41:53Z</time>
      </trkpt>
      <trkpt lat="48.56058" lon="2.11238">
        <ele>144</ele>
        <time>2022-12-25T14:41:55Z</time>
      </trkpt>
      <trkpt lat="48.56061" lon="2.11234">
        <ele>144</ele>
        <time>2022-12-25T14:41:57Z</time>
      </trkpt>
      <trkpt lat="48.56063" lon="2.11233">
        <ele>144</ele>
        <time>2022-12-25T14:41:58Z</time>
      </trkpt>
      <trkpt lat="48.56065" lon="2.11231">
        <ele>144</ele>
        <time>2022-12-25T14:41:59Z</time>
      </trkpt>
      <trkpt lat="48.56067" lon="2.11228">
        <ele>144</ele>
        <time>2022-12-25T14:42:01Z</time>
      </trkpt>
      <trkpt lat="48.5607" lon="2.11226">
        <ele>144</ele>
        <time>2022-12-25T14:42:03Z</time>
      </trkpt>
      <trkpt lat="48.56072" lon="2.11224">
        <ele>144</ele>
        <time>2022-12-25T14:42:04Z</time>
      </trkpt>
      <trkpt lat="48.56075" lon="2.11222">
        <ele>144</ele>
        <time>2022-12-25T14:42:06Z</time>
      </trkpt>
      <trkpt lat="48.56076" lon="2.11221">
        <ele>144</ele>
        <time>2022-12-25T14:42:07Z</time>
      </trkpt>
      <trkpt lat="48.56078" lon="2.1122">
        <ele>144</ele>
        <time>2022-12-25T14:42:08Z</time>
      </trkpt>
      <trkpt lat="48.56081" lon="2.1122">
        <ele>144</ele>
        <time>2022-12-25T14:42:10Z</time>
      </trkpt>
      <trkpt lat="48.56082" lon="2.11219">
        <ele>144</ele>
        <time>2022-12-25T14:42:11Z</time>
      </trkpt>
      <trkpt lat="48.56084" lon="2.11218">
        <ele>143</ele>
        <time>2022-12-25T14:42:12Z</time>
      </trkpt>
      <trkpt lat="48.56087" lon="2.11218">
        <ele>143</ele>
        <time>2022-12-25T14:42:13Z</time>
      </trkpt>
      <trkpt lat="48.56088" lon="2.11219">
        <ele>143</ele>
        <time>2022-12-25T14:42:14Z</time>
      </trkpt>
      <trkpt lat="48.56094" lon="2.11218">
        <ele>143</ele>
        <time>2022-12-25T14:42:16Z</time>
      </trkpt>
      <trkpt lat="48.56096" lon="2.11218">
        <ele>142</ele>
        <time>2022-12-25T14:42:18Z</time>
      </trkpt>
      <trkpt lat="48.56099" lon="2.11217">
        <ele>142</ele>
        <time>2022-12-25T14:42:19Z</time>
      </trkpt>
      <trkpt lat="48.56102" lon="2.11216">
        <ele>141</ele>
        <time>2022-12-25T14:42:21Z</time>
      </trkpt>
      <trkpt lat="48.56105" lon="2.11215">
        <ele>141</ele>
        <time>2022-12-25T14:42:23Z</time>
      </trkpt>
      <trkpt lat="48.56108" lon="2.11215">
        <ele>140</ele>
        <time>2022-12-25T14:42:25Z</time>
      </trkpt>
      <trkpt lat="48.56111" lon="2.11214">
        <ele>140</ele>
        <time>2022-12-25T14:42:27Z</time>
      </trkpt>
      <trkpt lat="48.56114" lon="2.11213">
        <ele>140</ele>
        <time>2022-12-25T14:42:29Z</time>
      </trkpt>
      <trkpt lat="48.56116" lon="2.11213">
        <ele>139</ele>
        <time>2022-12-25T14:42:31Z</time>
      </trkpt>
      <trkpt lat="48.56119" lon="2.11212">
        <ele>138</ele>
        <time>2022-12-25T14:42:33Z</time>
      </trkpt>
      <trkpt lat="48.56122" lon="2.11212">
        <ele>137</ele>
        <time>2022-12-25T14:42:35Z</time>
      </trkpt>
      <trkpt lat="48.56125" lon="2.11212">
        <ele>137</ele>
        <time>2022-12-25T14:42:37Z</time>
      </trkpt>
      <trkpt lat="48.56127" lon="2.11213">
        <ele>136</ele>
        <time>2022-12-25T14:42:39Z</time>
      </trkpt>
      <trkpt lat="48.5613" lon="2.11214">
        <ele>135</ele>
        <time>2022-12-25T14:42:41Z</time>
      </trkpt>
      <trkpt lat="48.56132" lon="2.11214">
        <ele>135</ele>
        <time>2022-12-25T14:42:42Z</time>
      </trkpt>
      <trkpt lat="48.56134" lon="2.11215">
        <ele>134</ele>
        <time>2022-12-25T14:42:44Z</time>
      </trkpt>
      <trkpt lat="48.56138" lon="2.11214">
        <ele>134</ele>
        <time>2022-12-25T14:42:46Z</time>
      </trkpt>
      <trkpt lat="48.5614" lon="2.11213">
        <ele>133</ele>
        <time>2022-12-25T14:42:47Z</time>
      </trkpt>
      <trkpt lat="48.56142" lon="2.11213">
        <ele>133</ele>
        <time>2022-12-25T14:42:48Z</time>
      </trkpt>
      <trkpt lat="48.56144" lon="2.11213">
        <ele>133</ele>
        <time>2022-12-25T14:42:49Z</time>
      </trkpt>
      <trkpt lat="48.56148" lon="2.11213">
        <ele>132</ele>
        <time>2022-12-25T14:42:51Z</time>
      </trkpt>
      <trkpt lat="48.56153" lon="2.11212">
        <ele>132</ele>
        <time>2022-12-25T14:42:54Z</time>
      </trkpt>
      <trkpt lat="48.56157" lon="2.11211">
        <ele>132</ele>
        <time>2022-12-25T14:42:56Z</time>
      </trkpt>
      <trkpt lat="48.5616" lon="2.11209">
        <ele>131</ele>
        <time>2022-12-25T14:42:58Z</time>
      </trkpt>
      <trkpt lat="48.56162" lon="2.11208">
        <ele>131</ele>
        <time>2022-12-25T14:42:59Z</time>
      </trkpt>
      <trkpt lat="48.56166" lon="2.11208">
        <ele>130</ele>
        <time>2022-12-25T14:43:01Z</time>
      </trkpt>
      <trkpt lat="48.56168" lon="2.11207">
        <ele>130</ele>
        <time>2022-12-25T14:43:02Z</time>
      </trkpt>
      <trkpt lat="48.56171" lon="2.11208">
        <ele>129</ele>
        <time>2022-12-25T14:43:04Z</time>
      </trkpt>
      <trkpt lat="48.56173" lon="2.11209">
        <ele>129</ele>
        <time>2022-12-25T14:43:05Z</time>
      </trkpt>
      <trkpt lat="48.56175" lon="2.1121">
        <ele>129</ele>
        <time>2022-12-25T14:43:06Z</time>
      </trkpt>
      <trkpt lat="48.56177" lon="2.1121">
        <ele>128</ele>
        <time>2022-12-25T14:43:07Z</time>
      </trkpt>
      <trkpt lat="48.5618" lon="2.11211">
        <ele>127</ele>
        <time>2022-12-25T14:43:09Z</time>
      </trkpt>
      <trkpt lat="48.56184" lon="2.11212">
        <ele>126</ele>
        <time>2022-12-25T14:43:11Z</time>
      </trkpt>
      <trkpt lat="48.56187" lon="2.11212">
        <ele>125</ele>
        <time>2022-12-25T14:43:13Z</time>
      </trkpt>
      <trkpt lat="48.5619" lon="2.11212">
        <ele>123</ele>
        <time>2022-12-25T14:43:15Z</time>
      </trkpt>
      <trkpt lat="48.56193" lon="2.11211">
        <ele>122</ele>
        <time>2022-12-25T14:43:17Z</time>
      </trkpt>
      <trkpt lat="48.56196" lon="2.1121">
        <ele>121</ele>
        <time>2022-12-25T14:43:19Z</time>
      </trkpt>
      <trkpt lat="48.56199" lon="2.11209">
        <ele>120</ele>
        <time>2022-12-25T14:43:21Z</time>
      </trkpt>
      <trkpt lat="48.56201" lon="2.11208">
        <ele>119</ele>
        <time>2022-12-25T14:43:23Z</time>
      </trkpt>
      <trkpt lat="48.56204" lon="2.11207">
        <ele>119</ele>
        <time>2022-12-25T14:43:25Z</time>
      </trkpt>
      <trkpt lat="48.56207" lon="2.11205">
        <ele>118</ele>
        <time>2022-12-25T14:43:27Z</time>
      </trkpt>
      <trkpt lat="48.56211" lon="2.11204">
        <ele>118</ele>
        <time>2022-12-25T14:43:29Z</time>
      </trkpt>
      <trkpt lat="48.56213" lon="2.11202">
        <ele>117</ele>
        <time>2022-12-25T14:43:32Z</time>
      </trkpt>
      <trkpt lat="48.56216" lon="2.112">
        <ele>116</ele>
        <time>2022-12-25T14:43:33Z</time>
      </trkpt>
      <trkpt lat="48.56219" lon="2.11198">
        <ele>115</ele>
        <time>2022-12-25T14:43:35Z</time>
      </trkpt>
      <trkpt lat="48.56221" lon="2.11197">
        <ele>114</ele>
        <time>2022-12-25T14:43:37Z</time>
      </trkpt>
      <trkpt lat="48.56224" lon="2.11195">
        <ele>114</ele>
        <time>2022-12-25T14:43:39Z</time>
      </trkpt>
      <trkpt lat="48.56227" lon="2.11193">
        <ele>113</ele>
        <time>2022-12-25T14:43:41Z</time>
      </trkpt>
      <trkpt lat="48.5623" lon="2.11192">
        <ele>112</ele>
        <time>2022-12-25T14:43:43Z</time>
      </trkpt>
      <trkpt lat="48.56232" lon="2.1119">
        <ele>112</ele>
        <time>2022-12-25T14:43:44Z</time>
      </trkpt>
      <trkpt lat="48.56234" lon="2.11189">
        <ele>112</ele>
        <time>2022-12-25T14:43:45Z</time>
      </trkpt>
      <trkpt lat="48.56237" lon="2.11187">
        <ele>112</ele>
        <time>2022-12-25T14:43:47Z</time>
      </trkpt>
      <trkpt lat="48.5624" lon="2.11185">
        <ele>111</ele>
        <time>2022-12-25T14:43:49Z</time>
      </trkpt>
      <trkpt lat="48.56242" lon="2.11182">
        <ele>110</ele>
        <time>2022-12-25T14:43:51Z</time>
      </trkpt>
      <trkpt lat="48.56245" lon="2.11179">
        <ele>110</ele>
        <time>2022-12-25T14:43:53Z</time>
      </trkpt>
      <trkpt lat="48.56248" lon="2.11177">
        <ele>110</ele>
        <time>2022-12-25T14:43:55Z</time>
      </trkpt>
      <trkpt lat="48.56251" lon="2.11175">
        <ele>109</ele>
        <time>2022-12-25T14:43:57Z</time>
      </trkpt>
      <trkpt lat="48.56254" lon="2.11172">
        <ele>109</ele>
        <time>2022-12-25T14:43:59Z</time>
      </trkpt>
      <trkpt lat="48.56257" lon="2.1117">
        <ele>108</ele>
        <time>2022-12-25T14:44:01Z</time>
      </trkpt>
      <trkpt lat="48.56259" lon="2.11168">
        <ele>108</ele>
        <time>2022-12-25T14:44:03Z</time>
      </trkpt>
      <trkpt lat="48.56262" lon="2.11165">
        <ele>108</ele>
        <time>2022-12-25T14:44:05Z</time>
      </trkpt>
      <trkpt lat="48.56265" lon="2.11163">
        <ele>107</ele>
        <time>2022-12-25T14:44:07Z</time>
      </trkpt>
      <trkpt lat="48.56268" lon="2.1116">
        <ele>107</ele>
        <time>2022-12-25T14:44:10Z</time>
      </trkpt>
      <trkpt lat="48.5627" lon="2.11158">
        <ele>107</ele>
        <time>2022-12-25T14:44:11Z</time>
      </trkpt>
      <trkpt lat="48.56272" lon="2.11157">
        <ele>107</ele>
        <time>2022-12-25T14:44:13Z</time>
      </trkpt>
      <trkpt lat="48.56275" lon="2.11155">
        <ele>106</ele>
        <time>2022-12-25T14:44:15Z</time>
      </trkpt>
      <trkpt lat="48.56277" lon="2.11153">
        <ele>106</ele>
        <time>2022-12-25T14:44:17Z</time>
      </trkpt>
      <trkpt lat="48.56279" lon="2.11151">
        <ele>105</ele>
        <time>2022-12-25T14:44:19Z</time>
      </trkpt>
      <trkpt lat="48.56282" lon="2.11148">
        <ele>105</ele>
        <time>2022-12-25T14:44:21Z</time>
      </trkpt>
      <trkpt lat="48.56283" lon="2.11145">
        <ele>104</ele>
        <time>2022-12-25T14:44:23Z</time>
      </trkpt>
      <trkpt lat="48.56285" lon="2.11141">
        <ele>104</ele>
        <time>2022-12-25T14:44:25Z</time>
      </trkpt>
      <trkpt lat="48.56287" lon="2.11138">
        <ele>103</ele>
        <time>2022-12-25T14:44:27Z</time>
      </trkpt>
      <trkpt lat="48.56289" lon="2.11134">
        <ele>103</ele>
        <time>2022-12-25T14:44:29Z</time>
      </trkpt>
      <trkpt lat="48.56291" lon="2.11131">
        <ele>103</ele>
        <time>2022-12-25T14:44:31Z</time>
      </trkpt>
      <trkpt lat="48.56293" lon="2.11127">
        <ele>103</ele>
        <time>2022-12-25T14:44:33Z</time>
      </trkpt>
      <trkpt lat="48.56295" lon="2.11124">
        <ele>103</ele>
        <time>2022-12-25T14:44:35Z</time>
      </trkpt>
      <trkpt lat="48.56297" lon="2.11121">
        <ele>102</ele>
        <time>2022-12-25T14:44:37Z</time>
      </trkpt>
      <trkpt lat="48.56299" lon="2.11117">
        <ele>102</ele>
        <time>2022-12-25T14:44:39Z</time>
      </trkpt>
      <trkpt lat="48.56301" lon="2.11114">
        <ele>102</ele>
        <time>2022-12-25T14:44:41Z</time>
      </trkpt>
      <trkpt lat="48.56304" lon="2.11111">
        <ele>102</ele>
        <time>2022-12-25T14:44:43Z</time>
      </trkpt>
      <trkpt lat="48.56307" lon="2.1111">
        <ele>102</ele>
        <time>2022-12-25T14:44:45Z</time>
      </trkpt>
      <trkpt lat="48.5631" lon="2.11111">
        <ele>101</ele>
        <time>2022-12-25T14:44:48Z</time>
      </trkpt>
      <trkpt lat="48.56313" lon="2.11113">
        <ele>101</ele>
        <time>2022-12-25T14:44:49Z</time>
      </trkpt>
      <trkpt lat="48.56316" lon="2.11114">
        <ele>101</ele>
        <time>2022-12-25T14:44:51Z</time>
      </trkpt>
      <trkpt lat="48.5632" lon="2.11116">
        <ele>101</ele>
        <time>2022-12-25T14:44:53Z</time>
      </trkpt>
      <trkpt lat="48.56323" lon="2.11118">
        <ele>100</ele>
        <time>2022-12-25T14:44:55Z</time>
      </trkpt>
      <trkpt lat="48.56326" lon="2.1112">
        <ele>100</ele>
        <time>2022-12-25T14:44:57Z</time>
      </trkpt>
      <trkpt lat="48.56329" lon="2.11122">
        <ele>100</ele>
        <time>2022-12-25T14:44:59Z</time>
      </trkpt>
      <trkpt lat="48.56332" lon="2.11124">
        <ele>100</ele>
        <time>2022-12-25T14:45:01Z</time>
      </trkpt>
      <trkpt lat="48.56335" lon="2.11126">
        <ele>100</ele>
        <time>2022-12-25T14:45:03Z</time>
      </trkpt>
      <trkpt lat="48.56338" lon="2.11128">
        <ele>100</ele>
        <time>2022-12-25T14:45:05Z</time>
      </trkpt>
      <trkpt lat="48.56341" lon="2.1113">
        <ele>100</ele>
        <time>2022-12-25T14:45:07Z</time>
      </trkpt>
      <trkpt lat="48.56344" lon="2.11131">
        <ele>100</ele>
        <time>2022-12-25T14:45:09Z</time>
      </trkpt>
      <trkpt lat="48.56347" lon="2.11133">
        <ele>99</ele>
        <time>2022-12-25T14:45:11Z</time>
      </trkpt>
      <trkpt lat="48.5635" lon="2.11135">
        <ele>99</ele>
        <time>2022-12-25T14:45:13Z</time>
      </trkpt>
      <trkpt lat="48.56353" lon="2.11137">
        <ele>99</ele>
        <time>2022-12-25T14:45:15Z</time>
      </trkpt>
      <trkpt lat="48.56356" lon="2.11138">
        <ele>99</ele>
        <time>2022-12-25T14:45:17Z</time>
      </trkpt>
      <trkpt lat="48.56359" lon="2.1114">
        <ele>99</ele>
        <time>2022-12-25T14:45:19Z</time>
      </trkpt>
      <trkpt lat="48.56362" lon="2.11142">
        <ele>99</ele>
        <time>2022-12-25T14:45:21Z</time>
      </trkpt>
      <trkpt lat="48.56364" lon="2.11144">
        <ele>99</ele>
        <time>2022-12-25T14:45:23Z</time>
      </trkpt>
      <trkpt lat="48.56367" lon="2.11146">
        <ele>98</ele>
        <time>2022-12-25T14:45:26Z</time>
      </trkpt>
      <trkpt lat="48.5637" lon="2.11148">
        <ele>98</ele>
        <time>2022-12-25T14:45:27Z</time>
      </trkpt>
      <trkpt lat="48.56373" lon="2.1115">
        <ele>98</ele>
        <time>2022-12-25T14:45:29Z</time>
      </trkpt>
      <trkpt lat="48.56376" lon="2.11151">
        <ele>98</ele>
        <time>2022-12-25T14:45:31Z</time>
      </trkpt>
      <trkpt lat="48.56378" lon="2.11153">
        <ele>98</ele>
        <time>2022-12-25T14:45:33Z</time>
      </trkpt>
      <trkpt lat="48.56381" lon="2.11155">
        <ele>98</ele>
        <time>2022-12-25T14:45:35Z</time>
      </trkpt>
      <trkpt lat="48.56384" lon="2.11157">
        <ele>98</ele>
        <time>2022-12-25T14:45:37Z</time>
      </trkpt>
      <trkpt lat="48.56387" lon="2.11159">
        <ele>97</ele>
        <time>2022-12-25T14:45:39Z</time>
      </trkpt>
      <trkpt lat="48.56389" lon="2.11161">
        <ele>97</ele>
        <time>2022-12-25T14:45:41Z</time>
      </trkpt>
      <trkpt lat="48.56392" lon="2.11163">
        <ele>97</ele>
        <time>2022-12-25T14:45:43Z</time>
      </trkpt>
      <trkpt lat="48.56395" lon="2.11165">
        <ele>97</ele>
        <time>2022-12-25T14:45:45Z</time>
      </trkpt>
      <trkpt lat="48.56397" lon="2.11167">
        <ele>97</ele>
        <time>2022-12-25T14:45:47Z</time>
      </trkpt>
      <trkpt lat="48.564" lon="2.11169">
        <ele>97</ele>
        <time>2022-12-25T14:45:49Z</time>
      </trkpt>
      <trkpt lat="48.56402" lon="2.11171">
        <ele>97</ele>
        <time>2022-12-25T14:45:51Z</time>
      </trkpt>
      <trkpt lat="48.56405" lon="2.11173">
        <ele>97</ele>
        <time>2022-12-25T14:45:53Z</time>
      </trkpt>
      <trkpt lat="48.56408" lon="2.11176">
        <ele>97</ele>
        <time>2022-12-25T14:45:55Z</time>
      </trkpt>
      <trkpt lat="48.56409" lon="2.11177">
        <ele>97</ele>
        <time>2022-12-25T14:45:56Z</time>
      </trkpt>
      <trkpt lat="48.56412" lon="2.1118">
        <ele>97</ele>
        <time>2022-12-25T14:45:58Z</time>
      </trkpt>
      <trkpt lat="48.56415" lon="2.11183">
        <ele>97</ele>
        <time>2022-12-25T14:46:00Z</time>
      </trkpt>
      <trkpt lat="48.56417" lon="2.11186">
        <ele>97</ele>
        <time>2022-12-25T14:46:02Z</time>
      </trkpt>
      <trkpt lat="48.56419" lon="2.11189">
        <ele>97</ele>
        <time>2022-12-25T14:46:04Z</time>
      </trkpt>
      <trkpt lat="48.56421" lon="2.11193">
        <ele>97</ele>
        <time>2022-12-25T14:46:06Z</time>
      </trkpt>
      <trkpt lat="48.56423" lon="2.11196">
        <ele>98</ele>
        <time>2022-12-25T14:46:08Z</time>
      </trkpt>
      <trkpt lat="48.56424" lon="2.11199">
        <ele>98</ele>
        <time>2022-12-25T14:46:10Z</time>
      </trkpt>
      <trkpt lat="48.56425" lon="2.11203">
        <ele>97</ele>
        <time>2022-12-25T14:46:12Z</time>
      </trkpt>
      <trkpt lat="48.56427" lon="2.11207">
        <ele>98</ele>
        <time>2022-12-25T14:46:14Z</time>
      </trkpt>
      <trkpt lat="48.56428" lon="2.11211">
        <ele>98</ele>
        <time>2022-12-25T14:46:16Z</time>
      </trkpt>
      <trkpt lat="48.56429" lon="2.11215">
        <ele>98</ele>
        <time>2022-12-25T14:46:18Z</time>
      </trkpt>
      <trkpt lat="48.5643" lon="2.11218">
        <ele>98</ele>
        <time>2022-12-25T14:46:20Z</time>
      </trkpt>
      <trkpt lat="48.56433" lon="2.11224">
        <ele>98</ele>
        <time>2022-12-25T14:46:23Z</time>
      </trkpt>
      <trkpt lat="48.56435" lon="2.11228">
        <ele>99</ele>
        <time>2022-12-25T14:46:25Z</time>
      </trkpt>
      <trkpt lat="48.56437" lon="2.11232">
        <ele>99</ele>
        <time>2022-12-25T14:46:27Z</time>
      </trkpt>
      <trkpt lat="48.56439" lon="2.11235">
        <ele>99</ele>
        <time>2022-12-25T14:46:29Z</time>
      </trkpt>
      <trkpt lat="48.5644" lon="2.11238">
        <ele>99</ele>
        <time>2022-12-25T14:46:30Z</time>
      </trkpt>
      <trkpt lat="48.56442" lon="2.1124">
        <ele>99</ele>
        <time>2022-12-25T14:46:31Z</time>
      </trkpt>
      <trkpt lat="48.56444" lon="2.11243">
        <ele>99</ele>
        <time>2022-12-25T14:46:33Z</time>
      </trkpt>
      <trkpt lat="48.56446" lon="2.11245">
        <ele>99</ele>
        <time>2022-12-25T14:46:35Z</time>
      </trkpt>
      <trkpt lat="48.56449" lon="2.11247">
        <ele>99</ele>
        <time>2022-12-25T14:46:37Z</time>
      </trkpt>
      <trkpt lat="48.56452" lon="2.11249">
        <ele>99</ele>
        <time>2022-12-25T14:46:39Z</time>
      </trkpt>
      <trkpt lat="48.56455" lon="2.1125">
        <ele>100</ele>
        <time>2022-12-25T14:46:42Z</time>
      </trkpt>
      <trkpt lat="48.56457" lon="2.11252">
        <ele>100</ele>
        <time>2022-12-25T14:46:43Z</time>
      </trkpt>
      <trkpt lat="48.5646" lon="2.11254">
        <ele>100</ele>
        <time>2022-12-25T14:46:45Z</time>
      </trkpt>
      <trkpt lat="48.56463" lon="2.11255">
        <ele>100</ele>
        <time>2022-12-25T14:46:47Z</time>
      </trkpt>
      <trkpt lat="48.56466" lon="2.11256">
        <ele>100</ele>
        <time>2022-12-25T14:46:49Z</time>
      </trkpt>
      <trkpt lat="48.56469" lon="2.11257">
        <ele>99</ele>
        <time>2022-12-25T14:46:51Z</time>
      </trkpt>
      <trkpt lat="48.56472" lon="2.11258">
        <ele>99</ele>
        <time>2022-12-25T14:46:53Z</time>
      </trkpt>
      <trkpt lat="48.56476" lon="2.11259">
        <ele>99</ele>
        <time>2022-12-25T14:46:55Z</time>
      </trkpt>
      <trkpt lat="48.56479" lon="2.11261">
        <ele>99</ele>
        <time>2022-12-25T14:46:57Z</time>
      </trkpt>
      <trkpt lat="48.56482" lon="2.11263">
        <ele>98</ele>
        <time>2022-12-25T14:46:59Z</time>
      </trkpt>
      <trkpt lat="48.56485" lon="2.11265">
        <ele>98</ele>
        <time>2022-12-25T14:47:01Z</time>
      </trkpt>
      <trkpt lat="48.56488" lon="2.11266">
        <ele>98</ele>
        <time>2022-12-25T14:47:03Z</time>
      </trkpt>
      <trkpt lat="48.56491" lon="2.11268">
        <ele>98</ele>
        <time>2022-12-25T14:47:05Z</time>
      </trkpt>
      <trkpt lat="48.56494" lon="2.1127">
        <ele>98</ele>
        <time>2022-12-25T14:47:07Z</time>
      </trkpt>
      <trkpt lat="48.56497" lon="2.11271">
        <ele>97</ele>
        <time>2022-12-25T14:47:09Z</time>
      </trkpt>
      <trkpt lat="48.565" lon="2.11272">
        <ele>97</ele>
        <time>2022-12-25T14:47:11Z</time>
      </trkpt>
      <trkpt lat="48.56503" lon="2.11274">
        <ele>96</ele>
        <time>2022-12-25T14:47:13Z</time>
      </trkpt>
      <trkpt lat="48.56506" lon="2.11275">
        <ele>96</ele>
        <time>2022-12-25T14:47:15Z</time>
      </trkpt>
      <trkpt lat="48.56509" lon="2.11277">
        <ele>96</ele>
        <time>2022-12-25T14:47:17Z</time>
      </trkpt>
      <trkpt lat="48.56512" lon="2.11278">
        <ele>96</ele>
        <time>2022-12-25T14:47:20Z</time>
      </trkpt>
      <trkpt lat="48.56515" lon="2.11279">
        <ele>95</ele>
        <time>2022-12-25T14:47:21Z</time>
      </trkpt>
      <trkpt lat="48.56518" lon="2.1128">
        <ele>95</ele>
        <time>2022-12-25T14:47:23Z</time>
      </trkpt>
      <trkpt lat="48.56521" lon="2.11281">
        <ele>95</ele>
        <time>2022-12-25T14:47:25Z</time>
      </trkpt>
      <trkpt lat="48.56524" lon="2.11282">
        <ele>96</ele>
        <time>2022-12-25T14:47:27Z</time>
      </trkpt>
      <trkpt lat="48.56528" lon="2.11282">
        <ele>95</ele>
        <time>2022-12-25T14:47:29Z</time>
      </trkpt>
      <trkpt lat="48.56531" lon="2.11283">
        <ele>96</ele>
        <time>2022-12-25T14:47:32Z</time>
      </trkpt>
      <trkpt lat="48.56534" lon="2.11283">
        <ele>96</ele>
        <time>2022-12-25T14:47:33Z</time>
      </trkpt>
      <trkpt lat="48.56536" lon="2.11283">
        <ele>96</ele>
        <time>2022-12-25T14:47:34Z</time>
      </trkpt>
      <trkpt lat="48.56539" lon="2.11284">
        <ele>96</ele>
        <time>2022-12-25T14:47:36Z</time>
      </trkpt>
      <trkpt lat="48.56543" lon="2.11284">
        <ele>96</ele>
        <time>2022-12-25T14:47:39Z</time>
      </trkpt>
      <trkpt lat="48.56546" lon="2.11284">
        <ele>96</ele>
        <time>2022-12-25T14:47:40Z</time>
      </trkpt>
      <trkpt lat="48.56549" lon="2.11284">
        <ele>96</ele>
        <time>2022-12-25T14:47:42Z</time>
      </trkpt>
      <trkpt lat="48.56552" lon="2.11284">
        <ele>96</ele>
        <time>2022-12-25T14:47:44Z</time>
      </trkpt>
      <trkpt lat="48.56555" lon="2.11285">
        <ele>95</ele>
        <time>2022-12-25T14:47:46Z</time>
      </trkpt>
      <trkpt lat="48.56557" lon="2.11285">
        <ele>95</ele>
        <time>2022-12-25T14:47:47Z</time>
      </trkpt>
      <trkpt lat="48.56559" lon="2.11285">
        <ele>96</ele>
        <time>2022-12-25T14:47:48Z</time>
      </trkpt>
      <trkpt lat="48.56562" lon="2.11285">
        <ele>96</ele>
        <time>2022-12-25T14:47:50Z</time>
      </trkpt>
      <trkpt lat="48.56566" lon="2.11285">
        <ele>96</ele>
        <time>2022-12-25T14:47:52Z</time>
      </trkpt>
      <trkpt lat="48.56569" lon="2.11284">
        <ele>96</ele>
        <time>2022-12-25T14:47:54Z</time>
      </trkpt>
      <trkpt lat="48.56571" lon="2.11284">
        <ele>96</ele>
        <time>2022-12-25T14:47:55Z</time>
      </trkpt>
      <trkpt lat="48.56574" lon="2.11283">
        <ele>95</ele>
        <time>2022-12-25T14:47:58Z</time>
      </trkpt>
      <trkpt lat="48.56576" lon="2.11283">
        <ele>95</ele>
        <time>2022-12-25T14:47:59Z</time>
      </trkpt>
      <trkpt lat="48.56579" lon="2.11283">
        <ele>95</ele>
        <time>2022-12-25T14:48:01Z</time>
      </trkpt>
      <trkpt lat="48.56582" lon="2.11283">
        <ele>95</ele>
        <time>2022-12-25T14:48:03Z</time>
      </trkpt>
      <trkpt lat="48.56585" lon="2.11283">
        <ele>95</ele>
        <time>2022-12-25T14:48:05Z</time>
      </trkpt>
      <trkpt lat="48.56588" lon="2.11282">
        <ele>94</ele>
        <time>2022-12-25T14:48:07Z</time>
      </trkpt>
      <trkpt lat="48.56591" lon="2.11282">
        <ele>94</ele>
        <time>2022-12-25T14:48:09Z</time>
      </trkpt>
      <trkpt lat="48.56594" lon="2.11281">
        <ele>93</ele>
        <time>2022-12-25T14:48:11Z</time>
      </trkpt>
      <trkpt lat="48.56597" lon="2.1128">
        <ele>93</ele>
        <time>2022-12-25T14:48:13Z</time>
      </trkpt>
      <trkpt lat="48.566" lon="2.1128">
        <ele>93</ele>
        <time>2022-12-25T14:48:15Z</time>
      </trkpt>
      <trkpt lat="48.56603" lon="2.11279">
        <ele>92</ele>
        <time>2022-12-25T14:48:17Z</time>
      </trkpt>
      <trkpt lat="48.56606" lon="2.11278">
        <ele>92</ele>
        <time>2022-12-25T14:48:19Z</time>
      </trkpt>
      <trkpt lat="48.56609" lon="2.11277">
        <ele>91</ele>
        <time>2022-12-25T14:48:21Z</time>
      </trkpt>
      <trkpt lat="48.56612" lon="2.11275">
        <ele>91</ele>
        <time>2022-12-25T14:48:23Z</time>
      </trkpt>
      <trkpt lat="48.56615" lon="2.11273">
        <ele>90</ele>
        <time>2022-12-25T14:48:25Z</time>
      </trkpt>
      <trkpt lat="48.56618" lon="2.11272">
        <ele>90</ele>
        <time>2022-12-25T14:48:27Z</time>
      </trkpt>
      <trkpt lat="48.56621" lon="2.11271">
        <ele>89</ele>
        <time>2022-12-25T14:48:29Z</time>
      </trkpt>
      <trkpt lat="48.56624" lon="2.1127">
        <ele>89</ele>
        <time>2022-12-25T14:48:31Z</time>
      </trkpt>
      <trkpt lat="48.56628" lon="2.11269">
        <ele>88</ele>
        <time>2022-12-25T14:48:33Z</time>
      </trkpt>
      <trkpt lat="48.56631" lon="2.11269">
        <ele>87</ele>
        <time>2022-12-25T14:48:36Z</time>
      </trkpt>
      <trkpt lat="48.56635" lon="2.11268">
        <ele>87</ele>
        <time>2022-12-25T14:48:37Z</time>
      </trkpt>
      <trkpt lat="48.56638" lon="2.11268">
        <ele>87</ele>
        <time>2022-12-25T14:48:39Z</time>
      </trkpt>
      <trkpt lat="48.56641" lon="2.11268">
        <ele>86</ele>
        <time>2022-12-25T14:48:41Z</time>
      </trkpt>
      <trkpt lat="48.56645" lon="2.11268">
        <ele>86</ele>
        <time>2022-12-25T14:48:43Z</time>
      </trkpt>
      <trkpt lat="48.56648" lon="2.11269">
        <ele>85</ele>
        <time>2022-12-25T14:48:45Z</time>
      </trkpt>
      <trkpt lat="48.56651" lon="2.11269">
        <ele>85</ele>
        <time>2022-12-25T14:48:47Z</time>
      </trkpt>
      <trkpt lat="48.56655" lon="2.1127">
        <ele>85</ele>
        <time>2022-12-25T14:48:49Z</time>
      </trkpt>
      <trkpt lat="48.56658" lon="2.11271">
        <ele>84</ele>
        <time>2022-12-25T14:48:51Z</time>
      </trkpt>
      <trkpt lat="48.56661" lon="2.11272">
        <ele>84</ele>
        <time>2022-12-25T14:48:53Z</time>
      </trkpt>
      <trkpt lat="48.56664" lon="2.11273">
        <ele>83</ele>
        <time>2022-12-25T14:48:55Z</time>
      </trkpt>
      <trkpt lat="48.56666" lon="2.11274">
        <ele>83</ele>
        <time>2022-12-25T14:48:57Z</time>
      </trkpt>
      <trkpt lat="48.56669" lon="2.11276">
        <ele>83</ele>
        <time>2022-12-25T14:48:59Z</time>
      </trkpt>
      <trkpt lat="48.56672" lon="2.11278">
        <ele>83</ele>
        <time>2022-12-25T14:49:01Z</time>
      </trkpt>
      <trkpt lat="48.56671" lon="2.1128">
        <ele>82</ele>
        <time>2022-12-25T14:49:05Z</time>
      </trkpt>
      <trkpt lat="48.56673" lon="2.1128">
        <ele>82</ele>
        <time>2022-12-25T14:49:14Z</time>
      </trkpt>
      <trkpt lat="48.56676" lon="2.11281">
        <ele>82</ele>
        <time>2022-12-25T14:49:16Z</time>
      </trkpt>
      <trkpt lat="48.56679" lon="2.11282">
        <ele>81</ele>
        <time>2022-12-25T14:49:18Z</time>
      </trkpt>
      <trkpt lat="48.56682" lon="2.11283">
        <ele>81</ele>
        <time>2022-12-25T14:49:24Z</time>
      </trkpt>
      <trkpt lat="48.56685" lon="2.11284">
        <ele>81</ele>
        <time>2022-12-25T14:49:26Z</time>
      </trkpt>
      <trkpt lat="48.56688" lon="2.11286">
        <ele>80</ele>
        <time>2022-12-25T14:49:28Z</time>
      </trkpt>
      <trkpt lat="48.56691" lon="2.11288">
        <ele>80</ele>
        <time>2022-12-25T14:49:30Z</time>
      </trkpt>
      <trkpt lat="48.56694" lon="2.1129">
        <ele>80</ele>
        <time>2022-12-25T14:49:33Z</time>
      </trkpt>
      <trkpt lat="48.56697" lon="2.11292">
        <ele>80</ele>
        <time>2022-12-25T14:49:34Z</time>
      </trkpt>
      <trkpt lat="48.567" lon="2.11294">
        <ele>80</ele>
        <time>2022-12-25T14:49:36Z</time>
      </trkpt>
      <trkpt lat="48.56703" lon="2.11296">
        <ele>80</ele>
        <time>2022-12-25T14:49:38Z</time>
      </trkpt>
      <trkpt lat="48.56706" lon="2.11298">
        <ele>80</ele>
        <time>2022-12-25T14:49:40Z</time>
      </trkpt>
      <trkpt lat="48.56709" lon="2.113">
        <ele>80</ele>
        <time>2022-12-25T14:49:42Z</time>
      </trkpt>
      <trkpt lat="48.56711" lon="2.11302">
        <ele>79</ele>
        <time>2022-12-25T14:49:44Z</time>
      </trkpt>
      <trkpt lat="48.56714" lon="2.11305">
        <ele>79</ele>
        <time>2022-12-25T14:49:46Z</time>
      </trkpt>
      <trkpt lat="48.56717" lon="2.11307">
        <ele>79</ele>
        <time>2022-12-25T14:49:48Z</time>
      </trkpt>
      <trkpt lat="48.5672" lon="2.11309">
        <ele>79</ele>
        <time>2022-12-25T14:49:50Z</time>
      </trkpt>
      <trkpt lat="48.56722" lon="2.11312">
        <ele>79</ele>
        <time>2022-12-25T14:49:52Z</time>
      </trkpt>
      <trkpt lat="48.56725" lon="2.11315">
        <ele>79</ele>
        <time>2022-12-25T14:49:54Z</time>
      </trkpt>
      <trkpt lat="48.56727" lon="2.11317">
        <ele>79</ele>
        <time>2022-12-25T14:49:56Z</time>
      </trkpt>
      <trkpt lat="48.56728" lon="2.11321">
        <ele>79</ele>
        <time>2022-12-25T14:50:16Z</time>
      </trkpt>
      <trkpt lat="48.5673" lon="2.11322">
        <ele>78</ele>
        <time>2022-12-25T14:50:18Z</time>
      </trkpt>
      <trkpt lat="48.56733" lon="2.11324">
        <ele>78</ele>
        <time>2022-12-25T14:50:20Z</time>
      </trkpt>
      <trkpt lat="48.56735" lon="2.11327">
        <ele>78</ele>
        <time>2022-12-25T14:50:22Z</time>
      </trkpt>
      <trkpt lat="48.56738" lon="2.1133">
        <ele>78</ele>
        <time>2022-12-25T14:50:24Z</time>
      </trkpt>
      <trkpt lat="48.56741" lon="2.11331">
        <ele>78</ele>
        <time>2022-12-25T14:50:26Z</time>
      </trkpt>
      <trkpt lat="48.56744" lon="2.11333">
        <ele>78</ele>
        <time>2022-12-25T14:50:28Z</time>
      </trkpt>
      <trkpt lat="48.56747" lon="2.11336">
        <ele>77</ele>
        <time>2022-12-25T14:50:30Z</time>
      </trkpt>
      <trkpt lat="48.56749" lon="2.11338">
        <ele>77</ele>
        <time>2022-12-25T14:50:32Z</time>
      </trkpt>
      <trkpt lat="48.56752" lon="2.1134">
        <ele>77</ele>
        <time>2022-12-25T14:50:34Z</time>
      </trkpt>
      <trkpt lat="48.56754" lon="2.11342">
        <ele>77</ele>
        <time>2022-12-25T14:50:36Z</time>
      </trkpt>
      <trkpt lat="48.56757" lon="2.11345">
        <ele>77</ele>
        <time>2022-12-25T14:50:38Z</time>
      </trkpt>
      <trkpt lat="48.56759" lon="2.11347">
        <ele>77</ele>
        <time>2022-12-25T14:50:40Z</time>
      </trkpt>
      <trkpt lat="48.56761" lon="2.11349">
        <ele>77</ele>
        <time>2022-12-25T14:50:42Z</time>
      </trkpt>
      <trkpt lat="48.56763" lon="2.11351">
        <ele>76</ele>
        <time>2022-12-25T14:50:49Z</time>
      </trkpt>
      <trkpt lat="48.56766" lon="2.11354">
        <ele>76</ele>
        <time>2022-12-25T14:50:51Z</time>
      </trkpt>
      <trkpt lat="48.56769" lon="2.11356">
        <ele>76</ele>
        <time>2022-12-25T14:50:53Z</time>
      </trkpt>
      <trkpt lat="48.56771" lon="2.11358">
        <ele>76</ele>
        <time>2022-12-25T14:50:55Z</time>
      </trkpt>
      <trkpt lat="48.56774" lon="2.11361">
        <ele>76</ele>
        <time>2022-12-25T14:50:57Z</time>
      </trkpt>
      <trkpt lat="48.56777" lon="2.11363">
        <ele>76</ele>
        <time>2022-12-25T14:50:59Z</time>
      </trkpt>
      <trkpt lat="48.56779" lon="2.11365">
        <ele>76</ele>
        <time>2022-12-25T14:51:01Z</time>
      </trkpt>
      <trkpt lat="48.56782" lon="2.11367">
        <ele>76</ele>
        <time>2022-12-25T14:51:03Z</time>
      </trkpt>
      <trkpt lat="48.56784" lon="2.11369">
        <ele>75</ele>
        <time>2022-12-25T14:51:05Z</time>
      </trkpt>
      <trkpt lat="48.56786" lon="2.11371">
        <ele>75</ele>
        <time>2022-12-25T14:51:08Z</time>
      </trkpt>
      <trkpt lat="48.56788" lon="2.11373">
        <ele>75</ele>
        <time>2022-12-25T14:51:09Z</time>
      </trkpt>
      <trkpt lat="48.5679" lon="2.11376">
        <ele>75</ele>
        <time>2022-12-25T14:51:11Z</time>
      </trkpt>
      <trkpt lat="48.56793" lon="2.11378">
        <ele>75</ele>
        <time>2022-12-25T14:51:13Z</time>
      </trkpt>
      <trkpt lat="48.56795" lon="2.1138">
        <ele>75</ele>
        <time>2022-12-25T14:51:15Z</time>
      </trkpt>
      <trkpt lat="48.56798" lon="2.11382">
        <ele>75</ele>
        <time>2022-12-25T14:51:17Z</time>
      </trkpt>
      <trkpt lat="48.568" lon="2.11384">
        <ele>75</ele>
        <time>2022-12-25T14:51:19Z</time>
      </trkpt>
      <trkpt lat="48.56803" lon="2.11386">
        <ele>75</ele>
        <time>2022-12-25T14:51:21Z</time>
      </trkpt>
      <trkpt lat="48.56806" lon="2.11388">
        <ele>74</ele>
        <time>2022-12-25T14:51:23Z</time>
      </trkpt>
      <trkpt lat="48.56809" lon="2.1139">
        <ele>74</ele>
        <time>2022-12-25T14:51:25Z</time>
      </trkpt>
      <trkpt lat="48.56812" lon="2.11391">
        <ele>74</ele>
        <time>2022-12-25T14:51:27Z</time>
      </trkpt>
      <trkpt lat="48.56815" lon="2.11392">
        <ele>74</ele>
        <time>2022-12-25T14:51:29Z</time>
      </trkpt>
      <trkpt lat="48.56819" lon="2.11394">
        <ele>74</ele>
        <time>2022-12-25T14:51:31Z</time>
      </trkpt>
      <trkpt lat="48.56822" lon="2.11395">
        <ele>74</ele>
        <time>2022-12-25T14:51:33Z</time>
      </trkpt>
      <trkpt lat="48.56825" lon="2.11396">
        <ele>73</ele>
        <time>2022-12-25T14:51:35Z</time>
      </trkpt>
      <trkpt lat="48.56827" lon="2.11396">
        <ele>73</ele>
        <time>2022-12-25T14:51:36Z</time>
      </trkpt>
      <trkpt lat="48.56831" lon="2.11397">
        <ele>73</ele>
        <time>2022-12-25T14:51:38Z</time>
      </trkpt>
      <trkpt lat="48.56834" lon="2.11398">
        <ele>73</ele>
        <time>2022-12-25T14:51:40Z</time>
      </trkpt>
      <trkpt lat="48.56837" lon="2.11399">
        <ele>73</ele>
        <time>2022-12-25T14:51:42Z</time>
      </trkpt>
      <trkpt lat="48.5684" lon="2.11399">
        <ele>73</ele>
        <time>2022-12-25T14:51:44Z</time>
      </trkpt>
      <trkpt lat="48.56843" lon="2.11399">
        <ele>73</ele>
        <time>2022-12-25T14:51:46Z</time>
      </trkpt>
      <trkpt lat="48.56847" lon="2.114">
        <ele>73</ele>
        <time>2022-12-25T14:51:48Z</time>
      </trkpt>
      <trkpt lat="48.56849" lon="2.114">
        <ele>73</ele>
        <time>2022-12-25T14:51:50Z</time>
      </trkpt>
      <trkpt lat="48.56852" lon="2.114">
        <ele>72</ele>
        <time>2022-12-25T14:51:52Z</time>
      </trkpt>
      <trkpt lat="48.56855" lon="2.114">
        <ele>72</ele>
        <time>2022-12-25T14:51:54Z</time>
      </trkpt>
      <trkpt lat="48.56858" lon="2.11401">
        <ele>72</ele>
        <time>2022-12-25T14:51:56Z</time>
      </trkpt>
      <trkpt lat="48.56861" lon="2.11401">
        <ele>72</ele>
        <time>2022-12-25T14:51:58Z</time>
      </trkpt>
      <trkpt lat="48.56865" lon="2.11402">
        <ele>72</ele>
        <time>2022-12-25T14:52:00Z</time>
      </trkpt>
      <trkpt lat="48.56868" lon="2.11402">
        <ele>72</ele>
        <time>2022-12-25T14:52:02Z</time>
      </trkpt>
      <trkpt lat="48.56871" lon="2.11403">
        <ele>72</ele>
        <time>2022-12-25T14:52:05Z</time>
      </trkpt>
      <trkpt lat="48.56874" lon="2.11404">
        <ele>72</ele>
        <time>2022-12-25T14:52:06Z</time>
      </trkpt>
      <trkpt lat="48.56877" lon="2.11404">
        <ele>71</ele>
        <time>2022-12-25T14:52:08Z</time>
      </trkpt>
      <trkpt lat="48.5688" lon="2.11405">
        <ele>71</ele>
        <time>2022-12-25T14:52:10Z</time>
      </trkpt>
      <trkpt lat="48.56883" lon="2.11406">
        <ele>72</ele>
        <time>2022-12-25T14:52:12Z</time>
      </trkpt>
      <trkpt lat="48.56886" lon="2.11406">
        <ele>71</ele>
        <time>2022-12-25T14:52:14Z</time>
      </trkpt>
      <trkpt lat="48.56889" lon="2.11407">
        <ele>71</ele>
        <time>2022-12-25T14:52:16Z</time>
      </trkpt>
      <trkpt lat="48.56892" lon="2.11408">
        <ele>71</ele>
        <time>2022-12-25T14:52:18Z</time>
      </trkpt>
      <trkpt lat="48.56894" lon="2.11409">
        <ele>71</ele>
        <time>2022-12-25T14:52:20Z</time>
      </trkpt>
      <trkpt lat="48.56897" lon="2.11409">
        <ele>71</ele>
        <time>2022-12-25T14:52:22Z</time>
      </trkpt>
      <trkpt lat="48.569" lon="2.1141">
        <ele>71</ele>
        <time>2022-12-25T14:52:24Z</time>
      </trkpt>
      <trkpt lat="48.56903" lon="2.1141">
        <ele>71</ele>
        <time>2022-12-25T14:52:26Z</time>
      </trkpt>
      <trkpt lat="48.56907" lon="2.11411">
        <ele>71</ele>
        <time>2022-12-25T14:52:28Z</time>
      </trkpt>
      <trkpt lat="48.5691" lon="2.11412">
        <ele>71</ele>
        <time>2022-12-25T14:52:30Z</time>
      </trkpt>
      <trkpt lat="48.56913" lon="2.11413">
        <ele>71</ele>
        <time>2022-12-25T14:52:32Z</time>
      </trkpt>
      <trkpt lat="48.56916" lon="2.11413">
        <ele>71</ele>
        <time>2022-12-25T14:52:34Z</time>
      </trkpt>
      <trkpt lat="48.56919" lon="2.11413">
        <ele>71</ele>
        <time>2022-12-25T14:52:36Z</time>
      </trkpt>
      <trkpt lat="48.56922" lon="2.11414">
        <ele>71</ele>
        <time>2022-12-25T14:52:38Z</time>
      </trkpt>
      <trkpt lat="48.56925" lon="2.11415">
        <ele>71</ele>
        <time>2022-12-25T14:52:40Z</time>
      </trkpt>
      <trkpt lat="48.56928" lon="2.11415">
        <ele>71</ele>
        <time>2022-12-25T14:52:43Z</time>
      </trkpt>
      <trkpt lat="48.56932" lon="2.11415">
        <ele>71</ele>
        <time>2022-12-25T14:52:44Z</time>
      </trkpt>
      <trkpt lat="48.56934" lon="2.11415">
        <ele>71</ele>
        <time>2022-12-25T14:52:45Z</time>
      </trkpt>
      <trkpt lat="48.56935" lon="2.11415">
        <ele>71</ele>
        <time>2022-12-25T14:52:46Z</time>
      </trkpt>
      <trkpt lat="48.56937" lon="2.11416">
        <ele>70</ele>
        <time>2022-12-25T14:52:47Z</time>
      </trkpt>
      <trkpt lat="48.56941" lon="2.11416">
        <ele>70</ele>
        <time>2022-12-25T14:52:49Z</time>
      </trkpt>
      <trkpt lat="48.56944" lon="2.11416">
        <ele>70</ele>
        <time>2022-12-25T14:52:51Z</time>
      </trkpt>
      <trkpt lat="48.56947" lon="2.11417">
        <ele>70</ele>
        <time>2022-12-25T14:52:53Z</time>
      </trkpt>
      <trkpt lat="48.5695" lon="2.11417">
        <ele>70</ele>
        <time>2022-12-25T14:52:55Z</time>
      </trkpt>
      <trkpt lat="48.56953" lon="2.11417">
        <ele>69</ele>
        <time>2022-12-25T14:52:57Z</time>
      </trkpt>
      <trkpt lat="48.56957" lon="2.11418">
        <ele>69</ele>
        <time>2022-12-25T14:52:59Z</time>
      </trkpt>
      <trkpt lat="48.5696" lon="2.11419">
        <ele>69</ele>
        <time>2022-12-25T14:53:02Z</time>
      </trkpt>
      <trkpt lat="48.56963" lon="2.11419">
        <ele>69</ele>
        <time>2022-12-25T14:53:03Z</time>
      </trkpt>
      <trkpt lat="48.56967" lon="2.11419">
        <ele>69</ele>
        <time>2022-12-25T14:53:05Z</time>
      </trkpt>
      <trkpt lat="48.5697" lon="2.11419">
        <ele>68</ele>
        <time>2022-12-25T14:53:07Z</time>
      </trkpt>
      <trkpt lat="48.56973" lon="2.1142">
        <ele>68</ele>
        <time>2022-12-25T14:53:09Z</time>
      </trkpt>
      <trkpt lat="48.56976" lon="2.1142">
        <ele>68</ele>
        <time>2022-12-25T14:53:11Z</time>
      </trkpt>
      <trkpt lat="48.56979" lon="2.1142">
        <ele>68</ele>
        <time>2022-12-25T14:53:13Z</time>
      </trkpt>
      <trkpt lat="48.56983" lon="2.1142">
        <ele>68</ele>
        <time>2022-12-25T14:53:15Z</time>
      </trkpt>
      <trkpt lat="48.56986" lon="2.11421">
        <ele>67</ele>
        <time>2022-12-25T14:53:17Z</time>
      </trkpt>
      <trkpt lat="48.5699" lon="2.11421">
        <ele>67</ele>
        <time>2022-12-25T14:53:19Z</time>
      </trkpt>
      <trkpt lat="48.56994" lon="2.11421">
        <ele>67</ele>
        <time>2022-12-25T14:53:21Z</time>
      </trkpt>
      <trkpt lat="48.56995" lon="2.11421">
        <ele>67</ele>
        <time>2022-12-25T14:53:22Z</time>
      </trkpt>
      <trkpt lat="48.56999" lon="2.11421">
        <ele>67</ele>
        <time>2022-12-25T14:53:24Z</time>
      </trkpt>
      <trkpt lat="48.57002" lon="2.11421">
        <ele>67</ele>
        <time>2022-12-25T14:53:26Z</time>
      </trkpt>
      <trkpt lat="48.57005" lon="2.11421">
        <ele>67</ele>
        <time>2022-12-25T14:53:28Z</time>
      </trkpt>
      <trkpt lat="48.57009" lon="2.11421">
        <ele>66</ele>
        <time>2022-12-25T14:53:30Z</time>
      </trkpt>
      <trkpt lat="48.57012" lon="2.11421">
        <ele>66</ele>
        <time>2022-12-25T14:53:32Z</time>
      </trkpt>
      <trkpt lat="48.57015" lon="2.11422">
        <ele>66</ele>
        <time>2022-12-25T14:53:34Z</time>
      </trkpt>
      <trkpt lat="48.57019" lon="2.11422">
        <ele>66</ele>
        <time>2022-12-25T14:53:36Z</time>
      </trkpt>
      <trkpt lat="48.57022" lon="2.11422">
        <ele>66</ele>
        <time>2022-12-25T14:53:38Z</time>
      </trkpt>
      <trkpt lat="48.57024" lon="2.11422">
        <ele>66</ele>
        <time>2022-12-25T14:53:40Z</time>
      </trkpt>
      <trkpt lat="48.57027" lon="2.11422">
        <ele>65</ele>
        <time>2022-12-25T14:53:41Z</time>
      </trkpt>
      <trkpt lat="48.57031" lon="2.11422">
        <ele>66</ele>
        <time>2022-12-25T14:53:43Z</time>
      </trkpt>
      <trkpt lat="48.57034" lon="2.11422">
        <ele>65</ele>
        <time>2022-12-25T14:53:45Z</time>
      </trkpt>
      <trkpt lat="48.57038" lon="2.11422">
        <ele>65</ele>
        <time>2022-12-25T14:53:47Z</time>
      </trkpt>
      <trkpt lat="48.57041" lon="2.11422">
        <ele>65</ele>
        <time>2022-12-25T14:53:49Z</time>
      </trkpt>
      <trkpt lat="48.57045" lon="2.11422">
        <ele>65</ele>
        <time>2022-12-25T14:53:51Z</time>
      </trkpt>
      <trkpt lat="48.57048" lon="2.11422">
        <ele>64</ele>
        <time>2022-12-25T14:53:53Z</time>
      </trkpt>
      <trkpt lat="48.57051" lon="2.11422">
        <ele>64</ele>
        <time>2022-12-25T14:53:55Z</time>
      </trkpt>
      <trkpt lat="48.57055" lon="2.11422">
        <ele>64</ele>
        <time>2022-12-25T14:53:57Z</time>
      </trkpt>
      <trkpt lat="48.57058" lon="2.11422">
        <ele>64</ele>
        <time>2022-12-25T14:53:59Z</time>
      </trkpt>
      <trkpt lat="48.57062" lon="2.11422">
        <ele>63</ele>
        <time>2022-12-25T14:54:01Z</time>
      </trkpt>
      <trkpt lat="48.57065" lon="2.11422">
        <ele>63</ele>
        <time>2022-12-25T14:54:03Z</time>
      </trkpt>
      <trkpt lat="48.57068" lon="2.11422">
        <ele>63</ele>
        <time>2022-12-25T14:54:05Z</time>
      </trkpt>
      <trkpt lat="48.57072" lon="2.11421">
        <ele>63</ele>
        <time>2022-12-25T14:54:07Z</time>
      </trkpt>
      <trkpt lat="48.57075" lon="2.11421">
        <ele>63</ele>
        <time>2022-12-25T14:54:09Z</time>
      </trkpt>
      <trkpt lat="48.57078" lon="2.11421">
        <ele>62</ele>
        <time>2022-12-25T14:54:11Z</time>
      </trkpt>
      <trkpt lat="48.57081" lon="2.11421">
        <ele>62</ele>
        <time>2022-12-25T14:54:13Z</time>
      </trkpt>
      <trkpt lat="48.57085" lon="2.11421">
        <ele>62</ele>
        <time>2022-12-25T14:54:15Z</time>
      </trkpt>
      <trkpt lat="48.57088" lon="2.11422">
        <ele>62</ele>
        <time>2022-12-25T14:54:18Z</time>
      </trkpt>
      <trkpt lat="48.57091" lon="2.11422">
        <ele>62</ele>
        <time>2022-12-25T14:54:19Z</time>
      </trkpt>
      <trkpt lat="48.57094" lon="2.11422">
        <ele>61</ele>
        <time>2022-12-25T14:54:21Z</time>
      </trkpt>
      <trkpt lat="48.57097" lon="2.11422">
        <ele>61</ele>
        <time>2022-12-25T14:54:23Z</time>
      </trkpt>
      <trkpt lat="48.57101" lon="2.11422">
        <ele>61</ele>
        <time>2022-12-25T14:54:25Z</time>
      </trkpt>
      <trkpt lat="48.57104" lon="2.11422">
        <ele>61</ele>
        <time>2022-12-25T14:54:27Z</time>
      </trkpt>
      <trkpt lat="48.57107" lon="2.11422">
        <ele>61</ele>
        <time>2022-12-25T14:54:29Z</time>
      </trkpt>
      <trkpt lat="48.5711" lon="2.11422">
        <ele>61</ele>
        <time>2022-12-25T14:54:31Z</time>
      </trkpt>
      <trkpt lat="48.57114" lon="2.11422">
        <ele>61</ele>
        <time>2022-12-25T14:54:33Z</time>
      </trkpt>
      <trkpt lat="48.57117" lon="2.11422">
        <ele>61</ele>
        <time>2022-12-25T14:54:35Z</time>
      </trkpt>
      <trkpt lat="48.5712" lon="2.11422">
        <ele>60</ele>
        <time>2022-12-25T14:54:37Z</time>
      </trkpt>
      <trkpt lat="48.57124" lon="2.11422">
        <ele>60</ele>
        <time>2022-12-25T14:54:39Z</time>
      </trkpt>
      <trkpt lat="48.57127" lon="2.11422">
        <ele>60</ele>
        <time>2022-12-25T14:54:41Z</time>
      </trkpt>
      <trkpt lat="48.5713" lon="2.11422">
        <ele>60</ele>
        <time>2022-12-25T14:54:43Z</time>
      </trkpt>
      <trkpt lat="48.57134" lon="2.11422">
        <ele>60</ele>
        <time>2022-12-25T14:54:45Z</time>
      </trkpt>
      <trkpt lat="48.57137" lon="2.11422">
        <ele>60</ele>
        <time>2022-12-25T14:54:47Z</time>
      </trkpt>
      <trkpt lat="48.5714" lon="2.11422">
        <ele>60</ele>
        <time>2022-12-25T14:54:49Z</time>
      </trkpt>
      <trkpt lat="48.57144" lon="2.11422">
        <ele>59</ele>
        <time>2022-12-25T14:54:51Z</time>
      </trkpt>
      <trkpt lat="48.57147" lon="2.11422">
        <ele>59</ele>
        <time>2022-12-25T14:54:54Z</time>
      </trkpt>
      <trkpt lat="48.57151" lon="2.11422">
        <ele>59</ele>
        <time>2022-12-25T14:54:56Z</time>
      </trkpt>
      <trkpt lat="48.57154" lon="2.11422">
        <ele>59</ele>
        <time>2022-12-25T14:54:57Z</time>
      </trkpt>
      <trkpt lat="48.57158" lon="2.11422">
        <ele>59</ele>
        <time>2022-12-25T14:54:59Z</time>
      </trkpt>
      <trkpt lat="48.57161" lon="2.11422">
        <ele>59</ele>
        <time>2022-12-25T14:55:01Z</time>
      </trkpt>
      <trkpt lat="48.57164" lon="2.11421">
        <ele>59</ele>
        <time>2022-12-25T14:55:03Z</time>
      </trkpt>
      <trkpt lat="48.57168" lon="2.11422">
        <ele>59</ele>
        <time>2022-12-25T14:55:05Z</time>
      </trkpt>
      <trkpt lat="48.57171" lon="2.11422">
        <ele>59</ele>
        <time>2022-12-25T14:55:07Z</time>
      </trkpt>
      <trkpt lat="48.57174" lon="2.11422">
        <ele>59</ele>
        <time>2022-12-25T14:55:09Z</time>
      </trkpt>
      <trkpt lat="48.57178" lon="2.11422">
        <ele>59</ele>
        <time>2022-12-25T14:55:11Z</time>
      </trkpt>
      <trkpt lat="48.57181" lon="2.11422">
        <ele>59</ele>
        <time>2022-12-25T14:55:13Z</time>
      </trkpt>
      <trkpt lat="48.57183" lon="2.11422">
        <ele>59</ele>
        <time>2022-12-25T14:55:15Z</time>
      </trkpt>
      <trkpt lat="48.57186" lon="2.11422">
        <ele>59</ele>
        <time>2022-12-25T14:55:16Z</time>
      </trkpt>
      <trkpt lat="48.5719" lon="2.11422">
        <ele>59</ele>
        <time>2022-12-25T14:55:18Z</time>
      </trkpt>
      <trkpt lat="48.57193" lon="2.11422">
        <ele>59</ele>
        <time>2022-12-25T14:55:20Z</time>
      </trkpt>
      <trkpt lat="48.57197" lon="2.11422">
        <ele>58</ele>
        <time>2022-12-25T14:55:22Z</time>
      </trkpt>
      <trkpt lat="48.572" lon="2.11422">
        <ele>58</ele>
        <time>2022-12-25T14:55:24Z</time>
      </trkpt>
      <trkpt lat="48.57203" lon="2.11422">
        <ele>58</ele>
        <time>2022-12-25T14:55:26Z</time>
      </trkpt>
      <trkpt lat="48.57207" lon="2.11422">
        <ele>58</ele>
        <time>2022-12-25T14:55:28Z</time>
      </trkpt>
      <trkpt lat="48.5721" lon="2.11422">
        <ele>58</ele>
        <time>2022-12-25T14:55:30Z</time>
      </trkpt>
      <trkpt lat="48.57213" lon="2.11422">
        <ele>58</ele>
        <time>2022-12-25T14:55:32Z</time>
      </trkpt>
      <trkpt lat="48.57217" lon="2.11422">
        <ele>58</ele>
        <time>2022-12-25T14:55:34Z</time>
      </trkpt>
      <trkpt lat="48.5722" lon="2.11422">
        <ele>58</ele>
        <time>2022-12-25T14:55:36Z</time>
      </trkpt>
      <trkpt lat="48.57223" lon="2.11422">
        <ele>58</ele>
        <time>2022-12-25T14:55:38Z</time>
      </trkpt>
      <trkpt lat="48.57227" lon="2.11422">
        <ele>58</ele>
        <time>2022-12-25T14:55:40Z</time>
      </trkpt>
      <trkpt lat="48.5723" lon="2.11422">
        <ele>58</ele>
        <time>2022-12-25T14:55:42Z</time>
      </trkpt>
      <trkpt lat="48.57233" lon="2.11421">
        <ele>58</ele>
        <time>2022-12-25T14:55:44Z</time>
      </trkpt>
      <trkpt lat="48.57236" lon="2.11421">
        <ele>58</ele>
        <time>2022-12-25T14:55:46Z</time>
      </trkpt>
      <trkpt lat="48.57239" lon="2.1142">
        <ele>58</ele>
        <time>2022-12-25T14:55:48Z</time>
      </trkpt>
      <trkpt lat="48.57243" lon="2.1142">
        <ele>58</ele>
        <time>2022-12-25T14:55:50Z</time>
      </trkpt>
      <trkpt lat="48.57245" lon="2.1142">
        <ele>57</ele>
        <time>2022-12-25T14:55:53Z</time>
      </trkpt>
      <trkpt lat="48.57243" lon="2.11422">
        <ele>56</ele>
        <time>2022-12-25T14:56:12Z</time>
      </trkpt>
      <trkpt lat="48.57246" lon="2.11421">
        <ele>57</ele>
        <time>2022-12-25T14:56:15Z</time>
      </trkpt>
      <trkpt lat="48.57249" lon="2.11421">
        <ele>57</ele>
        <time>2022-12-25T14:56:17Z</time>
      </trkpt>
      <trkpt lat="48.57252" lon="2.11421">
        <ele>57</ele>
        <time>2022-12-25T14:56:19Z</time>
      </trkpt>
      <trkpt lat="48.57256" lon="2.11422">
        <ele>57</ele>
        <time>2022-12-25T14:56:21Z</time>
      </trkpt>
      <trkpt lat="48.57259" lon="2.11421">
        <ele>57</ele>
        <time>2022-12-25T14:56:24Z</time>
      </trkpt>
      <trkpt lat="48.57262" lon="2.11421">
        <ele>57</ele>
        <time>2022-12-25T14:56:25Z</time>
      </trkpt>
      <trkpt lat="48.57265" lon="2.11421">
        <ele>57</ele>
        <time>2022-12-25T14:56:27Z</time>
      </trkpt>
      <trkpt lat="48.57268" lon="2.11421">
        <ele>57</ele>
        <time>2022-12-25T14:56:29Z</time>
      </trkpt>
      <trkpt lat="48.57271" lon="2.11421">
        <ele>57</ele>
        <time>2022-12-25T14:56:31Z</time>
      </trkpt>
      <trkpt lat="48.57274" lon="2.11421">
        <ele>57</ele>
        <time>2022-12-25T14:56:33Z</time>
      </trkpt>
      <trkpt lat="48.57277" lon="2.11422">
        <ele>57</ele>
        <time>2022-12-25T14:56:35Z</time>
      </trkpt>
      <trkpt lat="48.5728" lon="2.11422">
        <ele>57</ele>
        <time>2022-12-25T14:56:37Z</time>
      </trkpt>
      <trkpt lat="48.57284" lon="2.11422">
        <ele>58</ele>
        <time>2022-12-25T14:56:39Z</time>
      </trkpt>
      <trkpt lat="48.57286" lon="2.11422">
        <ele>58</ele>
        <time>2022-12-25T14:56:41Z</time>
      </trkpt>
      <trkpt lat="48.57289" lon="2.11421">
        <ele>58</ele>
        <time>2022-12-25T14:56:43Z</time>
      </trkpt>
      <trkpt lat="48.57292" lon="2.1142">
        <ele>58</ele>
        <time>2022-12-25T14:56:45Z</time>
      </trkpt>
      <trkpt lat="48.57295" lon="2.11418">
        <ele>58</ele>
        <time>2022-12-25T14:56:47Z</time>
      </trkpt>
      <trkpt lat="48.57297" lon="2.11417">
        <ele>59</ele>
        <time>2022-12-25T14:56:50Z</time>
      </trkpt>
      <trkpt lat="48.573" lon="2.11416">
        <ele>59</ele>
        <time>2022-12-25T14:56:51Z</time>
      </trkpt>
      <trkpt lat="48.57302" lon="2.11417">
        <ele>59</ele>
        <time>2022-12-25T14:56:53Z</time>
      </trkpt>
      <trkpt lat="48.57304" lon="2.11416">
        <ele>59</ele>
        <time>2022-12-25T14:56:54Z</time>
      </trkpt>
      <trkpt lat="48.57307" lon="2.11415">
        <ele>59</ele>
        <time>2022-12-25T14:56:56Z</time>
      </trkpt>
      <trkpt lat="48.57311" lon="2.11415">
        <ele>59</ele>
        <time>2022-12-25T14:56:58Z</time>
      </trkpt>
      <trkpt lat="48.57314" lon="2.11414">
        <ele>60</ele>
        <time>2022-12-25T14:57:00Z</time>
      </trkpt>
      <trkpt lat="48.57316" lon="2.11414">
        <ele>60</ele>
        <time>2022-12-25T14:57:01Z</time>
      </trkpt>
      <trkpt lat="48.57319" lon="2.11414">
        <ele>60</ele>
        <time>2022-12-25T14:57:03Z</time>
      </trkpt>
      <trkpt lat="48.57321" lon="2.11414">
        <ele>60</ele>
        <time>2022-12-25T14:57:04Z</time>
      </trkpt>
      <trkpt lat="48.57324" lon="2.11413">
        <ele>60</ele>
        <time>2022-12-25T14:57:05Z</time>
      </trkpt>
      <trkpt lat="48.57325" lon="2.11412">
        <ele>60</ele>
        <time>2022-12-25T14:57:06Z</time>
      </trkpt>
      <trkpt lat="48.57331" lon="2.1141">
        <ele>60</ele>
        <time>2022-12-25T14:57:09Z</time>
      </trkpt>
      <trkpt lat="48.57334" lon="2.11409">
        <ele>60</ele>
        <time>2022-12-25T14:57:11Z</time>
      </trkpt>
      <trkpt lat="48.57337" lon="2.11409">
        <ele>60</ele>
        <time>2022-12-25T14:57:13Z</time>
      </trkpt>
      <trkpt lat="48.5734" lon="2.11408">
        <ele>61</ele>
        <time>2022-12-25T14:57:15Z</time>
      </trkpt>
      <trkpt lat="48.57342" lon="2.11408">
        <ele>61</ele>
        <time>2022-12-25T14:57:16Z</time>
      </trkpt>
      <trkpt lat="48.57344" lon="2.11408">
        <ele>61</ele>
        <time>2022-12-25T14:57:17Z</time>
      </trkpt>
      <trkpt lat="48.57348" lon="2.11408">
        <ele>61</ele>
        <time>2022-12-25T14:57:19Z</time>
      </trkpt>
      <trkpt lat="48.57351" lon="2.1141">
        <ele>61</ele>
        <time>2022-12-25T14:57:21Z</time>
      </trkpt>
      <trkpt lat="48.57352" lon="2.11412">
        <ele>61</ele>
        <time>2022-12-25T14:57:22Z</time>
      </trkpt>
      <trkpt lat="48.57355" lon="2.11416">
        <ele>61</ele>
        <time>2022-12-25T14:57:24Z</time>
      </trkpt>
      <trkpt lat="48.57357" lon="2.11418">
        <ele>61</ele>
        <time>2022-12-25T14:57:26Z</time>
      </trkpt>
      <trkpt lat="48.57359" lon="2.11421">
        <ele>62</ele>
        <time>2022-12-25T14:57:28Z</time>
      </trkpt>
      <trkpt lat="48.5736" lon="2.11426">
        <ele>62</ele>
        <time>2022-12-25T14:57:30Z</time>
      </trkpt>
      <trkpt lat="48.5736" lon="2.1143">
        <ele>62</ele>
        <time>2022-12-25T14:57:32Z</time>
      </trkpt>
      <trkpt lat="48.57359" lon="2.11435">
        <ele>62</ele>
        <time>2022-12-25T14:57:35Z</time>
      </trkpt>
      <trkpt lat="48.57357" lon="2.11437">
        <ele>63</ele>
        <time>2022-12-25T14:57:37Z</time>
      </trkpt>
      <trkpt lat="48.57357" lon="2.1144">
        <ele>63</ele>
        <time>2022-12-25T14:57:41Z</time>
      </trkpt>
      <trkpt lat="48.57357" lon="2.11443">
        <ele>64</ele>
        <time>2022-12-25T14:57:44Z</time>
      </trkpt>
      <trkpt lat="48.57358" lon="2.1144">
        <ele>65</ele>
        <time>2022-12-25T14:57:58Z</time>
      </trkpt>
      <trkpt lat="48.57357" lon="2.11437">
        <ele>65</ele>
        <time>2022-12-25T14:58:01Z</time>
      </trkpt>
      <trkpt lat="48.57354" lon="2.11437">
        <ele>65</ele>
        <time>2022-12-25T14:58:04Z</time>
      </trkpt>
      <trkpt lat="48.57354" lon="2.1144">
        <ele>66</ele>
        <time>2022-12-25T14:58:12Z</time>
      </trkpt>
      <trkpt lat="48.57355" lon="2.11437">
        <ele>66</ele>
        <time>2022-12-25T14:58:34Z</time>
      </trkpt>
      <trkpt lat="48.57355" lon="2.11435">
        <ele>66</ele>
        <time>2022-12-25T14:58:38Z</time>
      </trkpt>
      <trkpt lat="48.57356" lon="2.11432">
        <ele>66</ele>
        <time>2022-12-25T14:58:41Z</time>
      </trkpt>
      <trkpt lat="48.57358" lon="2.1143">
        <ele>66</ele>
        <time>2022-12-25T14:58:44Z</time>
      </trkpt>
      <trkpt lat="48.5736" lon="2.11429">
        <ele>66</ele>
        <time>2022-12-25T14:58:45Z</time>
      </trkpt>
      <trkpt lat="48.57364" lon="2.11428">
        <ele>66</ele>
        <time>2022-12-25T14:58:47Z</time>
      </trkpt>
      <trkpt lat="48.57366" lon="2.11429">
        <ele>67</ele>
        <time>2022-12-25T14:58:48Z</time>
      </trkpt>
      <trkpt lat="48.57368" lon="2.11429">
        <ele>67</ele>
        <time>2022-12-25T14:58:49Z</time>
      </trkpt>
      <trkpt lat="48.57371" lon="2.11428">
        <ele>67</ele>
        <time>2022-12-25T14:58:51Z</time>
      </trkpt>
      <trkpt lat="48.57374" lon="2.11429">
        <ele>67</ele>
        <time>2022-12-25T14:58:53Z</time>
      </trkpt>
      <trkpt lat="48.57378" lon="2.1143">
        <ele>67</ele>
        <time>2022-12-25T14:58:55Z</time>
      </trkpt>
      <trkpt lat="48.5738" lon="2.11431">
        <ele>67</ele>
        <time>2022-12-25T14:58:57Z</time>
      </trkpt>
      <trkpt lat="48.57384" lon="2.11432">
        <ele>68</ele>
        <time>2022-12-25T14:58:59Z</time>
      </trkpt>
      <trkpt lat="48.57386" lon="2.11432">
        <ele>68</ele>
        <time>2022-12-25T14:59:00Z</time>
      </trkpt>
      <trkpt lat="48.57389" lon="2.11433">
        <ele>68</ele>
        <time>2022-12-25T14:59:03Z</time>
      </trkpt>
      <trkpt lat="48.57392" lon="2.11433">
        <ele>68</ele>
        <time>2022-12-25T14:59:04Z</time>
      </trkpt>
      <trkpt lat="48.57396" lon="2.11433">
        <ele>68</ele>
        <time>2022-12-25T14:59:06Z</time>
      </trkpt>
      <trkpt lat="48.57399" lon="2.11433">
        <ele>69</ele>
        <time>2022-12-25T14:59:08Z</time>
      </trkpt>
      <trkpt lat="48.57402" lon="2.11434">
        <ele>69</ele>
        <time>2022-12-25T14:59:10Z</time>
      </trkpt>
      <trkpt lat="48.57405" lon="2.11434">
        <ele>69</ele>
        <time>2022-12-25T14:59:12Z</time>
      </trkpt>
      <trkpt lat="48.57408" lon="2.11435">
        <ele>69</ele>
        <time>2022-12-25T14:59:14Z</time>
      </trkpt>
      <trkpt lat="48.5741" lon="2.11435">
        <ele>69</ele>
        <time>2022-12-25T14:59:16Z</time>
      </trkpt>
      <trkpt lat="48.57413" lon="2.11434">
        <ele>69</ele>
        <time>2022-12-25T14:59:20Z</time>
      </trkpt>
      <trkpt lat="48.57415" lon="2.11434">
        <ele>69</ele>
        <time>2022-12-25T14:59:22Z</time>
      </trkpt>
      <trkpt lat="48.57417" lon="2.11434">
        <ele>69</ele>
        <time>2022-12-25T14:59:23Z</time>
      </trkpt>
      <trkpt lat="48.5742" lon="2.11434">
        <ele>69</ele>
        <time>2022-12-25T14:59:25Z</time>
      </trkpt>
      <trkpt lat="48.57423" lon="2.11434">
        <ele>69</ele>
        <time>2022-12-25T14:59:27Z</time>
      </trkpt>
      <trkpt lat="48.57425" lon="2.11435">
        <ele>69</ele>
        <time>2022-12-25T14:59:29Z</time>
      </trkpt>
      <trkpt lat="48.57427" lon="2.11435">
        <ele>69</ele>
        <time>2022-12-25T14:59:30Z</time>
      </trkpt>
      <trkpt lat="48.57429" lon="2.11436">
        <ele>69</ele>
        <time>2022-12-25T14:59:31Z</time>
      </trkpt>
      <trkpt lat="48.57431" lon="2.11436">
        <ele>69</ele>
        <time>2022-12-25T14:59:32Z</time>
      </trkpt>
      <trkpt lat="48.57433" lon="2.11436">
        <ele>69</ele>
        <time>2022-12-25T14:59:33Z</time>
      </trkpt>
      <trkpt lat="48.57435" lon="2.11437">
        <ele>69</ele>
        <time>2022-12-25T14:59:34Z</time>
      </trkpt>
      <trkpt lat="48.57437" lon="2.11437">
        <ele>70</ele>
        <time>2022-12-25T14:59:35Z</time>
      </trkpt>
      <trkpt lat="48.57439" lon="2.11437">
        <ele>70</ele>
        <time>2022-12-25T14:59:36Z</time>
      </trkpt>
      <trkpt lat="48.57442" lon="2.11438">
        <ele>70</ele>
        <time>2022-12-25T14:59:38Z</time>
      </trkpt>
      <trkpt lat="48.57444" lon="2.11438">
        <ele>70</ele>
        <time>2022-12-25T14:59:39Z</time>
      </trkpt>
      <trkpt lat="48.57448" lon="2.11438">
        <ele>70</ele>
        <time>2022-12-25T14:59:41Z</time>
      </trkpt>
      <trkpt lat="48.57451" lon="2.11439">
        <ele>70</ele>
        <time>2022-12-25T14:59:43Z</time>
      </trkpt>
      <trkpt lat="48.57453" lon="2.1144">
        <ele>70</ele>
        <time>2022-12-25T14:59:44Z</time>
      </trkpt>
      <trkpt lat="48.57456" lon="2.11441">
        <ele>70</ele>
        <time>2022-12-25T14:59:46Z</time>
      </trkpt>
      <trkpt lat="48.57459" lon="2.11443">
        <ele>70</ele>
        <time>2022-12-25T14:59:48Z</time>
      </trkpt>
      <trkpt lat="48.57462" lon="2.11444">
        <ele>70</ele>
        <time>2022-12-25T14:59:50Z</time>
      </trkpt>
      <trkpt lat="48.57465" lon="2.11445">
        <ele>70</ele>
        <time>2022-12-25T14:59:52Z</time>
      </trkpt>
      <trkpt lat="48.57467" lon="2.11446">
        <ele>70</ele>
        <time>2022-12-25T14:59:53Z</time>
      </trkpt>
      <trkpt lat="48.57472" lon="2.11449">
        <ele>70</ele>
        <time>2022-12-25T14:59:55Z</time>
      </trkpt>
      <trkpt lat="48.57474" lon="2.11449">
        <ele>69</ele>
        <time>2022-12-25T14:59:56Z</time>
      </trkpt>
      <trkpt lat="48.57477" lon="2.1145">
        <ele>69</ele>
        <time>2022-12-25T14:59:59Z</time>
      </trkpt>
      <trkpt lat="48.5748" lon="2.11453">
        <ele>70</ele>
        <time>2022-12-25T15:00:00Z</time>
      </trkpt>
      <trkpt lat="48.57482" lon="2.11456">
        <ele>70</ele>
        <time>2022-12-25T15:00:02Z</time>
      </trkpt>
      <trkpt lat="48.57484" lon="2.11457">
        <ele>70</ele>
        <time>2022-12-25T15:00:05Z</time>
      </trkpt>
      <trkpt lat="48.57485" lon="2.11459">
        <ele>70</ele>
        <time>2022-12-25T15:00:08Z</time>
      </trkpt>
      <trkpt lat="48.57487" lon="2.1146">
        <ele>70</ele>
        <time>2022-12-25T15:00:10Z</time>
      </trkpt>
      <trkpt lat="48.5749" lon="2.11461">
        <ele>70</ele>
        <time>2022-12-25T15:00:13Z</time>
      </trkpt>
      <trkpt lat="48.57492" lon="2.11462">
        <ele>70</ele>
        <time>2022-12-25T15:00:15Z</time>
      </trkpt>
      <trkpt lat="48.57494" lon="2.11465">
        <ele>70</ele>
        <time>2022-12-25T15:00:19Z</time>
      </trkpt>
      <trkpt lat="48.57496" lon="2.11466">
        <ele>70</ele>
        <time>2022-12-25T15:00:20Z</time>
      </trkpt>
      <trkpt lat="48.575" lon="2.1147">
        <ele>70</ele>
        <time>2022-12-25T15:00:22Z</time>
      </trkpt>
      <trkpt lat="48.57501" lon="2.11472">
        <ele>70</ele>
        <time>2022-12-25T15:00:23Z</time>
      </trkpt>
      <trkpt lat="48.57502" lon="2.11474">
        <ele>69</ele>
        <time>2022-12-25T15:00:24Z</time>
      </trkpt>
      <trkpt lat="48.57504" lon="2.11475">
        <ele>69</ele>
        <time>2022-12-25T15:00:25Z</time>
      </trkpt>
      <trkpt lat="48.57506" lon="2.11477">
        <ele>69</ele>
        <time>2022-12-25T15:00:26Z</time>
      </trkpt>
      <trkpt lat="48.57509" lon="2.11479">
        <ele>69</ele>
        <time>2022-12-25T15:00:28Z</time>
      </trkpt>
      <trkpt lat="48.57512" lon="2.11482">
        <ele>68</ele>
        <time>2022-12-25T15:00:30Z</time>
      </trkpt>
      <trkpt lat="48.57514" lon="2.11484">
        <ele>68</ele>
        <time>2022-12-25T15:00:32Z</time>
      </trkpt>
      <trkpt lat="48.57516" lon="2.11486">
        <ele>67</ele>
        <time>2022-12-25T15:00:34Z</time>
      </trkpt>
      <trkpt lat="48.57518" lon="2.11489">
        <ele>66</ele>
        <time>2022-12-25T15:00:36Z</time>
      </trkpt>
      <trkpt lat="48.5752" lon="2.11492">
        <ele>66</ele>
        <time>2022-12-25T15:00:38Z</time>
      </trkpt>
      <trkpt lat="48.57522" lon="2.11494">
        <ele>66</ele>
        <time>2022-12-25T15:00:41Z</time>
      </trkpt>
      <trkpt lat="48.57523" lon="2.11496">
        <ele>64</ele>
        <time>2022-12-25T15:00:48Z</time>
      </trkpt>
      <trkpt lat="48.57526" lon="2.11498">
        <ele>64</ele>
        <time>2022-12-25T15:00:51Z</time>
      </trkpt>
      <trkpt lat="48.57528" lon="2.115">
        <ele>64</ele>
        <time>2022-12-25T15:00:53Z</time>
      </trkpt>
      <trkpt lat="48.57531" lon="2.11503">
        <ele>64</ele>
        <time>2022-12-25T15:00:55Z</time>
      </trkpt>
      <trkpt lat="48.57534" lon="2.11505">
        <ele>64</ele>
        <time>2022-12-25T15:00:57Z</time>
      </trkpt>
      <trkpt lat="48.57536" lon="2.11506">
        <ele>64</ele>
        <time>2022-12-25T15:00:58Z</time>
      </trkpt>
      <trkpt lat="48.57538" lon="2.11506">
        <ele>64</ele>
        <time>2022-12-25T15:00:59Z</time>
      </trkpt>
      <trkpt lat="48.57541" lon="2.11507">
        <ele>64</ele>
        <time>2022-12-25T15:01:01Z</time>
      </trkpt>
      <trkpt lat="48.57544" lon="2.11508">
        <ele>64</ele>
        <time>2022-12-25T15:01:03Z</time>
      </trkpt>
      <trkpt lat="48.57547" lon="2.11508">
        <ele>64</ele>
        <time>2022-12-25T15:01:05Z</time>
      </trkpt>
      <trkpt lat="48.5755" lon="2.11508">
        <ele>65</ele>
        <time>2022-12-25T15:01:07Z</time>
      </trkpt>
      <trkpt lat="48.57553" lon="2.11507">
        <ele>64</ele>
        <time>2022-12-25T15:01:09Z</time>
      </trkpt>
      <trkpt lat="48.57556" lon="2.11507">
        <ele>64</ele>
        <time>2022-12-25T15:01:11Z</time>
      </trkpt>
      <trkpt lat="48.57559" lon="2.11506">
        <ele>64</ele>
        <time>2022-12-25T15:01:13Z</time>
      </trkpt>
      <trkpt lat="48.57561" lon="2.11506">
        <ele>64</ele>
        <time>2022-12-25T15:01:16Z</time>
      </trkpt>
      <trkpt lat="48.57563" lon="2.11506">
        <ele>64</ele>
        <time>2022-12-25T15:01:17Z</time>
      </trkpt>
      <trkpt lat="48.57566" lon="2.11507">
        <ele>64</ele>
        <time>2022-12-25T15:01:19Z</time>
      </trkpt>
      <trkpt lat="48.57569" lon="2.11508">
        <ele>64</ele>
        <time>2022-12-25T15:01:21Z</time>
      </trkpt>
      <trkpt lat="48.57572" lon="2.1151">
        <ele>64</ele>
        <time>2022-12-25T15:01:23Z</time>
      </trkpt>
      <trkpt lat="48.57574" lon="2.11512">
        <ele>64</ele>
        <time>2022-12-25T15:01:25Z</time>
      </trkpt>
      <trkpt lat="48.57576" lon="2.11515">
        <ele>64</ele>
        <time>2022-12-25T15:01:27Z</time>
      </trkpt>
      <trkpt lat="48.57578" lon="2.11518">
        <ele>64</ele>
        <time>2022-12-25T15:01:29Z</time>
      </trkpt>
      <trkpt lat="48.57579" lon="2.11521">
        <ele>65</ele>
        <time>2022-12-25T15:01:31Z</time>
      </trkpt>
      <trkpt lat="48.57581" lon="2.11524">
        <ele>65</ele>
        <time>2022-12-25T15:01:33Z</time>
      </trkpt>
      <trkpt lat="48.57582" lon="2.11526">
        <ele>65</ele>
        <time>2022-12-25T15:01:35Z</time>
      </trkpt>
      <trkpt lat="48.57584" lon="2.11529">
        <ele>65</ele>
        <time>2022-12-25T15:01:37Z</time>
      </trkpt>
      <trkpt lat="48.57586" lon="2.11532">
        <ele>65</ele>
        <time>2022-12-25T15:01:39Z</time>
      </trkpt>
      <trkpt lat="48.57589" lon="2.11533">
        <ele>65</ele>
        <time>2022-12-25T15:01:41Z</time>
      </trkpt>
      <trkpt lat="48.57592" lon="2.11534">
        <ele>65</ele>
        <time>2022-12-25T15:01:43Z</time>
      </trkpt>
      <trkpt lat="48.57595" lon="2.11533">
        <ele>66</ele>
        <time>2022-12-25T15:01:45Z</time>
      </trkpt>
      <trkpt lat="48.57598" lon="2.11532">
        <ele>66</ele>
        <time>2022-12-25T15:01:47Z</time>
      </trkpt>
      <trkpt lat="48.576" lon="2.1153">
        <ele>66</ele>
        <time>2022-12-25T15:01:49Z</time>
      </trkpt>
      <trkpt lat="48.57603" lon="2.11528">
        <ele>66</ele>
        <time>2022-12-25T15:01:51Z</time>
      </trkpt>
      <trkpt lat="48.57606" lon="2.11526">
        <ele>66</ele>
        <time>2022-12-25T15:01:54Z</time>
      </trkpt>
      <trkpt lat="48.57609" lon="2.11524">
        <ele>66</ele>
        <time>2022-12-25T15:01:55Z</time>
      </trkpt>
      <trkpt lat="48.57612" lon="2.11523">
        <ele>67</ele>
        <time>2022-12-25T15:01:57Z</time>
      </trkpt>
      <trkpt lat="48.57615" lon="2.11521">
        <ele>67</ele>
        <time>2022-12-25T15:01:59Z</time>
      </trkpt>
      <trkpt lat="48.57617" lon="2.1152">
        <ele>67</ele>
        <time>2022-12-25T15:02:01Z</time>
      </trkpt>
      <trkpt lat="48.5762" lon="2.11518">
        <ele>67</ele>
        <time>2022-12-25T15:02:03Z</time>
      </trkpt>
      <trkpt lat="48.57623" lon="2.11516">
        <ele>67</ele>
        <time>2022-12-25T15:02:05Z</time>
      </trkpt>
      <trkpt lat="48.57626" lon="2.11514">
        <ele>67</ele>
        <time>2022-12-25T15:02:07Z</time>
      </trkpt>
      <trkpt lat="48.57629" lon="2.11513">
        <ele>68</ele>
        <time>2022-12-25T15:02:09Z</time>
      </trkpt>
      <trkpt lat="48.57632" lon="2.11512">
        <ele>68</ele>
        <time>2022-12-25T15:02:11Z</time>
      </trkpt>
      <trkpt lat="48.57635" lon="2.11511">
        <ele>68</ele>
        <time>2022-12-25T15:02:13Z</time>
      </trkpt>
      <trkpt lat="48.57638" lon="2.11509">
        <ele>68</ele>
        <time>2022-12-25T15:02:15Z</time>
      </trkpt>
      <trkpt lat="48.5764" lon="2.11508">
        <ele>68</ele>
        <time>2022-12-25T15:02:17Z</time>
      </trkpt>
      <trkpt lat="48.57643" lon="2.11505">
        <ele>69</ele>
        <time>2022-12-25T15:02:19Z</time>
      </trkpt>
      <trkpt lat="48.57646" lon="2.11504">
        <ele>69</ele>
        <time>2022-12-25T15:02:21Z</time>
      </trkpt>
      <trkpt lat="48.57649" lon="2.11502">
        <ele>69</ele>
        <time>2022-12-25T15:02:23Z</time>
      </trkpt>
      <trkpt lat="48.57652" lon="2.115">
        <ele>70</ele>
        <time>2022-12-25T15:02:25Z</time>
      </trkpt>
      <trkpt lat="48.57655" lon="2.11499">
        <ele>70</ele>
        <time>2022-12-25T15:02:27Z</time>
      </trkpt>
      <trkpt lat="48.57658" lon="2.11497">
        <ele>70</ele>
        <time>2022-12-25T15:02:29Z</time>
      </trkpt>
      <trkpt lat="48.57661" lon="2.11495">
        <ele>70</ele>
        <time>2022-12-25T15:02:32Z</time>
      </trkpt>
      <trkpt lat="48.57664" lon="2.11494">
        <ele>70</ele>
        <time>2022-12-25T15:02:33Z</time>
      </trkpt>
      <trkpt lat="48.57667" lon="2.11493">
        <ele>71</ele>
        <time>2022-12-25T15:02:35Z</time>
      </trkpt>
      <trkpt lat="48.5767" lon="2.11491">
        <ele>71</ele>
        <time>2022-12-25T15:02:37Z</time>
      </trkpt>
      <trkpt lat="48.57673" lon="2.1149">
        <ele>71</ele>
        <time>2022-12-25T15:02:39Z</time>
      </trkpt>
      <trkpt lat="48.57676" lon="2.11488">
        <ele>72</ele>
        <time>2022-12-25T15:02:41Z</time>
      </trkpt>
      <trkpt lat="48.57678" lon="2.11487">
        <ele>72</ele>
        <time>2022-12-25T15:02:43Z</time>
      </trkpt>
      <trkpt lat="48.57682" lon="2.11486">
        <ele>72</ele>
        <time>2022-12-25T15:02:45Z</time>
      </trkpt>
      <trkpt lat="48.57685" lon="2.11484">
        <ele>72</ele>
        <time>2022-12-25T15:02:47Z</time>
      </trkpt>
      <trkpt lat="48.57688" lon="2.11483">
        <ele>73</ele>
        <time>2022-12-25T15:02:49Z</time>
      </trkpt>
      <trkpt lat="48.57691" lon="2.11482">
        <ele>73</ele>
        <time>2022-12-25T15:02:51Z</time>
      </trkpt>
      <trkpt lat="48.57694" lon="2.11481">
        <ele>73</ele>
        <time>2022-12-25T15:02:53Z</time>
      </trkpt>
      <trkpt lat="48.57697" lon="2.11479">
        <ele>73</ele>
        <time>2022-12-25T15:02:55Z</time>
      </trkpt>
      <trkpt lat="48.577" lon="2.11478">
        <ele>74</ele>
        <time>2022-12-25T15:02:57Z</time>
      </trkpt>
      <trkpt lat="48.57703" lon="2.11476">
        <ele>74</ele>
        <time>2022-12-25T15:02:59Z</time>
      </trkpt>
      <trkpt lat="48.57707" lon="2.11475">
        <ele>74</ele>
        <time>2022-12-25T15:03:01Z</time>
      </trkpt>
      <trkpt lat="48.5771" lon="2.11474">
        <ele>74</ele>
        <time>2022-12-25T15:03:03Z</time>
      </trkpt>
      <trkpt lat="48.57713" lon="2.11472">
        <ele>74</ele>
        <time>2022-12-25T15:03:05Z</time>
      </trkpt>
      <trkpt lat="48.57716" lon="2.1147">
        <ele>75</ele>
        <time>2022-12-25T15:03:07Z</time>
      </trkpt>
      <trkpt lat="48.57719" lon="2.11469">
        <ele>75</ele>
        <time>2022-12-25T15:03:10Z</time>
      </trkpt>
      <trkpt lat="48.57722" lon="2.11467">
        <ele>75</ele>
        <time>2022-12-25T15:03:11Z</time>
      </trkpt>
      <trkpt lat="48.57725" lon="2.11465">
        <ele>75</ele>
        <time>2022-12-25T15:03:13Z</time>
      </trkpt>
      <trkpt lat="48.57728" lon="2.11463">
        <ele>76</ele>
        <time>2022-12-25T15:03:15Z</time>
      </trkpt>
      <trkpt lat="48.57732" lon="2.11462">
        <ele>76</ele>
        <time>2022-12-25T15:03:17Z</time>
      </trkpt>
      <trkpt lat="48.57734" lon="2.11461">
        <ele>76</ele>
        <time>2022-12-25T15:03:19Z</time>
      </trkpt>
      <trkpt lat="48.57738" lon="2.11459">
        <ele>76</ele>
        <time>2022-12-25T15:03:21Z</time>
      </trkpt>
      <trkpt lat="48.57741" lon="2.11458">
        <ele>77</ele>
        <time>2022-12-25T15:03:23Z</time>
      </trkpt>
      <trkpt lat="48.57744" lon="2.11456">
        <ele>77</ele>
        <time>2022-12-25T15:03:25Z</time>
      </trkpt>
      <trkpt lat="48.57747" lon="2.11454">
        <ele>77</ele>
        <time>2022-12-25T15:03:27Z</time>
      </trkpt>
      <trkpt lat="48.5775" lon="2.11453">
        <ele>77</ele>
        <time>2022-12-25T15:03:29Z</time>
      </trkpt>
      <trkpt lat="48.57753" lon="2.11452">
        <ele>78</ele>
        <time>2022-12-25T15:03:31Z</time>
      </trkpt>
      <trkpt lat="48.57756" lon="2.1145">
        <ele>78</ele>
        <time>2022-12-25T15:03:33Z</time>
      </trkpt>
      <trkpt lat="48.57759" lon="2.11449">
        <ele>78</ele>
        <time>2022-12-25T15:03:35Z</time>
      </trkpt>
      <trkpt lat="48.57762" lon="2.11447">
        <ele>78</ele>
        <time>2022-12-25T15:03:37Z</time>
      </trkpt>
      <trkpt lat="48.57765" lon="2.11446">
        <ele>79</ele>
        <time>2022-12-25T15:03:39Z</time>
      </trkpt>
      <trkpt lat="48.57768" lon="2.11445">
        <ele>79</ele>
        <time>2022-12-25T15:03:41Z</time>
      </trkpt>
      <trkpt lat="48.57771" lon="2.11443">
        <ele>79</ele>
        <time>2022-12-25T15:03:43Z</time>
      </trkpt>
      <trkpt lat="48.57774" lon="2.11442">
        <ele>80</ele>
        <time>2022-12-25T15:03:45Z</time>
      </trkpt>
      <trkpt lat="48.57777" lon="2.11441">
        <ele>80</ele>
        <time>2022-12-25T15:03:48Z</time>
      </trkpt>
      <trkpt lat="48.5778" lon="2.1144">
        <ele>80</ele>
        <time>2022-12-25T15:03:49Z</time>
      </trkpt>
      <trkpt lat="48.57783" lon="2.11439">
        <ele>80</ele>
        <time>2022-12-25T15:03:51Z</time>
      </trkpt>
      <trkpt lat="48.57785" lon="2.11438">
        <ele>81</ele>
        <time>2022-12-25T15:03:53Z</time>
      </trkpt>
      <trkpt lat="48.57788" lon="2.11438">
        <ele>81</ele>
        <time>2022-12-25T15:03:55Z</time>
      </trkpt>
      <trkpt lat="48.57791" lon="2.11437">
        <ele>81</ele>
        <time>2022-12-25T15:03:57Z</time>
      </trkpt>
      <trkpt lat="48.57794" lon="2.11436">
        <ele>81</ele>
        <time>2022-12-25T15:03:59Z</time>
      </trkpt>
      <trkpt lat="48.57797" lon="2.11434">
        <ele>81</ele>
        <time>2022-12-25T15:04:01Z</time>
      </trkpt>
      <trkpt lat="48.578" lon="2.11435">
        <ele>82</ele>
        <time>2022-12-25T15:04:03Z</time>
      </trkpt>
      <trkpt lat="48.57803" lon="2.11437">
        <ele>82</ele>
        <time>2022-12-25T15:04:05Z</time>
      </trkpt>
      <trkpt lat="48.57806" lon="2.11438">
        <ele>82</ele>
        <time>2022-12-25T15:04:07Z</time>
      </trkpt>
      <trkpt lat="48.57808" lon="2.11438">
        <ele>82</ele>
        <time>2022-12-25T15:04:09Z</time>
      </trkpt>
      <trkpt lat="48.57812" lon="2.11437">
        <ele>83</ele>
        <time>2022-12-25T15:04:11Z</time>
      </trkpt>
      <trkpt lat="48.57814" lon="2.11437">
        <ele>83</ele>
        <time>2022-12-25T15:04:12Z</time>
      </trkpt>
      <trkpt lat="48.57817" lon="2.11437">
        <ele>84</ele>
        <time>2022-12-25T15:04:14Z</time>
      </trkpt>
      <trkpt lat="48.57819" lon="2.11436">
        <ele>84</ele>
        <time>2022-12-25T15:04:16Z</time>
      </trkpt>
      <trkpt lat="48.57822" lon="2.11434">
        <ele>84</ele>
        <time>2022-12-25T15:04:18Z</time>
      </trkpt>
      <trkpt lat="48.57825" lon="2.11432">
        <ele>85</ele>
        <time>2022-12-25T15:04:20Z</time>
      </trkpt>
      <trkpt lat="48.57828" lon="2.1143">
        <ele>85</ele>
        <time>2022-12-25T15:04:22Z</time>
      </trkpt>
      <trkpt lat="48.57831" lon="2.11429">
        <ele>85</ele>
        <time>2022-12-25T15:04:24Z</time>
      </trkpt>
      <trkpt lat="48.57834" lon="2.11427">
        <ele>85</ele>
        <time>2022-12-25T15:04:26Z</time>
      </trkpt>
      <trkpt lat="48.57837" lon="2.11425">
        <ele>86</ele>
        <time>2022-12-25T15:04:28Z</time>
      </trkpt>
      <trkpt lat="48.57839" lon="2.11423">
        <ele>86</ele>
        <time>2022-12-25T15:04:30Z</time>
      </trkpt>
      <trkpt lat="48.57841" lon="2.11421">
        <ele>86</ele>
        <time>2022-12-25T15:04:32Z</time>
      </trkpt>
      <trkpt lat="48.57844" lon="2.1142">
        <ele>87</ele>
        <time>2022-12-25T15:04:34Z</time>
      </trkpt>
      <trkpt lat="48.57847" lon="2.11419">
        <ele>87</ele>
        <time>2022-12-25T15:04:36Z</time>
      </trkpt>
      <trkpt lat="48.57849" lon="2.11418">
        <ele>87</ele>
        <time>2022-12-25T15:04:38Z</time>
      </trkpt>
      <trkpt lat="48.57852" lon="2.11416">
        <ele>87</ele>
        <time>2022-12-25T15:04:40Z</time>
      </trkpt>
      <trkpt lat="48.57854" lon="2.11415">
        <ele>88</ele>
        <time>2022-12-25T15:04:42Z</time>
      </trkpt>
      <trkpt lat="48.57856" lon="2.11413">
        <ele>88</ele>
        <time>2022-12-25T15:04:45Z</time>
      </trkpt>
      <trkpt lat="48.57859" lon="2.11411">
        <ele>88</ele>
        <time>2022-12-25T15:04:46Z</time>
      </trkpt>
      <trkpt lat="48.57863" lon="2.11408">
        <ele>88</ele>
        <time>2022-12-25T15:04:48Z</time>
      </trkpt>
      <trkpt lat="48.57865" lon="2.11406">
        <ele>88</ele>
        <time>2022-12-25T15:04:49Z</time>
      </trkpt>
      <trkpt lat="48.57868" lon="2.11405">
        <ele>88</ele>
        <time>2022-12-25T15:04:50Z</time>
      </trkpt>
      <trkpt lat="48.57871" lon="2.11403">
        <ele>89</ele>
        <time>2022-12-25T15:04:51Z</time>
      </trkpt>
      <trkpt lat="48.57873" lon="2.11401">
        <ele>89</ele>
        <time>2022-12-25T15:04:52Z</time>
      </trkpt>
      <trkpt lat="48.57876" lon="2.11399">
        <ele>89</ele>
        <time>2022-12-25T15:04:53Z</time>
      </trkpt>
      <trkpt lat="48.57879" lon="2.11397">
        <ele>89</ele>
        <time>2022-12-25T15:04:54Z</time>
      </trkpt>
      <trkpt lat="48.57882" lon="2.11396">
        <ele>89</ele>
        <time>2022-12-25T15:04:55Z</time>
      </trkpt>
      <trkpt lat="48.57887" lon="2.11392">
        <ele>90</ele>
        <time>2022-12-25T15:04:57Z</time>
      </trkpt>
      <trkpt lat="48.5789" lon="2.1139">
        <ele>90</ele>
        <time>2022-12-25T15:04:58Z</time>
      </trkpt>
      <trkpt lat="48.57893" lon="2.11388">
        <ele>90</ele>
        <time>2022-12-25T15:04:59Z</time>
      </trkpt>
      <trkpt lat="48.57895" lon="2.11386">
        <ele>90</ele>
        <time>2022-12-25T15:05:00Z</time>
      </trkpt>
      <trkpt lat="48.57898" lon="2.11385">
        <ele>90</ele>
        <time>2022-12-25T15:05:01Z</time>
      </trkpt>
      <trkpt lat="48.57901" lon="2.11383">
        <ele>90</ele>
        <time>2022-12-25T15:05:02Z</time>
      </trkpt>
      <trkpt lat="48.57906" lon="2.11379">
        <ele>90</ele>
        <time>2022-12-25T15:05:04Z</time>
      </trkpt>
      <trkpt lat="48.57909" lon="2.11377">
        <ele>90</ele>
        <time>2022-12-25T15:05:05Z</time>
      </trkpt>
      <trkpt lat="48.57912" lon="2.11375">
        <ele>91</ele>
        <time>2022-12-25T15:05:06Z</time>
      </trkpt>
      <trkpt lat="48.57915" lon="2.11374">
        <ele>91</ele>
        <time>2022-12-25T15:05:07Z</time>
      </trkpt>
      <trkpt lat="48.57917" lon="2.11372">
        <ele>91</ele>
        <time>2022-12-25T15:05:08Z</time>
      </trkpt>
      <trkpt lat="48.57919" lon="2.11371">
        <ele>91</ele>
        <time>2022-12-25T15:05:09Z</time>
      </trkpt>
      <trkpt lat="48.57922" lon="2.11369">
        <ele>91</ele>
        <time>2022-12-25T15:05:10Z</time>
      </trkpt>
      <trkpt lat="48.57924" lon="2.11368">
        <ele>91</ele>
        <time>2022-12-25T15:05:11Z</time>
      </trkpt>
      <trkpt lat="48.57926" lon="2.11367">
        <ele>91</ele>
        <time>2022-12-25T15:05:12Z</time>
      </trkpt>
      <trkpt lat="48.57929" lon="2.11366">
        <ele>92</ele>
        <time>2022-12-25T15:05:13Z</time>
      </trkpt>
      <trkpt lat="48.57933" lon="2.11363">
        <ele>92</ele>
        <time>2022-12-25T15:05:15Z</time>
      </trkpt>
      <trkpt lat="48.57936" lon="2.11362">
        <ele>92</ele>
        <time>2022-12-25T15:05:16Z</time>
      </trkpt>
      <trkpt lat="48.57938" lon="2.1136">
        <ele>92</ele>
        <time>2022-12-25T15:05:17Z</time>
      </trkpt>
      <trkpt lat="48.57941" lon="2.11359">
        <ele>92</ele>
        <time>2022-12-25T15:05:18Z</time>
      </trkpt>
      <trkpt lat="48.57944" lon="2.11357">
        <ele>92</ele>
        <time>2022-12-25T15:05:19Z</time>
      </trkpt>
      <trkpt lat="48.57947" lon="2.11355">
        <ele>92</ele>
        <time>2022-12-25T15:05:20Z</time>
      </trkpt>
      <trkpt lat="48.5795" lon="2.11353">
        <ele>92</ele>
        <time>2022-12-25T15:05:21Z</time>
      </trkpt>
      <trkpt lat="48.57955" lon="2.1135">
        <ele>93</ele>
        <time>2022-12-25T15:05:23Z</time>
      </trkpt>
      <trkpt lat="48.57958" lon="2.11349">
        <ele>93</ele>
        <time>2022-12-25T15:05:24Z</time>
      </trkpt>
      <trkpt lat="48.5796" lon="2.11347">
        <ele>93</ele>
        <time>2022-12-25T15:05:25Z</time>
      </trkpt>
      <trkpt lat="48.57963" lon="2.11345">
        <ele>93</ele>
        <time>2022-12-25T15:05:26Z</time>
      </trkpt>
      <trkpt lat="48.57966" lon="2.11343">
        <ele>93</ele>
        <time>2022-12-25T15:05:27Z</time>
      </trkpt>
      <trkpt lat="48.57968" lon="2.11341">
        <ele>93</ele>
        <time>2022-12-25T15:05:28Z</time>
      </trkpt>
      <trkpt lat="48.57971" lon="2.11339">
        <ele>93</ele>
        <time>2022-12-25T15:05:29Z</time>
      </trkpt>
      <trkpt lat="48.57974" lon="2.11337">
        <ele>93</ele>
        <time>2022-12-25T15:05:30Z</time>
      </trkpt>
      <trkpt lat="48.57979" lon="2.11334">
        <ele>93</ele>
        <time>2022-12-25T15:05:32Z</time>
      </trkpt>
      <trkpt lat="48.57982" lon="2.11332">
        <ele>93</ele>
        <time>2022-12-25T15:05:33Z</time>
      </trkpt>
      <trkpt lat="48.57985" lon="2.11331">
        <ele>93</ele>
        <time>2022-12-25T15:05:34Z</time>
      </trkpt>
      <trkpt lat="48.57987" lon="2.11331">
        <ele>94</ele>
        <time>2022-12-25T15:05:35Z</time>
      </trkpt>
      <trkpt lat="48.57989" lon="2.1133">
        <ele>93</ele>
        <time>2022-12-25T15:05:36Z</time>
      </trkpt>
      <trkpt lat="48.57992" lon="2.11329">
        <ele>94</ele>
        <time>2022-12-25T15:05:37Z</time>
      </trkpt>
      <trkpt lat="48.57995" lon="2.11328">
        <ele>94</ele>
        <time>2022-12-25T15:05:38Z</time>
      </trkpt>
      <trkpt lat="48.57997" lon="2.11327">
        <ele>94</ele>
        <time>2022-12-25T15:05:39Z</time>
      </trkpt>
      <trkpt lat="48.58" lon="2.11326">
        <ele>94</ele>
        <time>2022-12-25T15:05:40Z</time>
      </trkpt>
      <trkpt lat="48.58005" lon="2.11323">
        <ele>94</ele>
        <time>2022-12-25T15:05:42Z</time>
      </trkpt>
      <trkpt lat="48.58007" lon="2.11321">
        <ele>94</ele>
        <time>2022-12-25T15:05:43Z</time>
      </trkpt>
      <trkpt lat="48.5801" lon="2.11319">
        <ele>94</ele>
        <time>2022-12-25T15:05:44Z</time>
      </trkpt>
      <trkpt lat="48.58012" lon="2.11318">
        <ele>94</ele>
        <time>2022-12-25T15:05:45Z</time>
      </trkpt>
      <trkpt lat="48.58015" lon="2.11316">
        <ele>94</ele>
        <time>2022-12-25T15:05:46Z</time>
      </trkpt>
      <trkpt lat="48.58018" lon="2.11314">
        <ele>94</ele>
        <time>2022-12-25T15:05:47Z</time>
      </trkpt>
      <trkpt lat="48.58021" lon="2.11312">
        <ele>94</ele>
        <time>2022-12-25T15:05:48Z</time>
      </trkpt>
      <trkpt lat="48.58028" lon="2.11309">
        <ele>94</ele>
        <time>2022-12-25T15:05:50Z</time>
      </trkpt>
      <trkpt lat="48.5803" lon="2.11308">
        <ele>94</ele>
        <time>2022-12-25T15:05:51Z</time>
      </trkpt>
      <trkpt lat="48.58033" lon="2.11306">
        <ele>94</ele>
        <time>2022-12-25T15:05:52Z</time>
      </trkpt>
      <trkpt lat="48.58035" lon="2.11304">
        <ele>94</ele>
        <time>2022-12-25T15:05:53Z</time>
      </trkpt>
      <trkpt lat="48.58038" lon="2.11303">
        <ele>94</ele>
        <time>2022-12-25T15:05:54Z</time>
      </trkpt>
      <trkpt lat="48.5804" lon="2.11301">
        <ele>94</ele>
        <time>2022-12-25T15:05:55Z</time>
      </trkpt>
      <trkpt lat="48.58043" lon="2.11299">
        <ele>94</ele>
        <time>2022-12-25T15:05:56Z</time>
      </trkpt>
      <trkpt lat="48.58045" lon="2.11298">
        <ele>94</ele>
        <time>2022-12-25T15:05:57Z</time>
      </trkpt>
      <trkpt lat="48.58048" lon="2.11296">
        <ele>94</ele>
        <time>2022-12-25T15:05:58Z</time>
      </trkpt>
      <trkpt lat="48.58051" lon="2.11294">
        <ele>94</ele>
        <time>2022-12-25T15:05:59Z</time>
      </trkpt>
      <trkpt lat="48.58055" lon="2.11292">
        <ele>94</ele>
        <time>2022-12-25T15:06:01Z</time>
      </trkpt>
      <trkpt lat="48.58056" lon="2.1129">
        <ele>94</ele>
        <time>2022-12-25T15:06:02Z</time>
      </trkpt>
      <trkpt lat="48.58059" lon="2.11289">
        <ele>94</ele>
        <time>2022-12-25T15:06:03Z</time>
      </trkpt>
      <trkpt lat="48.58061" lon="2.11288">
        <ele>94</ele>
        <time>2022-12-25T15:06:04Z</time>
      </trkpt>
      <trkpt lat="48.58064" lon="2.11286">
        <ele>94</ele>
        <time>2022-12-25T15:06:05Z</time>
      </trkpt>
      <trkpt lat="48.58067" lon="2.11284">
        <ele>94</ele>
        <time>2022-12-25T15:06:06Z</time>
      </trkpt>
      <trkpt lat="48.58073" lon="2.11281">
        <ele>94</ele>
        <time>2022-12-25T15:06:08Z</time>
      </trkpt>
      <trkpt lat="48.58076" lon="2.1128">
        <ele>94</ele>
        <time>2022-12-25T15:06:09Z</time>
      </trkpt>
      <trkpt lat="48.58079" lon="2.11278">
        <ele>95</ele>
        <time>2022-12-25T15:06:10Z</time>
      </trkpt>
      <trkpt lat="48.58083" lon="2.11276">
        <ele>94</ele>
        <time>2022-12-25T15:06:11Z</time>
      </trkpt>
      <trkpt lat="48.58086" lon="2.11274">
        <ele>95</ele>
        <time>2022-12-25T15:06:12Z</time>
      </trkpt>
      <trkpt lat="48.58089" lon="2.11271">
        <ele>94</ele>
        <time>2022-12-25T15:06:13Z</time>
      </trkpt>
      <trkpt lat="48.58093" lon="2.11269">
        <ele>95</ele>
        <time>2022-12-25T15:06:14Z</time>
      </trkpt>
      <trkpt lat="48.58096" lon="2.11267">
        <ele>95</ele>
        <time>2022-12-25T15:06:15Z</time>
      </trkpt>
      <trkpt lat="48.58099" lon="2.11265">
        <ele>95</ele>
        <time>2022-12-25T15:06:16Z</time>
      </trkpt>
      <trkpt lat="48.58101" lon="2.11264">
        <ele>95</ele>
        <time>2022-12-25T15:06:17Z</time>
      </trkpt>
      <trkpt lat="48.58104" lon="2.11262">
        <ele>95</ele>
        <time>2022-12-25T15:06:18Z</time>
      </trkpt>
      <trkpt lat="48.58111" lon="2.11258">
        <ele>95</ele>
        <time>2022-12-25T15:06:20Z</time>
      </trkpt>
      <trkpt lat="48.58113" lon="2.11256">
        <ele>96</ele>
        <time>2022-12-25T15:06:21Z</time>
      </trkpt>
      <trkpt lat="48.58119" lon="2.11252">
        <ele>96</ele>
        <time>2022-12-25T15:06:23Z</time>
      </trkpt>
      <trkpt lat="48.58123" lon="2.11251">
        <ele>96</ele>
        <time>2022-12-25T15:06:24Z</time>
      </trkpt>
      <trkpt lat="48.58126" lon="2.1125">
        <ele>96</ele>
        <time>2022-12-25T15:06:25Z</time>
      </trkpt>
      <trkpt lat="48.58129" lon="2.11249">
        <ele>96</ele>
        <time>2022-12-25T15:06:26Z</time>
      </trkpt>
      <trkpt lat="48.58132" lon="2.11249">
        <ele>96</ele>
        <time>2022-12-25T15:06:27Z</time>
      </trkpt>
      <trkpt lat="48.58135" lon="2.11249">
        <ele>96</ele>
        <time>2022-12-25T15:06:28Z</time>
      </trkpt>
      <trkpt lat="48.58138" lon="2.1125">
        <ele>96</ele>
        <time>2022-12-25T15:06:29Z</time>
      </trkpt>
      <trkpt lat="48.58142" lon="2.11251">
        <ele>97</ele>
        <time>2022-12-25T15:06:30Z</time>
      </trkpt>
      <trkpt lat="48.58145" lon="2.11252">
        <ele>97</ele>
        <time>2022-12-25T15:06:31Z</time>
      </trkpt>
      <trkpt lat="48.58148" lon="2.11253">
        <ele>97</ele>
        <time>2022-12-25T15:06:32Z</time>
      </trkpt>
      <trkpt lat="48.58152" lon="2.11255">
        <ele>97</ele>
        <time>2022-12-25T15:06:33Z</time>
      </trkpt>
      <trkpt lat="48.58155" lon="2.11256">
        <ele>97</ele>
        <time>2022-12-25T15:06:34Z</time>
      </trkpt>
      <trkpt lat="48.58158" lon="2.11257">
        <ele>97</ele>
        <time>2022-12-25T15:06:35Z</time>
      </trkpt>
      <trkpt lat="48.58161" lon="2.11258">
        <ele>97</ele>
        <time>2022-12-25T15:06:36Z</time>
      </trkpt>
      <trkpt lat="48.58164" lon="2.11258">
        <ele>97</ele>
        <time>2022-12-25T15:06:38Z</time>
      </trkpt>
      <trkpt lat="48.58171" lon="2.11259">
        <ele>98</ele>
        <time>2022-12-25T15:06:39Z</time>
      </trkpt>
      <trkpt lat="48.58173" lon="2.11259">
        <ele>98</ele>
        <time>2022-12-25T15:06:40Z</time>
      </trkpt>
      <trkpt lat="48.58176" lon="2.1126">
        <ele>97</ele>
        <time>2022-12-25T15:06:41Z</time>
      </trkpt>
      <trkpt lat="48.58178" lon="2.11259">
        <ele>97</ele>
        <time>2022-12-25T15:06:42Z</time>
      </trkpt>
      <trkpt lat="48.58181" lon="2.11259">
        <ele>97</ele>
        <time>2022-12-25T15:06:43Z</time>
      </trkpt>
      <trkpt lat="48.58184" lon="2.11259">
        <ele>97</ele>
        <time>2022-12-25T15:06:44Z</time>
      </trkpt>
      <trkpt lat="48.58187" lon="2.11258">
        <ele>97</ele>
        <time>2022-12-25T15:06:45Z</time>
      </trkpt>
      <trkpt lat="48.58191" lon="2.11257">
        <ele>97</ele>
        <time>2022-12-25T15:06:46Z</time>
      </trkpt>
      <trkpt lat="48.58194" lon="2.11257">
        <ele>97</ele>
        <time>2022-12-25T15:06:47Z</time>
      </trkpt>
      <trkpt lat="48.58197" lon="2.11256">
        <ele>97</ele>
        <time>2022-12-25T15:06:48Z</time>
      </trkpt>
      <trkpt lat="48.58201" lon="2.11255">
        <ele>97</ele>
        <time>2022-12-25T15:06:49Z</time>
      </trkpt>
      <trkpt lat="48.58203" lon="2.11255">
        <ele>97</ele>
        <time>2022-12-25T15:06:50Z</time>
      </trkpt>
      <trkpt lat="48.58207" lon="2.11254">
        <ele>97</ele>
        <time>2022-12-25T15:06:51Z</time>
      </trkpt>
      <trkpt lat="48.5821" lon="2.11254">
        <ele>97</ele>
        <time>2022-12-25T15:06:52Z</time>
      </trkpt>
      <trkpt lat="48.58213" lon="2.11254">
        <ele>97</ele>
        <time>2022-12-25T15:06:53Z</time>
      </trkpt>
      <trkpt lat="48.58219" lon="2.11254">
        <ele>97</ele>
        <time>2022-12-25T15:06:55Z</time>
      </trkpt>
      <trkpt lat="48.58222" lon="2.11254">
        <ele>97</ele>
        <time>2022-12-25T15:06:56Z</time>
      </trkpt>
      <trkpt lat="48.58229" lon="2.11254">
        <ele>97</ele>
        <time>2022-12-25T15:06:58Z</time>
      </trkpt>
      <trkpt lat="48.58233" lon="2.11254">
        <ele>96</ele>
        <time>2022-12-25T15:06:59Z</time>
      </trkpt>
      <trkpt lat="48.58236" lon="2.11255">
        <ele>96</ele>
        <time>2022-12-25T15:07:00Z</time>
      </trkpt>
      <trkpt lat="48.58239" lon="2.11254">
        <ele>96</ele>
        <time>2022-12-25T15:07:01Z</time>
      </trkpt>
      <trkpt lat="48.58241" lon="2.11254">
        <ele>97</ele>
        <time>2022-12-25T15:07:02Z</time>
      </trkpt>
      <trkpt lat="48.58244" lon="2.11255">
        <ele>97</ele>
        <time>2022-12-25T15:07:03Z</time>
      </trkpt>
      <trkpt lat="48.58247" lon="2.11255">
        <ele>96</ele>
        <time>2022-12-25T15:07:04Z</time>
      </trkpt>
      <trkpt lat="48.5825" lon="2.11257">
        <ele>96</ele>
        <time>2022-12-25T15:07:05Z</time>
      </trkpt>
      <trkpt lat="48.58253" lon="2.11257">
        <ele>96</ele>
        <time>2022-12-25T15:07:06Z</time>
      </trkpt>
      <trkpt lat="48.58256" lon="2.11258">
        <ele>96</ele>
        <time>2022-12-25T15:07:07Z</time>
      </trkpt>
      <trkpt lat="48.58259" lon="2.1126">
        <ele>96</ele>
        <time>2022-12-25T15:07:08Z</time>
      </trkpt>
      <trkpt lat="48.58262" lon="2.11262">
        <ele>96</ele>
        <time>2022-12-25T15:07:09Z</time>
      </trkpt>
      <trkpt lat="48.58268" lon="2.11266">
        <ele>96</ele>
        <time>2022-12-25T15:07:11Z</time>
      </trkpt>
      <trkpt lat="48.58271" lon="2.11268">
        <ele>96</ele>
        <time>2022-12-25T15:07:12Z</time>
      </trkpt>
      <trkpt lat="48.58273" lon="2.11269">
        <ele>96</ele>
        <time>2022-12-25T15:07:13Z</time>
      </trkpt>
      <trkpt lat="48.58277" lon="2.11271">
        <ele>96</ele>
        <time>2022-12-25T15:07:14Z</time>
      </trkpt>
      <trkpt lat="48.5828" lon="2.11274">
        <ele>96</ele>
        <time>2022-12-25T15:07:15Z</time>
      </trkpt>
      <trkpt lat="48.58286" lon="2.11278">
        <ele>95</ele>
        <time>2022-12-25T15:07:17Z</time>
      </trkpt>
      <trkpt lat="48.58289" lon="2.11279">
        <ele>95</ele>
        <time>2022-12-25T15:07:18Z</time>
      </trkpt>
      <trkpt lat="48.58292" lon="2.11281">
        <ele>95</ele>
        <time>2022-12-25T15:07:19Z</time>
      </trkpt>
      <trkpt lat="48.58295" lon="2.11283">
        <ele>95</ele>
        <time>2022-12-25T15:07:20Z</time>
      </trkpt>
      <trkpt lat="48.58299" lon="2.11284">
        <ele>95</ele>
        <time>2022-12-25T15:07:21Z</time>
      </trkpt>
      <trkpt lat="48.58303" lon="2.11286">
        <ele>95</ele>
        <time>2022-12-25T15:07:22Z</time>
      </trkpt>
      <trkpt lat="48.58307" lon="2.11288">
        <ele>95</ele>
        <time>2022-12-25T15:07:23Z</time>
      </trkpt>
      <trkpt lat="48.58315" lon="2.1129">
        <ele>95</ele>
        <time>2022-12-25T15:07:25Z</time>
      </trkpt>
      <trkpt lat="48.5832" lon="2.11291">
        <ele>95</ele>
        <time>2022-12-25T15:07:26Z</time>
      </trkpt>
      <trkpt lat="48.58324" lon="2.11293">
        <ele>95</ele>
        <time>2022-12-25T15:07:27Z</time>
      </trkpt>
      <trkpt lat="48.58328" lon="2.11294">
        <ele>95</ele>
        <time>2022-12-25T15:07:28Z</time>
      </trkpt>
      <trkpt lat="48.58332" lon="2.11294">
        <ele>95</ele>
        <time>2022-12-25T15:07:29Z</time>
      </trkpt>
      <trkpt lat="48.58336" lon="2.11296">
        <ele>95</ele>
        <time>2022-12-25T15:07:30Z</time>
      </trkpt>
      <trkpt lat="48.58347" lon="2.113">
        <ele>95</ele>
        <time>2022-12-25T15:07:33Z</time>
      </trkpt>
      <trkpt lat="48.58355" lon="2.11304">
        <ele>95</ele>
        <time>2022-12-25T15:07:36Z</time>
      </trkpt>
      <trkpt lat="48.5836" lon="2.11305">
        <ele>96</ele>
        <time>2022-12-25T15:07:38Z</time>
      </trkpt>
      <trkpt lat="48.58362" lon="2.11306">
        <ele>96</ele>
        <time>2022-12-25T15:07:39Z</time>
      </trkpt>
      <trkpt lat="48.58365" lon="2.11307">
        <ele>96</ele>
        <time>2022-12-25T15:07:40Z</time>
      </trkpt>
      <trkpt lat="48.58367" lon="2.11308">
        <ele>96</ele>
        <time>2022-12-25T15:07:41Z</time>
      </trkpt>
      <trkpt lat="48.5837" lon="2.11309">
        <ele>96</ele>
        <time>2022-12-25T15:07:42Z</time>
      </trkpt>
      <trkpt lat="48.58373" lon="2.11309">
        <ele>96</ele>
        <time>2022-12-25T15:07:43Z</time>
      </trkpt>
      <trkpt lat="48.58375" lon="2.1131">
        <ele>96</ele>
        <time>2022-12-25T15:07:44Z</time>
      </trkpt>
      <trkpt lat="48.58378" lon="2.11311">
        <ele>96</ele>
        <time>2022-12-25T15:07:45Z</time>
      </trkpt>
      <trkpt lat="48.58381" lon="2.11312">
        <ele>96</ele>
        <time>2022-12-25T15:07:46Z</time>
      </trkpt>
      <trkpt lat="48.58384" lon="2.11312">
        <ele>97</ele>
        <time>2022-12-25T15:07:47Z</time>
      </trkpt>
      <trkpt lat="48.58386" lon="2.11313">
        <ele>97</ele>
        <time>2022-12-25T15:07:48Z</time>
      </trkpt>
      <trkpt lat="48.58389" lon="2.11313">
        <ele>97</ele>
        <time>2022-12-25T15:07:49Z</time>
      </trkpt>
      <trkpt lat="48.58392" lon="2.11314">
        <ele>97</ele>
        <time>2022-12-25T15:07:50Z</time>
      </trkpt>
      <trkpt lat="48.58394" lon="2.11314">
        <ele>97</ele>
        <time>2022-12-25T15:07:51Z</time>
      </trkpt>
      <trkpt lat="48.58397" lon="2.11315">
        <ele>97</ele>
        <time>2022-12-25T15:07:52Z</time>
      </trkpt>
      <trkpt lat="48.58399" lon="2.11316">
        <ele>97</ele>
        <time>2022-12-25T15:07:53Z</time>
      </trkpt>
      <trkpt lat="48.58405" lon="2.11317">
        <ele>97</ele>
        <time>2022-12-25T15:07:55Z</time>
      </trkpt>
      <trkpt lat="48.58411" lon="2.11319">
        <ele>97</ele>
        <time>2022-12-25T15:07:57Z</time>
      </trkpt>
      <trkpt lat="48.58413" lon="2.11319">
        <ele>97</ele>
        <time>2022-12-25T15:07:58Z</time>
      </trkpt>
      <trkpt lat="48.58416" lon="2.1132">
        <ele>97</ele>
        <time>2022-12-25T15:07:59Z</time>
      </trkpt>
      <trkpt lat="48.58418" lon="2.11321">
        <ele>97</ele>
        <time>2022-12-25T15:08:00Z</time>
      </trkpt>
      <trkpt lat="48.5842" lon="2.11321">
        <ele>96</ele>
        <time>2022-12-25T15:08:01Z</time>
      </trkpt>
      <trkpt lat="48.5842" lon="2.11318">
        <ele>96</ele>
        <time>2022-12-25T15:08:05Z</time>
      </trkpt>
      <trkpt lat="48.58422" lon="2.11314">
        <ele>96</ele>
        <time>2022-12-25T15:08:07Z</time>
      </trkpt>
      <trkpt lat="48.58423" lon="2.11312">
        <ele>96</ele>
        <time>2022-12-25T15:08:08Z</time>
      </trkpt>
      <trkpt lat="48.58425" lon="2.11308">
        <ele>96</ele>
        <time>2022-12-25T15:08:10Z</time>
      </trkpt>
      <trkpt lat="48.58425" lon="2.11305">
        <ele>96</ele>
        <time>2022-12-25T15:08:12Z</time>
      </trkpt>
      <trkpt lat="48.58423" lon="2.11303">
        <ele>96</ele>
        <time>2022-12-25T15:08:14Z</time>
      </trkpt>
      <trkpt lat="48.58422" lon="2.113">
        <ele>96</ele>
        <time>2022-12-25T15:08:16Z</time>
      </trkpt>
      <trkpt lat="48.58421" lon="2.11296">
        <ele>96</ele>
        <time>2022-12-25T15:08:18Z</time>
      </trkpt>
      <trkpt lat="48.58421" lon="2.11291">
        <ele>97</ele>
        <time>2022-12-25T15:08:20Z</time>
      </trkpt>
      <trkpt lat="48.58421" lon="2.11287">
        <ele>96</ele>
        <time>2022-12-25T15:08:22Z</time>
      </trkpt>
      <trkpt lat="48.58421" lon="2.11283">
        <ele>96</ele>
        <time>2022-12-25T15:08:24Z</time>
      </trkpt>
      <trkpt lat="48.58421" lon="2.11278">
        <ele>96</ele>
        <time>2022-12-25T15:08:26Z</time>
      </trkpt>
      <trkpt lat="48.58421" lon="2.11273">
        <ele>97</ele>
        <time>2022-12-25T15:08:28Z</time>
      </trkpt>
      <trkpt lat="48.58421" lon="2.11269">
        <ele>97</ele>
        <time>2022-12-25T15:08:30Z</time>
      </trkpt>
      <trkpt lat="48.58422" lon="2.11264">
        <ele>96</ele>
        <time>2022-12-25T15:08:33Z</time>
      </trkpt>
      <trkpt lat="48.58422" lon="2.11259">
        <ele>96</ele>
        <time>2022-12-25T15:08:34Z</time>
      </trkpt>
      <trkpt lat="48.58421" lon="2.11254">
        <ele>96</ele>
        <time>2022-12-25T15:08:36Z</time>
      </trkpt>
      <trkpt lat="48.58421" lon="2.11249">
        <ele>96</ele>
        <time>2022-12-25T15:08:38Z</time>
      </trkpt>
      <trkpt lat="48.58421" lon="2.11246">
        <ele>96</ele>
        <time>2022-12-25T15:08:39Z</time>
      </trkpt>
      <trkpt lat="48.58421" lon="2.1124">
        <ele>96</ele>
        <time>2022-12-25T15:08:41Z</time>
      </trkpt>
      <trkpt lat="48.5842" lon="2.11235">
        <ele>96</ele>
        <time>2022-12-25T15:08:43Z</time>
      </trkpt>
      <trkpt lat="48.58419" lon="2.1123">
        <ele>96</ele>
        <time>2022-12-25T15:08:45Z</time>
      </trkpt>
      <trkpt lat="48.58419" lon="2.11227">
        <ele>96</ele>
        <time>2022-12-25T15:08:46Z</time>
      </trkpt>
      <trkpt lat="48.58418" lon="2.11223">
        <ele>96</ele>
        <time>2022-12-25T15:08:48Z</time>
      </trkpt>
      <trkpt lat="48.58417" lon="2.11218">
        <ele>96</ele>
        <time>2022-12-25T15:08:50Z</time>
      </trkpt>
      <trkpt lat="48.58416" lon="2.11215">
        <ele>96</ele>
        <time>2022-12-25T15:08:52Z</time>
      </trkpt>
      <trkpt lat="48.58416" lon="2.11211">
        <ele>96</ele>
        <time>2022-12-25T15:08:54Z</time>
      </trkpt>
      <trkpt lat="48.58415" lon="2.11208">
        <ele>96</ele>
        <time>2022-12-25T15:08:56Z</time>
      </trkpt>
      <trkpt lat="48.58413" lon="2.11205">
        <ele>96</ele>
        <time>2022-12-25T15:08:58Z</time>
      </trkpt>
      <trkpt lat="48.58412" lon="2.11201">
        <ele>96</ele>
        <time>2022-12-25T15:09:00Z</time>
      </trkpt>
      <trkpt lat="48.58411" lon="2.11196">
        <ele>95</ele>
        <time>2022-12-25T15:09:02Z</time>
      </trkpt>
      <trkpt lat="48.5841" lon="2.11194">
        <ele>95</ele>
        <time>2022-12-25T15:09:03Z</time>
      </trkpt>
      <trkpt lat="48.58408" lon="2.11192">
        <ele>95</ele>
        <time>2022-12-25T15:09:04Z</time>
      </trkpt>
      <trkpt lat="48.58407" lon="2.11187">
        <ele>95</ele>
        <time>2022-12-25T15:09:06Z</time>
      </trkpt>
      <trkpt lat="48.58406" lon="2.11185">
        <ele>95</ele>
        <time>2022-12-25T15:09:07Z</time>
      </trkpt>
      <trkpt lat="48.58404" lon="2.1118">
        <ele>95</ele>
        <time>2022-12-25T15:09:09Z</time>
      </trkpt>
      <trkpt lat="48.58403" lon="2.11176">
        <ele>95</ele>
        <time>2022-12-25T15:09:11Z</time>
      </trkpt>
      <trkpt lat="48.58402" lon="2.11171">
        <ele>95</ele>
        <time>2022-12-25T15:09:13Z</time>
      </trkpt>
      <trkpt lat="48.584" lon="2.11167">
        <ele>95</ele>
        <time>2022-12-25T15:09:15Z</time>
      </trkpt>
      <trkpt lat="48.58398" lon="2.11163">
        <ele>95</ele>
        <time>2022-12-25T15:09:17Z</time>
      </trkpt>
      <trkpt lat="48.58396" lon="2.11158">
        <ele>94</ele>
        <time>2022-12-25T15:09:19Z</time>
      </trkpt>
      <trkpt lat="48.58395" lon="2.11154">
        <ele>94</ele>
        <time>2022-12-25T15:09:21Z</time>
      </trkpt>
      <trkpt lat="48.58393" lon="2.11149">
        <ele>94</ele>
        <time>2022-12-25T15:09:23Z</time>
      </trkpt>
      <trkpt lat="48.58392" lon="2.11146">
        <ele>94</ele>
        <time>2022-12-25T15:09:24Z</time>
      </trkpt>
      <trkpt lat="48.58392" lon="2.11143">
        <ele>94</ele>
        <time>2022-12-25T15:09:25Z</time>
      </trkpt>
      <trkpt lat="48.58391" lon="2.11138">
        <ele>94</ele>
        <time>2022-12-25T15:09:27Z</time>
      </trkpt>
      <trkpt lat="48.5839" lon="2.11133">
        <ele>93</ele>
        <time>2022-12-25T15:09:30Z</time>
      </trkpt>
      <trkpt lat="48.58391" lon="2.11128">
        <ele>93</ele>
        <time>2022-12-25T15:09:31Z</time>
      </trkpt>
      <trkpt lat="48.5839" lon="2.11123">
        <ele>93</ele>
        <time>2022-12-25T15:09:33Z</time>
      </trkpt>
      <trkpt lat="48.5839" lon="2.11119">
        <ele>93</ele>
        <time>2022-12-25T15:09:35Z</time>
      </trkpt>
      <trkpt lat="48.58391" lon="2.11114">
        <ele>93</ele>
        <time>2022-12-25T15:09:37Z</time>
      </trkpt>
      <trkpt lat="48.58392" lon="2.11109">
        <ele>93</ele>
        <time>2022-12-25T15:09:39Z</time>
      </trkpt>
      <trkpt lat="48.58392" lon="2.11106">
        <ele>93</ele>
        <time>2022-12-25T15:09:40Z</time>
      </trkpt>
      <trkpt lat="48.58393" lon="2.11102">
        <ele>92</ele>
        <time>2022-12-25T15:09:42Z</time>
      </trkpt>
      <trkpt lat="48.58394" lon="2.11099">
        <ele>92</ele>
        <time>2022-12-25T15:09:43Z</time>
      </trkpt>
      <trkpt lat="48.58394" lon="2.11094">
        <ele>92</ele>
        <time>2022-12-25T15:09:45Z</time>
      </trkpt>
      <trkpt lat="48.58395" lon="2.11091">
        <ele>91</ele>
        <time>2022-12-25T15:09:46Z</time>
      </trkpt>
      <trkpt lat="48.58396" lon="2.11087">
        <ele>90</ele>
        <time>2022-12-25T15:09:49Z</time>
      </trkpt>
      <trkpt lat="48.58398" lon="2.11082">
        <ele>90</ele>
        <time>2022-12-25T15:09:50Z</time>
      </trkpt>
      <trkpt lat="48.58398" lon="2.11078">
        <ele>89</ele>
        <time>2022-12-25T15:09:52Z</time>
      </trkpt>
      <trkpt lat="48.58399" lon="2.11074">
        <ele>89</ele>
        <time>2022-12-25T15:09:54Z</time>
      </trkpt>
      <trkpt lat="48.58399" lon="2.11071">
        <ele>88</ele>
        <time>2022-12-25T15:09:56Z</time>
      </trkpt>
      <trkpt lat="48.58399" lon="2.11067">
        <ele>88</ele>
        <time>2022-12-25T15:09:58Z</time>
      </trkpt>
      <trkpt lat="48.58399" lon="2.11064">
        <ele>87</ele>
        <time>2022-12-25T15:10:00Z</time>
      </trkpt>
      <trkpt lat="48.58399" lon="2.11059">
        <ele>86</ele>
        <time>2022-12-25T15:10:02Z</time>
      </trkpt>
      <trkpt lat="48.58399" lon="2.11053">
        <ele>85</ele>
        <time>2022-12-25T15:10:04Z</time>
      </trkpt>
      <trkpt lat="48.58399" lon="2.1105">
        <ele>85</ele>
        <time>2022-12-25T15:10:05Z</time>
      </trkpt>
      <trkpt lat="48.58399" lon="2.11045">
        <ele>84</ele>
        <time>2022-12-25T15:10:08Z</time>
      </trkpt>
      <trkpt lat="48.58398" lon="2.1104">
        <ele>84</ele>
        <time>2022-12-25T15:10:09Z</time>
      </trkpt>
      <trkpt lat="48.58399" lon="2.11036">
        <ele>83</ele>
        <time>2022-12-25T15:10:11Z</time>
      </trkpt>
      <trkpt lat="48.58398" lon="2.11032">
        <ele>83</ele>
        <time>2022-12-25T15:10:13Z</time>
      </trkpt>
      <trkpt lat="48.58397" lon="2.11029">
        <ele>82</ele>
        <time>2022-12-25T15:10:15Z</time>
      </trkpt>
      <trkpt lat="48.58397" lon="2.11024">
        <ele>81</ele>
        <time>2022-12-25T15:10:20Z</time>
      </trkpt>
      <trkpt lat="48.58396" lon="2.11019">
        <ele>81</ele>
        <time>2022-12-25T15:10:22Z</time>
      </trkpt>
      <trkpt lat="48.58396" lon="2.11017">
        <ele>81</ele>
        <time>2022-12-25T15:10:23Z</time>
      </trkpt>
      <trkpt lat="48.58394" lon="2.11012">
        <ele>80</ele>
        <time>2022-12-25T15:10:25Z</time>
      </trkpt>
      <trkpt lat="48.58393" lon="2.11007">
        <ele>80</ele>
        <time>2022-12-25T15:10:27Z</time>
      </trkpt>
      <trkpt lat="48.58392" lon="2.11004">
        <ele>80</ele>
        <time>2022-12-25T15:10:28Z</time>
      </trkpt>
      <trkpt lat="48.58391" lon="2.11002">
        <ele>80</ele>
        <time>2022-12-25T15:10:29Z</time>
      </trkpt>
      <trkpt lat="48.5839" lon="2.10996">
        <ele>80</ele>
        <time>2022-12-25T15:10:31Z</time>
      </trkpt>
      <trkpt lat="48.58389" lon="2.10991">
        <ele>80</ele>
        <time>2022-12-25T15:10:33Z</time>
      </trkpt>
      <trkpt lat="48.58388" lon="2.10987">
        <ele>80</ele>
        <time>2022-12-25T15:10:35Z</time>
      </trkpt>
      <trkpt lat="48.58387" lon="2.10981">
        <ele>80</ele>
        <time>2022-12-25T15:10:37Z</time>
      </trkpt>
      <trkpt lat="48.58386" lon="2.10978">
        <ele>80</ele>
        <time>2022-12-25T15:10:38Z</time>
      </trkpt>
      <trkpt lat="48.58386" lon="2.10976">
        <ele>80</ele>
        <time>2022-12-25T15:10:39Z</time>
      </trkpt>
      <trkpt lat="48.58385" lon="2.10973">
        <ele>80</ele>
        <time>2022-12-25T15:10:40Z</time>
      </trkpt>
      <trkpt lat="48.58385" lon="2.1097">
        <ele>80</ele>
        <time>2022-12-25T15:10:41Z</time>
      </trkpt>
      <trkpt lat="48.58384" lon="2.10967">
        <ele>80</ele>
        <time>2022-12-25T15:10:42Z</time>
      </trkpt>
      <trkpt lat="48.58384" lon="2.10964">
        <ele>80</ele>
        <time>2022-12-25T15:10:43Z</time>
      </trkpt>
      <trkpt lat="48.58383" lon="2.10956">
        <ele>80</ele>
        <time>2022-12-25T15:10:46Z</time>
      </trkpt>
      <trkpt lat="48.58382" lon="2.10954">
        <ele>80</ele>
        <time>2022-12-25T15:10:47Z</time>
      </trkpt>
      <trkpt lat="48.58381" lon="2.10949">
        <ele>80</ele>
        <time>2022-12-25T15:10:49Z</time>
      </trkpt>
      <trkpt lat="48.5838" lon="2.10946">
        <ele>79</ele>
        <time>2022-12-25T15:10:50Z</time>
      </trkpt>
      <trkpt lat="48.5838" lon="2.10943">
        <ele>78</ele>
        <time>2022-12-25T15:10:51Z</time>
      </trkpt>
      <trkpt lat="48.5838" lon="2.1094">
        <ele>78</ele>
        <time>2022-12-25T15:10:52Z</time>
      </trkpt>
      <trkpt lat="48.5838" lon="2.10935">
        <ele>77</ele>
        <time>2022-12-25T15:10:54Z</time>
      </trkpt>
      <trkpt lat="48.5838" lon="2.1093">
        <ele>77</ele>
        <time>2022-12-25T15:10:56Z</time>
      </trkpt>
      <trkpt lat="48.58381" lon="2.10925">
        <ele>75</ele>
        <time>2022-12-25T15:10:59Z</time>
      </trkpt>
      <trkpt lat="48.58382" lon="2.10921">
        <ele>75</ele>
        <time>2022-12-25T15:11:00Z</time>
      </trkpt>
      <trkpt lat="48.58382" lon="2.10918">
        <ele>74</ele>
        <time>2022-12-25T15:11:05Z</time>
      </trkpt>
      <trkpt lat="48.58384" lon="2.10914">
        <ele>74</ele>
        <time>2022-12-25T15:11:06Z</time>
      </trkpt>
      <trkpt lat="48.58386" lon="2.10911">
        <ele>73</ele>
        <time>2022-12-25T15:11:08Z</time>
      </trkpt>
      <trkpt lat="48.58388" lon="2.10907">
        <ele>72</ele>
        <time>2022-12-25T15:11:10Z</time>
      </trkpt>
      <trkpt lat="48.58391" lon="2.10904">
        <ele>72</ele>
        <time>2022-12-25T15:11:12Z</time>
      </trkpt>
      <trkpt lat="48.58394" lon="2.10903">
        <ele>71</ele>
        <time>2022-12-25T15:11:14Z</time>
      </trkpt>
      <trkpt lat="48.58396" lon="2.10902">
        <ele>71</ele>
        <time>2022-12-25T15:11:16Z</time>
      </trkpt>
      <trkpt lat="48.58399" lon="2.10903">
        <ele>71</ele>
        <time>2022-12-25T15:11:18Z</time>
      </trkpt>
      <trkpt lat="48.58401" lon="2.10904">
        <ele>70</ele>
        <time>2022-12-25T15:11:20Z</time>
      </trkpt>
      <trkpt lat="48.58403" lon="2.10905">
        <ele>70</ele>
        <time>2022-12-25T15:11:22Z</time>
      </trkpt>
      <trkpt lat="48.58406" lon="2.10907">
        <ele>70</ele>
        <time>2022-12-25T15:11:24Z</time>
      </trkpt>
      <trkpt lat="48.58407" lon="2.10908">
        <ele>70</ele>
        <time>2022-12-25T15:11:26Z</time>
      </trkpt>
      <trkpt lat="48.58409" lon="2.10909">
        <ele>69</ele>
        <time>2022-12-25T15:11:31Z</time>
      </trkpt>
      <trkpt lat="48.5841" lon="2.10911">
        <ele>69</ele>
        <time>2022-12-25T15:11:33Z</time>
      </trkpt>
      <trkpt lat="48.58413" lon="2.10913">
        <ele>69</ele>
        <time>2022-12-25T15:11:35Z</time>
      </trkpt>
      <trkpt lat="48.58415" lon="2.10915">
        <ele>69</ele>
        <time>2022-12-25T15:11:37Z</time>
      </trkpt>
      <trkpt lat="48.58418" lon="2.10916">
        <ele>69</ele>
        <time>2022-12-25T15:11:39Z</time>
      </trkpt>
      <trkpt lat="48.5842" lon="2.10919">
        <ele>69</ele>
        <time>2022-12-25T15:11:41Z</time>
      </trkpt>
      <trkpt lat="48.58423" lon="2.10921">
        <ele>69</ele>
        <time>2022-12-25T15:11:43Z</time>
      </trkpt>
      <trkpt lat="48.58425" lon="2.10924">
        <ele>69</ele>
        <time>2022-12-25T15:11:45Z</time>
      </trkpt>
      <trkpt lat="48.58427" lon="2.10926">
        <ele>69</ele>
        <time>2022-12-25T15:11:47Z</time>
      </trkpt>
      <trkpt lat="48.5843" lon="2.10928">
        <ele>69</ele>
        <time>2022-12-25T15:11:49Z</time>
      </trkpt>
      <trkpt lat="48.58433" lon="2.1093">
        <ele>69</ele>
        <time>2022-12-25T15:11:51Z</time>
      </trkpt>
      <trkpt lat="48.58436" lon="2.10932">
        <ele>69</ele>
        <time>2022-12-25T15:11:53Z</time>
      </trkpt>
      <trkpt lat="48.58438" lon="2.10934">
        <ele>68</ele>
        <time>2022-12-25T15:11:55Z</time>
      </trkpt>
      <trkpt lat="48.5844" lon="2.10936">
        <ele>68</ele>
        <time>2022-12-25T15:11:57Z</time>
      </trkpt>
      <trkpt lat="48.58443" lon="2.10939">
        <ele>68</ele>
        <time>2022-12-25T15:11:59Z</time>
      </trkpt>
      <trkpt lat="48.58445" lon="2.10941">
        <ele>68</ele>
        <time>2022-12-25T15:12:02Z</time>
      </trkpt>
      <trkpt lat="48.58448" lon="2.10943">
        <ele>67</ele>
        <time>2022-12-25T15:12:03Z</time>
      </trkpt>
      <trkpt lat="48.5845" lon="2.10945">
        <ele>67</ele>
        <time>2022-12-25T15:12:05Z</time>
      </trkpt>
      <trkpt lat="48.58453" lon="2.10948">
        <ele>67</ele>
        <time>2022-12-25T15:12:07Z</time>
      </trkpt>
      <trkpt lat="48.58455" lon="2.1095">
        <ele>67</ele>
        <time>2022-12-25T15:12:09Z</time>
      </trkpt>
      <trkpt lat="48.58458" lon="2.10952">
        <ele>67</ele>
        <time>2022-12-25T15:12:11Z</time>
      </trkpt>
      <trkpt lat="48.58461" lon="2.10954">
        <ele>67</ele>
        <time>2022-12-25T15:12:13Z</time>
      </trkpt>
      <trkpt lat="48.58464" lon="2.10956">
        <ele>67</ele>
        <time>2022-12-25T15:12:15Z</time>
      </trkpt>
      <trkpt lat="48.58467" lon="2.10957">
        <ele>66</ele>
        <time>2022-12-25T15:12:17Z</time>
      </trkpt>
      <trkpt lat="48.5847" lon="2.1096">
        <ele>67</ele>
        <time>2022-12-25T15:12:19Z</time>
      </trkpt>
      <trkpt lat="48.58473" lon="2.10962">
        <ele>67</ele>
        <time>2022-12-25T15:12:21Z</time>
      </trkpt>
      <trkpt lat="48.58475" lon="2.10964">
        <ele>67</ele>
        <time>2022-12-25T15:12:23Z</time>
      </trkpt>
      <trkpt lat="48.58478" lon="2.10967">
        <ele>67</ele>
        <time>2022-12-25T15:12:25Z</time>
      </trkpt>
      <trkpt lat="48.58481" lon="2.10969">
        <ele>67</ele>
        <time>2022-12-25T15:12:27Z</time>
      </trkpt>
      <trkpt lat="48.58484" lon="2.10972">
        <ele>67</ele>
        <time>2022-12-25T15:12:29Z</time>
      </trkpt>
      <trkpt lat="48.58486" lon="2.10974">
        <ele>66</ele>
        <time>2022-12-25T15:12:31Z</time>
      </trkpt>
      <trkpt lat="48.58488" lon="2.10977">
        <ele>66</ele>
        <time>2022-12-25T15:12:33Z</time>
      </trkpt>
      <trkpt lat="48.58491" lon="2.1098">
        <ele>66</ele>
        <time>2022-12-25T15:12:35Z</time>
      </trkpt>
      <trkpt lat="48.58493" lon="2.10983">
        <ele>66</ele>
        <time>2022-12-25T15:12:37Z</time>
      </trkpt>
      <trkpt lat="48.58495" lon="2.10985">
        <ele>66</ele>
        <time>2022-12-25T15:12:40Z</time>
      </trkpt>
      <trkpt lat="48.58498" lon="2.10987">
        <ele>66</ele>
        <time>2022-12-25T15:12:41Z</time>
      </trkpt>
      <trkpt lat="48.585" lon="2.1099">
        <ele>66</ele>
        <time>2022-12-25T15:12:43Z</time>
      </trkpt>
      <trkpt lat="48.58503" lon="2.10992">
        <ele>66</ele>
        <time>2022-12-25T15:12:45Z</time>
      </trkpt>
      <trkpt lat="48.58505" lon="2.10993">
        <ele>66</ele>
        <time>2022-12-25T15:12:47Z</time>
      </trkpt>
      <trkpt lat="48.58508" lon="2.10995">
        <ele>66</ele>
        <time>2022-12-25T15:12:49Z</time>
      </trkpt>
      <trkpt lat="48.58511" lon="2.10996">
        <ele>66</ele>
        <time>2022-12-25T15:12:51Z</time>
      </trkpt>
      <trkpt lat="48.58514" lon="2.10996">
        <ele>66</ele>
        <time>2022-12-25T15:12:53Z</time>
      </trkpt>
      <trkpt lat="48.58517" lon="2.10997">
        <ele>66</ele>
        <time>2022-12-25T15:12:55Z</time>
      </trkpt>
      <trkpt lat="48.58519" lon="2.10998">
        <ele>66</ele>
        <time>2022-12-25T15:12:57Z</time>
      </trkpt>
      <trkpt lat="48.58522" lon="2.10999">
        <ele>66</ele>
        <time>2022-12-25T15:12:59Z</time>
      </trkpt>
      <trkpt lat="48.58525" lon="2.10999">
        <ele>66</ele>
        <time>2022-12-25T15:13:01Z</time>
      </trkpt>
      <trkpt lat="48.58528" lon="2.11">
        <ele>66</ele>
        <time>2022-12-25T15:13:03Z</time>
      </trkpt>
      <trkpt lat="48.58531" lon="2.11">
        <ele>67</ele>
        <time>2022-12-25T15:13:05Z</time>
      </trkpt>
      <trkpt lat="48.58534" lon="2.11001">
        <ele>67</ele>
        <time>2022-12-25T15:13:07Z</time>
      </trkpt>
      <trkpt lat="48.58537" lon="2.11002">
        <ele>67</ele>
        <time>2022-12-25T15:13:09Z</time>
      </trkpt>
      <trkpt lat="48.58539" lon="2.11003">
        <ele>66</ele>
        <time>2022-12-25T15:13:11Z</time>
      </trkpt>
      <trkpt lat="48.58542" lon="2.11004">
        <ele>66</ele>
        <time>2022-12-25T15:13:13Z</time>
      </trkpt>
      <trkpt lat="48.58545" lon="2.11005">
        <ele>66</ele>
        <time>2022-12-25T15:13:15Z</time>
      </trkpt>
      <trkpt lat="48.58547" lon="2.11005">
        <ele>66</ele>
        <time>2022-12-25T15:13:18Z</time>
      </trkpt>
      <trkpt lat="48.5855" lon="2.11005">
        <ele>66</ele>
        <time>2022-12-25T15:13:19Z</time>
      </trkpt>
      <trkpt lat="48.58553" lon="2.11006">
        <ele>66</ele>
        <time>2022-12-25T15:13:21Z</time>
      </trkpt>
      <trkpt lat="48.58555" lon="2.11007">
        <ele>66</ele>
        <time>2022-12-25T15:13:23Z</time>
      </trkpt>
      <trkpt lat="48.58557" lon="2.11008">
        <ele>66</ele>
        <time>2022-12-25T15:13:24Z</time>
      </trkpt>
      <trkpt lat="48.5856" lon="2.11009">
        <ele>66</ele>
        <time>2022-12-25T15:13:26Z</time>
      </trkpt>
      <trkpt lat="48.58563" lon="2.1101">
        <ele>66</ele>
        <time>2022-12-25T15:13:28Z</time>
      </trkpt>
      <trkpt lat="48.58567" lon="2.11011">
        <ele>66</ele>
        <time>2022-12-25T15:13:30Z</time>
      </trkpt>
      <trkpt lat="48.5857" lon="2.11012">
        <ele>66</ele>
        <time>2022-12-25T15:13:32Z</time>
      </trkpt>
      <trkpt lat="48.58574" lon="2.11013">
        <ele>66</ele>
        <time>2022-12-25T15:13:34Z</time>
      </trkpt>
      <trkpt lat="48.58577" lon="2.11014">
        <ele>66</ele>
        <time>2022-12-25T15:13:37Z</time>
      </trkpt>
      <trkpt lat="48.5858" lon="2.11015">
        <ele>66</ele>
        <time>2022-12-25T15:13:38Z</time>
      </trkpt>
      <trkpt lat="48.58583" lon="2.11016">
        <ele>66</ele>
        <time>2022-12-25T15:13:40Z</time>
      </trkpt>
      <trkpt lat="48.58586" lon="2.11017">
        <ele>66</ele>
        <time>2022-12-25T15:13:42Z</time>
      </trkpt>
      <trkpt lat="48.58589" lon="2.11019">
        <ele>66</ele>
        <time>2022-12-25T15:13:44Z</time>
      </trkpt>
      <trkpt lat="48.58593" lon="2.1102">
        <ele>66</ele>
        <time>2022-12-25T15:13:46Z</time>
      </trkpt>
      <trkpt lat="48.58594" lon="2.11022">
        <ele>66</ele>
        <time>2022-12-25T15:13:47Z</time>
      </trkpt>
      <trkpt lat="48.58597" lon="2.11023">
        <ele>65</ele>
        <time>2022-12-25T15:13:49Z</time>
      </trkpt>
      <trkpt lat="48.586" lon="2.11025">
        <ele>65</ele>
        <time>2022-12-25T15:13:51Z</time>
      </trkpt>
      <trkpt lat="48.58603" lon="2.11027">
        <ele>65</ele>
        <time>2022-12-25T15:13:53Z</time>
      </trkpt>
      <trkpt lat="48.58606" lon="2.1103">
        <ele>65</ele>
        <time>2022-12-25T15:13:56Z</time>
      </trkpt>
      <trkpt lat="48.58609" lon="2.11033">
        <ele>65</ele>
        <time>2022-12-25T15:13:57Z</time>
      </trkpt>
      <trkpt lat="48.58612" lon="2.11035">
        <ele>65</ele>
        <time>2022-12-25T15:13:59Z</time>
      </trkpt>
      <trkpt lat="48.58614" lon="2.11038">
        <ele>65</ele>
        <time>2022-12-25T15:14:01Z</time>
      </trkpt>
      <trkpt lat="48.58617" lon="2.11041">
        <ele>66</ele>
        <time>2022-12-25T15:14:03Z</time>
      </trkpt>
      <trkpt lat="48.5862" lon="2.11044">
        <ele>65</ele>
        <time>2022-12-25T15:14:05Z</time>
      </trkpt>
      <trkpt lat="48.58622" lon="2.11047">
        <ele>65</ele>
        <time>2022-12-25T15:14:07Z</time>
      </trkpt>
      <trkpt lat="48.58624" lon="2.1105">
        <ele>65</ele>
        <time>2022-12-25T15:14:09Z</time>
      </trkpt>
      <trkpt lat="48.58627" lon="2.11053">
        <ele>66</ele>
        <time>2022-12-25T15:14:11Z</time>
      </trkpt>
      <trkpt lat="48.58629" lon="2.11056">
        <ele>65</ele>
        <time>2022-12-25T15:14:13Z</time>
      </trkpt>
      <trkpt lat="48.58632" lon="2.11059">
        <ele>65</ele>
        <time>2022-12-25T15:14:15Z</time>
      </trkpt>
      <trkpt lat="48.58635" lon="2.11062">
        <ele>65</ele>
        <time>2022-12-25T15:14:17Z</time>
      </trkpt>
      <trkpt lat="48.58638" lon="2.11064">
        <ele>66</ele>
        <time>2022-12-25T15:14:19Z</time>
      </trkpt>
      <trkpt lat="48.58641" lon="2.11066">
        <ele>66</ele>
        <time>2022-12-25T15:14:21Z</time>
      </trkpt>
      <trkpt lat="48.58644" lon="2.11067">
        <ele>66</ele>
        <time>2022-12-25T15:14:23Z</time>
      </trkpt>
      <trkpt lat="48.58647" lon="2.11069">
        <ele>66</ele>
        <time>2022-12-25T15:14:25Z</time>
      </trkpt>
      <trkpt lat="48.5865" lon="2.1107">
        <ele>66</ele>
        <time>2022-12-25T15:14:27Z</time>
      </trkpt>
      <trkpt lat="48.58653" lon="2.11072">
        <ele>66</ele>
        <time>2022-12-25T15:14:29Z</time>
      </trkpt>
      <trkpt lat="48.58656" lon="2.11074">
        <ele>66</ele>
        <time>2022-12-25T15:14:31Z</time>
      </trkpt>
      <trkpt lat="48.58659" lon="2.11076">
        <ele>67</ele>
        <time>2022-12-25T15:14:34Z</time>
      </trkpt>
      <trkpt lat="48.58662" lon="2.11077">
        <ele>67</ele>
        <time>2022-12-25T15:14:35Z</time>
      </trkpt>
      <trkpt lat="48.58665" lon="2.11079">
        <ele>67</ele>
        <time>2022-12-25T15:14:37Z</time>
      </trkpt>
      <trkpt lat="48.58668" lon="2.11081">
        <ele>67</ele>
        <time>2022-12-25T15:14:39Z</time>
      </trkpt>
      <trkpt lat="48.58671" lon="2.11083">
        <ele>67</ele>
        <time>2022-12-25T15:14:41Z</time>
      </trkpt>
      <trkpt lat="48.58674" lon="2.11084">
        <ele>67</ele>
        <time>2022-12-25T15:14:43Z</time>
      </trkpt>
      <trkpt lat="48.58677" lon="2.11086">
        <ele>67</ele>
        <time>2022-12-25T15:14:45Z</time>
      </trkpt>
      <trkpt lat="48.5868" lon="2.11088">
        <ele>67</ele>
        <time>2022-12-25T15:14:47Z</time>
      </trkpt>
      <trkpt lat="48.58682" lon="2.1109">
        <ele>67</ele>
        <time>2022-12-25T15:14:49Z</time>
      </trkpt>
      <trkpt lat="48.58685" lon="2.11091">
        <ele>67</ele>
        <time>2022-12-25T15:14:51Z</time>
      </trkpt>
      <trkpt lat="48.58688" lon="2.11093">
        <ele>67</ele>
        <time>2022-12-25T15:14:53Z</time>
      </trkpt>
      <trkpt lat="48.58691" lon="2.11095">
        <ele>67</ele>
        <time>2022-12-25T15:14:55Z</time>
      </trkpt>
      <trkpt lat="48.58694" lon="2.11096">
        <ele>68</ele>
        <time>2022-12-25T15:14:57Z</time>
      </trkpt>
      <trkpt lat="48.58697" lon="2.11098">
        <ele>68</ele>
        <time>2022-12-25T15:14:59Z</time>
      </trkpt>
      <trkpt lat="48.587" lon="2.111">
        <ele>68</ele>
        <time>2022-12-25T15:15:01Z</time>
      </trkpt>
      <trkpt lat="48.58703" lon="2.11101">
        <ele>67</ele>
        <time>2022-12-25T15:15:03Z</time>
      </trkpt>
      <trkpt lat="48.58706" lon="2.11102">
        <ele>67</ele>
        <time>2022-12-25T15:15:05Z</time>
      </trkpt>
      <trkpt lat="48.58708" lon="2.11104">
        <ele>67</ele>
        <time>2022-12-25T15:15:07Z</time>
      </trkpt>
      <trkpt lat="48.58709" lon="2.11106">
        <ele>67</ele>
        <time>2022-12-25T15:15:09Z</time>
      </trkpt>
      <trkpt lat="48.5871" lon="2.11109">
        <ele>67</ele>
        <time>2022-12-25T15:15:17Z</time>
      </trkpt>
      <trkpt lat="48.58713" lon="2.11109">
        <ele>67</ele>
        <time>2022-12-25T15:15:19Z</time>
      </trkpt>
      <trkpt lat="48.58716" lon="2.11111">
        <ele>67</ele>
        <time>2022-12-25T15:15:21Z</time>
      </trkpt>
      <trkpt lat="48.58719" lon="2.11112">
        <ele>67</ele>
        <time>2022-12-25T15:15:23Z</time>
      </trkpt>
      <trkpt lat="48.58722" lon="2.11114">
        <ele>66</ele>
        <time>2022-12-25T15:15:25Z</time>
      </trkpt>
      <trkpt lat="48.58725" lon="2.11116">
        <ele>66</ele>
        <time>2022-12-25T15:15:27Z</time>
      </trkpt>
      <trkpt lat="48.58728" lon="2.11117">
        <ele>66</ele>
        <time>2022-12-25T15:15:29Z</time>
      </trkpt>
      <trkpt lat="48.5873" lon="2.11118">
        <ele>66</ele>
        <time>2022-12-25T15:15:31Z</time>
      </trkpt>
      <trkpt lat="48.58732" lon="2.11119">
        <ele>66</ele>
        <time>2022-12-25T15:15:33Z</time>
      </trkpt>
      <trkpt lat="48.58734" lon="2.11119">
        <ele>66</ele>
        <time>2022-12-25T15:15:35Z</time>
      </trkpt>
      <trkpt lat="48.58737" lon="2.1112">
        <ele>66</ele>
        <time>2022-12-25T15:15:37Z</time>
      </trkpt>
      <trkpt lat="48.5874" lon="2.11121">
        <ele>66</ele>
        <time>2022-12-25T15:15:39Z</time>
      </trkpt>
      <trkpt lat="48.58743" lon="2.11122">
        <ele>67</ele>
        <time>2022-12-25T15:15:41Z</time>
      </trkpt>
      <trkpt lat="48.58745" lon="2.11124">
        <ele>67</ele>
        <time>2022-12-25T15:15:43Z</time>
      </trkpt>
      <trkpt lat="48.58747" lon="2.11127">
        <ele>66</ele>
        <time>2022-12-25T15:15:45Z</time>
      </trkpt>
      <trkpt lat="48.58749" lon="2.11129">
        <ele>66</ele>
        <time>2022-12-25T15:15:47Z</time>
      </trkpt>
      <trkpt lat="48.58751" lon="2.11131">
        <ele>66</ele>
        <time>2022-12-25T15:15:50Z</time>
      </trkpt>
      <trkpt lat="48.58754" lon="2.11133">
        <ele>66</ele>
        <time>2022-12-25T15:15:51Z</time>
      </trkpt>
      <trkpt lat="48.58757" lon="2.11135">
        <ele>66</ele>
        <time>2022-12-25T15:15:53Z</time>
      </trkpt>
      <trkpt lat="48.58759" lon="2.11137">
        <ele>66</ele>
        <time>2022-12-25T15:15:55Z</time>
      </trkpt>
      <trkpt lat="48.58762" lon="2.11138">
        <ele>66</ele>
        <time>2022-12-25T15:15:57Z</time>
      </trkpt>
      <trkpt lat="48.58765" lon="2.1114">
        <ele>66</ele>
        <time>2022-12-25T15:15:59Z</time>
      </trkpt>
      <trkpt lat="48.58767" lon="2.11141">
        <ele>66</ele>
        <time>2022-12-25T15:16:01Z</time>
      </trkpt>
      <trkpt lat="48.5877" lon="2.11143">
        <ele>66</ele>
        <time>2022-12-25T15:16:03Z</time>
      </trkpt>
      <trkpt lat="48.58773" lon="2.11145">
        <ele>66</ele>
        <time>2022-12-25T15:16:05Z</time>
      </trkpt>
      <trkpt lat="48.58775" lon="2.11147">
        <ele>66</ele>
        <time>2022-12-25T15:16:07Z</time>
      </trkpt>
      <trkpt lat="48.58777" lon="2.11148">
        <ele>66</ele>
        <time>2022-12-25T15:16:09Z</time>
      </trkpt>
      <trkpt lat="48.58779" lon="2.1115">
        <ele>65</ele>
        <time>2022-12-25T15:16:11Z</time>
      </trkpt>
      <trkpt lat="48.58781" lon="2.11151">
        <ele>65</ele>
        <time>2022-12-25T15:16:13Z</time>
      </trkpt>
      <trkpt lat="48.58784" lon="2.11153">
        <ele>65</ele>
        <time>2022-12-25T15:16:15Z</time>
      </trkpt>
      <trkpt lat="48.58786" lon="2.11155">
        <ele>65</ele>
        <time>2022-12-25T15:16:17Z</time>
      </trkpt>
      <trkpt lat="48.58789" lon="2.11157">
        <ele>65</ele>
        <time>2022-12-25T15:16:19Z</time>
      </trkpt>
      <trkpt lat="48.58791" lon="2.11159">
        <ele>65</ele>
        <time>2022-12-25T15:16:21Z</time>
      </trkpt>
      <trkpt lat="48.58793" lon="2.11161">
        <ele>65</ele>
        <time>2022-12-25T15:16:22Z</time>
      </trkpt>
      <trkpt lat="48.58796" lon="2.11163">
        <ele>65</ele>
        <time>2022-12-25T15:16:24Z</time>
      </trkpt>
      <trkpt lat="48.58798" lon="2.11165">
        <ele>65</ele>
        <time>2022-12-25T15:16:26Z</time>
      </trkpt>
      <trkpt lat="48.58801" lon="2.11167">
        <ele>65</ele>
        <time>2022-12-25T15:16:28Z</time>
      </trkpt>
      <trkpt lat="48.58803" lon="2.1117">
        <ele>65</ele>
        <time>2022-12-25T15:16:30Z</time>
      </trkpt>
      <trkpt lat="48.58806" lon="2.11173">
        <ele>65</ele>
        <time>2022-12-25T15:16:32Z</time>
      </trkpt>
      <trkpt lat="48.58808" lon="2.11175">
        <ele>65</ele>
        <time>2022-12-25T15:16:34Z</time>
      </trkpt>
      <trkpt lat="48.5881" lon="2.11178">
        <ele>65</ele>
        <time>2022-12-25T15:16:36Z</time>
      </trkpt>
      <trkpt lat="48.58812" lon="2.11181">
        <ele>65</ele>
        <time>2022-12-25T15:16:38Z</time>
      </trkpt>
      <trkpt lat="48.58815" lon="2.11183">
        <ele>65</ele>
        <time>2022-12-25T15:16:40Z</time>
      </trkpt>
      <trkpt lat="48.58817" lon="2.11185">
        <ele>65</ele>
        <time>2022-12-25T15:16:42Z</time>
      </trkpt>
      <trkpt lat="48.5882" lon="2.11187">
        <ele>65</ele>
        <time>2022-12-25T15:16:44Z</time>
      </trkpt>
      <trkpt lat="48.58822" lon="2.1119">
        <ele>65</ele>
        <time>2022-12-25T15:16:47Z</time>
      </trkpt>
      <trkpt lat="48.58823" lon="2.11193">
        <ele>65</ele>
        <time>2022-12-25T15:16:48Z</time>
      </trkpt>
      <trkpt lat="48.58825" lon="2.11196">
        <ele>65</ele>
        <time>2022-12-25T15:16:50Z</time>
      </trkpt>
      <trkpt lat="48.58827" lon="2.11199">
        <ele>65</ele>
        <time>2022-12-25T15:16:52Z</time>
      </trkpt>
      <trkpt lat="48.58829" lon="2.11203">
        <ele>65</ele>
        <time>2022-12-25T15:16:54Z</time>
      </trkpt>
      <trkpt lat="48.5883" lon="2.11207">
        <ele>65</ele>
        <time>2022-12-25T15:16:56Z</time>
      </trkpt>
      <trkpt lat="48.58832" lon="2.1121">
        <ele>65</ele>
        <time>2022-12-25T15:16:58Z</time>
      </trkpt>
      <trkpt lat="48.58834" lon="2.11214">
        <ele>65</ele>
        <time>2022-12-25T15:17:00Z</time>
      </trkpt>
      <trkpt lat="48.58835" lon="2.11217">
        <ele>66</ele>
        <time>2022-12-25T15:17:02Z</time>
      </trkpt>
      <trkpt lat="48.58837" lon="2.1122">
        <ele>66</ele>
        <time>2022-12-25T15:17:04Z</time>
      </trkpt>
      <trkpt lat="48.5884" lon="2.11222">
        <ele>66</ele>
        <time>2022-12-25T15:17:06Z</time>
      </trkpt>
      <trkpt lat="48.58842" lon="2.11223">
        <ele>66</ele>
        <time>2022-12-25T15:17:08Z</time>
      </trkpt>
      <trkpt lat="48.58845" lon="2.11223">
        <ele>66</ele>
        <time>2022-12-25T15:17:10Z</time>
      </trkpt>
      <trkpt lat="48.58848" lon="2.11221">
        <ele>66</ele>
        <time>2022-12-25T15:17:12Z</time>
      </trkpt>
      <trkpt lat="48.58851" lon="2.11219">
        <ele>66</ele>
        <time>2022-12-25T15:17:14Z</time>
      </trkpt>
      <trkpt lat="48.58853" lon="2.11217">
        <ele>66</ele>
        <time>2022-12-25T15:17:16Z</time>
      </trkpt>
      <trkpt lat="48.58855" lon="2.11214">
        <ele>66</ele>
        <time>2022-12-25T15:17:18Z</time>
      </trkpt>
      <trkpt lat="48.58858" lon="2.11211">
        <ele>66</ele>
        <time>2022-12-25T15:17:20Z</time>
      </trkpt>
      <trkpt lat="48.5886" lon="2.11209">
        <ele>66</ele>
        <time>2022-12-25T15:17:22Z</time>
      </trkpt>
      <trkpt lat="48.58863" lon="2.11206">
        <ele>66</ele>
        <time>2022-12-25T15:17:25Z</time>
      </trkpt>
      <trkpt lat="48.58865" lon="2.11204">
        <ele>66</ele>
        <time>2022-12-25T15:17:26Z</time>
      </trkpt>
      <trkpt lat="48.58867" lon="2.11201">
        <ele>66</ele>
        <time>2022-12-25T15:17:28Z</time>
      </trkpt>
      <trkpt lat="48.5887" lon="2.11199">
        <ele>66</ele>
        <time>2022-12-25T15:17:30Z</time>
      </trkpt>
      <trkpt lat="48.58872" lon="2.11197">
        <ele>67</ele>
        <time>2022-12-25T15:17:32Z</time>
      </trkpt>
      <trkpt lat="48.58875" lon="2.11195">
        <ele>67</ele>
        <time>2022-12-25T15:17:34Z</time>
      </trkpt>
      <trkpt lat="48.58877" lon="2.11194">
        <ele>67</ele>
        <time>2022-12-25T15:17:36Z</time>
      </trkpt>
      <trkpt lat="48.5888" lon="2.11193">
        <ele>67</ele>
        <time>2022-12-25T15:17:38Z</time>
      </trkpt>
      <trkpt lat="48.58883" lon="2.11192">
        <ele>67</ele>
        <time>2022-12-25T15:17:40Z</time>
      </trkpt>
      <trkpt lat="48.58885" lon="2.1119">
        <ele>67</ele>
        <time>2022-12-25T15:17:42Z</time>
      </trkpt>
      <trkpt lat="48.58888" lon="2.11189">
        <ele>67</ele>
        <time>2022-12-25T15:17:44Z</time>
      </trkpt>
      <trkpt lat="48.58891" lon="2.11188">
        <ele>67</ele>
        <time>2022-12-25T15:17:46Z</time>
      </trkpt>
      <trkpt lat="48.58893" lon="2.11187">
        <ele>67</ele>
        <time>2022-12-25T15:17:48Z</time>
      </trkpt>
      <trkpt lat="48.58896" lon="2.11186">
        <ele>67</ele>
        <time>2022-12-25T15:17:50Z</time>
      </trkpt>
      <trkpt lat="48.58899" lon="2.11186">
        <ele>67</ele>
        <time>2022-12-25T15:17:52Z</time>
      </trkpt>
      <trkpt lat="48.58901" lon="2.11185">
        <ele>67</ele>
        <time>2022-12-25T15:17:54Z</time>
      </trkpt>
      <trkpt lat="48.58904" lon="2.11184">
        <ele>67</ele>
        <time>2022-12-25T15:17:56Z</time>
      </trkpt>
      <trkpt lat="48.58907" lon="2.11183">
        <ele>67</ele>
        <time>2022-12-25T15:17:58Z</time>
      </trkpt>
      <trkpt lat="48.5891" lon="2.11182">
        <ele>67</ele>
        <time>2022-12-25T15:18:00Z</time>
      </trkpt>
      <trkpt lat="48.58912" lon="2.11182">
        <ele>67</ele>
        <time>2022-12-25T15:18:03Z</time>
      </trkpt>
      <trkpt lat="48.58915" lon="2.11181">
        <ele>67</ele>
        <time>2022-12-25T15:18:04Z</time>
      </trkpt>
      <trkpt lat="48.58917" lon="2.1118">
        <ele>67</ele>
        <time>2022-12-25T15:18:06Z</time>
      </trkpt>
      <trkpt lat="48.5892" lon="2.1118">
        <ele>67</ele>
        <time>2022-12-25T15:18:08Z</time>
      </trkpt>
      <trkpt lat="48.58923" lon="2.11179">
        <ele>67</ele>
        <time>2022-12-25T15:18:10Z</time>
      </trkpt>
      <trkpt lat="48.58925" lon="2.11179">
        <ele>67</ele>
        <time>2022-12-25T15:18:12Z</time>
      </trkpt>
      <trkpt lat="48.58928" lon="2.11178">
        <ele>67</ele>
        <time>2022-12-25T15:18:14Z</time>
      </trkpt>
      <trkpt lat="48.5893" lon="2.11177">
        <ele>67</ele>
        <time>2022-12-25T15:18:16Z</time>
      </trkpt>
      <trkpt lat="48.58933" lon="2.11176">
        <ele>67</ele>
        <time>2022-12-25T15:18:18Z</time>
      </trkpt>
      <trkpt lat="48.58936" lon="2.11175">
        <ele>67</ele>
        <time>2022-12-25T15:18:20Z</time>
      </trkpt>
      <trkpt lat="48.58939" lon="2.11173">
        <ele>67</ele>
        <time>2022-12-25T15:18:22Z</time>
      </trkpt>
      <trkpt lat="48.58942" lon="2.11172">
        <ele>67</ele>
        <time>2022-12-25T15:18:24Z</time>
      </trkpt>
      <trkpt lat="48.58945" lon="2.11171">
        <ele>67</ele>
        <time>2022-12-25T15:18:26Z</time>
      </trkpt>
      <trkpt lat="48.58948" lon="2.11169">
        <ele>67</ele>
        <time>2022-12-25T15:18:29Z</time>
      </trkpt>
      <trkpt lat="48.58951" lon="2.11168">
        <ele>67</ele>
        <time>2022-12-25T15:18:30Z</time>
      </trkpt>
      <trkpt lat="48.58954" lon="2.11167">
        <ele>68</ele>
        <time>2022-12-25T15:18:32Z</time>
      </trkpt>
      <trkpt lat="48.58958" lon="2.11167">
        <ele>68</ele>
        <time>2022-12-25T15:18:34Z</time>
      </trkpt>
      <trkpt lat="48.58961" lon="2.11166">
        <ele>68</ele>
        <time>2022-12-25T15:18:36Z</time>
      </trkpt>
      <trkpt lat="48.58964" lon="2.11166">
        <ele>68</ele>
        <time>2022-12-25T15:18:38Z</time>
      </trkpt>
      <trkpt lat="48.58966" lon="2.11165">
        <ele>68</ele>
        <time>2022-12-25T15:18:41Z</time>
      </trkpt>
      <trkpt lat="48.58969" lon="2.11165">
        <ele>68</ele>
        <time>2022-12-25T15:18:42Z</time>
      </trkpt>
      <trkpt lat="48.58971" lon="2.11164">
        <ele>68</ele>
        <time>2022-12-25T15:18:44Z</time>
      </trkpt>
      <trkpt lat="48.58974" lon="2.11162">
        <ele>68</ele>
        <time>2022-12-25T15:18:46Z</time>
      </trkpt>
      <trkpt lat="48.58977" lon="2.11161">
        <ele>68</ele>
        <time>2022-12-25T15:18:48Z</time>
      </trkpt>
      <trkpt lat="48.5898" lon="2.1116">
        <ele>68</ele>
        <time>2022-12-25T15:18:50Z</time>
      </trkpt>
      <trkpt lat="48.58983" lon="2.1116">
        <ele>68</ele>
        <time>2022-12-25T15:18:52Z</time>
      </trkpt>
      <trkpt lat="48.58986" lon="2.11159">
        <ele>68</ele>
        <time>2022-12-25T15:18:54Z</time>
      </trkpt>
      <trkpt lat="48.58989" lon="2.11158">
        <ele>68</ele>
        <time>2022-12-25T15:18:56Z</time>
      </trkpt>
      <trkpt lat="48.58991" lon="2.11157">
        <ele>68</ele>
        <time>2022-12-25T15:18:58Z</time>
      </trkpt>
      <trkpt lat="48.58994" lon="2.11156">
        <ele>68</ele>
        <time>2022-12-25T15:19:00Z</time>
      </trkpt>
      <trkpt lat="48.58997" lon="2.11155">
        <ele>68</ele>
        <time>2022-12-25T15:19:02Z</time>
      </trkpt>
      <trkpt lat="48.59" lon="2.11154">
        <ele>69</ele>
        <time>2022-12-25T15:19:04Z</time>
      </trkpt>
      <trkpt lat="48.59003" lon="2.11153">
        <ele>69</ele>
        <time>2022-12-25T15:19:06Z</time>
      </trkpt>
      <trkpt lat="48.59006" lon="2.11152">
        <ele>69</ele>
        <time>2022-12-25T15:19:08Z</time>
      </trkpt>
      <trkpt lat="48.59009" lon="2.11152">
        <ele>69</ele>
        <time>2022-12-25T15:19:10Z</time>
      </trkpt>
      <trkpt lat="48.59012" lon="2.11151">
        <ele>69</ele>
        <time>2022-12-25T15:19:12Z</time>
      </trkpt>
      <trkpt lat="48.59015" lon="2.1115">
        <ele>69</ele>
        <time>2022-12-25T15:19:14Z</time>
      </trkpt>
      <trkpt lat="48.59017" lon="2.11149">
        <ele>69</ele>
        <time>2022-12-25T15:19:16Z</time>
      </trkpt>
      <trkpt lat="48.5902" lon="2.11148">
        <ele>69</ele>
        <time>2022-12-25T15:19:19Z</time>
      </trkpt>
      <trkpt lat="48.59023" lon="2.11147">
        <ele>69</ele>
        <time>2022-12-25T15:19:20Z</time>
      </trkpt>
      <trkpt lat="48.59026" lon="2.11146">
        <ele>70</ele>
        <time>2022-12-25T15:19:22Z</time>
      </trkpt>
      <trkpt lat="48.59029" lon="2.11145">
        <ele>70</ele>
        <time>2022-12-25T15:19:24Z</time>
      </trkpt>
      <trkpt lat="48.59032" lon="2.11144">
        <ele>70</ele>
        <time>2022-12-25T15:19:26Z</time>
      </trkpt>
      <trkpt lat="48.59035" lon="2.11143">
        <ele>70</ele>
        <time>2022-12-25T15:19:28Z</time>
      </trkpt>
      <trkpt lat="48.59038" lon="2.11142">
        <ele>70</ele>
        <time>2022-12-25T15:19:30Z</time>
      </trkpt>
      <trkpt lat="48.59041" lon="2.1114">
        <ele>70</ele>
        <time>2022-12-25T15:19:32Z</time>
      </trkpt>
      <trkpt lat="48.59044" lon="2.11138">
        <ele>70</ele>
        <time>2022-12-25T15:19:34Z</time>
      </trkpt>
      <trkpt lat="48.59047" lon="2.11138">
        <ele>70</ele>
        <time>2022-12-25T15:19:36Z</time>
      </trkpt>
      <trkpt lat="48.5905" lon="2.11137">
        <ele>70</ele>
        <time>2022-12-25T15:19:38Z</time>
      </trkpt>
      <trkpt lat="48.59053" lon="2.11136">
        <ele>71</ele>
        <time>2022-12-25T15:19:40Z</time>
      </trkpt>
      <trkpt lat="48.59056" lon="2.11135">
        <ele>71</ele>
        <time>2022-12-25T15:19:42Z</time>
      </trkpt>
      <trkpt lat="48.59059" lon="2.11133">
        <ele>71</ele>
        <time>2022-12-25T15:19:44Z</time>
      </trkpt>
      <trkpt lat="48.59062" lon="2.11132">
        <ele>71</ele>
        <time>2022-12-25T15:19:46Z</time>
      </trkpt>
      <trkpt lat="48.59065" lon="2.1113">
        <ele>71</ele>
        <time>2022-12-25T15:19:48Z</time>
      </trkpt>
      <trkpt lat="48.59068" lon="2.11129">
        <ele>71</ele>
        <time>2022-12-25T15:19:50Z</time>
      </trkpt>
      <trkpt lat="48.59072" lon="2.11128">
        <ele>71</ele>
        <time>2022-12-25T15:19:52Z</time>
      </trkpt>
      <trkpt lat="48.59074" lon="2.11126">
        <ele>72</ele>
        <time>2022-12-25T15:19:54Z</time>
      </trkpt>
      <trkpt lat="48.59077" lon="2.11124">
        <ele>72</ele>
        <time>2022-12-25T15:19:57Z</time>
      </trkpt>
      <trkpt lat="48.59079" lon="2.11122">
        <ele>72</ele>
        <time>2022-12-25T15:19:58Z</time>
      </trkpt>
      <trkpt lat="48.59082" lon="2.1112">
        <ele>72</ele>
        <time>2022-12-25T15:20:00Z</time>
      </trkpt>
      <trkpt lat="48.59085" lon="2.11117">
        <ele>72</ele>
        <time>2022-12-25T15:20:02Z</time>
      </trkpt>
      <trkpt lat="48.59087" lon="2.11115">
        <ele>73</ele>
        <time>2022-12-25T15:20:04Z</time>
      </trkpt>
      <trkpt lat="48.5909" lon="2.11113">
        <ele>73</ele>
        <time>2022-12-25T15:20:06Z</time>
      </trkpt>
      <trkpt lat="48.59093" lon="2.1111">
        <ele>73</ele>
        <time>2022-12-25T15:20:08Z</time>
      </trkpt>
      <trkpt lat="48.59096" lon="2.11108">
        <ele>73</ele>
        <time>2022-12-25T15:20:10Z</time>
      </trkpt>
      <trkpt lat="48.59098" lon="2.11107">
        <ele>73</ele>
        <time>2022-12-25T15:20:11Z</time>
      </trkpt>
      <trkpt lat="48.591" lon="2.11106">
        <ele>74</ele>
        <time>2022-12-25T15:20:12Z</time>
      </trkpt>
      <trkpt lat="48.59103" lon="2.11104">
        <ele>74</ele>
        <time>2022-12-25T15:20:14Z</time>
      </trkpt>
      <trkpt lat="48.59105" lon="2.11101">
        <ele>74</ele>
        <time>2022-12-25T15:20:16Z</time>
      </trkpt>
      <trkpt lat="48.59108" lon="2.11098">
        <ele>74</ele>
        <time>2022-12-25T15:20:18Z</time>
      </trkpt>
      <trkpt lat="48.59111" lon="2.11096">
        <ele>75</ele>
        <time>2022-12-25T15:20:20Z</time>
      </trkpt>
      <trkpt lat="48.59113" lon="2.11092">
        <ele>75</ele>
        <time>2022-12-25T15:20:22Z</time>
      </trkpt>
      <trkpt lat="48.59116" lon="2.1109">
        <ele>75</ele>
        <time>2022-12-25T15:20:24Z</time>
      </trkpt>
      <trkpt lat="48.59119" lon="2.11088">
        <ele>76</ele>
        <time>2022-12-25T15:20:26Z</time>
      </trkpt>
      <trkpt lat="48.59121" lon="2.11085">
        <ele>76</ele>
        <time>2022-12-25T15:20:28Z</time>
      </trkpt>
      <trkpt lat="48.59124" lon="2.11083">
        <ele>76</ele>
        <time>2022-12-25T15:20:30Z</time>
      </trkpt>
      <trkpt lat="48.59126" lon="2.11081">
        <ele>76</ele>
        <time>2022-12-25T15:20:32Z</time>
      </trkpt>
      <trkpt lat="48.59129" lon="2.11079">
        <ele>76</ele>
        <time>2022-12-25T15:20:35Z</time>
      </trkpt>
      <trkpt lat="48.59132" lon="2.11077">
        <ele>76</ele>
        <time>2022-12-25T15:20:36Z</time>
      </trkpt>
      <trkpt lat="48.59135" lon="2.11075">
        <ele>76</ele>
        <time>2022-12-25T15:20:38Z</time>
      </trkpt>
      <trkpt lat="48.59138" lon="2.11074">
        <ele>76</ele>
        <time>2022-12-25T15:20:40Z</time>
      </trkpt>
      <trkpt lat="48.5914" lon="2.11072">
        <ele>76</ele>
        <time>2022-12-25T15:20:43Z</time>
      </trkpt>
      <trkpt lat="48.59141" lon="2.1107">
        <ele>76</ele>
        <time>2022-12-25T15:20:54Z</time>
      </trkpt>
      <trkpt lat="48.59143" lon="2.11069">
        <ele>76</ele>
        <time>2022-12-25T15:20:56Z</time>
      </trkpt>
      <trkpt lat="48.59145" lon="2.11068">
        <ele>76</ele>
        <time>2022-12-25T15:20:58Z</time>
      </trkpt>
      <trkpt lat="48.59147" lon="2.11065">
        <ele>76</ele>
        <time>2022-12-25T15:21:00Z</time>
      </trkpt>
      <trkpt lat="48.59149" lon="2.11063">
        <ele>76</ele>
        <time>2022-12-25T15:21:02Z</time>
      </trkpt>
      <trkpt lat="48.59152" lon="2.1106">
        <ele>76</ele>
        <time>2022-12-25T15:21:04Z</time>
      </trkpt>
      <trkpt lat="48.59154" lon="2.11057">
        <ele>76</ele>
        <time>2022-12-25T15:21:06Z</time>
      </trkpt>
      <trkpt lat="48.59157" lon="2.11054">
        <ele>77</ele>
        <time>2022-12-25T15:21:08Z</time>
      </trkpt>
      <trkpt lat="48.5916" lon="2.11052">
        <ele>77</ele>
        <time>2022-12-25T15:21:10Z</time>
      </trkpt>
      <trkpt lat="48.59162" lon="2.11049">
        <ele>77</ele>
        <time>2022-12-25T15:21:13Z</time>
      </trkpt>
      <trkpt lat="48.59164" lon="2.11045">
        <ele>77</ele>
        <time>2022-12-25T15:21:14Z</time>
      </trkpt>
      <trkpt lat="48.59167" lon="2.11042">
        <ele>77</ele>
        <time>2022-12-25T15:21:16Z</time>
      </trkpt>
      <trkpt lat="48.59169" lon="2.11039">
        <ele>78</ele>
        <time>2022-12-25T15:21:18Z</time>
      </trkpt>
      <trkpt lat="48.59171" lon="2.11035">
        <ele>78</ele>
        <time>2022-12-25T15:21:20Z</time>
      </trkpt>
      <trkpt lat="48.59173" lon="2.11032">
        <ele>78</ele>
        <time>2022-12-25T15:21:22Z</time>
      </trkpt>
      <trkpt lat="48.59175" lon="2.11028">
        <ele>78</ele>
        <time>2022-12-25T15:21:24Z</time>
      </trkpt>
      <trkpt lat="48.59177" lon="2.11025">
        <ele>78</ele>
        <time>2022-12-25T15:21:26Z</time>
      </trkpt>
      <trkpt lat="48.5918" lon="2.11022">
        <ele>78</ele>
        <time>2022-12-25T15:21:28Z</time>
      </trkpt>
      <trkpt lat="48.59182" lon="2.1102">
        <ele>78</ele>
        <time>2022-12-25T15:21:30Z</time>
      </trkpt>
      <trkpt lat="48.59185" lon="2.11018">
        <ele>78</ele>
        <time>2022-12-25T15:21:32Z</time>
      </trkpt>
      <trkpt lat="48.59187" lon="2.11017">
        <ele>79</ele>
        <time>2022-12-25T15:21:34Z</time>
      </trkpt>
      <trkpt lat="48.5919" lon="2.11015">
        <ele>79</ele>
        <time>2022-12-25T15:21:36Z</time>
      </trkpt>
      <trkpt lat="48.59192" lon="2.11012">
        <ele>79</ele>
        <time>2022-12-25T15:21:38Z</time>
      </trkpt>
      <trkpt lat="48.59194" lon="2.1101">
        <ele>79</ele>
        <time>2022-12-25T15:21:40Z</time>
      </trkpt>
      <trkpt lat="48.59196" lon="2.11007">
        <ele>80</ele>
        <time>2022-12-25T15:21:42Z</time>
      </trkpt>
      <trkpt lat="48.59198" lon="2.11005">
        <ele>80</ele>
        <time>2022-12-25T15:21:44Z</time>
      </trkpt>
      <trkpt lat="48.592" lon="2.11003">
        <ele>80</ele>
        <time>2022-12-25T15:21:46Z</time>
      </trkpt>
      <trkpt lat="48.59203" lon="2.11">
        <ele>80</ele>
        <time>2022-12-25T15:21:48Z</time>
      </trkpt>
      <trkpt lat="48.59205" lon="2.10997">
        <ele>80</ele>
        <time>2022-12-25T15:21:51Z</time>
      </trkpt>
      <trkpt lat="48.59207" lon="2.10995">
        <ele>80</ele>
        <time>2022-12-25T15:21:52Z</time>
      </trkpt>
      <trkpt lat="48.59209" lon="2.10992">
        <ele>80</ele>
        <time>2022-12-25T15:21:54Z</time>
      </trkpt>
      <trkpt lat="48.59211" lon="2.1099">
        <ele>80</ele>
        <time>2022-12-25T15:21:56Z</time>
      </trkpt>
      <trkpt lat="48.59214" lon="2.10987">
        <ele>80</ele>
        <time>2022-12-25T15:21:58Z</time>
      </trkpt>
      <trkpt lat="48.59216" lon="2.10985">
        <ele>80</ele>
        <time>2022-12-25T15:22:00Z</time>
      </trkpt>
      <trkpt lat="48.59218" lon="2.10982">
        <ele>81</ele>
        <time>2022-12-25T15:22:02Z</time>
      </trkpt>
      <trkpt lat="48.5922" lon="2.10979">
        <ele>81</ele>
        <time>2022-12-25T15:22:04Z</time>
      </trkpt>
      <trkpt lat="48.59223" lon="2.10976">
        <ele>81</ele>
        <time>2022-12-25T15:22:06Z</time>
      </trkpt>
      <trkpt lat="48.59226" lon="2.10974">
        <ele>81</ele>
        <time>2022-12-25T15:22:08Z</time>
      </trkpt>
      <trkpt lat="48.59228" lon="2.10972">
        <ele>82</ele>
        <time>2022-12-25T15:22:10Z</time>
      </trkpt>
      <trkpt lat="48.59231" lon="2.1097">
        <ele>82</ele>
        <time>2022-12-25T15:22:12Z</time>
      </trkpt>
      <trkpt lat="48.59233" lon="2.10967">
        <ele>82</ele>
        <time>2022-12-25T15:22:14Z</time>
      </trkpt>
      <trkpt lat="48.59235" lon="2.10964">
        <ele>82</ele>
        <time>2022-12-25T15:22:16Z</time>
      </trkpt>
      <trkpt lat="48.59238" lon="2.10961">
        <ele>82</ele>
        <time>2022-12-25T15:22:18Z</time>
      </trkpt>
      <trkpt lat="48.5924" lon="2.10958">
        <ele>82</ele>
        <time>2022-12-25T15:22:20Z</time>
      </trkpt>
      <trkpt lat="48.59242" lon="2.10955">
        <ele>82</ele>
        <time>2022-12-25T15:22:22Z</time>
      </trkpt>
      <trkpt lat="48.59245" lon="2.10952">
        <ele>83</ele>
        <time>2022-12-25T15:22:24Z</time>
      </trkpt>
      <trkpt lat="48.59247" lon="2.10949">
        <ele>83</ele>
        <time>2022-12-25T15:22:26Z</time>
      </trkpt>
      <trkpt lat="48.59249" lon="2.10946">
        <ele>83</ele>
        <time>2022-12-25T15:22:29Z</time>
      </trkpt>
      <trkpt lat="48.59251" lon="2.10944">
        <ele>83</ele>
        <time>2022-12-25T15:22:30Z</time>
      </trkpt>
      <trkpt lat="48.59254" lon="2.10941">
        <ele>83</ele>
        <time>2022-12-25T15:22:32Z</time>
      </trkpt>
      <trkpt lat="48.59256" lon="2.10938">
        <ele>83</ele>
        <time>2022-12-25T15:22:34Z</time>
      </trkpt>
      <trkpt lat="48.59258" lon="2.10936">
        <ele>83</ele>
        <time>2022-12-25T15:22:36Z</time>
      </trkpt>
      <trkpt lat="48.59261" lon="2.10934">
        <ele>83</ele>
        <time>2022-12-25T15:22:38Z</time>
      </trkpt>
      <trkpt lat="48.59263" lon="2.10931">
        <ele>83</ele>
        <time>2022-12-25T15:22:40Z</time>
      </trkpt>
      <trkpt lat="48.59266" lon="2.10929">
        <ele>83</ele>
        <time>2022-12-25T15:22:42Z</time>
      </trkpt>
      <trkpt lat="48.59268" lon="2.10928">
        <ele>83</ele>
        <time>2022-12-25T15:22:44Z</time>
      </trkpt>
      <trkpt lat="48.59269" lon="2.10926">
        <ele>84</ele>
        <time>2022-12-25T15:22:46Z</time>
      </trkpt>
      <trkpt lat="48.59271" lon="2.10922">
        <ele>84</ele>
        <time>2022-12-25T15:22:48Z</time>
      </trkpt>
      <trkpt lat="48.59273" lon="2.10921">
        <ele>84</ele>
        <time>2022-12-25T15:22:50Z</time>
      </trkpt>
      <trkpt lat="48.59275" lon="2.10918">
        <ele>84</ele>
        <time>2022-12-25T15:22:52Z</time>
      </trkpt>
      <trkpt lat="48.59278" lon="2.10915">
        <ele>84</ele>
        <time>2022-12-25T15:22:54Z</time>
      </trkpt>
      <trkpt lat="48.5928" lon="2.10913">
        <ele>84</ele>
        <time>2022-12-25T15:22:56Z</time>
      </trkpt>
      <trkpt lat="48.59283" lon="2.10911">
        <ele>85</ele>
        <time>2022-12-25T15:22:58Z</time>
      </trkpt>
      <trkpt lat="48.59285" lon="2.1091">
        <ele>84</ele>
        <time>2022-12-25T15:23:00Z</time>
      </trkpt>
      <trkpt lat="48.59288" lon="2.10908">
        <ele>85</ele>
        <time>2022-12-25T15:23:02Z</time>
      </trkpt>
      <trkpt lat="48.5929" lon="2.10906">
        <ele>85</ele>
        <time>2022-12-25T15:23:04Z</time>
      </trkpt>
      <trkpt lat="48.59293" lon="2.10904">
        <ele>85</ele>
        <time>2022-12-25T15:23:07Z</time>
      </trkpt>
      <trkpt lat="48.59295" lon="2.10902">
        <ele>85</ele>
        <time>2022-12-25T15:23:08Z</time>
      </trkpt>
      <trkpt lat="48.59298" lon="2.10899">
        <ele>85</ele>
        <time>2022-12-25T15:23:10Z</time>
      </trkpt>
      <trkpt lat="48.593" lon="2.10897">
        <ele>85</ele>
        <time>2022-12-25T15:23:12Z</time>
      </trkpt>
      <trkpt lat="48.59302" lon="2.10894">
        <ele>85</ele>
        <time>2022-12-25T15:23:14Z</time>
      </trkpt>
      <trkpt lat="48.59305" lon="2.10891">
        <ele>85</ele>
        <time>2022-12-25T15:23:16Z</time>
      </trkpt>
      <trkpt lat="48.59307" lon="2.10888">
        <ele>85</ele>
        <time>2022-12-25T15:23:18Z</time>
      </trkpt>
      <trkpt lat="48.59309" lon="2.10886">
        <ele>85</ele>
        <time>2022-12-25T15:23:20Z</time>
      </trkpt>
      <trkpt lat="48.59312" lon="2.10883">
        <ele>85</ele>
        <time>2022-12-25T15:23:22Z</time>
      </trkpt>
      <trkpt lat="48.59314" lon="2.10882">
        <ele>85</ele>
        <time>2022-12-25T15:23:24Z</time>
      </trkpt>
      <trkpt lat="48.59316" lon="2.10879">
        <ele>85</ele>
        <time>2022-12-25T15:23:26Z</time>
      </trkpt>
      <trkpt lat="48.59318" lon="2.10877">
        <ele>85</ele>
        <time>2022-12-25T15:23:28Z</time>
      </trkpt>
      <trkpt lat="48.59321" lon="2.10875">
        <ele>85</ele>
        <time>2022-12-25T15:23:30Z</time>
      </trkpt>
      <trkpt lat="48.59323" lon="2.10872">
        <ele>85</ele>
        <time>2022-12-25T15:23:32Z</time>
      </trkpt>
      <trkpt lat="48.59326" lon="2.1087">
        <ele>86</ele>
        <time>2022-12-25T15:23:34Z</time>
      </trkpt>
      <trkpt lat="48.59328" lon="2.10868">
        <ele>86</ele>
        <time>2022-12-25T15:23:36Z</time>
      </trkpt>
      <trkpt lat="48.5933" lon="2.10866">
        <ele>86</ele>
        <time>2022-12-25T15:23:38Z</time>
      </trkpt>
      <trkpt lat="48.59333" lon="2.10864">
        <ele>86</ele>
        <time>2022-12-25T15:23:40Z</time>
      </trkpt>
      <trkpt lat="48.59335" lon="2.10862">
        <ele>86</ele>
        <time>2022-12-25T15:23:42Z</time>
      </trkpt>
      <trkpt lat="48.59337" lon="2.1086">
        <ele>86</ele>
        <time>2022-12-25T15:23:45Z</time>
      </trkpt>
      <trkpt lat="48.5934" lon="2.10858">
        <ele>86</ele>
        <time>2022-12-25T15:23:46Z</time>
      </trkpt>
      <trkpt lat="48.59342" lon="2.10857">
        <ele>87</ele>
        <time>2022-12-25T15:23:48Z</time>
      </trkpt>
      <trkpt lat="48.59344" lon="2.10855">
        <ele>87</ele>
        <time>2022-12-25T15:23:50Z</time>
      </trkpt>
      <trkpt lat="48.59347" lon="2.10853">
        <ele>87</ele>
        <time>2022-12-25T15:23:52Z</time>
      </trkpt>
      <trkpt lat="48.59349" lon="2.10852">
        <ele>87</ele>
        <time>2022-12-25T15:23:54Z</time>
      </trkpt>
      <trkpt lat="48.59352" lon="2.10851">
        <ele>87</ele>
        <time>2022-12-25T15:23:56Z</time>
      </trkpt>
      <trkpt lat="48.59355" lon="2.10849">
        <ele>87</ele>
        <time>2022-12-25T15:23:58Z</time>
      </trkpt>
      <trkpt lat="48.59357" lon="2.10848">
        <ele>87</ele>
        <time>2022-12-25T15:24:00Z</time>
      </trkpt>
      <trkpt lat="48.5936" lon="2.10847">
        <ele>87</ele>
        <time>2022-12-25T15:24:02Z</time>
      </trkpt>
      <trkpt lat="48.59362" lon="2.10845">
        <ele>87</ele>
        <time>2022-12-25T15:24:04Z</time>
      </trkpt>
      <trkpt lat="48.59365" lon="2.10844">
        <ele>87</ele>
        <time>2022-12-25T15:24:06Z</time>
      </trkpt>
      <trkpt lat="48.59367" lon="2.10843">
        <ele>87</ele>
        <time>2022-12-25T15:24:08Z</time>
      </trkpt>
      <trkpt lat="48.5937" lon="2.10843">
        <ele>88</ele>
        <time>2022-12-25T15:24:10Z</time>
      </trkpt>
      <trkpt lat="48.59372" lon="2.10842">
        <ele>88</ele>
        <time>2022-12-25T15:24:12Z</time>
      </trkpt>
      <trkpt lat="48.59375" lon="2.10841">
        <ele>88</ele>
        <time>2022-12-25T15:24:14Z</time>
      </trkpt>
      <trkpt lat="48.59377" lon="2.1084">
        <ele>88</ele>
        <time>2022-12-25T15:24:16Z</time>
      </trkpt>
      <trkpt lat="48.5938" lon="2.10839">
        <ele>88</ele>
        <time>2022-12-25T15:24:18Z</time>
      </trkpt>
      <trkpt lat="48.59382" lon="2.10838">
        <ele>88</ele>
        <time>2022-12-25T15:24:20Z</time>
      </trkpt>
      <trkpt lat="48.59385" lon="2.10838">
        <ele>88</ele>
        <time>2022-12-25T15:24:23Z</time>
      </trkpt>
      <trkpt lat="48.59388" lon="2.10837">
        <ele>88</ele>
        <time>2022-12-25T15:24:24Z</time>
      </trkpt>
      <trkpt lat="48.59391" lon="2.10837">
        <ele>88</ele>
        <time>2022-12-25T15:24:26Z</time>
      </trkpt>
      <trkpt lat="48.59393" lon="2.10836">
        <ele>88</ele>
        <time>2022-12-25T15:24:28Z</time>
      </trkpt>
      <trkpt lat="48.59396" lon="2.10835">
        <ele>88</ele>
        <time>2022-12-25T15:24:30Z</time>
      </trkpt>
      <trkpt lat="48.59398" lon="2.10835">
        <ele>88</ele>
        <time>2022-12-25T15:24:32Z</time>
      </trkpt>
      <trkpt lat="48.59401" lon="2.10834">
        <ele>89</ele>
        <time>2022-12-25T15:24:34Z</time>
      </trkpt>
      <trkpt lat="48.59404" lon="2.10833">
        <ele>89</ele>
        <time>2022-12-25T15:24:36Z</time>
      </trkpt>
      <trkpt lat="48.59406" lon="2.10832">
        <ele>89</ele>
        <time>2022-12-25T15:24:38Z</time>
      </trkpt>
      <trkpt lat="48.59408" lon="2.10832">
        <ele>89</ele>
        <time>2022-12-25T15:24:48Z</time>
      </trkpt>
      <trkpt lat="48.59411" lon="2.10831">
        <ele>89</ele>
        <time>2022-12-25T15:24:50Z</time>
      </trkpt>
      <trkpt lat="48.59413" lon="2.10831">
        <ele>89</ele>
        <time>2022-12-25T15:24:52Z</time>
      </trkpt>
      <trkpt lat="48.59416" lon="2.1083">
        <ele>89</ele>
        <time>2022-12-25T15:24:54Z</time>
      </trkpt>
      <trkpt lat="48.59418" lon="2.10829">
        <ele>89</ele>
        <time>2022-12-25T15:24:56Z</time>
      </trkpt>
      <trkpt lat="48.59421" lon="2.10828">
        <ele>89</ele>
        <time>2022-12-25T15:24:58Z</time>
      </trkpt>
      <trkpt lat="48.59423" lon="2.10827">
        <ele>89</ele>
        <time>2022-12-25T15:25:01Z</time>
      </trkpt>
      <trkpt lat="48.59425" lon="2.10826">
        <ele>89</ele>
        <time>2022-12-25T15:25:02Z</time>
      </trkpt>
      <trkpt lat="48.59428" lon="2.10825">
        <ele>89</ele>
        <time>2022-12-25T15:25:04Z</time>
      </trkpt>
      <trkpt lat="48.59431" lon="2.10824">
        <ele>89</ele>
        <time>2022-12-25T15:25:06Z</time>
      </trkpt>
      <trkpt lat="48.59434" lon="2.10824">
        <ele>89</ele>
        <time>2022-12-25T15:25:08Z</time>
      </trkpt>
      <trkpt lat="48.59436" lon="2.10823">
        <ele>89</ele>
        <time>2022-12-25T15:25:10Z</time>
      </trkpt>
      <trkpt lat="48.59439" lon="2.10822">
        <ele>90</ele>
        <time>2022-12-25T15:25:12Z</time>
      </trkpt>
      <trkpt lat="48.59442" lon="2.10821">
        <ele>90</ele>
        <time>2022-12-25T15:25:14Z</time>
      </trkpt>
      <trkpt lat="48.59445" lon="2.10819">
        <ele>90</ele>
        <time>2022-12-25T15:25:16Z</time>
      </trkpt>
      <trkpt lat="48.59447" lon="2.10818">
        <ele>90</ele>
        <time>2022-12-25T15:25:18Z</time>
      </trkpt>
      <trkpt lat="48.5945" lon="2.10816">
        <ele>90</ele>
        <time>2022-12-25T15:25:20Z</time>
      </trkpt>
      <trkpt lat="48.59452" lon="2.10815">
        <ele>90</ele>
        <time>2022-12-25T15:25:22Z</time>
      </trkpt>
      <trkpt lat="48.59455" lon="2.10813">
        <ele>90</ele>
        <time>2022-12-25T15:25:24Z</time>
      </trkpt>
      <trkpt lat="48.59458" lon="2.10812">
        <ele>90</ele>
        <time>2022-12-25T15:25:26Z</time>
      </trkpt>
      <trkpt lat="48.5946" lon="2.10811">
        <ele>90</ele>
        <time>2022-12-25T15:25:28Z</time>
      </trkpt>
      <trkpt lat="48.59463" lon="2.10809">
        <ele>91</ele>
        <time>2022-12-25T15:25:30Z</time>
      </trkpt>
      <trkpt lat="48.59466" lon="2.10807">
        <ele>91</ele>
        <time>2022-12-25T15:25:32Z</time>
      </trkpt>
      <trkpt lat="48.59468" lon="2.10806">
        <ele>91</ele>
        <time>2022-12-25T15:25:33Z</time>
      </trkpt>
      <trkpt lat="48.59471" lon="2.10805">
        <ele>91</ele>
        <time>2022-12-25T15:25:35Z</time>
      </trkpt>
      <trkpt lat="48.59474" lon="2.10804">
        <ele>91</ele>
        <time>2022-12-25T15:25:37Z</time>
      </trkpt>
      <trkpt lat="48.59477" lon="2.10802">
        <ele>91</ele>
        <time>2022-12-25T15:25:39Z</time>
      </trkpt>
      <trkpt lat="48.5948" lon="2.10801">
        <ele>91</ele>
        <time>2022-12-25T15:25:41Z</time>
      </trkpt>
      <trkpt lat="48.59483" lon="2.108">
        <ele>91</ele>
        <time>2022-12-25T15:25:43Z</time>
      </trkpt>
      <trkpt lat="48.59486" lon="2.10798">
        <ele>91</ele>
        <time>2022-12-25T15:25:45Z</time>
      </trkpt>
      <trkpt lat="48.59489" lon="2.10797">
        <ele>91</ele>
        <time>2022-12-25T15:25:47Z</time>
      </trkpt>
      <trkpt lat="48.59492" lon="2.10796">
        <ele>91</ele>
        <time>2022-12-25T15:25:49Z</time>
      </trkpt>
      <trkpt lat="48.59495" lon="2.10794">
        <ele>92</ele>
        <time>2022-12-25T15:25:51Z</time>
      </trkpt>
      <trkpt lat="48.59498" lon="2.10792">
        <ele>92</ele>
        <time>2022-12-25T15:25:53Z</time>
      </trkpt>
      <trkpt lat="48.595" lon="2.10791">
        <ele>92</ele>
        <time>2022-12-25T15:25:55Z</time>
      </trkpt>
      <trkpt lat="48.59503" lon="2.10789">
        <ele>92</ele>
        <time>2022-12-25T15:25:58Z</time>
      </trkpt>
      <trkpt lat="48.59506" lon="2.10788">
        <ele>92</ele>
        <time>2022-12-25T15:25:59Z</time>
      </trkpt>
      <trkpt lat="48.59509" lon="2.10786">
        <ele>92</ele>
        <time>2022-12-25T15:26:01Z</time>
      </trkpt>
      <trkpt lat="48.59512" lon="2.10784">
        <ele>92</ele>
        <time>2022-12-25T15:26:03Z</time>
      </trkpt>
      <trkpt lat="48.59514" lon="2.10782">
        <ele>92</ele>
        <time>2022-12-25T15:26:05Z</time>
      </trkpt>
      <trkpt lat="48.59517" lon="2.1078">
        <ele>93</ele>
        <time>2022-12-25T15:26:07Z</time>
      </trkpt>
      <trkpt lat="48.5952" lon="2.10778">
        <ele>93</ele>
        <time>2022-12-25T15:26:09Z</time>
      </trkpt>
      <trkpt lat="48.59522" lon="2.10777">
        <ele>93</ele>
        <time>2022-12-25T15:26:11Z</time>
      </trkpt>
      <trkpt lat="48.59525" lon="2.10775">
        <ele>93</ele>
        <time>2022-12-25T15:26:13Z</time>
      </trkpt>
      <trkpt lat="48.59528" lon="2.10773">
        <ele>93</ele>
        <time>2022-12-25T15:26:15Z</time>
      </trkpt>
      <trkpt lat="48.5953" lon="2.10771">
        <ele>93</ele>
        <time>2022-12-25T15:26:17Z</time>
      </trkpt>
      <trkpt lat="48.59532" lon="2.10768">
        <ele>93</ele>
        <time>2022-12-25T15:26:19Z</time>
      </trkpt>
      <trkpt lat="48.59534" lon="2.10766">
        <ele>93</ele>
        <time>2022-12-25T15:26:21Z</time>
      </trkpt>
      <trkpt lat="48.59537" lon="2.10765">
        <ele>93</ele>
        <time>2022-12-25T15:26:23Z</time>
      </trkpt>
      <trkpt lat="48.5954" lon="2.10764">
        <ele>93</ele>
        <time>2022-12-25T15:26:25Z</time>
      </trkpt>
      <trkpt lat="48.59543" lon="2.10763">
        <ele>93</ele>
        <time>2022-12-25T15:26:27Z</time>
      </trkpt>
      <trkpt lat="48.59546" lon="2.10762">
        <ele>93</ele>
        <time>2022-12-25T15:26:29Z</time>
      </trkpt>
      <trkpt lat="48.59548" lon="2.1076">
        <ele>93</ele>
        <time>2022-12-25T15:26:31Z</time>
      </trkpt>
      <trkpt lat="48.59551" lon="2.10759">
        <ele>93</ele>
        <time>2022-12-25T15:26:33Z</time>
      </trkpt>
      <trkpt lat="48.59554" lon="2.10758">
        <ele>93</ele>
        <time>2022-12-25T15:26:36Z</time>
      </trkpt>
      <trkpt lat="48.59556" lon="2.10757">
        <ele>93</ele>
        <time>2022-12-25T15:26:37Z</time>
      </trkpt>
      <trkpt lat="48.59559" lon="2.10756">
        <ele>93</ele>
        <time>2022-12-25T15:26:39Z</time>
      </trkpt>
      <trkpt lat="48.59561" lon="2.10754">
        <ele>93</ele>
        <time>2022-12-25T15:26:41Z</time>
      </trkpt>
      <trkpt lat="48.59564" lon="2.10752">
        <ele>94</ele>
        <time>2022-12-25T15:26:43Z</time>
      </trkpt>
      <trkpt lat="48.59566" lon="2.1075">
        <ele>94</ele>
        <time>2022-12-25T15:26:45Z</time>
      </trkpt>
      <trkpt lat="48.59569" lon="2.10749">
        <ele>94</ele>
        <time>2022-12-25T15:26:47Z</time>
      </trkpt>
      <trkpt lat="48.59572" lon="2.10748">
        <ele>94</ele>
        <time>2022-12-25T15:26:49Z</time>
      </trkpt>
      <trkpt lat="48.59575" lon="2.10747">
        <ele>94</ele>
        <time>2022-12-25T15:26:51Z</time>
      </trkpt>
      <trkpt lat="48.59578" lon="2.10746">
        <ele>94</ele>
        <time>2022-12-25T15:26:53Z</time>
      </trkpt>
      <trkpt lat="48.5958" lon="2.10745">
        <ele>94</ele>
        <time>2022-12-25T15:26:55Z</time>
      </trkpt>
      <trkpt lat="48.59583" lon="2.10744">
        <ele>94</ele>
        <time>2022-12-25T15:26:57Z</time>
      </trkpt>
      <trkpt lat="48.59586" lon="2.10743">
        <ele>94</ele>
        <time>2022-12-25T15:26:59Z</time>
      </trkpt>
      <trkpt lat="48.59589" lon="2.10742">
        <ele>94</ele>
        <time>2022-12-25T15:27:01Z</time>
      </trkpt>
      <trkpt lat="48.59592" lon="2.1074">
        <ele>94</ele>
        <time>2022-12-25T15:27:03Z</time>
      </trkpt>
      <trkpt lat="48.59595" lon="2.10739">
        <ele>94</ele>
        <time>2022-12-25T15:27:05Z</time>
      </trkpt>
      <trkpt lat="48.59597" lon="2.10738">
        <ele>95</ele>
        <time>2022-12-25T15:27:07Z</time>
      </trkpt>
      <trkpt lat="48.596" lon="2.10737">
        <ele>95</ele>
        <time>2022-12-25T15:27:09Z</time>
      </trkpt>
      <trkpt lat="48.59603" lon="2.10736">
        <ele>95</ele>
        <time>2022-12-25T15:27:11Z</time>
      </trkpt>
      <trkpt lat="48.59606" lon="2.10734">
        <ele>95</ele>
        <time>2022-12-25T15:27:14Z</time>
      </trkpt>
      <trkpt lat="48.59609" lon="2.10733">
        <ele>95</ele>
        <time>2022-12-25T15:27:15Z</time>
      </trkpt>
      <trkpt lat="48.59611" lon="2.10731">
        <ele>95</ele>
        <time>2022-12-25T15:27:17Z</time>
      </trkpt>
      <trkpt lat="48.59614" lon="2.1073">
        <ele>95</ele>
        <time>2022-12-25T15:27:19Z</time>
      </trkpt>
      <trkpt lat="48.59617" lon="2.10728">
        <ele>95</ele>
        <time>2022-12-25T15:27:21Z</time>
      </trkpt>
      <trkpt lat="48.59619" lon="2.10726">
        <ele>95</ele>
        <time>2022-12-25T15:27:23Z</time>
      </trkpt>
      <trkpt lat="48.59622" lon="2.10725">
        <ele>95</ele>
        <time>2022-12-25T15:27:25Z</time>
      </trkpt>
      <trkpt lat="48.59625" lon="2.10723">
        <ele>95</ele>
        <time>2022-12-25T15:27:27Z</time>
      </trkpt>
      <trkpt lat="48.59627" lon="2.10721">
        <ele>95</ele>
        <time>2022-12-25T15:27:29Z</time>
      </trkpt>
      <trkpt lat="48.5963" lon="2.10719">
        <ele>95</ele>
        <time>2022-12-25T15:27:31Z</time>
      </trkpt>
      <trkpt lat="48.59633" lon="2.10718">
        <ele>95</ele>
        <time>2022-12-25T15:27:33Z</time>
      </trkpt>
      <trkpt lat="48.59634" lon="2.10716">
        <ele>95</ele>
        <time>2022-12-25T15:27:35Z</time>
      </trkpt>
      <trkpt lat="48.59637" lon="2.10715">
        <ele>95</ele>
        <time>2022-12-25T15:27:37Z</time>
      </trkpt>
      <trkpt lat="48.5964" lon="2.10713">
        <ele>95</ele>
        <time>2022-12-25T15:27:39Z</time>
      </trkpt>
      <trkpt lat="48.59642" lon="2.10711">
        <ele>95</ele>
        <time>2022-12-25T15:27:41Z</time>
      </trkpt>
      <trkpt lat="48.59645" lon="2.1071">
        <ele>95</ele>
        <time>2022-12-25T15:27:43Z</time>
      </trkpt>
      <trkpt lat="48.59647" lon="2.10709">
        <ele>95</ele>
        <time>2022-12-25T15:27:45Z</time>
      </trkpt>
      <trkpt lat="48.5965" lon="2.10708">
        <ele>96</ele>
        <time>2022-12-25T15:27:47Z</time>
      </trkpt>
      <trkpt lat="48.59653" lon="2.10706">
        <ele>96</ele>
        <time>2022-12-25T15:27:49Z</time>
      </trkpt>
      <trkpt lat="48.59656" lon="2.10705">
        <ele>96</ele>
        <time>2022-12-25T15:27:52Z</time>
      </trkpt>
      <trkpt lat="48.59658" lon="2.10703">
        <ele>96</ele>
        <time>2022-12-25T15:27:53Z</time>
      </trkpt>
      <trkpt lat="48.59661" lon="2.10701">
        <ele>96</ele>
        <time>2022-12-25T15:27:55Z</time>
      </trkpt>
      <trkpt lat="48.59663" lon="2.10699">
        <ele>96</ele>
        <time>2022-12-25T15:27:57Z</time>
      </trkpt>
      <trkpt lat="48.59666" lon="2.10697">
        <ele>96</ele>
        <time>2022-12-25T15:27:59Z</time>
      </trkpt>
      <trkpt lat="48.59668" lon="2.10695">
        <ele>96</ele>
        <time>2022-12-25T15:28:01Z</time>
      </trkpt>
      <trkpt lat="48.59671" lon="2.10693">
        <ele>96</ele>
        <time>2022-12-25T15:28:03Z</time>
      </trkpt>
      <trkpt lat="48.59673" lon="2.10692">
        <ele>96</ele>
        <time>2022-12-25T15:28:05Z</time>
      </trkpt>
      <trkpt lat="48.59676" lon="2.1069">
        <ele>96</ele>
        <time>2022-12-25T15:28:07Z</time>
      </trkpt>
      <trkpt lat="48.59678" lon="2.10688">
        <ele>96</ele>
        <time>2022-12-25T15:28:09Z</time>
      </trkpt>
      <trkpt lat="48.59681" lon="2.10687">
        <ele>96</ele>
        <time>2022-12-25T15:28:11Z</time>
      </trkpt>
      <trkpt lat="48.59683" lon="2.10684">
        <ele>97</ele>
        <time>2022-12-25T15:28:13Z</time>
      </trkpt>
      <trkpt lat="48.59685" lon="2.10682">
        <ele>97</ele>
        <time>2022-12-25T15:28:15Z</time>
      </trkpt>
      <trkpt lat="48.59688" lon="2.1068">
        <ele>97</ele>
        <time>2022-12-25T15:28:17Z</time>
      </trkpt>
      <trkpt lat="48.59691" lon="2.10679">
        <ele>97</ele>
        <time>2022-12-25T15:28:19Z</time>
      </trkpt>
      <trkpt lat="48.59693" lon="2.10677">
        <ele>97</ele>
        <time>2022-12-25T15:28:21Z</time>
      </trkpt>
      <trkpt lat="48.59696" lon="2.10677">
        <ele>98</ele>
        <time>2022-12-25T15:28:23Z</time>
      </trkpt>
      <trkpt lat="48.59698" lon="2.10676">
        <ele>97</ele>
        <time>2022-12-25T15:28:25Z</time>
      </trkpt>
      <trkpt lat="48.59701" lon="2.10675">
        <ele>98</ele>
        <time>2022-12-25T15:28:27Z</time>
      </trkpt>
      <trkpt lat="48.59703" lon="2.10674">
        <ele>98</ele>
        <time>2022-12-25T15:28:30Z</time>
      </trkpt>
      <trkpt lat="48.59706" lon="2.10672">
        <ele>98</ele>
        <time>2022-12-25T15:28:31Z</time>
      </trkpt>
      <trkpt lat="48.59708" lon="2.10671">
        <ele>98</ele>
        <time>2022-12-25T15:28:33Z</time>
      </trkpt>
      <trkpt lat="48.59711" lon="2.10669">
        <ele>98</ele>
        <time>2022-12-25T15:28:35Z</time>
      </trkpt>
      <trkpt lat="48.59714" lon="2.10668">
        <ele>98</ele>
        <time>2022-12-25T15:28:37Z</time>
      </trkpt>
      <trkpt lat="48.59717" lon="2.10668">
        <ele>98</ele>
        <time>2022-12-25T15:28:39Z</time>
      </trkpt>
      <trkpt lat="48.5972" lon="2.10667">
        <ele>98</ele>
        <time>2022-12-25T15:28:41Z</time>
      </trkpt>
      <trkpt lat="48.59722" lon="2.10665">
        <ele>97</ele>
        <time>2022-12-25T15:28:43Z</time>
      </trkpt>
      <trkpt lat="48.59725" lon="2.10664">
        <ele>97</ele>
        <time>2022-12-25T15:28:45Z</time>
      </trkpt>
      <trkpt lat="48.59727" lon="2.10662">
        <ele>97</ele>
        <time>2022-12-25T15:28:47Z</time>
      </trkpt>
      <trkpt lat="48.5973" lon="2.1066">
        <ele>98</ele>
        <time>2022-12-25T15:28:49Z</time>
      </trkpt>
      <trkpt lat="48.59732" lon="2.10659">
        <ele>98</ele>
        <time>2022-12-25T15:28:51Z</time>
      </trkpt>
      <trkpt lat="48.59734" lon="2.10658">
        <ele>98</ele>
        <time>2022-12-25T15:28:57Z</time>
      </trkpt>
      <trkpt lat="48.59737" lon="2.10657">
        <ele>98</ele>
        <time>2022-12-25T15:28:59Z</time>
      </trkpt>
      <trkpt lat="48.59739" lon="2.10655">
        <ele>98</ele>
        <time>2022-12-25T15:29:01Z</time>
      </trkpt>
      <trkpt lat="48.59742" lon="2.10654">
        <ele>98</ele>
        <time>2022-12-25T15:29:03Z</time>
      </trkpt>
      <trkpt lat="48.59745" lon="2.10652">
        <ele>98</ele>
        <time>2022-12-25T15:29:05Z</time>
      </trkpt>
      <trkpt lat="48.59748" lon="2.10651">
        <ele>98</ele>
        <time>2022-12-25T15:29:08Z</time>
      </trkpt>
      <trkpt lat="48.59751" lon="2.10649">
        <ele>98</ele>
        <time>2022-12-25T15:29:09Z</time>
      </trkpt>
      <trkpt lat="48.59754" lon="2.10647">
        <ele>98</ele>
        <time>2022-12-25T15:29:11Z</time>
      </trkpt>
      <trkpt lat="48.59756" lon="2.10645">
        <ele>98</ele>
        <time>2022-12-25T15:29:13Z</time>
      </trkpt>
      <trkpt lat="48.59759" lon="2.10644">
        <ele>98</ele>
        <time>2022-12-25T15:29:15Z</time>
      </trkpt>
      <trkpt lat="48.59762" lon="2.10642">
        <ele>98</ele>
        <time>2022-12-25T15:29:17Z</time>
      </trkpt>
      <trkpt lat="48.59765" lon="2.10641">
        <ele>98</ele>
        <time>2022-12-25T15:29:19Z</time>
      </trkpt>
      <trkpt lat="48.59768" lon="2.1064">
        <ele>98</ele>
        <time>2022-12-25T15:29:21Z</time>
      </trkpt>
      <trkpt lat="48.59771" lon="2.10639">
        <ele>98</ele>
        <time>2022-12-25T15:29:23Z</time>
      </trkpt>
      <trkpt lat="48.59774" lon="2.10638">
        <ele>98</ele>
        <time>2022-12-25T15:29:25Z</time>
      </trkpt>
      <trkpt lat="48.59776" lon="2.10637">
        <ele>98</ele>
        <time>2022-12-25T15:29:28Z</time>
      </trkpt>
      <trkpt lat="48.59779" lon="2.10635">
        <ele>98</ele>
        <time>2022-12-25T15:29:29Z</time>
      </trkpt>
      <trkpt lat="48.59781" lon="2.10633">
        <ele>98</ele>
        <time>2022-12-25T15:29:31Z</time>
      </trkpt>
      <trkpt lat="48.59784" lon="2.10632">
        <ele>98</ele>
        <time>2022-12-25T15:29:33Z</time>
      </trkpt>
      <trkpt lat="48.59786" lon="2.10631">
        <ele>98</ele>
        <time>2022-12-25T15:29:35Z</time>
      </trkpt>
      <trkpt lat="48.59789" lon="2.10629">
        <ele>98</ele>
        <time>2022-12-25T15:29:37Z</time>
      </trkpt>
      <trkpt lat="48.59791" lon="2.10627">
        <ele>97</ele>
        <time>2022-12-25T15:29:39Z</time>
      </trkpt>
      <trkpt lat="48.59794" lon="2.10626">
        <ele>98</ele>
        <time>2022-12-25T15:29:41Z</time>
      </trkpt>
      <trkpt lat="48.59795" lon="2.10625">
        <ele>98</ele>
        <time>2022-12-25T15:29:43Z</time>
      </trkpt>
      <trkpt lat="48.59798" lon="2.10624">
        <ele>98</ele>
        <time>2022-12-25T15:29:46Z</time>
      </trkpt>
      <trkpt lat="48.59801" lon="2.10623">
        <ele>98</ele>
        <time>2022-12-25T15:29:48Z</time>
      </trkpt>
      <trkpt lat="48.59804" lon="2.10621">
        <ele>98</ele>
        <time>2022-12-25T15:29:50Z</time>
      </trkpt>
      <trkpt lat="48.59807" lon="2.10619">
        <ele>98</ele>
        <time>2022-12-25T15:29:52Z</time>
      </trkpt>
      <trkpt lat="48.59809" lon="2.10618">
        <ele>98</ele>
        <time>2022-12-25T15:29:54Z</time>
      </trkpt>
      <trkpt lat="48.59812" lon="2.10616">
        <ele>98</ele>
        <time>2022-12-25T15:29:56Z</time>
      </trkpt>
      <trkpt lat="48.59815" lon="2.10614">
        <ele>98</ele>
        <time>2022-12-25T15:29:59Z</time>
      </trkpt>
      <trkpt lat="48.59817" lon="2.10612">
        <ele>98</ele>
        <time>2022-12-25T15:30:00Z</time>
      </trkpt>
      <trkpt lat="48.59819" lon="2.1061">
        <ele>99</ele>
        <time>2022-12-25T15:30:02Z</time>
      </trkpt>
      <trkpt lat="48.59822" lon="2.10609">
        <ele>99</ele>
        <time>2022-12-25T15:30:05Z</time>
      </trkpt>
      <trkpt lat="48.59824" lon="2.10608">
        <ele>99</ele>
        <time>2022-12-25T15:30:06Z</time>
      </trkpt>
      <trkpt lat="48.59827" lon="2.10607">
        <ele>99</ele>
        <time>2022-12-25T15:30:08Z</time>
      </trkpt>
      <trkpt lat="48.59829" lon="2.10607">
        <ele>100</ele>
        <time>2022-12-25T15:30:09Z</time>
      </trkpt>
      <trkpt lat="48.59832" lon="2.10607">
        <ele>100</ele>
        <time>2022-12-25T15:30:11Z</time>
      </trkpt>
      <trkpt lat="48.59835" lon="2.10606">
        <ele>100</ele>
        <time>2022-12-25T15:30:13Z</time>
      </trkpt>
      <trkpt lat="48.59838" lon="2.10606">
        <ele>100</ele>
        <time>2022-12-25T15:30:15Z</time>
      </trkpt>
      <trkpt lat="48.59842" lon="2.10606">
        <ele>101</ele>
        <time>2022-12-25T15:30:17Z</time>
      </trkpt>
      <trkpt lat="48.59845" lon="2.10607">
        <ele>101</ele>
        <time>2022-12-25T15:30:18Z</time>
      </trkpt>
      <trkpt lat="48.59847" lon="2.10608">
        <ele>100</ele>
        <time>2022-12-25T15:30:19Z</time>
      </trkpt>
      <trkpt lat="48.59849" lon="2.10608">
        <ele>100</ele>
        <time>2022-12-25T15:30:20Z</time>
      </trkpt>
      <trkpt lat="48.59852" lon="2.10609">
        <ele>100</ele>
        <time>2022-12-25T15:30:22Z</time>
      </trkpt>
      <trkpt lat="48.59855" lon="2.10608">
        <ele>101</ele>
        <time>2022-12-25T15:30:24Z</time>
      </trkpt>
      <trkpt lat="48.59858" lon="2.10608">
        <ele>101</ele>
        <time>2022-12-25T15:30:26Z</time>
      </trkpt>
      <trkpt lat="48.5986" lon="2.10607">
        <ele>101</ele>
        <time>2022-12-25T15:30:28Z</time>
      </trkpt>
      <trkpt lat="48.59863" lon="2.10607">
        <ele>101</ele>
        <time>2022-12-25T15:30:30Z</time>
      </trkpt>
      <trkpt lat="48.59866" lon="2.10607">
        <ele>101</ele>
        <time>2022-12-25T15:30:32Z</time>
      </trkpt>
      <trkpt lat="48.59869" lon="2.10606">
        <ele>101</ele>
        <time>2022-12-25T15:30:34Z</time>
      </trkpt>
      <trkpt lat="48.59873" lon="2.10605">
        <ele>101</ele>
        <time>2022-12-25T15:30:36Z</time>
      </trkpt>
      <trkpt lat="48.59875" lon="2.10605">
        <ele>101</ele>
        <time>2022-12-25T15:30:38Z</time>
      </trkpt>
      <trkpt lat="48.59878" lon="2.10604">
        <ele>101</ele>
        <time>2022-12-25T15:30:39Z</time>
      </trkpt>
      <trkpt lat="48.59881" lon="2.10603">
        <ele>101</ele>
        <time>2022-12-25T15:30:41Z</time>
      </trkpt>
      <trkpt lat="48.59884" lon="2.10602">
        <ele>102</ele>
        <time>2022-12-25T15:30:43Z</time>
      </trkpt>
      <trkpt lat="48.59887" lon="2.10601">
        <ele>102</ele>
        <time>2022-12-25T15:30:45Z</time>
      </trkpt>
      <trkpt lat="48.5989" lon="2.106">
        <ele>102</ele>
        <time>2022-12-25T15:30:47Z</time>
      </trkpt>
      <trkpt lat="48.59892" lon="2.10599">
        <ele>102</ele>
        <time>2022-12-25T15:30:48Z</time>
      </trkpt>
      <trkpt lat="48.59894" lon="2.10599">
        <ele>103</ele>
        <time>2022-12-25T15:30:49Z</time>
      </trkpt>
      <trkpt lat="48.59896" lon="2.10598">
        <ele>103</ele>
        <time>2022-12-25T15:30:50Z</time>
      </trkpt>
      <trkpt lat="48.59898" lon="2.10598">
        <ele>103</ele>
        <time>2022-12-25T15:30:51Z</time>
      </trkpt>
      <trkpt lat="48.59901" lon="2.10597">
        <ele>104</ele>
        <time>2022-12-25T15:30:53Z</time>
      </trkpt>
      <trkpt lat="48.59903" lon="2.10597">
        <ele>104</ele>
        <time>2022-12-25T15:30:54Z</time>
      </trkpt>
      <trkpt lat="48.59907" lon="2.10597">
        <ele>104</ele>
        <time>2022-12-25T15:30:56Z</time>
      </trkpt>
      <trkpt lat="48.5991" lon="2.10597">
        <ele>105</ele>
        <time>2022-12-25T15:30:58Z</time>
      </trkpt>
      <trkpt lat="48.59913" lon="2.10598">
        <ele>105</ele>
        <time>2022-12-25T15:31:00Z</time>
      </trkpt>
      <trkpt lat="48.59917" lon="2.10598">
        <ele>106</ele>
        <time>2022-12-25T15:31:02Z</time>
      </trkpt>
      <trkpt lat="48.59919" lon="2.106">
        <ele>106</ele>
        <time>2022-12-25T15:31:04Z</time>
      </trkpt>
      <trkpt lat="48.59922" lon="2.106">
        <ele>107</ele>
        <time>2022-12-25T15:31:06Z</time>
      </trkpt>
      <trkpt lat="48.59925" lon="2.10601">
        <ele>107</ele>
        <time>2022-12-25T15:31:08Z</time>
      </trkpt>
      <trkpt lat="48.59928" lon="2.10601">
        <ele>107</ele>
        <time>2022-12-25T15:31:10Z</time>
      </trkpt>
      <trkpt lat="48.59931" lon="2.10602">
        <ele>108</ele>
        <time>2022-12-25T15:31:12Z</time>
      </trkpt>
      <trkpt lat="48.59933" lon="2.10602">
        <ele>108</ele>
        <time>2022-12-25T15:31:13Z</time>
      </trkpt>
      <trkpt lat="48.59936" lon="2.10602">
        <ele>108</ele>
        <time>2022-12-25T15:31:15Z</time>
      </trkpt>
      <trkpt lat="48.59938" lon="2.10603">
        <ele>109</ele>
        <time>2022-12-25T15:31:17Z</time>
      </trkpt>
      <trkpt lat="48.59941" lon="2.10604">
        <ele>109</ele>
        <time>2022-12-25T15:31:19Z</time>
      </trkpt>
      <trkpt lat="48.59945" lon="2.10605">
        <ele>109</ele>
        <time>2022-12-25T15:31:21Z</time>
      </trkpt>
      <trkpt lat="48.59948" lon="2.10605">
        <ele>109</ele>
        <time>2022-12-25T15:31:23Z</time>
      </trkpt>
      <trkpt lat="48.59951" lon="2.10606">
        <ele>109</ele>
        <time>2022-12-25T15:31:25Z</time>
      </trkpt>
      <trkpt lat="48.59955" lon="2.10608">
        <ele>109</ele>
        <time>2022-12-25T15:31:27Z</time>
      </trkpt>
      <trkpt lat="48.59957" lon="2.10608">
        <ele>110</ele>
        <time>2022-12-25T15:31:29Z</time>
      </trkpt>
      <trkpt lat="48.5996" lon="2.1061">
        <ele>109</ele>
        <time>2022-12-25T15:31:31Z</time>
      </trkpt>
      <trkpt lat="48.59962" lon="2.10612">
        <ele>110</ele>
        <time>2022-12-25T15:31:33Z</time>
      </trkpt>
      <trkpt lat="48.59965" lon="2.10613">
        <ele>110</ele>
        <time>2022-12-25T15:31:35Z</time>
      </trkpt>
      <trkpt lat="48.59968" lon="2.10615">
        <ele>110</ele>
        <time>2022-12-25T15:31:37Z</time>
      </trkpt>
      <trkpt lat="48.59971" lon="2.10615">
        <ele>110</ele>
        <time>2022-12-25T15:31:40Z</time>
      </trkpt>
      <trkpt lat="48.59974" lon="2.10616">
        <ele>110</ele>
        <time>2022-12-25T15:31:41Z</time>
      </trkpt>
      <trkpt lat="48.59976" lon="2.10617">
        <ele>110</ele>
        <time>2022-12-25T15:31:43Z</time>
      </trkpt>
      <trkpt lat="48.5998" lon="2.10619">
        <ele>110</ele>
        <time>2022-12-25T15:31:45Z</time>
      </trkpt>
      <trkpt lat="48.59983" lon="2.1062">
        <ele>111</ele>
        <time>2022-12-25T15:31:47Z</time>
      </trkpt>
      <trkpt lat="48.59986" lon="2.10622">
        <ele>111</ele>
        <time>2022-12-25T15:31:49Z</time>
      </trkpt>
      <trkpt lat="48.59988" lon="2.10623">
        <ele>111</ele>
        <time>2022-12-25T15:31:50Z</time>
      </trkpt>
      <trkpt lat="48.5999" lon="2.10624">
        <ele>111</ele>
        <time>2022-12-25T15:31:51Z</time>
      </trkpt>
      <trkpt lat="48.59993" lon="2.10625">
        <ele>111</ele>
        <time>2022-12-25T15:31:53Z</time>
      </trkpt>
      <trkpt lat="48.59996" lon="2.10627">
        <ele>111</ele>
        <time>2022-12-25T15:31:55Z</time>
      </trkpt>
      <trkpt lat="48.59999" lon="2.10629">
        <ele>111</ele>
        <time>2022-12-25T15:31:57Z</time>
      </trkpt>
      <trkpt lat="48.60002" lon="2.10631">
        <ele>111</ele>
        <time>2022-12-25T15:31:59Z</time>
      </trkpt>
      <trkpt lat="48.60004" lon="2.10633">
        <ele>112</ele>
        <time>2022-12-25T15:32:01Z</time>
      </trkpt>
      <trkpt lat="48.60007" lon="2.10635">
        <ele>112</ele>
        <time>2022-12-25T15:32:03Z</time>
      </trkpt>
      <trkpt lat="48.60009" lon="2.10638">
        <ele>112</ele>
        <time>2022-12-25T15:32:05Z</time>
      </trkpt>
      <trkpt lat="48.60011" lon="2.10639">
        <ele>112</ele>
        <time>2022-12-25T15:32:06Z</time>
      </trkpt>
      <trkpt lat="48.60013" lon="2.1064">
        <ele>112</ele>
        <time>2022-12-25T15:32:08Z</time>
      </trkpt>
      <trkpt lat="48.60016" lon="2.10642">
        <ele>112</ele>
        <time>2022-12-25T15:32:10Z</time>
      </trkpt>
      <trkpt lat="48.60019" lon="2.10643">
        <ele>112</ele>
        <time>2022-12-25T15:32:12Z</time>
      </trkpt>
      <trkpt lat="48.60021" lon="2.10643">
        <ele>112</ele>
        <time>2022-12-25T15:32:14Z</time>
      </trkpt>
      <trkpt lat="48.60023" lon="2.10644">
        <ele>112</ele>
        <time>2022-12-25T15:32:15Z</time>
      </trkpt>
      <trkpt lat="48.60026" lon="2.10645">
        <ele>113</ele>
        <time>2022-12-25T15:32:18Z</time>
      </trkpt>
      <trkpt lat="48.6003" lon="2.10646">
        <ele>113</ele>
        <time>2022-12-25T15:32:19Z</time>
      </trkpt>
      <trkpt lat="48.60032" lon="2.10647">
        <ele>113</ele>
        <time>2022-12-25T15:32:23Z</time>
      </trkpt>
      <trkpt lat="48.60036" lon="2.10648">
        <ele>113</ele>
        <time>2022-12-25T15:32:25Z</time>
      </trkpt>
      <trkpt lat="48.60038" lon="2.10649">
        <ele>113</ele>
        <time>2022-12-25T15:32:26Z</time>
      </trkpt>
      <trkpt lat="48.6004" lon="2.10649">
        <ele>113</ele>
        <time>2022-12-25T15:32:27Z</time>
      </trkpt>
      <trkpt lat="48.60042" lon="2.1065">
        <ele>113</ele>
        <time>2022-12-25T15:32:28Z</time>
      </trkpt>
      <trkpt lat="48.60043" lon="2.1065">
        <ele>113</ele>
        <time>2022-12-25T15:32:29Z</time>
      </trkpt>
      <trkpt lat="48.60047" lon="2.10651">
        <ele>114</ele>
        <time>2022-12-25T15:32:31Z</time>
      </trkpt>
      <trkpt lat="48.6005" lon="2.10653">
        <ele>114</ele>
        <time>2022-12-25T15:32:33Z</time>
      </trkpt>
      <trkpt lat="48.60053" lon="2.10654">
        <ele>114</ele>
        <time>2022-12-25T15:32:35Z</time>
      </trkpt>
      <trkpt lat="48.60055" lon="2.10655">
        <ele>114</ele>
        <time>2022-12-25T15:32:37Z</time>
      </trkpt>
      <trkpt lat="48.60058" lon="2.10657">
        <ele>114</ele>
        <time>2022-12-25T15:32:39Z</time>
      </trkpt>
      <trkpt lat="48.60061" lon="2.10658">
        <ele>114</ele>
        <time>2022-12-25T15:32:41Z</time>
      </trkpt>
      <trkpt lat="48.60065" lon="2.1066">
        <ele>114</ele>
        <time>2022-12-25T15:32:43Z</time>
      </trkpt>
      <trkpt lat="48.60068" lon="2.10661">
        <ele>114</ele>
        <time>2022-12-25T15:32:45Z</time>
      </trkpt>
      <trkpt lat="48.60071" lon="2.10662">
        <ele>114</ele>
        <time>2022-12-25T15:32:47Z</time>
      </trkpt>
      <trkpt lat="48.60074" lon="2.10663">
        <ele>114</ele>
        <time>2022-12-25T15:32:49Z</time>
      </trkpt>
      <trkpt lat="48.60077" lon="2.10665">
        <ele>114</ele>
        <time>2022-12-25T15:32:51Z</time>
      </trkpt>
      <trkpt lat="48.6008" lon="2.10666">
        <ele>114</ele>
        <time>2022-12-25T15:32:53Z</time>
      </trkpt>
      <trkpt lat="48.60082" lon="2.10667">
        <ele>115</ele>
        <time>2022-12-25T15:32:54Z</time>
      </trkpt>
      <trkpt lat="48.60085" lon="2.10668">
        <ele>115</ele>
        <time>2022-12-25T15:32:56Z</time>
      </trkpt>
      <trkpt lat="48.60088" lon="2.1067">
        <ele>114</ele>
        <time>2022-12-25T15:32:58Z</time>
      </trkpt>
      <trkpt lat="48.6009" lon="2.10671">
        <ele>114</ele>
        <time>2022-12-25T15:33:00Z</time>
      </trkpt>
      <trkpt lat="48.60093" lon="2.10671">
        <ele>114</ele>
        <time>2022-12-25T15:33:05Z</time>
      </trkpt>
      <trkpt lat="48.60096" lon="2.10674">
        <ele>113</ele>
        <time>2022-12-25T15:33:07Z</time>
      </trkpt>
      <trkpt lat="48.60098" lon="2.10676">
        <ele>113</ele>
        <time>2022-12-25T15:33:08Z</time>
      </trkpt>
      <trkpt lat="48.601" lon="2.10677">
        <ele>113</ele>
        <time>2022-12-25T15:33:09Z</time>
      </trkpt>
      <trkpt lat="48.60103" lon="2.10679">
        <ele>114</ele>
        <time>2022-12-25T15:33:11Z</time>
      </trkpt>
      <trkpt lat="48.60106" lon="2.10681">
        <ele>114</ele>
        <time>2022-12-25T15:33:13Z</time>
      </trkpt>
      <trkpt lat="48.60111" lon="2.10684">
        <ele>114</ele>
        <time>2022-12-25T15:33:15Z</time>
      </trkpt>
      <trkpt lat="48.60113" lon="2.10685">
        <ele>114</ele>
        <time>2022-12-25T15:33:16Z</time>
      </trkpt>
      <trkpt lat="48.60115" lon="2.10687">
        <ele>114</ele>
        <time>2022-12-25T15:33:18Z</time>
      </trkpt>
      <trkpt lat="48.60118" lon="2.10688">
        <ele>114</ele>
        <time>2022-12-25T15:33:20Z</time>
      </trkpt>
      <trkpt lat="48.6012" lon="2.10689">
        <ele>114</ele>
        <time>2022-12-25T15:33:21Z</time>
      </trkpt>
      <trkpt lat="48.60123" lon="2.10691">
        <ele>114</ele>
        <time>2022-12-25T15:33:23Z</time>
      </trkpt>
      <trkpt lat="48.60125" lon="2.10692">
        <ele>114</ele>
        <time>2022-12-25T15:33:24Z</time>
      </trkpt>
      <trkpt lat="48.60128" lon="2.10694">
        <ele>114</ele>
        <time>2022-12-25T15:33:26Z</time>
      </trkpt>
      <trkpt lat="48.6013" lon="2.10695">
        <ele>114</ele>
        <time>2022-12-25T15:33:27Z</time>
      </trkpt>
      <trkpt lat="48.60132" lon="2.10697">
        <ele>114</ele>
        <time>2022-12-25T15:33:29Z</time>
      </trkpt>
      <trkpt lat="48.60136" lon="2.10698">
        <ele>114</ele>
        <time>2022-12-25T15:33:31Z</time>
      </trkpt>
      <trkpt lat="48.60138" lon="2.10699">
        <ele>114</ele>
        <time>2022-12-25T15:33:32Z</time>
      </trkpt>
      <trkpt lat="48.60141" lon="2.10701">
        <ele>114</ele>
        <time>2022-12-25T15:33:34Z</time>
      </trkpt>
      <trkpt lat="48.60143" lon="2.10703">
        <ele>114</ele>
        <time>2022-12-25T15:33:36Z</time>
      </trkpt>
      <trkpt lat="48.60146" lon="2.10704">
        <ele>113</ele>
        <time>2022-12-25T15:33:38Z</time>
      </trkpt>
      <trkpt lat="48.60148" lon="2.10705">
        <ele>113</ele>
        <time>2022-12-25T15:33:40Z</time>
      </trkpt>
      <trkpt lat="48.60151" lon="2.10705">
        <ele>114</ele>
        <time>2022-12-25T15:33:42Z</time>
      </trkpt>
      <trkpt lat="48.60153" lon="2.10706">
        <ele>114</ele>
        <time>2022-12-25T15:33:44Z</time>
      </trkpt>
      <trkpt lat="48.60156" lon="2.10705">
        <ele>114</ele>
        <time>2022-12-25T15:33:46Z</time>
      </trkpt>
      <trkpt lat="48.60158" lon="2.10708">
        <ele>114</ele>
        <time>2022-12-25T15:33:49Z</time>
      </trkpt>
      <trkpt lat="48.6016" lon="2.10709">
        <ele>114</ele>
        <time>2022-12-25T15:33:51Z</time>
      </trkpt>
      <trkpt lat="48.6016" lon="2.10712">
        <ele>113</ele>
        <time>2022-12-25T15:34:01Z</time>
      </trkpt>
      <trkpt lat="48.60161" lon="2.1071">
        <ele>113</ele>
        <time>2022-12-25T15:34:10Z</time>
      </trkpt>
      <trkpt lat="48.60163" lon="2.10708">
        <ele>113</ele>
        <time>2022-12-25T15:34:12Z</time>
      </trkpt>
      <trkpt lat="48.60165" lon="2.10709">
        <ele>113</ele>
        <time>2022-12-25T15:34:14Z</time>
      </trkpt>
      <trkpt lat="48.60167" lon="2.10709">
        <ele>113</ele>
        <time>2022-12-25T15:34:16Z</time>
      </trkpt>
      <trkpt lat="48.6017" lon="2.10709">
        <ele>114</ele>
        <time>2022-12-25T15:34:18Z</time>
      </trkpt>
      <trkpt lat="48.60172" lon="2.10709">
        <ele>114</ele>
        <time>2022-12-25T15:34:20Z</time>
      </trkpt>
      <trkpt lat="48.60174" lon="2.10709">
        <ele>114</ele>
        <time>2022-12-25T15:34:22Z</time>
      </trkpt>
      <trkpt lat="48.60176" lon="2.1071">
        <ele>114</ele>
        <time>2022-12-25T15:34:24Z</time>
      </trkpt>
      <trkpt lat="48.6018" lon="2.10711">
        <ele>114</ele>
        <time>2022-12-25T15:34:26Z</time>
      </trkpt>
      <trkpt lat="48.60183" lon="2.10711">
        <ele>114</ele>
        <time>2022-12-25T15:34:28Z</time>
      </trkpt>
      <trkpt lat="48.60185" lon="2.1071">
        <ele>114</ele>
        <time>2022-12-25T15:34:29Z</time>
      </trkpt>
      <trkpt lat="48.60189" lon="2.10709">
        <ele>114</ele>
        <time>2022-12-25T15:34:31Z</time>
      </trkpt>
      <trkpt lat="48.60191" lon="2.10708">
        <ele>114</ele>
        <time>2022-12-25T15:34:32Z</time>
      </trkpt>
      <trkpt lat="48.60194" lon="2.10707">
        <ele>114</ele>
        <time>2022-12-25T15:34:34Z</time>
      </trkpt>
      <trkpt lat="48.60197" lon="2.10705">
        <ele>114</ele>
        <time>2022-12-25T15:34:36Z</time>
      </trkpt>
      <trkpt lat="48.60199" lon="2.10703">
        <ele>114</ele>
        <time>2022-12-25T15:34:38Z</time>
      </trkpt>
      <trkpt lat="48.60202" lon="2.10701">
        <ele>115</ele>
        <time>2022-12-25T15:34:40Z</time>
      </trkpt>
      <trkpt lat="48.60205" lon="2.10699">
        <ele>115</ele>
        <time>2022-12-25T15:34:42Z</time>
      </trkpt>
      <trkpt lat="48.60208" lon="2.10698">
        <ele>115</ele>
        <time>2022-12-25T15:34:44Z</time>
      </trkpt>
      <trkpt lat="48.60211" lon="2.10696">
        <ele>116</ele>
        <time>2022-12-25T15:34:46Z</time>
      </trkpt>
      <trkpt lat="48.60213" lon="2.10694">
        <ele>116</ele>
        <time>2022-12-25T15:34:48Z</time>
      </trkpt>
      <trkpt lat="48.60215" lon="2.10692">
        <ele>116</ele>
        <time>2022-12-25T15:34:50Z</time>
      </trkpt>
      <trkpt lat="48.60217" lon="2.10691">
        <ele>117</ele>
        <time>2022-12-25T15:34:52Z</time>
      </trkpt>
      <trkpt lat="48.6022" lon="2.1069">
        <ele>117</ele>
        <time>2022-12-25T15:34:54Z</time>
      </trkpt>
      <trkpt lat="48.60223" lon="2.10689">
        <ele>117</ele>
        <time>2022-12-25T15:34:56Z</time>
      </trkpt>
      <trkpt lat="48.60226" lon="2.10688">
        <ele>117</ele>
        <time>2022-12-25T15:34:58Z</time>
      </trkpt>
      <trkpt lat="48.60229" lon="2.10687">
        <ele>117</ele>
        <time>2022-12-25T15:35:00Z</time>
      </trkpt>
      <trkpt lat="48.60231" lon="2.10685">
        <ele>118</ele>
        <time>2022-12-25T15:35:02Z</time>
      </trkpt>
      <trkpt lat="48.60234" lon="2.10684">
        <ele>117</ele>
        <time>2022-12-25T15:35:04Z</time>
      </trkpt>
      <trkpt lat="48.60238" lon="2.10682">
        <ele>117</ele>
        <time>2022-12-25T15:35:06Z</time>
      </trkpt>
      <trkpt lat="48.60241" lon="2.10681">
        <ele>117</ele>
        <time>2022-12-25T15:35:09Z</time>
      </trkpt>
      <trkpt lat="48.60243" lon="2.10681">
        <ele>117</ele>
        <time>2022-12-25T15:35:10Z</time>
      </trkpt>
      <trkpt lat="48.60245" lon="2.10679">
        <ele>117</ele>
        <time>2022-12-25T15:35:12Z</time>
      </trkpt>
      <trkpt lat="48.60248" lon="2.10678">
        <ele>117</ele>
        <time>2022-12-25T15:35:14Z</time>
      </trkpt>
      <trkpt lat="48.6025" lon="2.10676">
        <ele>117</ele>
        <time>2022-12-25T15:35:16Z</time>
      </trkpt>
      <trkpt lat="48.60253" lon="2.10675">
        <ele>117</ele>
        <time>2022-12-25T15:35:18Z</time>
      </trkpt>
      <trkpt lat="48.60256" lon="2.10673">
        <ele>118</ele>
        <time>2022-12-25T15:35:20Z</time>
      </trkpt>
      <trkpt lat="48.60259" lon="2.10672">
        <ele>118</ele>
        <time>2022-12-25T15:35:22Z</time>
      </trkpt>
      <trkpt lat="48.60261" lon="2.10671">
        <ele>118</ele>
        <time>2022-12-25T15:35:24Z</time>
      </trkpt>
      <trkpt lat="48.60264" lon="2.10669">
        <ele>118</ele>
        <time>2022-12-25T15:35:26Z</time>
      </trkpt>
      <trkpt lat="48.60268" lon="2.10668">
        <ele>118</ele>
        <time>2022-12-25T15:35:28Z</time>
      </trkpt>
      <trkpt lat="48.6027" lon="2.10668">
        <ele>118</ele>
        <time>2022-12-25T15:35:29Z</time>
      </trkpt>
      <trkpt lat="48.60272" lon="2.10668">
        <ele>118</ele>
        <time>2022-12-25T15:35:30Z</time>
      </trkpt>
      <trkpt lat="48.60274" lon="2.10668">
        <ele>118</ele>
        <time>2022-12-25T15:35:31Z</time>
      </trkpt>
      <trkpt lat="48.60278" lon="2.10667">
        <ele>118</ele>
        <time>2022-12-25T15:35:33Z</time>
      </trkpt>
      <trkpt lat="48.60281" lon="2.10667">
        <ele>118</ele>
        <time>2022-12-25T15:35:35Z</time>
      </trkpt>
      <trkpt lat="48.60284" lon="2.10667">
        <ele>118</ele>
        <time>2022-12-25T15:35:37Z</time>
      </trkpt>
      <trkpt lat="48.60287" lon="2.10666">
        <ele>118</ele>
        <time>2022-12-25T15:35:39Z</time>
      </trkpt>
      <trkpt lat="48.60289" lon="2.10665">
        <ele>119</ele>
        <time>2022-12-25T15:35:41Z</time>
      </trkpt>
      <trkpt lat="48.60291" lon="2.10665">
        <ele>119</ele>
        <time>2022-12-25T15:35:43Z</time>
      </trkpt>
      <trkpt lat="48.60293" lon="2.10665">
        <ele>119</ele>
        <time>2022-12-25T15:35:45Z</time>
      </trkpt>
      <trkpt lat="48.60295" lon="2.10664">
        <ele>119</ele>
        <time>2022-12-25T15:35:47Z</time>
      </trkpt>
      <trkpt lat="48.60298" lon="2.10663">
        <ele>119</ele>
        <time>2022-12-25T15:35:49Z</time>
      </trkpt>
      <trkpt lat="48.60301" lon="2.10662">
        <ele>120</ele>
        <time>2022-12-25T15:35:51Z</time>
      </trkpt>
      <trkpt lat="48.60303" lon="2.10662">
        <ele>120</ele>
        <time>2022-12-25T15:35:53Z</time>
      </trkpt>
      <trkpt lat="48.60306" lon="2.10662">
        <ele>120</ele>
        <time>2022-12-25T15:35:54Z</time>
      </trkpt>
      <trkpt lat="48.60309" lon="2.10662">
        <ele>120</ele>
        <time>2022-12-25T15:35:56Z</time>
      </trkpt>
      <trkpt lat="48.60311" lon="2.10662">
        <ele>120</ele>
        <time>2022-12-25T15:35:57Z</time>
      </trkpt>
      <trkpt lat="48.60313" lon="2.10662">
        <ele>121</ele>
        <time>2022-12-25T15:35:58Z</time>
      </trkpt>
      <trkpt lat="48.60317" lon="2.10661">
        <ele>121</ele>
        <time>2022-12-25T15:36:00Z</time>
      </trkpt>
      <trkpt lat="48.6032" lon="2.10661">
        <ele>121</ele>
        <time>2022-12-25T15:36:02Z</time>
      </trkpt>
      <trkpt lat="48.60322" lon="2.10661">
        <ele>121</ele>
        <time>2022-12-25T15:36:03Z</time>
      </trkpt>
      <trkpt lat="48.60325" lon="2.1066">
        <ele>121</ele>
        <time>2022-12-25T15:36:06Z</time>
      </trkpt>
      <trkpt lat="48.60329" lon="2.1066">
        <ele>121</ele>
        <time>2022-12-25T15:36:07Z</time>
      </trkpt>
      <trkpt lat="48.60332" lon="2.1066">
        <ele>121</ele>
        <time>2022-12-25T15:36:09Z</time>
      </trkpt>
      <trkpt lat="48.60335" lon="2.1066">
        <ele>121</ele>
        <time>2022-12-25T15:36:11Z</time>
      </trkpt>
      <trkpt lat="48.60337" lon="2.1066">
        <ele>120</ele>
        <time>2022-12-25T15:36:13Z</time>
      </trkpt>
      <trkpt lat="48.60339" lon="2.10659">
        <ele>120</ele>
        <time>2022-12-25T15:36:15Z</time>
      </trkpt>
      <trkpt lat="48.60342" lon="2.10658">
        <ele>120</ele>
        <time>2022-12-25T15:36:17Z</time>
      </trkpt>
      <trkpt lat="48.60344" lon="2.10656">
        <ele>120</ele>
        <time>2022-12-25T15:36:20Z</time>
      </trkpt>
      <trkpt lat="48.60346" lon="2.10655">
        <ele>120</ele>
        <time>2022-12-25T15:36:23Z</time>
      </trkpt>
      <trkpt lat="48.60348" lon="2.10653">
        <ele>121</ele>
        <time>2022-12-25T15:36:25Z</time>
      </trkpt>
      <trkpt lat="48.6035" lon="2.10652">
        <ele>121</ele>
        <time>2022-12-25T15:36:27Z</time>
      </trkpt>
      <trkpt lat="48.60353" lon="2.10651">
        <ele>120</ele>
        <time>2022-12-25T15:36:29Z</time>
      </trkpt>
      <trkpt lat="48.60356" lon="2.10651">
        <ele>121</ele>
        <time>2022-12-25T15:36:30Z</time>
      </trkpt>
      <trkpt lat="48.60359" lon="2.10653">
        <ele>120</ele>
        <time>2022-12-25T15:36:31Z</time>
      </trkpt>
      <trkpt lat="48.60361" lon="2.10653">
        <ele>120</ele>
        <time>2022-12-25T15:36:32Z</time>
      </trkpt>
      <trkpt lat="48.60365" lon="2.10655">
        <ele>120</ele>
        <time>2022-12-25T15:36:34Z</time>
      </trkpt>
      <trkpt lat="48.60368" lon="2.10656">
        <ele>119</ele>
        <time>2022-12-25T15:36:35Z</time>
      </trkpt>
      <trkpt lat="48.60371" lon="2.10656">
        <ele>119</ele>
        <time>2022-12-25T15:36:36Z</time>
      </trkpt>
      <trkpt lat="48.60374" lon="2.10657">
        <ele>119</ele>
        <time>2022-12-25T15:36:37Z</time>
      </trkpt>
      <trkpt lat="48.60377" lon="2.10658">
        <ele>118</ele>
        <time>2022-12-25T15:36:38Z</time>
      </trkpt>
      <trkpt lat="48.6038" lon="2.10659">
        <ele>118</ele>
        <time>2022-12-25T15:36:39Z</time>
      </trkpt>
      <trkpt lat="48.60383" lon="2.10659">
        <ele>118</ele>
        <time>2022-12-25T15:36:40Z</time>
      </trkpt>
      <trkpt lat="48.60385" lon="2.10659">
        <ele>117</ele>
        <time>2022-12-25T15:36:41Z</time>
      </trkpt>
      <trkpt lat="48.60388" lon="2.10659">
        <ele>117</ele>
        <time>2022-12-25T15:36:42Z</time>
      </trkpt>
      <trkpt lat="48.60393" lon="2.10659">
        <ele>116</ele>
        <time>2022-12-25T15:36:44Z</time>
      </trkpt>
      <trkpt lat="48.60396" lon="2.10659">
        <ele>116</ele>
        <time>2022-12-25T15:36:45Z</time>
      </trkpt>
      <trkpt lat="48.60399" lon="2.10659">
        <ele>116</ele>
        <time>2022-12-25T15:36:46Z</time>
      </trkpt>
      <trkpt lat="48.60404" lon="2.10658">
        <ele>116</ele>
        <time>2022-12-25T15:36:48Z</time>
      </trkpt>
      <trkpt lat="48.60406" lon="2.10657">
        <ele>116</ele>
        <time>2022-12-25T15:36:49Z</time>
      </trkpt>
      <trkpt lat="48.60409" lon="2.10657">
        <ele>115</ele>
        <time>2022-12-25T15:36:50Z</time>
      </trkpt>
      <trkpt lat="48.60412" lon="2.10657">
        <ele>115</ele>
        <time>2022-12-25T15:36:51Z</time>
      </trkpt>
      <trkpt lat="48.60415" lon="2.10657">
        <ele>115</ele>
        <time>2022-12-25T15:36:52Z</time>
      </trkpt>
      <trkpt lat="48.60419" lon="2.10657">
        <ele>115</ele>
        <time>2022-12-25T15:36:53Z</time>
      </trkpt>
      <trkpt lat="48.60421" lon="2.10658">
        <ele>115</ele>
        <time>2022-12-25T15:36:54Z</time>
      </trkpt>
      <trkpt lat="48.60424" lon="2.10658">
        <ele>115</ele>
        <time>2022-12-25T15:36:55Z</time>
      </trkpt>
      <trkpt lat="48.60427" lon="2.10658">
        <ele>115</ele>
        <time>2022-12-25T15:36:56Z</time>
      </trkpt>
      <trkpt lat="48.6043" lon="2.10659">
        <ele>114</ele>
        <time>2022-12-25T15:36:57Z</time>
      </trkpt>
      <trkpt lat="48.60432" lon="2.10659">
        <ele>114</ele>
        <time>2022-12-25T15:36:58Z</time>
      </trkpt>
      <trkpt lat="48.60436" lon="2.10659">
        <ele>114</ele>
        <time>2022-12-25T15:36:59Z</time>
      </trkpt>
      <trkpt lat="48.60439" lon="2.10659">
        <ele>114</ele>
        <time>2022-12-25T15:37:00Z</time>
      </trkpt>
      <trkpt lat="48.60442" lon="2.10658">
        <ele>114</ele>
        <time>2022-12-25T15:37:01Z</time>
      </trkpt>
      <trkpt lat="48.60449" lon="2.10658">
        <ele>114</ele>
        <time>2022-12-25T15:37:03Z</time>
      </trkpt>
      <trkpt lat="48.60455" lon="2.10658">
        <ele>113</ele>
        <time>2022-12-25T15:37:05Z</time>
      </trkpt>
      <trkpt lat="48.60458" lon="2.10658">
        <ele>113</ele>
        <time>2022-12-25T15:37:06Z</time>
      </trkpt>
      <trkpt lat="48.60461" lon="2.10658">
        <ele>113</ele>
        <time>2022-12-25T15:37:07Z</time>
      </trkpt>
      <trkpt lat="48.60464" lon="2.10658">
        <ele>113</ele>
        <time>2022-12-25T15:37:08Z</time>
      </trkpt>
      <trkpt lat="48.60467" lon="2.10658">
        <ele>113</ele>
        <time>2022-12-25T15:37:09Z</time>
      </trkpt>
      <trkpt lat="48.6047" lon="2.10658">
        <ele>113</ele>
        <time>2022-12-25T15:37:10Z</time>
      </trkpt>
      <trkpt lat="48.60473" lon="2.10658">
        <ele>113</ele>
        <time>2022-12-25T15:37:11Z</time>
      </trkpt>
      <trkpt lat="48.60476" lon="2.10658">
        <ele>112</ele>
        <time>2022-12-25T15:37:12Z</time>
      </trkpt>
      <trkpt lat="48.60479" lon="2.10658">
        <ele>112</ele>
        <time>2022-12-25T15:37:13Z</time>
      </trkpt>
      <trkpt lat="48.60482" lon="2.10658">
        <ele>112</ele>
        <time>2022-12-25T15:37:14Z</time>
      </trkpt>
      <trkpt lat="48.60484" lon="2.10658">
        <ele>112</ele>
        <time>2022-12-25T15:37:15Z</time>
      </trkpt>
      <trkpt lat="48.60487" lon="2.10658">
        <ele>112</ele>
        <time>2022-12-25T15:37:16Z</time>
      </trkpt>
      <trkpt lat="48.6049" lon="2.10659">
        <ele>112</ele>
        <time>2022-12-25T15:37:17Z</time>
      </trkpt>
      <trkpt lat="48.60494" lon="2.10658">
        <ele>112</ele>
        <time>2022-12-25T15:37:18Z</time>
      </trkpt>
      <trkpt lat="48.60497" lon="2.10658">
        <ele>112</ele>
        <time>2022-12-25T15:37:19Z</time>
      </trkpt>
      <trkpt lat="48.60501" lon="2.10657">
        <ele>112</ele>
        <time>2022-12-25T15:37:20Z</time>
      </trkpt>
      <trkpt lat="48.60507" lon="2.10656">
        <ele>111</ele>
        <time>2022-12-25T15:37:22Z</time>
      </trkpt>
      <trkpt lat="48.6051" lon="2.10656">
        <ele>111</ele>
        <time>2022-12-25T15:37:23Z</time>
      </trkpt>
      <trkpt lat="48.60513" lon="2.10656">
        <ele>111</ele>
        <time>2022-12-25T15:37:24Z</time>
      </trkpt>
      <trkpt lat="48.60516" lon="2.10656">
        <ele>110</ele>
        <time>2022-12-25T15:37:25Z</time>
      </trkpt>
      <trkpt lat="48.60519" lon="2.10656">
        <ele>110</ele>
        <time>2022-12-25T15:37:26Z</time>
      </trkpt>
      <trkpt lat="48.60522" lon="2.10656">
        <ele>110</ele>
        <time>2022-12-25T15:37:27Z</time>
      </trkpt>
      <trkpt lat="48.60525" lon="2.10656">
        <ele>110</ele>
        <time>2022-12-25T15:37:28Z</time>
      </trkpt>
      <trkpt lat="48.60528" lon="2.10656">
        <ele>110</ele>
        <time>2022-12-25T15:37:29Z</time>
      </trkpt>
      <trkpt lat="48.60531" lon="2.10656">
        <ele>110</ele>
        <time>2022-12-25T15:37:30Z</time>
      </trkpt>
      <trkpt lat="48.60533" lon="2.10656">
        <ele>109</ele>
        <time>2022-12-25T15:37:31Z</time>
      </trkpt>
      <trkpt lat="48.60536" lon="2.10655">
        <ele>109</ele>
        <time>2022-12-25T15:37:32Z</time>
      </trkpt>
      <trkpt lat="48.60539" lon="2.10655">
        <ele>109</ele>
        <time>2022-12-25T15:37:33Z</time>
      </trkpt>
      <trkpt lat="48.60542" lon="2.10655">
        <ele>109</ele>
        <time>2022-12-25T15:37:34Z</time>
      </trkpt>
      <trkpt lat="48.60545" lon="2.10654">
        <ele>109</ele>
        <time>2022-12-25T15:37:35Z</time>
      </trkpt>
      <trkpt lat="48.60548" lon="2.10654">
        <ele>109</ele>
        <time>2022-12-25T15:37:36Z</time>
      </trkpt>
      <trkpt lat="48.60551" lon="2.10654">
        <ele>109</ele>
        <time>2022-12-25T15:37:37Z</time>
      </trkpt>
      <trkpt lat="48.60556" lon="2.10654">
        <ele>109</ele>
        <time>2022-12-25T15:37:39Z</time>
      </trkpt>
      <trkpt lat="48.60562" lon="2.10655">
        <ele>109</ele>
        <time>2022-12-25T15:37:41Z</time>
      </trkpt>
      <trkpt lat="48.60565" lon="2.10655">
        <ele>109</ele>
        <time>2022-12-25T15:37:42Z</time>
      </trkpt>
      <trkpt lat="48.60567" lon="2.10656">
        <ele>109</ele>
        <time>2022-12-25T15:37:43Z</time>
      </trkpt>
      <trkpt lat="48.6057" lon="2.10656">
        <ele>109</ele>
        <time>2022-12-25T15:37:44Z</time>
      </trkpt>
      <trkpt lat="48.60573" lon="2.10657">
        <ele>109</ele>
        <time>2022-12-25T15:37:45Z</time>
      </trkpt>
      <trkpt lat="48.60576" lon="2.10657">
        <ele>109</ele>
        <time>2022-12-25T15:37:46Z</time>
      </trkpt>
      <trkpt lat="48.60579" lon="2.10657">
        <ele>109</ele>
        <time>2022-12-25T15:37:47Z</time>
      </trkpt>
      <trkpt lat="48.60581" lon="2.10657">
        <ele>108</ele>
        <time>2022-12-25T15:37:48Z</time>
      </trkpt>
      <trkpt lat="48.60584" lon="2.10657">
        <ele>108</ele>
        <time>2022-12-25T15:37:49Z</time>
      </trkpt>
      <trkpt lat="48.60587" lon="2.10658">
        <ele>109</ele>
        <time>2022-12-25T15:37:50Z</time>
      </trkpt>
      <trkpt lat="48.6059" lon="2.10658">
        <ele>109</ele>
        <time>2022-12-25T15:37:51Z</time>
      </trkpt>
      <trkpt lat="48.60593" lon="2.10658">
        <ele>109</ele>
        <time>2022-12-25T15:37:52Z</time>
      </trkpt>
      <trkpt lat="48.60596" lon="2.10658">
        <ele>109</ele>
        <time>2022-12-25T15:37:53Z</time>
      </trkpt>
      <trkpt lat="48.60599" lon="2.10658">
        <ele>109</ele>
        <time>2022-12-25T15:37:54Z</time>
      </trkpt>
      <trkpt lat="48.60605" lon="2.10659">
        <ele>109</ele>
        <time>2022-12-25T15:37:56Z</time>
      </trkpt>
      <trkpt lat="48.60608" lon="2.10659">
        <ele>109</ele>
        <time>2022-12-25T15:37:57Z</time>
      </trkpt>
      <trkpt lat="48.60611" lon="2.10659">
        <ele>109</ele>
        <time>2022-12-25T15:37:58Z</time>
      </trkpt>
      <trkpt lat="48.60616" lon="2.10658">
        <ele>109</ele>
        <time>2022-12-25T15:38:00Z</time>
      </trkpt>
      <trkpt lat="48.60619" lon="2.10658">
        <ele>109</ele>
        <time>2022-12-25T15:38:01Z</time>
      </trkpt>
      <trkpt lat="48.60622" lon="2.10657">
        <ele>109</ele>
        <time>2022-12-25T15:38:02Z</time>
      </trkpt>
      <trkpt lat="48.60624" lon="2.10657">
        <ele>109</ele>
        <time>2022-12-25T15:38:03Z</time>
      </trkpt>
      <trkpt lat="48.60627" lon="2.10656">
        <ele>109</ele>
        <time>2022-12-25T15:38:04Z</time>
      </trkpt>
      <trkpt lat="48.6063" lon="2.10656">
        <ele>109</ele>
        <time>2022-12-25T15:38:05Z</time>
      </trkpt>
      <trkpt lat="48.60633" lon="2.10655">
        <ele>109</ele>
        <time>2022-12-25T15:38:06Z</time>
      </trkpt>
      <trkpt lat="48.60636" lon="2.10655">
        <ele>109</ele>
        <time>2022-12-25T15:38:07Z</time>
      </trkpt>
      <trkpt lat="48.60639" lon="2.10654">
        <ele>109</ele>
        <time>2022-12-25T15:38:08Z</time>
      </trkpt>
      <trkpt lat="48.60642" lon="2.10654">
        <ele>109</ele>
        <time>2022-12-25T15:38:09Z</time>
      </trkpt>
      <trkpt lat="48.60644" lon="2.10653">
        <ele>109</ele>
        <time>2022-12-25T15:38:10Z</time>
      </trkpt>
      <trkpt lat="48.60647" lon="2.10653">
        <ele>109</ele>
        <time>2022-12-25T15:38:11Z</time>
      </trkpt>
      <trkpt lat="48.6065" lon="2.10652">
        <ele>108</ele>
        <time>2022-12-25T15:38:12Z</time>
      </trkpt>
      <trkpt lat="48.60655" lon="2.10651">
        <ele>108</ele>
        <time>2022-12-25T15:38:14Z</time>
      </trkpt>
      <trkpt lat="48.60658" lon="2.1065">
        <ele>108</ele>
        <time>2022-12-25T15:38:15Z</time>
      </trkpt>
      <trkpt lat="48.60661" lon="2.10649">
        <ele>108</ele>
        <time>2022-12-25T15:38:16Z</time>
      </trkpt>
      <trkpt lat="48.60663" lon="2.10648">
        <ele>108</ele>
        <time>2022-12-25T15:38:17Z</time>
      </trkpt>
      <trkpt lat="48.60669" lon="2.10647">
        <ele>108</ele>
        <time>2022-12-25T15:38:19Z</time>
      </trkpt>
      <trkpt lat="48.60672" lon="2.10646">
        <ele>108</ele>
        <time>2022-12-25T15:38:20Z</time>
      </trkpt>
      <trkpt lat="48.60675" lon="2.10645">
        <ele>108</ele>
        <time>2022-12-25T15:38:21Z</time>
      </trkpt>
      <trkpt lat="48.60677" lon="2.10644">
        <ele>108</ele>
        <time>2022-12-25T15:38:22Z</time>
      </trkpt>
      <trkpt lat="48.6068" lon="2.10643">
        <ele>108</ele>
        <time>2022-12-25T15:38:23Z</time>
      </trkpt>
      <trkpt lat="48.60683" lon="2.10642">
        <ele>108</ele>
        <time>2022-12-25T15:38:24Z</time>
      </trkpt>
      <trkpt lat="48.60686" lon="2.1064">
        <ele>108</ele>
        <time>2022-12-25T15:38:25Z</time>
      </trkpt>
      <trkpt lat="48.60688" lon="2.10639">
        <ele>108</ele>
        <time>2022-12-25T15:38:26Z</time>
      </trkpt>
      <trkpt lat="48.60691" lon="2.10638">
        <ele>108</ele>
        <time>2022-12-25T15:38:27Z</time>
      </trkpt>
      <trkpt lat="48.60694" lon="2.10637">
        <ele>108</ele>
        <time>2022-12-25T15:38:28Z</time>
      </trkpt>
      <trkpt lat="48.60697" lon="2.10636">
        <ele>108</ele>
        <time>2022-12-25T15:38:29Z</time>
      </trkpt>
      <trkpt lat="48.60703" lon="2.10633">
        <ele>108</ele>
        <time>2022-12-25T15:38:31Z</time>
      </trkpt>
      <trkpt lat="48.60706" lon="2.10631">
        <ele>108</ele>
        <time>2022-12-25T15:38:32Z</time>
      </trkpt>
      <trkpt lat="48.60709" lon="2.1063">
        <ele>108</ele>
        <time>2022-12-25T15:38:33Z</time>
      </trkpt>
      <trkpt lat="48.60712" lon="2.10628">
        <ele>108</ele>
        <time>2022-12-25T15:38:34Z</time>
      </trkpt>
      <trkpt lat="48.60715" lon="2.10626">
        <ele>108</ele>
        <time>2022-12-25T15:38:35Z</time>
      </trkpt>
      <trkpt lat="48.60718" lon="2.10625">
        <ele>108</ele>
        <time>2022-12-25T15:38:36Z</time>
      </trkpt>
      <trkpt lat="48.60723" lon="2.10622">
        <ele>108</ele>
        <time>2022-12-25T15:38:38Z</time>
      </trkpt>
      <trkpt lat="48.60726" lon="2.10621">
        <ele>108</ele>
        <time>2022-12-25T15:38:39Z</time>
      </trkpt>
      <trkpt lat="48.60729" lon="2.10619">
        <ele>108</ele>
        <time>2022-12-25T15:38:40Z</time>
      </trkpt>
      <trkpt lat="48.60732" lon="2.10618">
        <ele>108</ele>
        <time>2022-12-25T15:38:41Z</time>
      </trkpt>
      <trkpt lat="48.60735" lon="2.10616">
        <ele>108</ele>
        <time>2022-12-25T15:38:42Z</time>
      </trkpt>
      <trkpt lat="48.60738" lon="2.10615">
        <ele>108</ele>
        <time>2022-12-25T15:38:43Z</time>
      </trkpt>
      <trkpt lat="48.60741" lon="2.10614">
        <ele>108</ele>
        <time>2022-12-25T15:38:44Z</time>
      </trkpt>
      <trkpt lat="48.60744" lon="2.10612">
        <ele>108</ele>
        <time>2022-12-25T15:38:45Z</time>
      </trkpt>
      <trkpt lat="48.6075" lon="2.10609">
        <ele>108</ele>
        <time>2022-12-25T15:38:47Z</time>
      </trkpt>
      <trkpt lat="48.60753" lon="2.10608">
        <ele>108</ele>
        <time>2022-12-25T15:38:48Z</time>
      </trkpt>
      <trkpt lat="48.60756" lon="2.10606">
        <ele>108</ele>
        <time>2022-12-25T15:38:49Z</time>
      </trkpt>
      <trkpt lat="48.60759" lon="2.10605">
        <ele>108</ele>
        <time>2022-12-25T15:38:50Z</time>
      </trkpt>
      <trkpt lat="48.60762" lon="2.10604">
        <ele>108</ele>
        <time>2022-12-25T15:38:51Z</time>
      </trkpt>
      <trkpt lat="48.60764" lon="2.10602">
        <ele>108</ele>
        <time>2022-12-25T15:38:52Z</time>
      </trkpt>
      <trkpt lat="48.60767" lon="2.10601">
        <ele>108</ele>
        <time>2022-12-25T15:38:53Z</time>
      </trkpt>
      <trkpt lat="48.6077" lon="2.106">
        <ele>108</ele>
        <time>2022-12-25T15:38:54Z</time>
      </trkpt>
      <trkpt lat="48.60772" lon="2.10598">
        <ele>108</ele>
        <time>2022-12-25T15:38:55Z</time>
      </trkpt>
      <trkpt lat="48.60778" lon="2.10595">
        <ele>108</ele>
        <time>2022-12-25T15:38:57Z</time>
      </trkpt>
      <trkpt lat="48.60781" lon="2.10594">
        <ele>108</ele>
        <time>2022-12-25T15:38:58Z</time>
      </trkpt>
      <trkpt lat="48.60784" lon="2.10592">
        <ele>108</ele>
        <time>2022-12-25T15:38:59Z</time>
      </trkpt>
      <trkpt lat="48.60787" lon="2.10591">
        <ele>108</ele>
        <time>2022-12-25T15:39:00Z</time>
      </trkpt>
      <trkpt lat="48.6079" lon="2.10589">
        <ele>108</ele>
        <time>2022-12-25T15:39:01Z</time>
      </trkpt>
      <trkpt lat="48.60793" lon="2.10588">
        <ele>109</ele>
        <time>2022-12-25T15:39:02Z</time>
      </trkpt>
      <trkpt lat="48.60799" lon="2.10585">
        <ele>109</ele>
        <time>2022-12-25T15:39:04Z</time>
      </trkpt>
      <trkpt lat="48.60802" lon="2.10584">
        <ele>109</ele>
        <time>2022-12-25T15:39:05Z</time>
      </trkpt>
      <trkpt lat="48.60805" lon="2.10582">
        <ele>109</ele>
        <time>2022-12-25T15:39:06Z</time>
      </trkpt>
      <trkpt lat="48.60808" lon="2.10581">
        <ele>109</ele>
        <time>2022-12-25T15:39:07Z</time>
      </trkpt>
      <trkpt lat="48.6081" lon="2.1058">
        <ele>109</ele>
        <time>2022-12-25T15:39:08Z</time>
      </trkpt>
      <trkpt lat="48.60813" lon="2.10579">
        <ele>109</ele>
        <time>2022-12-25T15:39:09Z</time>
      </trkpt>
      <trkpt lat="48.60816" lon="2.10577">
        <ele>109</ele>
        <time>2022-12-25T15:39:10Z</time>
      </trkpt>
      <trkpt lat="48.60819" lon="2.10576">
        <ele>109</ele>
        <time>2022-12-25T15:39:11Z</time>
      </trkpt>
      <trkpt lat="48.60822" lon="2.10575">
        <ele>109</ele>
        <time>2022-12-25T15:39:12Z</time>
      </trkpt>
      <trkpt lat="48.60825" lon="2.10574">
        <ele>109</ele>
        <time>2022-12-25T15:39:13Z</time>
      </trkpt>
      <trkpt lat="48.60827" lon="2.10573">
        <ele>109</ele>
        <time>2022-12-25T15:39:14Z</time>
      </trkpt>
      <trkpt lat="48.60833" lon="2.10571">
        <ele>109</ele>
        <time>2022-12-25T15:39:16Z</time>
      </trkpt>
      <trkpt lat="48.60836" lon="2.1057">
        <ele>109</ele>
        <time>2022-12-25T15:39:17Z</time>
      </trkpt>
      <trkpt lat="48.60838" lon="2.10569">
        <ele>109</ele>
        <time>2022-12-25T15:39:18Z</time>
      </trkpt>
      <trkpt lat="48.60841" lon="2.10569">
        <ele>109</ele>
        <time>2022-12-25T15:39:19Z</time>
      </trkpt>
      <trkpt lat="48.60847" lon="2.10567">
        <ele>109</ele>
        <time>2022-12-25T15:39:21Z</time>
      </trkpt>
      <trkpt lat="48.60849" lon="2.10566">
        <ele>109</ele>
        <time>2022-12-25T15:39:22Z</time>
      </trkpt>
      <trkpt lat="48.60852" lon="2.10565">
        <ele>109</ele>
        <time>2022-12-25T15:39:23Z</time>
      </trkpt>
      <trkpt lat="48.60855" lon="2.10564">
        <ele>109</ele>
        <time>2022-12-25T15:39:24Z</time>
      </trkpt>
      <trkpt lat="48.60858" lon="2.10563">
        <ele>109</ele>
        <time>2022-12-25T15:39:25Z</time>
      </trkpt>
      <trkpt lat="48.60861" lon="2.10562">
        <ele>109</ele>
        <time>2022-12-25T15:39:26Z</time>
      </trkpt>
      <trkpt lat="48.60863" lon="2.10561">
        <ele>109</ele>
        <time>2022-12-25T15:39:27Z</time>
      </trkpt>
      <trkpt lat="48.60866" lon="2.1056">
        <ele>109</ele>
        <time>2022-12-25T15:39:28Z</time>
      </trkpt>
      <trkpt lat="48.60869" lon="2.10559">
        <ele>109</ele>
        <time>2022-12-25T15:39:29Z</time>
      </trkpt>
      <trkpt lat="48.60871" lon="2.10558">
        <ele>109</ele>
        <time>2022-12-25T15:39:30Z</time>
      </trkpt>
      <trkpt lat="48.60874" lon="2.10558">
        <ele>109</ele>
        <time>2022-12-25T15:39:31Z</time>
      </trkpt>
      <trkpt lat="48.60877" lon="2.10557">
        <ele>109</ele>
        <time>2022-12-25T15:39:32Z</time>
      </trkpt>
      <trkpt lat="48.6088" lon="2.10556">
        <ele>109</ele>
        <time>2022-12-25T15:39:33Z</time>
      </trkpt>
      <trkpt lat="48.60884" lon="2.10555">
        <ele>109</ele>
        <time>2022-12-25T15:39:35Z</time>
      </trkpt>
      <trkpt lat="48.60886" lon="2.10554">
        <ele>109</ele>
        <time>2022-12-25T15:39:36Z</time>
      </trkpt>
      <trkpt lat="48.60889" lon="2.10552">
        <ele>110</ele>
        <time>2022-12-25T15:39:38Z</time>
      </trkpt>
      <trkpt lat="48.60891" lon="2.1055">
        <ele>110</ele>
        <time>2022-12-25T15:39:40Z</time>
      </trkpt>
      <trkpt lat="48.60893" lon="2.10547">
        <ele>110</ele>
        <time>2022-12-25T15:39:42Z</time>
      </trkpt>
      <trkpt lat="48.60895" lon="2.10544">
        <ele>109</ele>
        <time>2022-12-25T15:39:44Z</time>
      </trkpt>
      <trkpt lat="48.60897" lon="2.10541">
        <ele>109</ele>
        <time>2022-12-25T15:39:46Z</time>
      </trkpt>
      <trkpt lat="48.60898" lon="2.10537">
        <ele>109</ele>
        <time>2022-12-25T15:39:48Z</time>
      </trkpt>
      <trkpt lat="48.60899" lon="2.10533">
        <ele>109</ele>
        <time>2022-12-25T15:39:50Z</time>
      </trkpt>
      <trkpt lat="48.60898" lon="2.10529">
        <ele>109</ele>
        <time>2022-12-25T15:39:52Z</time>
      </trkpt>
      <trkpt lat="48.60897" lon="2.10526">
        <ele>109</ele>
        <time>2022-12-25T15:39:54Z</time>
      </trkpt>
      <trkpt lat="48.60897" lon="2.10522">
        <ele>109</ele>
        <time>2022-12-25T15:39:56Z</time>
      </trkpt>
      <trkpt lat="48.60897" lon="2.10518">
        <ele>109</ele>
        <time>2022-12-25T15:39:58Z</time>
      </trkpt>
      <trkpt lat="48.60897" lon="2.10514">
        <ele>109</ele>
        <time>2022-12-25T15:40:00Z</time>
      </trkpt>
      <trkpt lat="48.60896" lon="2.1051">
        <ele>109</ele>
        <time>2022-12-25T15:40:02Z</time>
      </trkpt>
      <trkpt lat="48.60896" lon="2.10506">
        <ele>110</ele>
        <time>2022-12-25T15:40:04Z</time>
      </trkpt>
      <trkpt lat="48.60896" lon="2.10501">
        <ele>110</ele>
        <time>2022-12-25T15:40:06Z</time>
      </trkpt>
      <trkpt lat="48.60897" lon="2.10498">
        <ele>110</ele>
        <time>2022-12-25T15:40:08Z</time>
      </trkpt>
      <trkpt lat="48.60897" lon="2.10495">
        <ele>110</ele>
        <time>2022-12-25T15:40:10Z</time>
      </trkpt>
      <trkpt lat="48.609" lon="2.10493">
        <ele>110</ele>
        <time>2022-12-25T15:40:14Z</time>
      </trkpt>
      <trkpt lat="48.60901" lon="2.10492">
        <ele>110</ele>
        <time>2022-12-25T15:40:16Z</time>
      </trkpt>
      <trkpt lat="48.60904" lon="2.10491">
        <ele>110</ele>
        <time>2022-12-25T15:40:18Z</time>
      </trkpt>
      <trkpt lat="48.60906" lon="2.10491">
        <ele>110</ele>
        <time>2022-12-25T15:40:20Z</time>
      </trkpt>
      <trkpt lat="48.60909" lon="2.10491">
        <ele>110</ele>
        <time>2022-12-25T15:40:22Z</time>
      </trkpt>
      <trkpt lat="48.60911" lon="2.10491">
        <ele>110</ele>
        <time>2022-12-25T15:40:24Z</time>
      </trkpt>
      <trkpt lat="48.60913" lon="2.10492">
        <ele>110</ele>
        <time>2022-12-25T15:40:26Z</time>
      </trkpt>
      <trkpt lat="48.60916" lon="2.10493">
        <ele>110</ele>
        <time>2022-12-25T15:40:28Z</time>
      </trkpt>
      <trkpt lat="48.60919" lon="2.10494">
        <ele>110</ele>
        <time>2022-12-25T15:40:30Z</time>
      </trkpt>
      <trkpt lat="48.60922" lon="2.10495">
        <ele>110</ele>
        <time>2022-12-25T15:40:32Z</time>
      </trkpt>
      <trkpt lat="48.60924" lon="2.10496">
        <ele>110</ele>
        <time>2022-12-25T15:40:34Z</time>
      </trkpt>
      <trkpt lat="48.60927" lon="2.10497">
        <ele>110</ele>
        <time>2022-12-25T15:40:36Z</time>
      </trkpt>
      <trkpt lat="48.60929" lon="2.10498">
        <ele>110</ele>
        <time>2022-12-25T15:40:38Z</time>
      </trkpt>
      <trkpt lat="48.60932" lon="2.10498">
        <ele>110</ele>
        <time>2022-12-25T15:40:40Z</time>
      </trkpt>
      <trkpt lat="48.60934" lon="2.10499">
        <ele>110</ele>
        <time>2022-12-25T15:40:42Z</time>
      </trkpt>
      <trkpt lat="48.60937" lon="2.10499">
        <ele>110</ele>
        <time>2022-12-25T15:40:44Z</time>
      </trkpt>
      <trkpt lat="48.60939" lon="2.10499">
        <ele>110</ele>
        <time>2022-12-25T15:40:46Z</time>
      </trkpt>
      <trkpt lat="48.60942" lon="2.105">
        <ele>110</ele>
        <time>2022-12-25T15:40:48Z</time>
      </trkpt>
      <trkpt lat="48.60945" lon="2.10501">
        <ele>110</ele>
        <time>2022-12-25T15:40:51Z</time>
      </trkpt>
      <trkpt lat="48.60947" lon="2.10501">
        <ele>110</ele>
        <time>2022-12-25T15:40:52Z</time>
      </trkpt>
      <trkpt lat="48.6095" lon="2.10502">
        <ele>110</ele>
        <time>2022-12-25T15:40:54Z</time>
      </trkpt>
      <trkpt lat="48.60953" lon="2.10502">
        <ele>110</ele>
        <time>2022-12-25T15:40:56Z</time>
      </trkpt>
      <trkpt lat="48.60956" lon="2.10502">
        <ele>110</ele>
        <time>2022-12-25T15:40:59Z</time>
      </trkpt>
      <trkpt lat="48.60958" lon="2.10503">
        <ele>110</ele>
        <time>2022-12-25T15:41:00Z</time>
      </trkpt>
      <trkpt lat="48.60961" lon="2.10503">
        <ele>110</ele>
        <time>2022-12-25T15:41:02Z</time>
      </trkpt>
      <trkpt lat="48.60964" lon="2.10503">
        <ele>110</ele>
        <time>2022-12-25T15:41:04Z</time>
      </trkpt>
      <trkpt lat="48.60967" lon="2.10503">
        <ele>111</ele>
        <time>2022-12-25T15:41:06Z</time>
      </trkpt>
      <trkpt lat="48.60969" lon="2.10503">
        <ele>111</ele>
        <time>2022-12-25T15:41:08Z</time>
      </trkpt>
      <trkpt lat="48.60972" lon="2.10503">
        <ele>111</ele>
        <time>2022-12-25T15:41:10Z</time>
      </trkpt>
      <trkpt lat="48.60975" lon="2.10503">
        <ele>111</ele>
        <time>2022-12-25T15:41:12Z</time>
      </trkpt>
      <trkpt lat="48.60978" lon="2.10504">
        <ele>111</ele>
        <time>2022-12-25T15:41:14Z</time>
      </trkpt>
      <trkpt lat="48.60981" lon="2.10504">
        <ele>111</ele>
        <time>2022-12-25T15:41:16Z</time>
      </trkpt>
      <trkpt lat="48.60984" lon="2.10504">
        <ele>111</ele>
        <time>2022-12-25T15:41:18Z</time>
      </trkpt>
      <trkpt lat="48.60987" lon="2.10504">
        <ele>111</ele>
        <time>2022-12-25T15:41:20Z</time>
      </trkpt>
      <trkpt lat="48.6099" lon="2.10505">
        <ele>111</ele>
        <time>2022-12-25T15:41:22Z</time>
      </trkpt>
      <trkpt lat="48.60993" lon="2.10505">
        <ele>111</ele>
        <time>2022-12-25T15:41:24Z</time>
      </trkpt>
      <trkpt lat="48.60996" lon="2.10506">
        <ele>111</ele>
        <time>2022-12-25T15:41:26Z</time>
      </trkpt>
      <trkpt lat="48.60999" lon="2.10506">
        <ele>111</ele>
        <time>2022-12-25T15:41:29Z</time>
      </trkpt>
      <trkpt lat="48.61002" lon="2.10506">
        <ele>111</ele>
        <time>2022-12-25T15:41:30Z</time>
      </trkpt>
      <trkpt lat="48.61005" lon="2.10507">
        <ele>111</ele>
        <time>2022-12-25T15:41:32Z</time>
      </trkpt>
      <trkpt lat="48.61008" lon="2.10507">
        <ele>111</ele>
        <time>2022-12-25T15:41:34Z</time>
      </trkpt>
      <trkpt lat="48.6101" lon="2.10507">
        <ele>112</ele>
        <time>2022-12-25T15:41:36Z</time>
      </trkpt>
      <trkpt lat="48.61013" lon="2.10507">
        <ele>112</ele>
        <time>2022-12-25T15:41:38Z</time>
      </trkpt>
      <trkpt lat="48.61016" lon="2.10507">
        <ele>112</ele>
        <time>2022-12-25T15:41:40Z</time>
      </trkpt>
      <trkpt lat="48.61019" lon="2.10507">
        <ele>112</ele>
        <time>2022-12-25T15:41:42Z</time>
      </trkpt>
      <trkpt lat="48.61021" lon="2.10507">
        <ele>112</ele>
        <time>2022-12-25T15:41:44Z</time>
      </trkpt>
      <trkpt lat="48.61024" lon="2.10508">
        <ele>112</ele>
        <time>2022-12-25T15:41:46Z</time>
      </trkpt>
      <trkpt lat="48.61026" lon="2.10508">
        <ele>112</ele>
        <time>2022-12-25T15:41:48Z</time>
      </trkpt>
      <trkpt lat="48.61029" lon="2.10509">
        <ele>112</ele>
        <time>2022-12-25T15:41:50Z</time>
      </trkpt>
      <trkpt lat="48.61032" lon="2.10509">
        <ele>112</ele>
        <time>2022-12-25T15:41:52Z</time>
      </trkpt>
      <trkpt lat="48.61034" lon="2.10509">
        <ele>112</ele>
        <time>2022-12-25T15:41:54Z</time>
      </trkpt>
      <trkpt lat="48.61037" lon="2.1051">
        <ele>112</ele>
        <time>2022-12-25T15:41:56Z</time>
      </trkpt>
      <trkpt lat="48.6104" lon="2.1051">
        <ele>112</ele>
        <time>2022-12-25T15:41:58Z</time>
      </trkpt>
      <trkpt lat="48.61042" lon="2.1051">
        <ele>112</ele>
        <time>2022-12-25T15:42:00Z</time>
      </trkpt>
      <trkpt lat="48.61045" lon="2.1051">
        <ele>112</ele>
        <time>2022-12-25T15:42:02Z</time>
      </trkpt>
      <trkpt lat="48.61048" lon="2.10511">
        <ele>112</ele>
        <time>2022-12-25T15:42:04Z</time>
      </trkpt>
      <trkpt lat="48.61051" lon="2.10511">
        <ele>112</ele>
        <time>2022-12-25T15:42:07Z</time>
      </trkpt>
      <trkpt lat="48.61053" lon="2.10511">
        <ele>112</ele>
        <time>2022-12-25T15:42:08Z</time>
      </trkpt>
      <trkpt lat="48.61056" lon="2.10511">
        <ele>112</ele>
        <time>2022-12-25T15:42:10Z</time>
      </trkpt>
      <trkpt lat="48.61059" lon="2.10511">
        <ele>112</ele>
        <time>2022-12-25T15:42:12Z</time>
      </trkpt>
      <trkpt lat="48.61061" lon="2.10511">
        <ele>112</ele>
        <time>2022-12-25T15:42:14Z</time>
      </trkpt>
      <trkpt lat="48.61064" lon="2.10512">
        <ele>112</ele>
        <time>2022-12-25T15:42:16Z</time>
      </trkpt>
      <trkpt lat="48.61067" lon="2.10512">
        <ele>112</ele>
        <time>2022-12-25T15:42:18Z</time>
      </trkpt>
      <trkpt lat="48.6107" lon="2.10512">
        <ele>112</ele>
        <time>2022-12-25T15:42:20Z</time>
      </trkpt>
      <trkpt lat="48.61072" lon="2.10513">
        <ele>112</ele>
        <time>2022-12-25T15:42:22Z</time>
      </trkpt>
      <trkpt lat="48.61075" lon="2.10513">
        <ele>112</ele>
        <time>2022-12-25T15:42:24Z</time>
      </trkpt>
      <trkpt lat="48.61077" lon="2.10514">
        <ele>112</ele>
        <time>2022-12-25T15:42:26Z</time>
      </trkpt>
      <trkpt lat="48.6108" lon="2.10514">
        <ele>112</ele>
        <time>2022-12-25T15:42:28Z</time>
      </trkpt>
      <trkpt lat="48.61082" lon="2.10514">
        <ele>112</ele>
        <time>2022-12-25T15:42:30Z</time>
      </trkpt>
      <trkpt lat="48.61085" lon="2.10514">
        <ele>112</ele>
        <time>2022-12-25T15:42:32Z</time>
      </trkpt>
      <trkpt lat="48.61088" lon="2.10515">
        <ele>112</ele>
        <time>2022-12-25T15:42:34Z</time>
      </trkpt>
      <trkpt lat="48.6109" lon="2.10515">
        <ele>112</ele>
        <time>2022-12-25T15:42:36Z</time>
      </trkpt>
      <trkpt lat="48.61093" lon="2.10515">
        <ele>112</ele>
        <time>2022-12-25T15:42:38Z</time>
      </trkpt>
      <trkpt lat="48.61095" lon="2.10516">
        <ele>112</ele>
        <time>2022-12-25T15:42:40Z</time>
      </trkpt>
      <trkpt lat="48.61098" lon="2.10516">
        <ele>112</ele>
        <time>2022-12-25T15:42:42Z</time>
      </trkpt>
      <trkpt lat="48.61101" lon="2.10516">
        <ele>112</ele>
        <time>2022-12-25T15:42:45Z</time>
      </trkpt>
      <trkpt lat="48.61103" lon="2.10517">
        <ele>112</ele>
        <time>2022-12-25T15:42:46Z</time>
      </trkpt>
      <trkpt lat="48.61107" lon="2.10517">
        <ele>112</ele>
        <time>2022-12-25T15:42:48Z</time>
      </trkpt>
      <trkpt lat="48.61109" lon="2.10517">
        <ele>112</ele>
        <time>2022-12-25T15:42:50Z</time>
      </trkpt>
      <trkpt lat="48.61112" lon="2.10517">
        <ele>111</ele>
        <time>2022-12-25T15:42:52Z</time>
      </trkpt>
      <trkpt lat="48.61115" lon="2.10518">
        <ele>111</ele>
        <time>2022-12-25T15:42:54Z</time>
      </trkpt>
      <trkpt lat="48.61118" lon="2.10518">
        <ele>111</ele>
        <time>2022-12-25T15:42:56Z</time>
      </trkpt>
      <trkpt lat="48.6112" lon="2.10518">
        <ele>111</ele>
        <time>2022-12-25T15:42:58Z</time>
      </trkpt>
      <trkpt lat="48.61123" lon="2.10519">
        <ele>111</ele>
        <time>2022-12-25T15:43:00Z</time>
      </trkpt>
      <trkpt lat="48.61126" lon="2.10519">
        <ele>111</ele>
        <time>2022-12-25T15:43:02Z</time>
      </trkpt>
      <trkpt lat="48.61129" lon="2.10519">
        <ele>111</ele>
        <time>2022-12-25T15:43:04Z</time>
      </trkpt>
      <trkpt lat="48.61131" lon="2.1052">
        <ele>111</ele>
        <time>2022-12-25T15:43:06Z</time>
      </trkpt>
      <trkpt lat="48.61134" lon="2.1052">
        <ele>111</ele>
        <time>2022-12-25T15:43:08Z</time>
      </trkpt>
      <trkpt lat="48.61137" lon="2.1052">
        <ele>111</ele>
        <time>2022-12-25T15:43:10Z</time>
      </trkpt>
      <trkpt lat="48.6114" lon="2.1052">
        <ele>111</ele>
        <time>2022-12-25T15:43:12Z</time>
      </trkpt>
      <trkpt lat="48.61142" lon="2.10521">
        <ele>111</ele>
        <time>2022-12-25T15:43:14Z</time>
      </trkpt>
      <trkpt lat="48.61145" lon="2.10521">
        <ele>111</ele>
        <time>2022-12-25T15:43:16Z</time>
      </trkpt>
      <trkpt lat="48.61147" lon="2.10521">
        <ele>111</ele>
        <time>2022-12-25T15:43:18Z</time>
      </trkpt>
      <trkpt lat="48.6115" lon="2.10521">
        <ele>111</ele>
        <time>2022-12-25T15:43:20Z</time>
      </trkpt>
      <trkpt lat="48.61153" lon="2.10521">
        <ele>111</ele>
        <time>2022-12-25T15:43:23Z</time>
      </trkpt>
      <trkpt lat="48.61156" lon="2.10521">
        <ele>110</ele>
        <time>2022-12-25T15:43:24Z</time>
      </trkpt>
      <trkpt lat="48.61159" lon="2.10521">
        <ele>110</ele>
        <time>2022-12-25T15:43:26Z</time>
      </trkpt>
      <trkpt lat="48.61161" lon="2.10522">
        <ele>110</ele>
        <time>2022-12-25T15:43:28Z</time>
      </trkpt>
      <trkpt lat="48.61164" lon="2.10522">
        <ele>110</ele>
        <time>2022-12-25T15:43:30Z</time>
      </trkpt>
      <trkpt lat="48.61167" lon="2.10523">
        <ele>110</ele>
        <time>2022-12-25T15:43:32Z</time>
      </trkpt>
      <trkpt lat="48.6117" lon="2.10523">
        <ele>110</ele>
        <time>2022-12-25T15:43:34Z</time>
      </trkpt>
      <trkpt lat="48.61172" lon="2.10523">
        <ele>110</ele>
        <time>2022-12-25T15:43:36Z</time>
      </trkpt>
      <trkpt lat="48.61175" lon="2.10524">
        <ele>110</ele>
        <time>2022-12-25T15:43:38Z</time>
      </trkpt>
      <trkpt lat="48.61178" lon="2.10524">
        <ele>110</ele>
        <time>2022-12-25T15:43:40Z</time>
      </trkpt>
      <trkpt lat="48.61181" lon="2.10524">
        <ele>110</ele>
        <time>2022-12-25T15:43:42Z</time>
      </trkpt>
      <trkpt lat="48.61184" lon="2.10524">
        <ele>109</ele>
        <time>2022-12-25T15:43:44Z</time>
      </trkpt>
      <trkpt lat="48.61186" lon="2.10524">
        <ele>109</ele>
        <time>2022-12-25T15:43:46Z</time>
      </trkpt>
      <trkpt lat="48.61189" lon="2.10524">
        <ele>109</ele>
        <time>2022-12-25T15:43:48Z</time>
      </trkpt>
      <trkpt lat="48.61192" lon="2.10524">
        <ele>109</ele>
        <time>2022-12-25T15:43:50Z</time>
      </trkpt>
      <trkpt lat="48.61195" lon="2.10525">
        <ele>109</ele>
        <time>2022-12-25T15:43:52Z</time>
      </trkpt>
      <trkpt lat="48.61197" lon="2.10525">
        <ele>109</ele>
        <time>2022-12-25T15:43:54Z</time>
      </trkpt>
      <trkpt lat="48.612" lon="2.10525">
        <ele>109</ele>
        <time>2022-12-25T15:43:56Z</time>
      </trkpt>
      <trkpt lat="48.61203" lon="2.10525">
        <ele>109</ele>
        <time>2022-12-25T15:43:58Z</time>
      </trkpt>
      <trkpt lat="48.61206" lon="2.10526">
        <ele>108</ele>
        <time>2022-12-25T15:44:01Z</time>
      </trkpt>
      <trkpt lat="48.61209" lon="2.10526">
        <ele>108</ele>
        <time>2022-12-25T15:44:02Z</time>
      </trkpt>
      <trkpt lat="48.61212" lon="2.10526">
        <ele>108</ele>
        <time>2022-12-25T15:44:04Z</time>
      </trkpt>
      <trkpt lat="48.61215" lon="2.10527">
        <ele>108</ele>
        <time>2022-12-25T15:44:06Z</time>
      </trkpt>
      <trkpt lat="48.61217" lon="2.10527">
        <ele>108</ele>
        <time>2022-12-25T15:44:08Z</time>
      </trkpt>
      <trkpt lat="48.6122" lon="2.10528">
        <ele>108</ele>
        <time>2022-12-25T15:44:10Z</time>
      </trkpt>
      <trkpt lat="48.61222" lon="2.10527">
        <ele>108</ele>
        <time>2022-12-25T15:44:12Z</time>
      </trkpt>
      <trkpt lat="48.61224" lon="2.10528">
        <ele>107</ele>
        <time>2022-12-25T15:44:14Z</time>
      </trkpt>
      <trkpt lat="48.61227" lon="2.10528">
        <ele>107</ele>
        <time>2022-12-25T15:44:16Z</time>
      </trkpt>
      <trkpt lat="48.61229" lon="2.10528">
        <ele>107</ele>
        <time>2022-12-25T15:44:18Z</time>
      </trkpt>
      <trkpt lat="48.61232" lon="2.10529">
        <ele>107</ele>
        <time>2022-12-25T15:44:20Z</time>
      </trkpt>
      <trkpt lat="48.61234" lon="2.10529">
        <ele>107</ele>
        <time>2022-12-25T15:44:22Z</time>
      </trkpt>
      <trkpt lat="48.61237" lon="2.10529">
        <ele>107</ele>
        <time>2022-12-25T15:44:24Z</time>
      </trkpt>
      <trkpt lat="48.61239" lon="2.10529">
        <ele>107</ele>
        <time>2022-12-25T15:44:26Z</time>
      </trkpt>
      <trkpt lat="48.61242" lon="2.10529">
        <ele>107</ele>
        <time>2022-12-25T15:44:28Z</time>
      </trkpt>
      <trkpt lat="48.61244" lon="2.10529">
        <ele>107</ele>
        <time>2022-12-25T15:44:30Z</time>
      </trkpt>
      <trkpt lat="48.61247" lon="2.10529">
        <ele>107</ele>
        <time>2022-12-25T15:44:32Z</time>
      </trkpt>
      <trkpt lat="48.61249" lon="2.1053">
        <ele>107</ele>
        <time>2022-12-25T15:44:34Z</time>
      </trkpt>
      <trkpt lat="48.61252" lon="2.1053">
        <ele>106</ele>
        <time>2022-12-25T15:44:36Z</time>
      </trkpt>
      <trkpt lat="48.61255" lon="2.1053">
        <ele>106</ele>
        <time>2022-12-25T15:44:39Z</time>
      </trkpt>
      <trkpt lat="48.61257" lon="2.10531">
        <ele>106</ele>
        <time>2022-12-25T15:44:40Z</time>
      </trkpt>
      <trkpt lat="48.6126" lon="2.10531">
        <ele>106</ele>
        <time>2022-12-25T15:44:42Z</time>
      </trkpt>
      <trkpt lat="48.61263" lon="2.10531">
        <ele>106</ele>
        <time>2022-12-25T15:44:44Z</time>
      </trkpt>
      <trkpt lat="48.61265" lon="2.10532">
        <ele>106</ele>
        <time>2022-12-25T15:44:46Z</time>
      </trkpt>
      <trkpt lat="48.61268" lon="2.10532">
        <ele>106</ele>
        <time>2022-12-25T15:44:48Z</time>
      </trkpt>
      <trkpt lat="48.61271" lon="2.10532">
        <ele>106</ele>
        <time>2022-12-25T15:44:50Z</time>
      </trkpt>
      <trkpt lat="48.61274" lon="2.10532">
        <ele>106</ele>
        <time>2022-12-25T15:44:52Z</time>
      </trkpt>
      <trkpt lat="48.61277" lon="2.10532">
        <ele>106</ele>
        <time>2022-12-25T15:44:54Z</time>
      </trkpt>
      <trkpt lat="48.6128" lon="2.10532">
        <ele>106</ele>
        <time>2022-12-25T15:44:56Z</time>
      </trkpt>
      <trkpt lat="48.61283" lon="2.10533">
        <ele>106</ele>
        <time>2022-12-25T15:44:59Z</time>
      </trkpt>
      <trkpt lat="48.61285" lon="2.10533">
        <ele>106</ele>
        <time>2022-12-25T15:45:00Z</time>
      </trkpt>
      <trkpt lat="48.61288" lon="2.10533">
        <ele>106</ele>
        <time>2022-12-25T15:45:02Z</time>
      </trkpt>
      <trkpt lat="48.61291" lon="2.10533">
        <ele>106</ele>
        <time>2022-12-25T15:45:04Z</time>
      </trkpt>
      <trkpt lat="48.61293" lon="2.10533">
        <ele>106</ele>
        <time>2022-12-25T15:45:06Z</time>
      </trkpt>
      <trkpt lat="48.61296" lon="2.10533">
        <ele>106</ele>
        <time>2022-12-25T15:45:08Z</time>
      </trkpt>
      <trkpt lat="48.61298" lon="2.10533">
        <ele>106</ele>
        <time>2022-12-25T15:45:10Z</time>
      </trkpt>
      <trkpt lat="48.61301" lon="2.10533">
        <ele>106</ele>
        <time>2022-12-25T15:45:12Z</time>
      </trkpt>
      <trkpt lat="48.61303" lon="2.10534">
        <ele>106</ele>
        <time>2022-12-25T15:45:14Z</time>
      </trkpt>
      <trkpt lat="48.61306" lon="2.10534">
        <ele>105</ele>
        <time>2022-12-25T15:45:17Z</time>
      </trkpt>
      <trkpt lat="48.61309" lon="2.10534">
        <ele>105</ele>
        <time>2022-12-25T15:45:18Z</time>
      </trkpt>
      <trkpt lat="48.61311" lon="2.10535">
        <ele>105</ele>
        <time>2022-12-25T15:45:20Z</time>
      </trkpt>
      <trkpt lat="48.61314" lon="2.10535">
        <ele>105</ele>
        <time>2022-12-25T15:45:22Z</time>
      </trkpt>
      <trkpt lat="48.61316" lon="2.10535">
        <ele>105</ele>
        <time>2022-12-25T15:45:24Z</time>
      </trkpt>
      <trkpt lat="48.61319" lon="2.10535">
        <ele>105</ele>
        <time>2022-12-25T15:45:26Z</time>
      </trkpt>
      <trkpt lat="48.61322" lon="2.10535">
        <ele>105</ele>
        <time>2022-12-25T15:45:28Z</time>
      </trkpt>
      <trkpt lat="48.61324" lon="2.10536">
        <ele>105</ele>
        <time>2022-12-25T15:45:30Z</time>
      </trkpt>
      <trkpt lat="48.61327" lon="2.10536">
        <ele>105</ele>
        <time>2022-12-25T15:45:32Z</time>
      </trkpt>
      <trkpt lat="48.61329" lon="2.10537">
        <ele>105</ele>
        <time>2022-12-25T15:45:34Z</time>
      </trkpt>
      <trkpt lat="48.61331" lon="2.10537">
        <ele>105</ele>
        <time>2022-12-25T15:45:36Z</time>
      </trkpt>
      <trkpt lat="48.61334" lon="2.10538">
        <ele>104</ele>
        <time>2022-12-25T15:45:38Z</time>
      </trkpt>
      <trkpt lat="48.61337" lon="2.10538">
        <ele>104</ele>
        <time>2022-12-25T15:45:40Z</time>
      </trkpt>
      <trkpt lat="48.6134" lon="2.10538">
        <ele>104</ele>
        <time>2022-12-25T15:45:42Z</time>
      </trkpt>
      <trkpt lat="48.61342" lon="2.10538">
        <ele>104</ele>
        <time>2022-12-25T15:45:44Z</time>
      </trkpt>
      <trkpt lat="48.61345" lon="2.10539">
        <ele>104</ele>
        <time>2022-12-25T15:45:46Z</time>
      </trkpt>
      <trkpt lat="48.61348" lon="2.10539">
        <ele>104</ele>
        <time>2022-12-25T15:45:48Z</time>
      </trkpt>
      <trkpt lat="48.6135" lon="2.1054">
        <ele>104</ele>
        <time>2022-12-25T15:45:50Z</time>
      </trkpt>
      <trkpt lat="48.61353" lon="2.10541">
        <ele>104</ele>
        <time>2022-12-25T15:45:52Z</time>
      </trkpt>
      <trkpt lat="48.61356" lon="2.10542">
        <ele>104</ele>
        <time>2022-12-25T15:45:55Z</time>
      </trkpt>
      <trkpt lat="48.61358" lon="2.10542">
        <ele>104</ele>
        <time>2022-12-25T15:45:56Z</time>
      </trkpt>
      <trkpt lat="48.61361" lon="2.10543">
        <ele>104</ele>
        <time>2022-12-25T15:45:58Z</time>
      </trkpt>
      <trkpt lat="48.61364" lon="2.10544">
        <ele>104</ele>
        <time>2022-12-25T15:46:00Z</time>
      </trkpt>
      <trkpt lat="48.61367" lon="2.10546">
        <ele>104</ele>
        <time>2022-12-25T15:46:02Z</time>
      </trkpt>
      <trkpt lat="48.61369" lon="2.10547">
        <ele>104</ele>
        <time>2022-12-25T15:46:04Z</time>
      </trkpt>
      <trkpt lat="48.61372" lon="2.10549">
        <ele>104</ele>
        <time>2022-12-25T15:46:06Z</time>
      </trkpt>
      <trkpt lat="48.61374" lon="2.1055">
        <ele>104</ele>
        <time>2022-12-25T15:46:08Z</time>
      </trkpt>
      <trkpt lat="48.61377" lon="2.10552">
        <ele>103</ele>
        <time>2022-12-25T15:46:10Z</time>
      </trkpt>
      <trkpt lat="48.61379" lon="2.10553">
        <ele>103</ele>
        <time>2022-12-25T15:46:12Z</time>
      </trkpt>
      <trkpt lat="48.61381" lon="2.10556">
        <ele>103</ele>
        <time>2022-12-25T15:46:14Z</time>
      </trkpt>
      <trkpt lat="48.61384" lon="2.10557">
        <ele>103</ele>
        <time>2022-12-25T15:46:16Z</time>
      </trkpt>
      <trkpt lat="48.61386" lon="2.10559">
        <ele>103</ele>
        <time>2022-12-25T15:46:18Z</time>
      </trkpt>
      <trkpt lat="48.61389" lon="2.10562">
        <ele>103</ele>
        <time>2022-12-25T15:46:20Z</time>
      </trkpt>
      <trkpt lat="48.61391" lon="2.10564">
        <ele>103</ele>
        <time>2022-12-25T15:46:22Z</time>
      </trkpt>
      <trkpt lat="48.61393" lon="2.10566">
        <ele>103</ele>
        <time>2022-12-25T15:46:24Z</time>
      </trkpt>
      <trkpt lat="48.61395" lon="2.10568">
        <ele>103</ele>
        <time>2022-12-25T15:46:26Z</time>
      </trkpt>
      <trkpt lat="48.61398" lon="2.1057">
        <ele>103</ele>
        <time>2022-12-25T15:46:28Z</time>
      </trkpt>
      <trkpt lat="48.614" lon="2.10573">
        <ele>103</ele>
        <time>2022-12-25T15:46:30Z</time>
      </trkpt>
      <trkpt lat="48.61402" lon="2.10575">
        <ele>103</ele>
        <time>2022-12-25T15:46:33Z</time>
      </trkpt>
      <trkpt lat="48.61404" lon="2.10578">
        <ele>103</ele>
        <time>2022-12-25T15:46:34Z</time>
      </trkpt>
      <trkpt lat="48.61406" lon="2.1058">
        <ele>103</ele>
        <time>2022-12-25T15:46:36Z</time>
      </trkpt>
      <trkpt lat="48.61408" lon="2.10583">
        <ele>103</ele>
        <time>2022-12-25T15:46:38Z</time>
      </trkpt>
      <trkpt lat="48.6141" lon="2.10587">
        <ele>103</ele>
        <time>2022-12-25T15:46:40Z</time>
      </trkpt>
      <trkpt lat="48.61412" lon="2.1059">
        <ele>103</ele>
        <time>2022-12-25T15:46:42Z</time>
      </trkpt>
      <trkpt lat="48.61413" lon="2.10593">
        <ele>103</ele>
        <time>2022-12-25T15:46:44Z</time>
      </trkpt>
      <trkpt lat="48.61415" lon="2.10596">
        <ele>103</ele>
        <time>2022-12-25T15:46:46Z</time>
      </trkpt>
      <trkpt lat="48.61417" lon="2.10599">
        <ele>103</ele>
        <time>2022-12-25T15:46:48Z</time>
      </trkpt>
      <trkpt lat="48.61419" lon="2.10602">
        <ele>103</ele>
        <time>2022-12-25T15:46:50Z</time>
      </trkpt>
      <trkpt lat="48.61421" lon="2.10605">
        <ele>103</ele>
        <time>2022-12-25T15:46:52Z</time>
      </trkpt>
      <trkpt lat="48.61423" lon="2.10608">
        <ele>103</ele>
        <time>2022-12-25T15:46:54Z</time>
      </trkpt>
      <trkpt lat="48.61425" lon="2.10611">
        <ele>103</ele>
        <time>2022-12-25T15:46:56Z</time>
      </trkpt>
      <trkpt lat="48.61427" lon="2.10614">
        <ele>103</ele>
        <time>2022-12-25T15:46:58Z</time>
      </trkpt>
      <trkpt lat="48.61429" lon="2.10618">
        <ele>103</ele>
        <time>2022-12-25T15:47:00Z</time>
      </trkpt>
      <trkpt lat="48.6143" lon="2.10621">
        <ele>103</ele>
        <time>2022-12-25T15:47:02Z</time>
      </trkpt>
      <trkpt lat="48.61432" lon="2.10623">
        <ele>103</ele>
        <time>2022-12-25T15:47:04Z</time>
      </trkpt>
      <trkpt lat="48.61434" lon="2.10626">
        <ele>103</ele>
        <time>2022-12-25T15:47:06Z</time>
      </trkpt>
      <trkpt lat="48.61436" lon="2.10629">
        <ele>103</ele>
        <time>2022-12-25T15:47:08Z</time>
      </trkpt>
      <trkpt lat="48.61438" lon="2.10632">
        <ele>102</ele>
        <time>2022-12-25T15:47:11Z</time>
      </trkpt>
      <trkpt lat="48.6144" lon="2.10635">
        <ele>102</ele>
        <time>2022-12-25T15:47:12Z</time>
      </trkpt>
      <trkpt lat="48.61442" lon="2.10638">
        <ele>102</ele>
        <time>2022-12-25T15:47:14Z</time>
      </trkpt>
      <trkpt lat="48.61444" lon="2.10641">
        <ele>102</ele>
        <time>2022-12-25T15:47:16Z</time>
      </trkpt>
      <trkpt lat="48.61445" lon="2.10644">
        <ele>102</ele>
        <time>2022-12-25T15:47:18Z</time>
      </trkpt>
      <trkpt lat="48.61447" lon="2.10647">
        <ele>102</ele>
        <time>2022-12-25T15:47:20Z</time>
      </trkpt>
      <trkpt lat="48.61449" lon="2.1065">
        <ele>102</ele>
        <time>2022-12-25T15:47:22Z</time>
      </trkpt>
      <trkpt lat="48.61451" lon="2.10653">
        <ele>102</ele>
        <time>2022-12-25T15:47:24Z</time>
      </trkpt>
      <trkpt lat="48.61453" lon="2.10656">
        <ele>102</ele>
        <time>2022-12-25T15:47:26Z</time>
      </trkpt>
      <trkpt lat="48.61455" lon="2.10659">
        <ele>102</ele>
        <time>2022-12-25T15:47:28Z</time>
      </trkpt>
      <trkpt lat="48.61457" lon="2.10661">
        <ele>102</ele>
        <time>2022-12-25T15:47:30Z</time>
      </trkpt>
      <trkpt lat="48.61459" lon="2.10664">
        <ele>102</ele>
        <time>2022-12-25T15:47:32Z</time>
      </trkpt>
      <trkpt lat="48.61461" lon="2.10667">
        <ele>102</ele>
        <time>2022-12-25T15:47:34Z</time>
      </trkpt>
      <trkpt lat="48.61463" lon="2.1067">
        <ele>101</ele>
        <time>2022-12-25T15:47:36Z</time>
      </trkpt>
      <trkpt lat="48.61465" lon="2.10673">
        <ele>101</ele>
        <time>2022-12-25T15:47:38Z</time>
      </trkpt>
      <trkpt lat="48.61467" lon="2.10676">
        <ele>101</ele>
        <time>2022-12-25T15:47:40Z</time>
      </trkpt>
      <trkpt lat="48.61469" lon="2.10679">
        <ele>101</ele>
        <time>2022-12-25T15:47:42Z</time>
      </trkpt>
      <trkpt lat="48.61471" lon="2.10682">
        <ele>101</ele>
        <time>2022-12-25T15:47:44Z</time>
      </trkpt>
      <trkpt lat="48.61473" lon="2.10684">
        <ele>101</ele>
        <time>2022-12-25T15:47:46Z</time>
      </trkpt>
      <trkpt lat="48.61475" lon="2.10687">
        <ele>101</ele>
        <time>2022-12-25T15:47:49Z</time>
      </trkpt>
      <trkpt lat="48.61477" lon="2.10689">
        <ele>101</ele>
        <time>2022-12-25T15:47:50Z</time>
      </trkpt>
      <trkpt lat="48.61479" lon="2.10691">
        <ele>101</ele>
        <time>2022-12-25T15:47:52Z</time>
      </trkpt>
      <trkpt lat="48.61482" lon="2.10694">
        <ele>101</ele>
        <time>2022-12-25T15:47:54Z</time>
      </trkpt>
      <trkpt lat="48.61484" lon="2.10696">
        <ele>101</ele>
        <time>2022-12-25T15:47:56Z</time>
      </trkpt>
      <trkpt lat="48.61486" lon="2.10698">
        <ele>101</ele>
        <time>2022-12-25T15:47:58Z</time>
      </trkpt>
      <trkpt lat="48.61488" lon="2.107">
        <ele>101</ele>
        <time>2022-12-25T15:48:00Z</time>
      </trkpt>
      <trkpt lat="48.61491" lon="2.10702">
        <ele>101</ele>
        <time>2022-12-25T15:48:02Z</time>
      </trkpt>
      <trkpt lat="48.61493" lon="2.10703">
        <ele>101</ele>
        <time>2022-12-25T15:48:04Z</time>
      </trkpt>
      <trkpt lat="48.61496" lon="2.10705">
        <ele>101</ele>
        <time>2022-12-25T15:48:06Z</time>
      </trkpt>
      <trkpt lat="48.61498" lon="2.10706">
        <ele>101</ele>
        <time>2022-12-25T15:48:08Z</time>
      </trkpt>
      <trkpt lat="48.61501" lon="2.10708">
        <ele>101</ele>
        <time>2022-12-25T15:48:10Z</time>
      </trkpt>
      <trkpt lat="48.61503" lon="2.10709">
        <ele>101</ele>
        <time>2022-12-25T15:48:12Z</time>
      </trkpt>
      <trkpt lat="48.61505" lon="2.10711">
        <ele>101</ele>
        <time>2022-12-25T15:48:14Z</time>
      </trkpt>
      <trkpt lat="48.61507" lon="2.10712">
        <ele>101</ele>
        <time>2022-12-25T15:48:16Z</time>
      </trkpt>
      <trkpt lat="48.61509" lon="2.10715">
        <ele>101</ele>
        <time>2022-12-25T15:48:18Z</time>
      </trkpt>
      <trkpt lat="48.61509" lon="2.10719">
        <ele>101</ele>
        <time>2022-12-25T15:48:20Z</time>
      </trkpt>
      <trkpt lat="48.61509" lon="2.10724">
        <ele>101</ele>
        <time>2022-12-25T15:48:22Z</time>
      </trkpt>
      <trkpt lat="48.61508" lon="2.10728">
        <ele>100</ele>
        <time>2022-12-25T15:48:24Z</time>
      </trkpt>
      <trkpt lat="48.61507" lon="2.10732">
        <ele>100</ele>
        <time>2022-12-25T15:48:27Z</time>
      </trkpt>
      <trkpt lat="48.61505" lon="2.10736">
        <ele>100</ele>
        <time>2022-12-25T15:48:29Z</time>
      </trkpt>
      <trkpt lat="48.61504" lon="2.1074">
        <ele>100</ele>
        <time>2022-12-25T15:48:30Z</time>
      </trkpt>
      <trkpt lat="48.61503" lon="2.10744">
        <ele>100</ele>
        <time>2022-12-25T15:48:32Z</time>
      </trkpt>
      <trkpt lat="48.61502" lon="2.10749">
        <ele>100</ele>
        <time>2022-12-25T15:48:34Z</time>
      </trkpt>
      <trkpt lat="48.61501" lon="2.10753">
        <ele>100</ele>
        <time>2022-12-25T15:48:36Z</time>
      </trkpt>
      <trkpt lat="48.615" lon="2.10757">
        <ele>100</ele>
        <time>2022-12-25T15:48:38Z</time>
      </trkpt>
      <trkpt lat="48.61499" lon="2.10761">
        <ele>100</ele>
        <time>2022-12-25T15:48:40Z</time>
      </trkpt>
      <trkpt lat="48.61498" lon="2.10766">
        <ele>100</ele>
        <time>2022-12-25T15:48:42Z</time>
      </trkpt>
      <trkpt lat="48.61497" lon="2.1077">
        <ele>100</ele>
        <time>2022-12-25T15:48:44Z</time>
      </trkpt>
      <trkpt lat="48.61496" lon="2.10773">
        <ele>100</ele>
        <time>2022-12-25T15:48:46Z</time>
      </trkpt>
      <trkpt lat="48.61494" lon="2.10777">
        <ele>100</ele>
        <time>2022-12-25T15:48:48Z</time>
      </trkpt>
      <trkpt lat="48.61493" lon="2.10781">
        <ele>100</ele>
        <time>2022-12-25T15:48:50Z</time>
      </trkpt>
      <trkpt lat="48.61492" lon="2.10784">
        <ele>100</ele>
        <time>2022-12-25T15:48:52Z</time>
      </trkpt>
      <trkpt lat="48.61491" lon="2.10788">
        <ele>100</ele>
        <time>2022-12-25T15:48:54Z</time>
      </trkpt>
      <trkpt lat="48.61489" lon="2.10791">
        <ele>100</ele>
        <time>2022-12-25T15:48:56Z</time>
      </trkpt>
      <trkpt lat="48.61488" lon="2.10793">
        <ele>100</ele>
        <time>2022-12-25T15:48:58Z</time>
      </trkpt>
      <trkpt lat="48.61485" lon="2.10793">
        <ele>100</ele>
        <time>2022-12-25T15:49:07Z</time>
      </trkpt>
      <trkpt lat="48.61486" lon="2.1079">
        <ele>99</ele>
        <time>2022-12-25T15:49:22Z</time>
      </trkpt>
      <trkpt lat="48.61487" lon="2.10787">
        <ele>99</ele>
        <time>2022-12-25T15:49:29Z</time>
      </trkpt>
      <trkpt lat="48.61488" lon="2.10785">
        <ele>99</ele>
        <time>2022-12-25T15:49:50Z</time>
      </trkpt>
      <trkpt lat="48.6149" lon="2.10783">
        <ele>99</ele>
        <time>2022-12-25T15:49:55Z</time>
      </trkpt>
      <trkpt lat="48.61489" lon="2.10781">
        <ele>99</ele>
        <time>2022-12-25T15:50:19Z</time>
      </trkpt>
      <trkpt lat="48.61489" lon="2.10784">
        <ele>99</ele>
        <time>2022-12-25T15:50:33Z</time>
      </trkpt>
      <trkpt lat="48.61487" lon="2.10785">
        <ele>99</ele>
        <time>2022-12-25T15:50:36Z</time>
      </trkpt>
      <trkpt lat="48.61485" lon="2.10787">
        <ele>100</ele>
        <time>2022-12-25T15:50:46Z</time>
      </trkpt>
      <trkpt lat="48.61487" lon="2.10785">
        <ele>101</ele>
        <time>2022-12-25T15:51:18Z</time>
      </trkpt>
      <trkpt lat="48.61486" lon="2.10788">
        <ele>101</ele>
        <time>2022-12-25T15:51:27Z</time>
      </trkpt>
      <trkpt lat="48.61486" lon="2.10791">
        <ele>101</ele>
        <time>2022-12-25T15:52:25Z</time>
      </trkpt>
      <trkpt lat="48.61485" lon="2.10788">
        <ele>101</ele>
        <time>2022-12-25T15:52:34Z</time>
      </trkpt>
      <trkpt lat="48.61486" lon="2.10784">
        <ele>101</ele>
        <time>2022-12-25T15:52:43Z</time>
      </trkpt>
      <trkpt lat="48.61485" lon="2.10787">
        <ele>100</ele>
        <time>2022-12-25T15:53:09Z</time>
      </trkpt>
      <trkpt lat="48.61485" lon="2.1079">
        <ele>100</ele>
        <time>2022-12-25T15:53:14Z</time>
      </trkpt>
      <trkpt lat="48.61485" lon="2.10787">
        <ele>100</ele>
        <time>2022-12-25T15:53:35Z</time>
      </trkpt>
      <trkpt lat="48.61486" lon="2.10784">
        <ele>100</ele>
        <time>2022-12-25T15:53:38Z</time>
      </trkpt>
      <trkpt lat="48.61487" lon="2.10784">
        <ele>101</ele>
        <time>2022-12-25T15:53:57Z</time>
      </trkpt>
      <trkpt lat="48.61485" lon="2.10784">
        <ele>101</ele>
        <time>2022-12-25T15:54:24Z</time>
      </trkpt>
      <trkpt lat="48.61485" lon="2.10788">
        <ele>101</ele>
        <time>2022-12-25T15:54:36Z</time>
      </trkpt>
      <trkpt lat="48.61485" lon="2.10791">
        <ele>101</ele>
        <time>2022-12-25T15:54:40Z</time>
      </trkpt>
      <trkpt lat="48.61487" lon="2.10791">
        <ele>101</ele>
        <time>2022-12-25T15:54:54Z</time>
      </trkpt>
      <trkpt lat="48.61487" lon="2.10789">
        <ele>101</ele>
        <time>2022-12-25T15:55:18Z</time>
      </trkpt>
    </trkseg>
  </trk>
</gpx>